<?xml version="1.0" encoding="UTF-8" standalone="no" ?>
<gpx xmlns="http://www.topografix.com/GPX/1/1" xmlns:xsi="http://www.w3.org/2001/XMLSchema-instance" xsi:schemaLocation="http://www.topografix.com/GPX/1/1 http://www.topografix.com/GPX/1/1/gpx.xsd" version="1.1" creator="VisuGPX - https://www.visugpx.com">
  <metadata>
    <name>Pornichet 20/05/2021</name>
    <desc><![CDATA[Sortie VTT du jeudi 20 mai 2021]]></desc>
  </metadata>
  <trk>
    <name><![CDATA[Pornichet Cyclisme]]></name>
    <trkseg>
      <trkpt lat="47.26407" lon="-2.31559">
        <ele>9.6</ele>
        <time>2021-05-20T07:14:33.000Z</time>
      </trkpt>
      <trkpt lat="47.26406" lon="-2.31563">
        <ele>9.6</ele>
        <time>2021-05-20T07:14:34.000Z</time>
      </trkpt>
      <trkpt lat="47.26407" lon="-2.31576">
        <ele>9.7</ele>
        <time>2021-05-20T07:14:37.000Z</time>
      </trkpt>
      <trkpt lat="47.26407" lon="-2.31581">
        <ele>2</ele>
        <time>2021-05-20T07:14:38.000Z</time>
      </trkpt>
      <trkpt lat="47.26408" lon="-2.31586">
        <ele>6.4000000953674</ele>
        <time>2021-05-20T07:14:39.000Z</time>
      </trkpt>
      <trkpt lat="47.26408" lon="-2.31591">
        <ele>8.6000003814697</ele>
        <time>2021-05-20T07:14:40.000Z</time>
      </trkpt>
      <trkpt lat="47.26407" lon="-2.31605">
        <ele>8.6000003814697</ele>
        <time>2021-05-20T07:14:43.000Z</time>
      </trkpt>
      <trkpt lat="47.26408" lon="-2.31647">
        <ele>8.6000003814697</ele>
        <time>2021-05-20T07:14:51.000Z</time>
      </trkpt>
      <trkpt lat="47.26408" lon="-2.31661">
        <ele>8.6000003814697</ele>
        <time>2021-05-20T07:14:54.000Z</time>
      </trkpt>
      <trkpt lat="47.26406" lon="-2.31664">
        <ele>8.6000003814697</ele>
        <time>2021-05-20T07:14:55.000Z</time>
      </trkpt>
      <trkpt lat="47.26398" lon="-2.3167">
        <ele>8.6000003814697</ele>
        <time>2021-05-20T07:14:58.000Z</time>
      </trkpt>
      <trkpt lat="47.2639" lon="-2.31675">
        <ele>8.6000003814697</ele>
        <time>2021-05-20T07:14:59.000Z</time>
      </trkpt>
      <trkpt lat="47.26386" lon="-2.31678">
        <ele>8.6000003814697</ele>
        <time>2021-05-20T07:15:01.000Z</time>
      </trkpt>
      <trkpt lat="47.26365" lon="-2.31689">
        <ele>8.6000003814697</ele>
        <time>2021-05-20T07:15:05.000Z</time>
      </trkpt>
      <trkpt lat="47.2636" lon="-2.31691">
        <ele>6.4000000953674</ele>
        <time>2021-05-20T07:15:06.000Z</time>
      </trkpt>
      <trkpt lat="47.26355" lon="-2.31694">
        <ele>4.1999998092651</ele>
        <time>2021-05-20T07:15:07.000Z</time>
      </trkpt>
      <trkpt lat="47.26349" lon="-2.31696">
        <ele>2</ele>
        <time>2021-05-20T07:15:08.000Z</time>
      </trkpt>
      <trkpt lat="47.26343" lon="-2.31699">
        <ele>-0.20000000298023</ele>
        <time>2021-05-20T07:15:09.000Z</time>
      </trkpt>
      <trkpt lat="47.26338" lon="-2.31701">
        <ele>-2.4000000953674</ele>
        <time>2021-05-20T07:15:10.000Z</time>
      </trkpt>
      <trkpt lat="47.26333" lon="-2.31704">
        <ele>-2.4000000953674</ele>
        <time>2021-05-20T07:15:11.000Z</time>
      </trkpt>
      <trkpt lat="47.26308" lon="-2.31717">
        <ele>-2.7999999523163</ele>
        <time>2021-05-20T07:15:17.000Z</time>
      </trkpt>
      <trkpt lat="47.26306" lon="-2.31718">
        <ele>-3.2000000476837</ele>
        <time>2021-05-20T07:15:18.000Z</time>
      </trkpt>
      <trkpt lat="47.26305" lon="-2.31718">
        <ele>-3.5999999046326</ele>
        <time>2021-05-20T07:15:19.000Z</time>
      </trkpt>
      <trkpt lat="47.26305" lon="-2.31718">
        <ele>-4</ele>
        <time>2021-05-20T07:15:20.000Z</time>
      </trkpt>
      <trkpt lat="47.26305" lon="-2.31718">
        <ele>-4.5999999046326</ele>
        <time>2021-05-20T07:15:21.000Z</time>
      </trkpt>
      <trkpt lat="47.26305" lon="-2.31718">
        <ele>-4.5999999046326</ele>
        <time>2021-05-20T07:15:24.000Z</time>
      </trkpt>
      <trkpt lat="47.26305" lon="-2.31718">
        <ele>-4.5999999046326</ele>
        <time>2021-05-20T07:16:26.000Z</time>
      </trkpt>
      <trkpt lat="47.26304" lon="-2.3172">
        <ele>-4.5999999046326</ele>
        <time>2021-05-20T07:16:27.000Z</time>
      </trkpt>
      <trkpt lat="47.26303" lon="-2.31716">
        <ele>-4.5999999046326</ele>
        <time>2021-05-20T07:16:31.000Z</time>
      </trkpt>
      <trkpt lat="47.26304" lon="-2.31715">
        <ele>-4.5999999046326</ele>
        <time>2021-05-20T07:16:34.000Z</time>
      </trkpt>
      <trkpt lat="47.26306" lon="-2.31715">
        <ele>-4.5999999046326</ele>
        <time>2021-05-20T07:16:36.000Z</time>
      </trkpt>
      <trkpt lat="47.26308" lon="-2.31715">
        <ele>-4.5999999046326</ele>
        <time>2021-05-20T07:16:37.000Z</time>
      </trkpt>
      <trkpt lat="47.2631" lon="-2.31716">
        <ele>-4.5999999046326</ele>
        <time>2021-05-20T07:16:40.000Z</time>
      </trkpt>
      <trkpt lat="47.26309" lon="-2.31715">
        <ele>-4.5999999046326</ele>
        <time>2021-05-20T07:17:03.000Z</time>
      </trkpt>
      <trkpt lat="47.26308" lon="-2.31716">
        <ele>-4.5999999046326</ele>
        <time>2021-05-20T07:17:06.000Z</time>
      </trkpt>
      <trkpt lat="47.26306" lon="-2.31716">
        <ele>-4.5999999046326</ele>
        <time>2021-05-20T07:17:24.000Z</time>
      </trkpt>
      <trkpt lat="47.26301" lon="-2.31727">
        <ele>-4.5999999046326</ele>
        <time>2021-05-20T07:17:29.000Z</time>
      </trkpt>
      <trkpt lat="47.26305" lon="-2.31741">
        <ele>-4.5999999046326</ele>
        <time>2021-05-20T07:17:33.000Z</time>
      </trkpt>
      <trkpt lat="47.26306" lon="-2.31745">
        <ele>-4.5999999046326</ele>
        <time>2021-05-20T07:17:34.000Z</time>
      </trkpt>
      <trkpt lat="47.26309" lon="-2.31774">
        <ele>-4.5999999046326</ele>
        <time>2021-05-20T07:17:41.000Z</time>
      </trkpt>
      <trkpt lat="47.2631" lon="-2.31809">
        <ele>-4.5999999046326</ele>
        <time>2021-05-20T07:17:48.000Z</time>
      </trkpt>
      <trkpt lat="47.26307" lon="-2.31839">
        <ele>-4.5999999046326</ele>
        <time>2021-05-20T07:17:53.000Z</time>
      </trkpt>
      <trkpt lat="47.26303" lon="-2.31874">
        <ele>-4.5999999046326</ele>
        <time>2021-05-20T07:17:59.000Z</time>
      </trkpt>
      <trkpt lat="47.26295" lon="-2.31888">
        <ele>-4.5999999046326</ele>
        <time>2021-05-20T07:18:03.000Z</time>
      </trkpt>
      <trkpt lat="47.26276" lon="-2.31911">
        <ele>-4.5999999046326</ele>
        <time>2021-05-20T07:18:09.000Z</time>
      </trkpt>
      <trkpt lat="47.26265" lon="-2.3193">
        <ele>-4.5999999046326</ele>
        <time>2021-05-20T07:18:14.000Z</time>
      </trkpt>
      <trkpt lat="47.26253" lon="-2.31961">
        <ele>-4.5999999046326</ele>
        <time>2021-05-20T07:18:20.000Z</time>
      </trkpt>
      <trkpt lat="47.26247" lon="-2.31966">
        <ele>-4.5999999046326</ele>
        <time>2021-05-20T07:18:22.000Z</time>
      </trkpt>
      <trkpt lat="47.26243" lon="-2.31966">
        <ele>-4.5999999046326</ele>
        <time>2021-05-20T07:18:23.000Z</time>
      </trkpt>
      <trkpt lat="47.26227" lon="-2.31977">
        <ele>-4.5999999046326</ele>
        <time>2021-05-20T07:18:28.000Z</time>
      </trkpt>
      <trkpt lat="47.26213" lon="-2.31992">
        <ele>-4.5999999046326</ele>
        <time>2021-05-20T07:18:33.000Z</time>
      </trkpt>
      <trkpt lat="47.26202" lon="-2.32009">
        <ele>-4.5999999046326</ele>
        <time>2021-05-20T07:18:37.000Z</time>
      </trkpt>
      <trkpt lat="47.26198" lon="-2.3202">
        <ele>-4.5999999046326</ele>
        <time>2021-05-20T07:18:40.000Z</time>
      </trkpt>
      <trkpt lat="47.26197" lon="-2.32019">
        <ele>-4.5999999046326</ele>
        <time>2021-05-20T07:18:41.000Z</time>
      </trkpt>
      <trkpt lat="47.26186" lon="-2.32017">
        <ele>-4.5999999046326</ele>
        <time>2021-05-20T07:18:47.000Z</time>
      </trkpt>
      <trkpt lat="47.26179" lon="-2.32023">
        <ele>-4.5999999046326</ele>
        <time>2021-05-20T07:18:49.000Z</time>
      </trkpt>
      <trkpt lat="47.26171" lon="-2.32027">
        <ele>-4.5999999046326</ele>
        <time>2021-05-20T07:18:51.000Z</time>
      </trkpt>
      <trkpt lat="47.26168" lon="-2.32031">
        <ele>-4.5999999046326</ele>
        <time>2021-05-20T07:18:52.000Z</time>
      </trkpt>
      <trkpt lat="47.26163" lon="-2.32041">
        <ele>-4.5999999046326</ele>
        <time>2021-05-20T07:18:54.000Z</time>
      </trkpt>
      <trkpt lat="47.26159" lon="-2.32054">
        <ele>-4.5999999046326</ele>
        <time>2021-05-20T07:18:56.000Z</time>
      </trkpt>
      <trkpt lat="47.26152" lon="-2.32073">
        <ele>-4.5999999046326</ele>
        <time>2021-05-20T07:18:59.000Z</time>
      </trkpt>
      <trkpt lat="47.26134" lon="-2.32127">
        <ele>-4.5999999046326</ele>
        <time>2021-05-20T07:19:07.000Z</time>
      </trkpt>
      <trkpt lat="47.26121" lon="-2.32168">
        <ele>-4.5999999046326</ele>
        <time>2021-05-20T07:19:13.000Z</time>
      </trkpt>
      <trkpt lat="47.26106" lon="-2.32204">
        <ele>-4.5999999046326</ele>
        <time>2021-05-20T07:19:19.000Z</time>
      </trkpt>
      <trkpt lat="47.26097" lon="-2.32221">
        <ele>-4.5999999046326</ele>
        <time>2021-05-20T07:19:22.000Z</time>
      </trkpt>
      <trkpt lat="47.26085" lon="-2.32236">
        <ele>-4.5999999046326</ele>
        <time>2021-05-20T07:19:25.000Z</time>
      </trkpt>
      <trkpt lat="47.2606" lon="-2.32269">
        <ele>-4.5999999046326</ele>
        <time>2021-05-20T07:19:32.000Z</time>
      </trkpt>
      <trkpt lat="47.26053" lon="-2.32277">
        <ele>-4.5999999046326</ele>
        <time>2021-05-20T07:19:34.000Z</time>
      </trkpt>
      <trkpt lat="47.26026" lon="-2.32309">
        <ele>-4.5999999046326</ele>
        <time>2021-05-20T07:19:41.000Z</time>
      </trkpt>
      <trkpt lat="47.26015" lon="-2.32323">
        <ele>-4.5999999046326</ele>
        <time>2021-05-20T07:19:44.000Z</time>
      </trkpt>
      <trkpt lat="47.26004" lon="-2.32337">
        <ele>-4.5999999046326</ele>
        <time>2021-05-20T07:19:47.000Z</time>
      </trkpt>
      <trkpt lat="47.25975" lon="-2.3237">
        <ele>-4.5999999046326</ele>
        <time>2021-05-20T07:19:54.000Z</time>
      </trkpt>
      <trkpt lat="47.2595" lon="-2.32403">
        <ele>-4.5999999046326</ele>
        <time>2021-05-20T07:20:01.000Z</time>
      </trkpt>
      <trkpt lat="47.25927" lon="-2.32436">
        <ele>-4.5999999046326</ele>
        <time>2021-05-20T07:20:08.000Z</time>
      </trkpt>
      <trkpt lat="47.25913" lon="-2.32461">
        <ele>-4.5999999046326</ele>
        <time>2021-05-20T07:20:14.000Z</time>
      </trkpt>
      <trkpt lat="47.25912" lon="-2.32465">
        <ele>-4.5999999046326</ele>
        <time>2021-05-20T07:20:15.000Z</time>
      </trkpt>
      <trkpt lat="47.25915" lon="-2.32471">
        <ele>-4.5999999046326</ele>
        <time>2021-05-20T07:20:17.000Z</time>
      </trkpt>
      <trkpt lat="47.25927" lon="-2.32486">
        <ele>-4.5999999046326</ele>
        <time>2021-05-20T07:20:21.000Z</time>
      </trkpt>
      <trkpt lat="47.25936" lon="-2.32506">
        <ele>-4.5999999046326</ele>
        <time>2021-05-20T07:20:24.000Z</time>
      </trkpt>
      <trkpt lat="47.25938" lon="-2.32512">
        <ele>-4.5999999046326</ele>
        <time>2021-05-20T07:20:25.000Z</time>
      </trkpt>
      <trkpt lat="47.2594" lon="-2.3252">
        <ele>-4.5999999046326</ele>
        <time>2021-05-20T07:20:26.000Z</time>
      </trkpt>
      <trkpt lat="47.25949" lon="-2.32554">
        <ele>-4.5999999046326</ele>
        <time>2021-05-20T07:20:31.000Z</time>
      </trkpt>
      <trkpt lat="47.25963" lon="-2.32602">
        <ele>-4.5999999046326</ele>
        <time>2021-05-20T07:20:38.000Z</time>
      </trkpt>
      <trkpt lat="47.25967" lon="-2.3263">
        <ele>-4.5999999046326</ele>
        <time>2021-05-20T07:20:42.000Z</time>
      </trkpt>
      <trkpt lat="47.25967" lon="-2.32645">
        <ele>-4.5999999046326</ele>
        <time>2021-05-20T07:20:44.000Z</time>
      </trkpt>
      <trkpt lat="47.2597" lon="-2.32658">
        <ele>-4.5999999046326</ele>
        <time>2021-05-20T07:20:47.000Z</time>
      </trkpt>
      <trkpt lat="47.25972" lon="-2.32657">
        <ele>-4.5999999046326</ele>
        <time>2021-05-20T07:20:48.000Z</time>
      </trkpt>
      <trkpt lat="47.2599" lon="-2.32658">
        <ele>-4.5999999046326</ele>
        <time>2021-05-20T07:20:52.000Z</time>
      </trkpt>
      <trkpt lat="47.25994" lon="-2.32658">
        <ele>-4.5999999046326</ele>
        <time>2021-05-20T07:20:53.000Z</time>
      </trkpt>
      <trkpt lat="47.26014" lon="-2.32654">
        <ele>-4.5999999046326</ele>
        <time>2021-05-20T07:20:57.000Z</time>
      </trkpt>
      <trkpt lat="47.26049" lon="-2.32649">
        <ele>-4.5999999046326</ele>
        <time>2021-05-20T07:21:04.000Z</time>
      </trkpt>
      <trkpt lat="47.26087" lon="-2.32641">
        <ele>-4.5999999046326</ele>
        <time>2021-05-20T07:21:12.000Z</time>
      </trkpt>
      <trkpt lat="47.26126" lon="-2.32639">
        <ele>-4.5999999046326</ele>
        <time>2021-05-20T07:21:20.000Z</time>
      </trkpt>
      <trkpt lat="47.2614" lon="-2.32642">
        <ele>-4</ele>
        <time>2021-05-20T07:21:23.000Z</time>
      </trkpt>
      <trkpt lat="47.26145" lon="-2.32643">
        <ele>-3.5999999046326</ele>
        <time>2021-05-20T07:21:24.000Z</time>
      </trkpt>
      <trkpt lat="47.2615" lon="-2.32645">
        <ele>-3.2000000476837</ele>
        <time>2021-05-20T07:21:25.000Z</time>
      </trkpt>
      <trkpt lat="47.26154" lon="-2.32647">
        <ele>-2.7999999523163</ele>
        <time>2021-05-20T07:21:26.000Z</time>
      </trkpt>
      <trkpt lat="47.26159" lon="-2.32649">
        <ele>-2.4000000953674</ele>
        <time>2021-05-20T07:21:27.000Z</time>
      </trkpt>
      <trkpt lat="47.26189" lon="-2.3267">
        <ele>-2.4000000953674</ele>
        <time>2021-05-20T07:21:33.000Z</time>
      </trkpt>
      <trkpt lat="47.26219" lon="-2.32707">
        <ele>-2.4000000953674</ele>
        <time>2021-05-20T07:21:40.000Z</time>
      </trkpt>
      <trkpt lat="47.26255" lon="-2.32763">
        <ele>-2.4000000953674</ele>
        <time>2021-05-20T07:21:48.000Z</time>
      </trkpt>
      <trkpt lat="47.26281" lon="-2.3282">
        <ele>-2.4000000953674</ele>
        <time>2021-05-20T07:21:55.000Z</time>
      </trkpt>
      <trkpt lat="47.26294" lon="-2.32853">
        <ele>-2.4000000953674</ele>
        <time>2021-05-20T07:21:59.000Z</time>
      </trkpt>
      <trkpt lat="47.26303" lon="-2.32863">
        <ele>-2.4000000953674</ele>
        <time>2021-05-20T07:22:01.000Z</time>
      </trkpt>
      <trkpt lat="47.26309" lon="-2.32865">
        <ele>-2.7999999523163</ele>
        <time>2021-05-20T07:22:02.000Z</time>
      </trkpt>
      <trkpt lat="47.26315" lon="-2.32868">
        <ele>-3.4000000953674</ele>
        <time>2021-05-20T07:22:03.000Z</time>
      </trkpt>
      <trkpt lat="47.2632" lon="-2.32874">
        <ele>-3.7999999523163</ele>
        <time>2021-05-20T07:22:04.000Z</time>
      </trkpt>
      <trkpt lat="47.26324" lon="-2.32882">
        <ele>-4.5999999046326</ele>
        <time>2021-05-20T07:22:05.000Z</time>
      </trkpt>
      <trkpt lat="47.26329" lon="-2.32898">
        <ele>-4.5999999046326</ele>
        <time>2021-05-20T07:22:07.000Z</time>
      </trkpt>
      <trkpt lat="47.26331" lon="-2.32906">
        <ele>-4.5999999046326</ele>
        <time>2021-05-20T07:22:08.000Z</time>
      </trkpt>
      <trkpt lat="47.26352" lon="-2.32969">
        <ele>-4.5999999046326</ele>
        <time>2021-05-20T07:22:16.000Z</time>
      </trkpt>
      <trkpt lat="47.26367" lon="-2.32995">
        <ele>-4.5999999046326</ele>
        <time>2021-05-20T07:22:20.000Z</time>
      </trkpt>
      <trkpt lat="47.2637" lon="-2.33027">
        <ele>-4.5999999046326</ele>
        <time>2021-05-20T07:22:24.000Z</time>
      </trkpt>
      <trkpt lat="47.2637" lon="-2.33036">
        <ele>-4.5999999046326</ele>
        <time>2021-05-20T07:22:25.000Z</time>
      </trkpt>
      <trkpt lat="47.26372" lon="-2.33089">
        <ele>-4.5999999046326</ele>
        <time>2021-05-20T07:22:32.000Z</time>
      </trkpt>
      <trkpt lat="47.26372" lon="-2.3312">
        <ele>-4.5999999046326</ele>
        <time>2021-05-20T07:22:36.000Z</time>
      </trkpt>
      <trkpt lat="47.26372" lon="-2.33136">
        <ele>-4.5999999046326</ele>
        <time>2021-05-20T07:22:38.000Z</time>
      </trkpt>
      <trkpt lat="47.26374" lon="-2.33199">
        <ele>-4.5999999046326</ele>
        <time>2021-05-20T07:22:46.000Z</time>
      </trkpt>
      <trkpt lat="47.26378" lon="-2.33253">
        <ele>-4.5999999046326</ele>
        <time>2021-05-20T07:22:53.000Z</time>
      </trkpt>
      <trkpt lat="47.26389" lon="-2.33269">
        <ele>-4.5999999046326</ele>
        <time>2021-05-20T07:22:56.000Z</time>
      </trkpt>
      <trkpt lat="47.26405" lon="-2.33274">
        <ele>-4.5999999046326</ele>
        <time>2021-05-20T07:22:59.000Z</time>
      </trkpt>
      <trkpt lat="47.26445" lon="-2.33278">
        <ele>-4.5999999046326</ele>
        <time>2021-05-20T07:23:06.000Z</time>
      </trkpt>
      <trkpt lat="47.26462" lon="-2.33278">
        <ele>-4.5999999046326</ele>
        <time>2021-05-20T07:23:09.000Z</time>
      </trkpt>
      <trkpt lat="47.26483" lon="-2.33279">
        <ele>-4.5999999046326</ele>
        <time>2021-05-20T07:23:13.000Z</time>
      </trkpt>
      <trkpt lat="47.26508" lon="-2.33284">
        <ele>-4.5999999046326</ele>
        <time>2021-05-20T07:23:18.000Z</time>
      </trkpt>
      <trkpt lat="47.26522" lon="-2.333">
        <ele>-4.5999999046326</ele>
        <time>2021-05-20T07:23:22.000Z</time>
      </trkpt>
      <trkpt lat="47.26526" lon="-2.33304">
        <ele>-4.5999999046326</ele>
        <time>2021-05-20T07:23:23.000Z</time>
      </trkpt>
      <trkpt lat="47.2654" lon="-2.33298">
        <ele>-4.5999999046326</ele>
        <time>2021-05-20T07:23:26.000Z</time>
      </trkpt>
      <trkpt lat="47.2656" lon="-2.3328">
        <ele>-4.5999999046326</ele>
        <time>2021-05-20T07:23:31.000Z</time>
      </trkpt>
      <trkpt lat="47.26564" lon="-2.33275">
        <ele>-4.5999999046326</ele>
        <time>2021-05-20T07:23:32.000Z</time>
      </trkpt>
      <trkpt lat="47.26595" lon="-2.33243">
        <ele>-4.5999999046326</ele>
        <time>2021-05-20T07:23:39.000Z</time>
      </trkpt>
      <trkpt lat="47.26631" lon="-2.33205">
        <ele>-4.5999999046326</ele>
        <time>2021-05-20T07:23:47.000Z</time>
      </trkpt>
      <trkpt lat="47.26656" lon="-2.33179">
        <ele>-4.5999999046326</ele>
        <time>2021-05-20T07:23:53.000Z</time>
      </trkpt>
      <trkpt lat="47.26688" lon="-2.33147">
        <ele>-4.5999999046326</ele>
        <time>2021-05-20T07:24:00.000Z</time>
      </trkpt>
      <trkpt lat="47.26717" lon="-2.33119">
        <ele>-4.5999999046326</ele>
        <time>2021-05-20T07:24:06.000Z</time>
      </trkpt>
      <trkpt lat="47.26746" lon="-2.33089">
        <ele>-4.5999999046326</ele>
        <time>2021-05-20T07:24:13.000Z</time>
      </trkpt>
      <trkpt lat="47.26754" lon="-2.33088">
        <ele>-4.1999998092651</ele>
        <time>2021-05-20T07:24:15.000Z</time>
      </trkpt>
      <trkpt lat="47.26759" lon="-2.33092">
        <ele>-3.7999999523163</ele>
        <time>2021-05-20T07:24:16.000Z</time>
      </trkpt>
      <trkpt lat="47.26763" lon="-2.33099">
        <ele>-3.4000000953674</ele>
        <time>2021-05-20T07:24:17.000Z</time>
      </trkpt>
      <trkpt lat="47.26766" lon="-2.33105">
        <ele>-3</ele>
        <time>2021-05-20T07:24:18.000Z</time>
      </trkpt>
      <trkpt lat="47.26768" lon="-2.33112">
        <ele>-2.5999999046326</ele>
        <time>2021-05-20T07:24:19.000Z</time>
      </trkpt>
      <trkpt lat="47.26769" lon="-2.33134">
        <ele>-3</ele>
        <time>2021-05-20T07:24:22.000Z</time>
      </trkpt>
      <trkpt lat="47.26768" lon="-2.33142">
        <ele>-3.4000000953674</ele>
        <time>2021-05-20T07:24:23.000Z</time>
      </trkpt>
      <trkpt lat="47.26766" lon="-2.33149">
        <ele>-3.7999999523163</ele>
        <time>2021-05-20T07:24:24.000Z</time>
      </trkpt>
      <trkpt lat="47.26764" lon="-2.33157">
        <ele>-4.1999998092651</ele>
        <time>2021-05-20T07:24:25.000Z</time>
      </trkpt>
      <trkpt lat="47.26762" lon="-2.33165">
        <ele>-4.5999999046326</ele>
        <time>2021-05-20T07:24:26.000Z</time>
      </trkpt>
      <trkpt lat="47.26757" lon="-2.33181">
        <ele>-4.5999999046326</ele>
        <time>2021-05-20T07:24:28.000Z</time>
      </trkpt>
      <trkpt lat="47.26749" lon="-2.33204">
        <ele>-4.5999999046326</ele>
        <time>2021-05-20T07:24:31.000Z</time>
      </trkpt>
      <trkpt lat="47.26731" lon="-2.33262">
        <ele>-4.5999999046326</ele>
        <time>2021-05-20T07:24:39.000Z</time>
      </trkpt>
      <trkpt lat="47.26734" lon="-2.33294">
        <ele>-4.5999999046326</ele>
        <time>2021-05-20T07:24:43.000Z</time>
      </trkpt>
      <trkpt lat="47.26736" lon="-2.33301">
        <ele>-4.5999999046326</ele>
        <time>2021-05-20T07:24:44.000Z</time>
      </trkpt>
      <trkpt lat="47.26744" lon="-2.33326">
        <ele>-4.5999999046326</ele>
        <time>2021-05-20T07:24:47.000Z</time>
      </trkpt>
      <trkpt lat="47.26752" lon="-2.33375">
        <ele>-4.5999999046326</ele>
        <time>2021-05-20T07:24:53.000Z</time>
      </trkpt>
      <trkpt lat="47.2676" lon="-2.33434">
        <ele>-4.5999999046326</ele>
        <time>2021-05-20T07:25:00.000Z</time>
      </trkpt>
      <trkpt lat="47.26768" lon="-2.33493">
        <ele>-4.5999999046326</ele>
        <time>2021-05-20T07:25:07.000Z</time>
      </trkpt>
      <trkpt lat="47.26775" lon="-2.33534">
        <ele>-4.5999999046326</ele>
        <time>2021-05-20T07:25:12.000Z</time>
      </trkpt>
      <trkpt lat="47.26776" lon="-2.33543">
        <ele>-4.5999999046326</ele>
        <time>2021-05-20T07:25:13.000Z</time>
      </trkpt>
      <trkpt lat="47.26781" lon="-2.33593">
        <ele>-4.5999999046326</ele>
        <time>2021-05-20T07:25:19.000Z</time>
      </trkpt>
      <trkpt lat="47.26782" lon="-2.33654">
        <ele>-4.5999999046326</ele>
        <time>2021-05-20T07:25:27.000Z</time>
      </trkpt>
      <trkpt lat="47.26782" lon="-2.33688">
        <ele>-4.1999998092651</ele>
        <time>2021-05-20T07:25:32.000Z</time>
      </trkpt>
      <trkpt lat="47.26783" lon="-2.33694">
        <ele>-3.7999999523163</ele>
        <time>2021-05-20T07:25:33.000Z</time>
      </trkpt>
      <trkpt lat="47.26784" lon="-2.33701">
        <ele>-3.4000000953674</ele>
        <time>2021-05-20T07:25:34.000Z</time>
      </trkpt>
      <trkpt lat="47.26787" lon="-2.33705">
        <ele>-3</ele>
        <time>2021-05-20T07:25:35.000Z</time>
      </trkpt>
      <trkpt lat="47.26789" lon="-2.33709">
        <ele>-2.5999999046326</ele>
        <time>2021-05-20T07:25:36.000Z</time>
      </trkpt>
      <trkpt lat="47.26793" lon="-2.33714">
        <ele>-2.5999999046326</ele>
        <time>2021-05-20T07:25:37.000Z</time>
      </trkpt>
      <trkpt lat="47.26819" lon="-2.33747">
        <ele>-2.5999999046326</ele>
        <time>2021-05-20T07:25:44.000Z</time>
      </trkpt>
      <trkpt lat="47.26849" lon="-2.33778">
        <ele>-2.5999999046326</ele>
        <time>2021-05-20T07:25:51.000Z</time>
      </trkpt>
      <trkpt lat="47.26875" lon="-2.33788">
        <ele>-2.5999999046326</ele>
        <time>2021-05-20T07:25:56.000Z</time>
      </trkpt>
      <trkpt lat="47.26889" lon="-2.33796">
        <ele>-2.5999999046326</ele>
        <time>2021-05-20T07:25:59.000Z</time>
      </trkpt>
      <trkpt lat="47.26895" lon="-2.33807">
        <ele>-2.5999999046326</ele>
        <time>2021-05-20T07:26:01.000Z</time>
      </trkpt>
      <trkpt lat="47.26901" lon="-2.33827">
        <ele>-2.5999999046326</ele>
        <time>2021-05-20T07:26:04.000Z</time>
      </trkpt>
      <trkpt lat="47.26902" lon="-2.33834">
        <ele>-2.5999999046326</ele>
        <time>2021-05-20T07:26:05.000Z</time>
      </trkpt>
      <trkpt lat="47.26917" lon="-2.3389">
        <ele>-2.5999999046326</ele>
        <time>2021-05-20T07:26:13.000Z</time>
      </trkpt>
      <trkpt lat="47.2692" lon="-2.33904">
        <ele>-2</ele>
        <time>2021-05-20T07:26:15.000Z</time>
      </trkpt>
      <trkpt lat="47.26922" lon="-2.33911">
        <ele>-1.6000000238419</ele>
        <time>2021-05-20T07:26:16.000Z</time>
      </trkpt>
      <trkpt lat="47.26924" lon="-2.33918">
        <ele>-1.2000000476837</ele>
        <time>2021-05-20T07:26:17.000Z</time>
      </trkpt>
      <trkpt lat="47.26925" lon="-2.33925">
        <ele>-0.80000001192093</ele>
        <time>2021-05-20T07:26:18.000Z</time>
      </trkpt>
      <trkpt lat="47.26927" lon="-2.33932">
        <ele>-0.40000000596046</ele>
        <time>2021-05-20T07:26:19.000Z</time>
      </trkpt>
      <trkpt lat="47.2693" lon="-2.33945">
        <ele>-0.40000000596046</ele>
        <time>2021-05-20T07:26:21.000Z</time>
      </trkpt>
      <trkpt lat="47.26944" lon="-2.34001">
        <ele>-0.40000000596046</ele>
        <time>2021-05-20T07:26:29.000Z</time>
      </trkpt>
      <trkpt lat="47.26955" lon="-2.34052">
        <ele>-0.40000000596046</ele>
        <time>2021-05-20T07:26:36.000Z</time>
      </trkpt>
      <trkpt lat="47.26965" lon="-2.34097">
        <ele>-0.40000000596046</ele>
        <time>2021-05-20T07:26:42.000Z</time>
      </trkpt>
      <trkpt lat="47.2698" lon="-2.3416">
        <ele>-0.40000000596046</ele>
        <time>2021-05-20T07:26:51.000Z</time>
      </trkpt>
      <trkpt lat="47.26992" lon="-2.34213">
        <ele>-0.40000000596046</ele>
        <time>2021-05-20T07:26:58.000Z</time>
      </trkpt>
      <trkpt lat="47.27006" lon="-2.34272">
        <ele>-0.40000000596046</ele>
        <time>2021-05-20T07:27:06.000Z</time>
      </trkpt>
      <trkpt lat="47.2701" lon="-2.34299">
        <ele>-0.40000000596046</ele>
        <time>2021-05-20T07:27:10.000Z</time>
      </trkpt>
      <trkpt lat="47.2701" lon="-2.34311">
        <ele>-0.40000000596046</ele>
        <time>2021-05-20T07:27:12.000Z</time>
      </trkpt>
      <trkpt lat="47.27016" lon="-2.34319">
        <ele>-0.40000000596046</ele>
        <time>2021-05-20T07:27:15.000Z</time>
      </trkpt>
      <trkpt lat="47.27033" lon="-2.34322">
        <ele>-0.40000000596046</ele>
        <time>2021-05-20T07:27:20.000Z</time>
      </trkpt>
      <trkpt lat="47.27037" lon="-2.34326">
        <ele>-0.40000000596046</ele>
        <time>2021-05-20T07:27:21.000Z</time>
      </trkpt>
      <trkpt lat="47.27042" lon="-2.34339">
        <ele>-0.40000000596046</ele>
        <time>2021-05-20T07:27:23.000Z</time>
      </trkpt>
      <trkpt lat="47.27043" lon="-2.34346">
        <ele>10.3</ele>
        <time>2021-05-20T07:27:24.000Z</time>
      </trkpt>
      <trkpt lat="47.27045" lon="-2.34355">
        <ele>1</ele>
        <time>2021-05-20T07:27:25.000Z</time>
      </trkpt>
      <trkpt lat="47.27047" lon="-2.34362">
        <ele>1.3999999761581</ele>
        <time>2021-05-20T07:27:26.000Z</time>
      </trkpt>
      <trkpt lat="47.27049" lon="-2.3437">
        <ele>1.7999999523163</ele>
        <time>2021-05-20T07:27:27.000Z</time>
      </trkpt>
      <trkpt lat="47.27051" lon="-2.34378">
        <ele>1.7999999523163</ele>
        <time>2021-05-20T07:27:28.000Z</time>
      </trkpt>
      <trkpt lat="47.27064" lon="-2.34434">
        <ele>1.7999999523163</ele>
        <time>2021-05-20T07:27:35.000Z</time>
      </trkpt>
      <trkpt lat="47.27081" lon="-2.34504">
        <ele>1.7999999523163</ele>
        <time>2021-05-20T07:27:44.000Z</time>
      </trkpt>
      <trkpt lat="47.27094" lon="-2.34559">
        <ele>1.7999999523163</ele>
        <time>2021-05-20T07:27:51.000Z</time>
      </trkpt>
      <trkpt lat="47.2711" lon="-2.34632">
        <ele>1.7999999523163</ele>
        <time>2021-05-20T07:28:00.000Z</time>
      </trkpt>
      <trkpt lat="47.27126" lon="-2.34704">
        <ele>1.7999999523163</ele>
        <time>2021-05-20T07:28:08.000Z</time>
      </trkpt>
      <trkpt lat="47.27141" lon="-2.34772">
        <ele>1.7999999523163</ele>
        <time>2021-05-20T07:28:16.000Z</time>
      </trkpt>
      <trkpt lat="47.27154" lon="-2.34837">
        <ele>1.7999999523163</ele>
        <time>2021-05-20T07:28:23.000Z</time>
      </trkpt>
      <trkpt lat="47.27169" lon="-2.34896">
        <ele>1.7999999523163</ele>
        <time>2021-05-20T07:28:30.000Z</time>
      </trkpt>
      <trkpt lat="47.27186" lon="-2.34944">
        <ele>2.2000000476837</ele>
        <time>2021-05-20T07:28:36.000Z</time>
      </trkpt>
      <trkpt lat="47.27188" lon="-2.34952">
        <ele>2.5999999046326</ele>
        <time>2021-05-20T07:28:37.000Z</time>
      </trkpt>
      <trkpt lat="47.2719" lon="-2.3496">
        <ele>3</ele>
        <time>2021-05-20T07:28:38.000Z</time>
      </trkpt>
      <trkpt lat="47.27193" lon="-2.34968">
        <ele>3.7999999523163</ele>
        <time>2021-05-20T07:28:39.000Z</time>
      </trkpt>
      <trkpt lat="47.27204" lon="-2.34999">
        <ele>3.7999999523163</ele>
        <time>2021-05-20T07:28:43.000Z</time>
      </trkpt>
      <trkpt lat="47.27214" lon="-2.35028">
        <ele>3.7999999523163</ele>
        <time>2021-05-20T07:28:47.000Z</time>
      </trkpt>
      <trkpt lat="47.27221" lon="-2.3505">
        <ele>3.7999999523163</ele>
        <time>2021-05-20T07:28:50.000Z</time>
      </trkpt>
      <trkpt lat="47.2725" lon="-2.35118">
        <ele>3.7999999523163</ele>
        <time>2021-05-20T07:28:59.000Z</time>
      </trkpt>
      <trkpt lat="47.27258" lon="-2.35126">
        <ele>3.7999999523163</ele>
        <time>2021-05-20T07:29:01.000Z</time>
      </trkpt>
      <trkpt lat="47.27266" lon="-2.35124">
        <ele>3.7999999523163</ele>
        <time>2021-05-20T07:29:03.000Z</time>
      </trkpt>
      <trkpt lat="47.27274" lon="-2.35119">
        <ele>3.7999999523163</ele>
        <time>2021-05-20T07:29:05.000Z</time>
      </trkpt>
      <trkpt lat="47.27278" lon="-2.35117">
        <ele>3.7999999523163</ele>
        <time>2021-05-20T07:29:06.000Z</time>
      </trkpt>
      <trkpt lat="47.27282" lon="-2.35115">
        <ele>3.7999999523163</ele>
        <time>2021-05-20T07:29:07.000Z</time>
      </trkpt>
      <trkpt lat="47.27296" lon="-2.35108">
        <ele>3.7999999523163</ele>
        <time>2021-05-20T07:29:11.000Z</time>
      </trkpt>
      <trkpt lat="47.27299" lon="-2.35109">
        <ele>4.1999998092651</ele>
        <time>2021-05-20T07:29:12.000Z</time>
      </trkpt>
      <trkpt lat="47.27302" lon="-2.35114">
        <ele>4.5999999046326</ele>
        <time>2021-05-20T07:29:13.000Z</time>
      </trkpt>
      <trkpt lat="47.27304" lon="-2.35118">
        <ele>5</ele>
        <time>2021-05-20T07:29:14.000Z</time>
      </trkpt>
      <trkpt lat="47.27306" lon="-2.35123">
        <ele>5.4000000953674</ele>
        <time>2021-05-20T07:29:15.000Z</time>
      </trkpt>
      <trkpt lat="47.27308" lon="-2.35129">
        <ele>5.8000001907349</ele>
        <time>2021-05-20T07:29:16.000Z</time>
      </trkpt>
      <trkpt lat="47.27312" lon="-2.35141">
        <ele>5.8000001907349</ele>
        <time>2021-05-20T07:29:18.000Z</time>
      </trkpt>
      <trkpt lat="47.27317" lon="-2.3516">
        <ele>5.8000001907349</ele>
        <time>2021-05-20T07:29:21.000Z</time>
      </trkpt>
      <trkpt lat="47.2733" lon="-2.35212">
        <ele>5.8000001907349</ele>
        <time>2021-05-20T07:29:28.000Z</time>
      </trkpt>
      <trkpt lat="47.27343" lon="-2.35263">
        <ele>5.8000001907349</ele>
        <time>2021-05-20T07:29:34.000Z</time>
      </trkpt>
      <trkpt lat="47.27354" lon="-2.35304">
        <ele>5.8000001907349</ele>
        <time>2021-05-20T07:29:39.000Z</time>
      </trkpt>
      <trkpt lat="47.27371" lon="-2.35371">
        <ele>5.8000001907349</ele>
        <time>2021-05-20T07:29:46.000Z</time>
      </trkpt>
      <trkpt lat="47.27384" lon="-2.35428">
        <ele>5.8000001907349</ele>
        <time>2021-05-20T07:29:52.000Z</time>
      </trkpt>
      <trkpt lat="47.27389" lon="-2.35459">
        <ele>5.4000000953674</ele>
        <time>2021-05-20T07:29:55.000Z</time>
      </trkpt>
      <trkpt lat="47.27392" lon="-2.35469">
        <ele>5</ele>
        <time>2021-05-20T07:29:56.000Z</time>
      </trkpt>
      <trkpt lat="47.27394" lon="-2.35479">
        <ele>4.5999999046326</ele>
        <time>2021-05-20T07:29:57.000Z</time>
      </trkpt>
      <trkpt lat="47.27396" lon="-2.3549">
        <ele>4.1999998092651</ele>
        <time>2021-05-20T07:29:58.000Z</time>
      </trkpt>
      <trkpt lat="47.27398" lon="-2.355">
        <ele>3.7999999523163</ele>
        <time>2021-05-20T07:29:59.000Z</time>
      </trkpt>
      <trkpt lat="47.274" lon="-2.35509">
        <ele>3.7999999523163</ele>
        <time>2021-05-20T07:30:00.000Z</time>
      </trkpt>
      <trkpt lat="47.27412" lon="-2.35565">
        <ele>3.2000000476837</ele>
        <time>2021-05-20T07:30:06.000Z</time>
      </trkpt>
      <trkpt lat="47.27413" lon="-2.35575">
        <ele>2.7999999523163</ele>
        <time>2021-05-20T07:30:07.000Z</time>
      </trkpt>
      <trkpt lat="47.27415" lon="-2.35585">
        <ele>2.4000000953674</ele>
        <time>2021-05-20T07:30:08.000Z</time>
      </trkpt>
      <trkpt lat="47.27417" lon="-2.35595">
        <ele>2</ele>
        <time>2021-05-20T07:30:09.000Z</time>
      </trkpt>
      <trkpt lat="47.27418" lon="-2.35605">
        <ele>1.3999999761581</ele>
        <time>2021-05-20T07:30:10.000Z</time>
      </trkpt>
      <trkpt lat="47.27425" lon="-2.35643">
        <ele>1.3999999761581</ele>
        <time>2021-05-20T07:30:14.000Z</time>
      </trkpt>
      <trkpt lat="47.27428" lon="-2.35651">
        <ele>1.3999999761581</ele>
        <time>2021-05-20T07:30:15.000Z</time>
      </trkpt>
      <trkpt lat="47.27435" lon="-2.35664">
        <ele>1.3999999761581</ele>
        <time>2021-05-20T07:30:17.000Z</time>
      </trkpt>
      <trkpt lat="47.27453" lon="-2.35669">
        <ele>1.3999999761581</ele>
        <time>2021-05-20T07:30:20.000Z</time>
      </trkpt>
      <trkpt lat="47.27491" lon="-2.35679">
        <ele>1.3999999761581</ele>
        <time>2021-05-20T07:30:26.000Z</time>
      </trkpt>
      <trkpt lat="47.27527" lon="-2.35687">
        <ele>1.3999999761581</ele>
        <time>2021-05-20T07:30:32.000Z</time>
      </trkpt>
      <trkpt lat="47.27565" lon="-2.35697">
        <ele>1.3999999761581</ele>
        <time>2021-05-20T07:30:39.000Z</time>
      </trkpt>
      <trkpt lat="47.27606" lon="-2.35709">
        <ele>1.3999999761581</ele>
        <time>2021-05-20T07:30:47.000Z</time>
      </trkpt>
      <trkpt lat="47.27642" lon="-2.3572">
        <ele>1.3999999761581</ele>
        <time>2021-05-20T07:30:54.000Z</time>
      </trkpt>
      <trkpt lat="47.2767" lon="-2.35728">
        <ele>1.7999999523163</ele>
        <time>2021-05-20T07:31:00.000Z</time>
      </trkpt>
      <trkpt lat="47.27675" lon="-2.35728">
        <ele>2.2000000476837</ele>
        <time>2021-05-20T07:31:01.000Z</time>
      </trkpt>
      <trkpt lat="47.2768" lon="-2.35729">
        <ele>2.7999999523163</ele>
        <time>2021-05-20T07:31:02.000Z</time>
      </trkpt>
      <trkpt lat="47.27684" lon="-2.35729">
        <ele>3.2000000476837</ele>
        <time>2021-05-20T07:31:03.000Z</time>
      </trkpt>
      <trkpt lat="47.27689" lon="-2.35728">
        <ele>3.5999999046326</ele>
        <time>2021-05-20T07:31:04.000Z</time>
      </trkpt>
      <trkpt lat="47.27698" lon="-2.35723">
        <ele>3.5999999046326</ele>
        <time>2021-05-20T07:31:06.000Z</time>
      </trkpt>
      <trkpt lat="47.27707" lon="-2.35714">
        <ele>3.5999999046326</ele>
        <time>2021-05-20T07:31:08.000Z</time>
      </trkpt>
      <trkpt lat="47.27719" lon="-2.35702">
        <ele>4</ele>
        <time>2021-05-20T07:31:11.000Z</time>
      </trkpt>
      <trkpt lat="47.27723" lon="-2.35698">
        <ele>4.4000000953674</ele>
        <time>2021-05-20T07:31:12.000Z</time>
      </trkpt>
      <trkpt lat="47.27727" lon="-2.35693">
        <ele>4.8000001907349</ele>
        <time>2021-05-20T07:31:13.000Z</time>
      </trkpt>
      <trkpt lat="47.2773" lon="-2.35688">
        <ele>5.1999998092651</ele>
        <time>2021-05-20T07:31:14.000Z</time>
      </trkpt>
      <trkpt lat="47.27734" lon="-2.35682">
        <ele>5.5999999046326</ele>
        <time>2021-05-20T07:31:15.000Z</time>
      </trkpt>
      <trkpt lat="47.27748" lon="-2.3566">
        <ele>6</ele>
        <time>2021-05-20T07:31:19.000Z</time>
      </trkpt>
      <trkpt lat="47.27751" lon="-2.35655">
        <ele>6.4000000953674</ele>
        <time>2021-05-20T07:31:20.000Z</time>
      </trkpt>
      <trkpt lat="47.27755" lon="-2.3565">
        <ele>6.8000001907349</ele>
        <time>2021-05-20T07:31:21.000Z</time>
      </trkpt>
      <trkpt lat="47.27759" lon="-2.35645">
        <ele>7.1999998092651</ele>
        <time>2021-05-20T07:31:22.000Z</time>
      </trkpt>
      <trkpt lat="47.27763" lon="-2.3564">
        <ele>7.5999999046326</ele>
        <time>2021-05-20T07:31:23.000Z</time>
      </trkpt>
      <trkpt lat="47.27771" lon="-2.35633">
        <ele>7.5999999046326</ele>
        <time>2021-05-20T07:31:25.000Z</time>
      </trkpt>
      <trkpt lat="47.27775" lon="-2.35629">
        <ele>7.5999999046326</ele>
        <time>2021-05-20T07:31:26.000Z</time>
      </trkpt>
      <trkpt lat="47.27794" lon="-2.35618">
        <ele>7.5999999046326</ele>
        <time>2021-05-20T07:31:30.000Z</time>
      </trkpt>
      <trkpt lat="47.27808" lon="-2.35611">
        <ele>7.5999999046326</ele>
        <time>2021-05-20T07:31:33.000Z</time>
      </trkpt>
      <trkpt lat="47.27822" lon="-2.35607">
        <ele>7.5999999046326</ele>
        <time>2021-05-20T07:31:36.000Z</time>
      </trkpt>
      <trkpt lat="47.27851" lon="-2.35599">
        <ele>8</ele>
        <time>2021-05-20T07:31:42.000Z</time>
      </trkpt>
      <trkpt lat="47.27856" lon="-2.35598">
        <ele>8.3999996185303</ele>
        <time>2021-05-20T07:31:43.000Z</time>
      </trkpt>
      <trkpt lat="47.2786" lon="-2.35596">
        <ele>9</ele>
        <time>2021-05-20T07:31:44.000Z</time>
      </trkpt>
      <trkpt lat="47.27865" lon="-2.35595">
        <ele>9.3999996185303</ele>
        <time>2021-05-20T07:31:45.000Z</time>
      </trkpt>
      <trkpt lat="47.27871" lon="-2.35594">
        <ele>9.8000001907349</ele>
        <time>2021-05-20T07:31:46.000Z</time>
      </trkpt>
      <trkpt lat="47.27895" lon="-2.35589">
        <ele>9.8000001907349</ele>
        <time>2021-05-20T07:31:51.000Z</time>
      </trkpt>
      <trkpt lat="47.27904" lon="-2.35589">
        <ele>9.8000001907349</ele>
        <time>2021-05-20T07:31:53.000Z</time>
      </trkpt>
      <trkpt lat="47.27908" lon="-2.35589">
        <ele>10.199999809265</ele>
        <time>2021-05-20T07:31:54.000Z</time>
      </trkpt>
      <trkpt lat="47.27913" lon="-2.3559">
        <ele>10.60000038147</ele>
        <time>2021-05-20T07:31:55.000Z</time>
      </trkpt>
      <trkpt lat="47.27917" lon="-2.35591">
        <ele>11.39999961853</ele>
        <time>2021-05-20T07:31:56.000Z</time>
      </trkpt>
      <trkpt lat="47.27922" lon="-2.35591">
        <ele>11.800000190735</ele>
        <time>2021-05-20T07:31:57.000Z</time>
      </trkpt>
      <trkpt lat="47.27939" lon="-2.35589">
        <ele>11.800000190735</ele>
        <time>2021-05-20T07:32:01.000Z</time>
      </trkpt>
      <trkpt lat="47.27943" lon="-2.35588">
        <ele>11.800000190735</ele>
        <time>2021-05-20T07:32:02.000Z</time>
      </trkpt>
      <trkpt lat="47.27947" lon="-2.35586">
        <ele>11.800000190735</ele>
        <time>2021-05-20T07:32:03.000Z</time>
      </trkpt>
      <trkpt lat="47.27955" lon="-2.35583">
        <ele>11.800000190735</ele>
        <time>2021-05-20T07:32:05.000Z</time>
      </trkpt>
      <trkpt lat="47.27964" lon="-2.35581">
        <ele>11.800000190735</ele>
        <time>2021-05-20T07:32:07.000Z</time>
      </trkpt>
      <trkpt lat="47.27968" lon="-2.3558">
        <ele>11.800000190735</ele>
        <time>2021-05-20T07:32:08.000Z</time>
      </trkpt>
      <trkpt lat="47.27984" lon="-2.35585">
        <ele>11.800000190735</ele>
        <time>2021-05-20T07:32:12.000Z</time>
      </trkpt>
      <trkpt lat="47.27989" lon="-2.35585">
        <ele>11.800000190735</ele>
        <time>2021-05-20T07:32:13.000Z</time>
      </trkpt>
      <trkpt lat="47.27993" lon="-2.35584">
        <ele>12.199999809265</ele>
        <time>2021-05-20T07:32:14.000Z</time>
      </trkpt>
      <trkpt lat="47.27998" lon="-2.35583">
        <ele>12.60000038147</ele>
        <time>2021-05-20T07:32:15.000Z</time>
      </trkpt>
      <trkpt lat="47.28002" lon="-2.35582">
        <ele>13</ele>
        <time>2021-05-20T07:32:16.000Z</time>
      </trkpt>
      <trkpt lat="47.28006" lon="-2.3558">
        <ele>13.60000038147</ele>
        <time>2021-05-20T07:32:17.000Z</time>
      </trkpt>
      <trkpt lat="47.2801" lon="-2.35579">
        <ele>14</ele>
        <time>2021-05-20T07:32:18.000Z</time>
      </trkpt>
      <trkpt lat="47.28031" lon="-2.35576">
        <ele>14</ele>
        <time>2021-05-20T07:32:23.000Z</time>
      </trkpt>
      <trkpt lat="47.28053" lon="-2.35582">
        <ele>14</ele>
        <time>2021-05-20T07:32:29.000Z</time>
      </trkpt>
      <trkpt lat="47.28066" lon="-2.35587">
        <ele>14</ele>
        <time>2021-05-20T07:32:33.000Z</time>
      </trkpt>
      <trkpt lat="47.28068" lon="-2.3559">
        <ele>14</ele>
        <time>2021-05-20T07:32:34.000Z</time>
      </trkpt>
      <trkpt lat="47.28089" lon="-2.35621">
        <ele>14.39999961853</ele>
        <time>2021-05-20T07:32:42.000Z</time>
      </trkpt>
      <trkpt lat="47.28091" lon="-2.35623">
        <ele>14.800000190735</ele>
        <time>2021-05-20T07:32:43.000Z</time>
      </trkpt>
      <trkpt lat="47.28093" lon="-2.35625">
        <ele>15.199999809265</ele>
        <time>2021-05-20T07:32:44.000Z</time>
      </trkpt>
      <trkpt lat="47.28095" lon="-2.35627">
        <ele>16</ele>
        <time>2021-05-20T07:32:45.000Z</time>
      </trkpt>
      <trkpt lat="47.28098" lon="-2.35634">
        <ele>16</ele>
        <time>2021-05-20T07:32:48.000Z</time>
      </trkpt>
      <trkpt lat="47.28098" lon="-2.35639">
        <ele>16</ele>
        <time>2021-05-20T07:32:52.000Z</time>
      </trkpt>
      <trkpt lat="47.28097" lon="-2.3564">
        <ele>16</ele>
        <time>2021-05-20T07:32:53.000Z</time>
      </trkpt>
      <trkpt lat="47.28095" lon="-2.35644">
        <ele>16</ele>
        <time>2021-05-20T07:37:59.000Z</time>
      </trkpt>
      <trkpt lat="47.2809" lon="-2.35644">
        <ele>16</ele>
        <time>2021-05-20T07:38:02.000Z</time>
      </trkpt>
      <trkpt lat="47.28081" lon="-2.35648">
        <ele>16.39999961853</ele>
        <time>2021-05-20T07:38:08.000Z</time>
      </trkpt>
      <trkpt lat="47.28081" lon="-2.35649">
        <ele>16.799999237061</ele>
        <time>2021-05-20T07:38:09.000Z</time>
      </trkpt>
      <trkpt lat="47.2808" lon="-2.3565">
        <ele>17.200000762939</ele>
        <time>2021-05-20T07:38:10.000Z</time>
      </trkpt>
      <trkpt lat="47.2808" lon="-2.3565">
        <ele>16.799999237061</ele>
        <time>2021-05-20T07:38:11.000Z</time>
      </trkpt>
      <trkpt lat="47.2808" lon="-2.3565">
        <ele>16.39999961853</ele>
        <time>2021-05-20T07:38:12.000Z</time>
      </trkpt>
      <trkpt lat="47.2808" lon="-2.3565">
        <ele>15.800000190735</ele>
        <time>2021-05-20T07:38:13.000Z</time>
      </trkpt>
      <trkpt lat="47.2808" lon="-2.35651">
        <ele>15.39999961853</ele>
        <time>2021-05-20T07:38:14.000Z</time>
      </trkpt>
      <trkpt lat="47.28088" lon="-2.35624">
        <ele>15.800000190735</ele>
        <time>2021-05-20T07:40:52.000Z</time>
      </trkpt>
      <trkpt lat="47.28087" lon="-2.35621">
        <ele>16.200000762939</ele>
        <time>2021-05-20T07:40:53.000Z</time>
      </trkpt>
      <trkpt lat="47.28087" lon="-2.35618">
        <ele>16.39999961853</ele>
        <time>2021-05-20T07:40:54.000Z</time>
      </trkpt>
      <trkpt lat="47.28085" lon="-2.35614">
        <ele>16.799999237061</ele>
        <time>2021-05-20T07:40:55.000Z</time>
      </trkpt>
      <trkpt lat="47.28084" lon="-2.35611">
        <ele>17</ele>
        <time>2021-05-20T07:40:56.000Z</time>
      </trkpt>
      <trkpt lat="47.28081" lon="-2.35605">
        <ele>16.39999961853</ele>
        <time>2021-05-20T07:40:58.000Z</time>
      </trkpt>
      <trkpt lat="47.2808" lon="-2.35603">
        <ele>15.800000190735</ele>
        <time>2021-05-20T07:40:59.000Z</time>
      </trkpt>
      <trkpt lat="47.28077" lon="-2.356">
        <ele>15.199999809265</ele>
        <time>2021-05-20T07:41:00.000Z</time>
      </trkpt>
      <trkpt lat="47.28075" lon="-2.35598">
        <ele>15.39999961853</ele>
        <time>2021-05-20T07:41:01.000Z</time>
      </trkpt>
      <trkpt lat="47.28073" lon="-2.35595">
        <ele>15.60000038147</ele>
        <time>2021-05-20T07:41:02.000Z</time>
      </trkpt>
      <trkpt lat="47.28072" lon="-2.35592">
        <ele>15.800000190735</ele>
        <time>2021-05-20T07:41:03.000Z</time>
      </trkpt>
      <trkpt lat="47.28071" lon="-2.35589">
        <ele>16.200000762939</ele>
        <time>2021-05-20T07:41:04.000Z</time>
      </trkpt>
      <trkpt lat="47.2807" lon="-2.35585">
        <ele>16.39999961853</ele>
        <time>2021-05-20T07:41:05.000Z</time>
      </trkpt>
      <trkpt lat="47.2807" lon="-2.35577">
        <ele>15.800000190735</ele>
        <time>2021-05-20T07:41:07.000Z</time>
      </trkpt>
      <trkpt lat="47.28071" lon="-2.35573">
        <ele>15.199999809265</ele>
        <time>2021-05-20T07:41:08.000Z</time>
      </trkpt>
      <trkpt lat="47.28072" lon="-2.3557">
        <ele>14.800000190735</ele>
        <time>2021-05-20T07:41:09.000Z</time>
      </trkpt>
      <trkpt lat="47.28072" lon="-2.35567">
        <ele>15</ele>
        <time>2021-05-20T07:41:10.000Z</time>
      </trkpt>
      <trkpt lat="47.28073" lon="-2.35565">
        <ele>15.199999809265</ele>
        <time>2021-05-20T07:41:11.000Z</time>
      </trkpt>
      <trkpt lat="47.28075" lon="-2.35563">
        <ele>15.39999961853</ele>
        <time>2021-05-20T07:41:12.000Z</time>
      </trkpt>
      <trkpt lat="47.28076" lon="-2.35562">
        <ele>15.60000038147</ele>
        <time>2021-05-20T07:41:13.000Z</time>
      </trkpt>
      <trkpt lat="47.28078" lon="-2.35561">
        <ele>15.800000190735</ele>
        <time>2021-05-20T07:41:14.000Z</time>
      </trkpt>
      <trkpt lat="47.28079" lon="-2.3556">
        <ele>15.800000190735</ele>
        <time>2021-05-20T07:41:16.000Z</time>
      </trkpt>
      <trkpt lat="47.28083" lon="-2.35557">
        <ele>15.800000190735</ele>
        <time>2021-05-20T07:41:20.000Z</time>
      </trkpt>
      <trkpt lat="47.28086" lon="-2.35555">
        <ele>15.800000190735</ele>
        <time>2021-05-20T07:41:22.000Z</time>
      </trkpt>
      <trkpt lat="47.28107" lon="-2.3556">
        <ele>15.800000190735</ele>
        <time>2021-05-20T07:41:28.000Z</time>
      </trkpt>
      <trkpt lat="47.28121" lon="-2.35562">
        <ele>16.200000762939</ele>
        <time>2021-05-20T07:41:32.000Z</time>
      </trkpt>
      <trkpt lat="47.28125" lon="-2.35563">
        <ele>16.60000038147</ele>
        <time>2021-05-20T07:41:33.000Z</time>
      </trkpt>
      <trkpt lat="47.2813" lon="-2.35564">
        <ele>17</ele>
        <time>2021-05-20T07:41:34.000Z</time>
      </trkpt>
      <trkpt lat="47.28134" lon="-2.35566">
        <ele>17.60000038147</ele>
        <time>2021-05-20T07:41:35.000Z</time>
      </trkpt>
      <trkpt lat="47.28139" lon="-2.35569">
        <ele>18</ele>
        <time>2021-05-20T07:41:36.000Z</time>
      </trkpt>
      <trkpt lat="47.2814" lon="-2.35569">
        <ele>18</ele>
        <time>2021-05-20T07:41:37.000Z</time>
      </trkpt>
      <trkpt lat="47.28159" lon="-2.3559">
        <ele>18</ele>
        <time>2021-05-20T07:41:44.000Z</time>
      </trkpt>
      <trkpt lat="47.28169" lon="-2.35607">
        <ele>18</ele>
        <time>2021-05-20T07:41:49.000Z</time>
      </trkpt>
      <trkpt lat="47.28174" lon="-2.35617">
        <ele>18</ele>
        <time>2021-05-20T07:41:52.000Z</time>
      </trkpt>
      <trkpt lat="47.28225" lon="-2.35649">
        <ele>18.39999961853</ele>
        <time>2021-05-20T07:41:54.000Z</time>
      </trkpt>
      <trkpt lat="47.28227" lon="-2.35651">
        <ele>19</ele>
        <time>2021-05-20T07:41:55.000Z</time>
      </trkpt>
      <trkpt lat="47.2823" lon="-2.35653">
        <ele>19.799999237061</ele>
        <time>2021-05-20T07:41:56.000Z</time>
      </trkpt>
      <trkpt lat="47.28232" lon="-2.35655">
        <ele>20.60000038147</ele>
        <time>2021-05-20T07:41:57.000Z</time>
      </trkpt>
      <trkpt lat="47.28235" lon="-2.35658">
        <ele>21.39999961853</ele>
        <time>2021-05-20T07:41:58.000Z</time>
      </trkpt>
      <trkpt lat="47.28237" lon="-2.35662">
        <ele>22.39999961853</ele>
        <time>2021-05-20T07:41:59.000Z</time>
      </trkpt>
      <trkpt lat="47.2824" lon="-2.35668">
        <ele>22</ele>
        <time>2021-05-20T07:42:00.000Z</time>
      </trkpt>
      <trkpt lat="47.28247" lon="-2.35672">
        <ele>21.799999237061</ele>
        <time>2021-05-20T07:42:01.000Z</time>
      </trkpt>
      <trkpt lat="47.28251" lon="-2.35676">
        <ele>21.60000038147</ele>
        <time>2021-05-20T07:42:02.000Z</time>
      </trkpt>
      <trkpt lat="47.28255" lon="-2.35679">
        <ele>21.200000762939</ele>
        <time>2021-05-20T07:42:03.000Z</time>
      </trkpt>
      <trkpt lat="47.2826" lon="-2.35684">
        <ele>21</ele>
        <time>2021-05-20T07:42:04.000Z</time>
      </trkpt>
      <trkpt lat="47.28274" lon="-2.35701">
        <ele>21.39999961853</ele>
        <time>2021-05-20T07:42:08.000Z</time>
      </trkpt>
      <trkpt lat="47.28277" lon="-2.35705">
        <ele>22</ele>
        <time>2021-05-20T07:42:09.000Z</time>
      </trkpt>
      <trkpt lat="47.2828" lon="-2.35709">
        <ele>22.39999961853</ele>
        <time>2021-05-20T07:42:10.000Z</time>
      </trkpt>
      <trkpt lat="47.28284" lon="-2.35711">
        <ele>23.200000762939</ele>
        <time>2021-05-20T07:42:11.000Z</time>
      </trkpt>
      <trkpt lat="47.28293" lon="-2.35714">
        <ele>23.200000762939</ele>
        <time>2021-05-20T07:42:13.000Z</time>
      </trkpt>
      <trkpt lat="47.28305" lon="-2.35725">
        <ele>23.200000762939</ele>
        <time>2021-05-20T07:42:16.000Z</time>
      </trkpt>
      <trkpt lat="47.28313" lon="-2.35731">
        <ele>23.200000762939</ele>
        <time>2021-05-20T07:42:18.000Z</time>
      </trkpt>
      <trkpt lat="47.28321" lon="-2.35738">
        <ele>23.200000762939</ele>
        <time>2021-05-20T07:42:20.000Z</time>
      </trkpt>
      <trkpt lat="47.28333" lon="-2.35746">
        <ele>23.200000762939</ele>
        <time>2021-05-20T07:42:23.000Z</time>
      </trkpt>
      <trkpt lat="47.28358" lon="-2.3576">
        <ele>23.200000762939</ele>
        <time>2021-05-20T07:42:29.000Z</time>
      </trkpt>
      <trkpt lat="47.28368" lon="-2.35765">
        <ele>23.200000762939</ele>
        <time>2021-05-20T07:42:31.000Z</time>
      </trkpt>
      <trkpt lat="47.28385" lon="-2.35772">
        <ele>23.200000762939</ele>
        <time>2021-05-20T07:42:35.000Z</time>
      </trkpt>
      <trkpt lat="47.28415" lon="-2.35783">
        <ele>23.200000762939</ele>
        <time>2021-05-20T07:42:42.000Z</time>
      </trkpt>
      <trkpt lat="47.2842" lon="-2.35785">
        <ele>23.200000762939</ele>
        <time>2021-05-20T07:42:43.000Z</time>
      </trkpt>
      <trkpt lat="47.28434" lon="-2.35792">
        <ele>23.60000038147</ele>
        <time>2021-05-20T07:42:46.000Z</time>
      </trkpt>
      <trkpt lat="47.28439" lon="-2.35794">
        <ele>24</ele>
        <time>2021-05-20T07:42:47.000Z</time>
      </trkpt>
      <trkpt lat="47.28444" lon="-2.35796">
        <ele>24.39999961853</ele>
        <time>2021-05-20T07:42:48.000Z</time>
      </trkpt>
      <trkpt lat="47.28448" lon="-2.35798">
        <ele>24.799999237061</ele>
        <time>2021-05-20T07:42:49.000Z</time>
      </trkpt>
      <trkpt lat="47.28453" lon="-2.358">
        <ele>25.200000762939</ele>
        <time>2021-05-20T07:42:50.000Z</time>
      </trkpt>
      <trkpt lat="47.2847" lon="-2.35809">
        <ele>25.200000762939</ele>
        <time>2021-05-20T07:42:54.000Z</time>
      </trkpt>
      <trkpt lat="47.28482" lon="-2.35815">
        <ele>25.200000762939</ele>
        <time>2021-05-20T07:42:56.000Z</time>
      </trkpt>
      <trkpt lat="47.28509" lon="-2.35824">
        <ele>25.200000762939</ele>
        <time>2021-05-20T07:43:01.000Z</time>
      </trkpt>
      <trkpt lat="47.28518" lon="-2.35826">
        <ele>25.200000762939</ele>
        <time>2021-05-20T07:43:03.000Z</time>
      </trkpt>
      <trkpt lat="47.28531" lon="-2.3583">
        <ele>25.200000762939</ele>
        <time>2021-05-20T07:43:06.000Z</time>
      </trkpt>
      <trkpt lat="47.28535" lon="-2.35833">
        <ele>25.200000762939</ele>
        <time>2021-05-20T07:43:07.000Z</time>
      </trkpt>
      <trkpt lat="47.28554" lon="-2.35846">
        <ele>25.200000762939</ele>
        <time>2021-05-20T07:43:11.000Z</time>
      </trkpt>
      <trkpt lat="47.28558" lon="-2.3585">
        <ele>25.200000762939</ele>
        <time>2021-05-20T07:43:12.000Z</time>
      </trkpt>
      <trkpt lat="47.28569" lon="-2.35868">
        <ele>25.200000762939</ele>
        <time>2021-05-20T07:43:15.000Z</time>
      </trkpt>
      <trkpt lat="47.28576" lon="-2.35881">
        <ele>25.60000038147</ele>
        <time>2021-05-20T07:43:17.000Z</time>
      </trkpt>
      <trkpt lat="47.28578" lon="-2.35887">
        <ele>26</ele>
        <time>2021-05-20T07:43:18.000Z</time>
      </trkpt>
      <trkpt lat="47.2858" lon="-2.35894">
        <ele>26.39999961853</ele>
        <time>2021-05-20T07:43:19.000Z</time>
      </trkpt>
      <trkpt lat="47.28583" lon="-2.359">
        <ele>26.799999237061</ele>
        <time>2021-05-20T07:43:20.000Z</time>
      </trkpt>
      <trkpt lat="47.28585" lon="-2.35907">
        <ele>27.200000762939</ele>
        <time>2021-05-20T07:43:21.000Z</time>
      </trkpt>
      <trkpt lat="47.28605" lon="-2.35941">
        <ele>27.200000762939</ele>
        <time>2021-05-20T07:43:27.000Z</time>
      </trkpt>
      <trkpt lat="47.28609" lon="-2.35946">
        <ele>27.200000762939</ele>
        <time>2021-05-20T07:43:28.000Z</time>
      </trkpt>
      <trkpt lat="47.28623" lon="-2.35955">
        <ele>27.200000762939</ele>
        <time>2021-05-20T07:43:31.000Z</time>
      </trkpt>
      <trkpt lat="47.28644" lon="-2.35958">
        <ele>27.200000762939</ele>
        <time>2021-05-20T07:43:35.000Z</time>
      </trkpt>
      <trkpt lat="47.28649" lon="-2.35958">
        <ele>27.200000762939</ele>
        <time>2021-05-20T07:43:36.000Z</time>
      </trkpt>
      <trkpt lat="47.2869" lon="-2.35957">
        <ele>27.200000762939</ele>
        <time>2021-05-20T07:43:44.000Z</time>
      </trkpt>
      <trkpt lat="47.28729" lon="-2.35957">
        <ele>27.200000762939</ele>
        <time>2021-05-20T07:43:51.000Z</time>
      </trkpt>
      <trkpt lat="47.2874" lon="-2.35957">
        <ele>27.60000038147</ele>
        <time>2021-05-20T07:43:53.000Z</time>
      </trkpt>
      <trkpt lat="47.28745" lon="-2.35957">
        <ele>28</ele>
        <time>2021-05-20T07:43:54.000Z</time>
      </trkpt>
      <trkpt lat="47.2875" lon="-2.35957">
        <ele>28.60000038147</ele>
        <time>2021-05-20T07:43:55.000Z</time>
      </trkpt>
      <trkpt lat="47.28756" lon="-2.35956">
        <ele>29</ele>
        <time>2021-05-20T07:43:56.000Z</time>
      </trkpt>
      <trkpt lat="47.28761" lon="-2.35954">
        <ele>29.39999961853</ele>
        <time>2021-05-20T07:43:57.000Z</time>
      </trkpt>
      <trkpt lat="47.28767" lon="-2.35951">
        <ele>29.39999961853</ele>
        <time>2021-05-20T07:43:58.000Z</time>
      </trkpt>
      <trkpt lat="47.28786" lon="-2.35936">
        <ele>29.39999961853</ele>
        <time>2021-05-20T07:44:02.000Z</time>
      </trkpt>
      <trkpt lat="47.28796" lon="-2.35927">
        <ele>29.39999961853</ele>
        <time>2021-05-20T07:44:04.000Z</time>
      </trkpt>
      <trkpt lat="47.28829" lon="-2.35893">
        <ele>29.39999961853</ele>
        <time>2021-05-20T07:44:11.000Z</time>
      </trkpt>
      <trkpt lat="47.2886" lon="-2.35853">
        <ele>29.39999961853</ele>
        <time>2021-05-20T07:44:18.000Z</time>
      </trkpt>
      <trkpt lat="47.28895" lon="-2.35805">
        <ele>29.39999961853</ele>
        <time>2021-05-20T07:44:26.000Z</time>
      </trkpt>
      <trkpt lat="47.28913" lon="-2.35785">
        <ele>29.39999961853</ele>
        <time>2021-05-20T07:44:30.000Z</time>
      </trkpt>
      <trkpt lat="47.28928" lon="-2.35774">
        <ele>29.39999961853</ele>
        <time>2021-05-20T07:44:33.000Z</time>
      </trkpt>
      <trkpt lat="47.28973" lon="-2.35747">
        <ele>29.39999961853</ele>
        <time>2021-05-20T07:44:41.000Z</time>
      </trkpt>
      <trkpt lat="47.29005" lon="-2.35727">
        <ele>29.39999961853</ele>
        <time>2021-05-20T07:44:47.000Z</time>
      </trkpt>
      <trkpt lat="47.29044" lon="-2.35694">
        <ele>29.39999961853</ele>
        <time>2021-05-20T07:44:55.000Z</time>
      </trkpt>
      <trkpt lat="47.29085" lon="-2.3566">
        <ele>29.39999961853</ele>
        <time>2021-05-20T07:45:03.000Z</time>
      </trkpt>
      <trkpt lat="47.29109" lon="-2.35645">
        <ele>29.39999961853</ele>
        <time>2021-05-20T07:45:09.000Z</time>
      </trkpt>
      <trkpt lat="47.29114" lon="-2.35626">
        <ele>29.39999961853</ele>
        <time>2021-05-20T07:45:13.000Z</time>
      </trkpt>
      <trkpt lat="47.29119" lon="-2.35615">
        <ele>29.39999961853</ele>
        <time>2021-05-20T07:45:15.000Z</time>
      </trkpt>
      <trkpt lat="47.29127" lon="-2.35609">
        <ele>29.39999961853</ele>
        <time>2021-05-20T07:45:17.000Z</time>
      </trkpt>
      <trkpt lat="47.29141" lon="-2.35616">
        <ele>29.39999961853</ele>
        <time>2021-05-20T07:45:20.000Z</time>
      </trkpt>
      <trkpt lat="47.29148" lon="-2.35629">
        <ele>29.39999961853</ele>
        <time>2021-05-20T07:45:22.000Z</time>
      </trkpt>
      <trkpt lat="47.29158" lon="-2.35639">
        <ele>29.39999961853</ele>
        <time>2021-05-20T07:45:24.000Z</time>
      </trkpt>
      <trkpt lat="47.29185" lon="-2.35655">
        <ele>29.39999961853</ele>
        <time>2021-05-20T07:45:29.000Z</time>
      </trkpt>
      <trkpt lat="47.29211" lon="-2.35681">
        <ele>29.39999961853</ele>
        <time>2021-05-20T07:45:34.000Z</time>
      </trkpt>
      <trkpt lat="47.29242" lon="-2.35713">
        <ele>29.39999961853</ele>
        <time>2021-05-20T07:45:40.000Z</time>
      </trkpt>
      <trkpt lat="47.29277" lon="-2.35745">
        <ele>29.39999961853</ele>
        <time>2021-05-20T07:45:47.000Z</time>
      </trkpt>
      <trkpt lat="47.29314" lon="-2.35777">
        <ele>29.39999961853</ele>
        <time>2021-05-20T07:45:54.000Z</time>
      </trkpt>
      <trkpt lat="47.29345" lon="-2.35805">
        <ele>29.39999961853</ele>
        <time>2021-05-20T07:46:00.000Z</time>
      </trkpt>
      <trkpt lat="47.29383" lon="-2.35841">
        <ele>29.39999961853</ele>
        <time>2021-05-20T07:46:08.000Z</time>
      </trkpt>
      <trkpt lat="47.29409" lon="-2.35869">
        <ele>29.39999961853</ele>
        <time>2021-05-20T07:46:14.000Z</time>
      </trkpt>
      <trkpt lat="47.29439" lon="-2.35905">
        <ele>29.39999961853</ele>
        <time>2021-05-20T07:46:21.000Z</time>
      </trkpt>
      <trkpt lat="47.29447" lon="-2.35913">
        <ele>29.39999961853</ele>
        <time>2021-05-20T07:46:23.000Z</time>
      </trkpt>
      <trkpt lat="47.29452" lon="-2.35927">
        <ele>29.39999961853</ele>
        <time>2021-05-20T07:46:25.000Z</time>
      </trkpt>
      <trkpt lat="47.29457" lon="-2.35942">
        <ele>29.39999961853</ele>
        <time>2021-05-20T07:46:27.000Z</time>
      </trkpt>
      <trkpt lat="47.29464" lon="-2.35962">
        <ele>29.39999961853</ele>
        <time>2021-05-20T07:46:30.000Z</time>
      </trkpt>
      <trkpt lat="47.29478" lon="-2.35996">
        <ele>29.39999961853</ele>
        <time>2021-05-20T07:46:35.000Z</time>
      </trkpt>
      <trkpt lat="47.29478" lon="-2.36004">
        <ele>29.39999961853</ele>
        <time>2021-05-20T07:46:36.000Z</time>
      </trkpt>
      <trkpt lat="47.29484" lon="-2.36033">
        <ele>29.39999961853</ele>
        <time>2021-05-20T07:46:40.000Z</time>
      </trkpt>
      <trkpt lat="47.29486" lon="-2.36041">
        <ele>29.39999961853</ele>
        <time>2021-05-20T07:46:41.000Z</time>
      </trkpt>
      <trkpt lat="47.29504" lon="-2.36096">
        <ele>29.39999961853</ele>
        <time>2021-05-20T07:46:48.000Z</time>
      </trkpt>
      <trkpt lat="47.29526" lon="-2.36142">
        <ele>29.39999961853</ele>
        <time>2021-05-20T07:46:54.000Z</time>
      </trkpt>
      <trkpt lat="47.29538" lon="-2.36163">
        <ele>29</ele>
        <time>2021-05-20T07:46:57.000Z</time>
      </trkpt>
      <trkpt lat="47.29542" lon="-2.3617">
        <ele>28.60000038147</ele>
        <time>2021-05-20T07:46:58.000Z</time>
      </trkpt>
      <trkpt lat="47.29545" lon="-2.36178">
        <ele>28.200000762939</ele>
        <time>2021-05-20T07:46:59.000Z</time>
      </trkpt>
      <trkpt lat="47.29548" lon="-2.36187">
        <ele>27.60000038147</ele>
        <time>2021-05-20T07:47:00.000Z</time>
      </trkpt>
      <trkpt lat="47.29552" lon="-2.36196">
        <ele>27.200000762939</ele>
        <time>2021-05-20T07:47:01.000Z</time>
      </trkpt>
      <trkpt lat="47.2957" lon="-2.3623">
        <ele>27.200000762939</ele>
        <time>2021-05-20T07:47:05.000Z</time>
      </trkpt>
      <trkpt lat="47.29588" lon="-2.36264">
        <ele>26.799999237061</ele>
        <time>2021-05-20T07:47:09.000Z</time>
      </trkpt>
      <trkpt lat="47.29592" lon="-2.36273">
        <ele>26.39999961853</ele>
        <time>2021-05-20T07:47:10.000Z</time>
      </trkpt>
      <trkpt lat="47.29597" lon="-2.36281">
        <ele>26</ele>
        <time>2021-05-20T07:47:11.000Z</time>
      </trkpt>
      <trkpt lat="47.29601" lon="-2.36289">
        <ele>25.60000038147</ele>
        <time>2021-05-20T07:47:12.000Z</time>
      </trkpt>
      <trkpt lat="47.29605" lon="-2.36297">
        <ele>25.200000762939</ele>
        <time>2021-05-20T07:47:13.000Z</time>
      </trkpt>
      <trkpt lat="47.29621" lon="-2.3633">
        <ele>25.200000762939</ele>
        <time>2021-05-20T07:47:16.000Z</time>
      </trkpt>
      <trkpt lat="47.29649" lon="-2.3639">
        <ele>25.200000762939</ele>
        <time>2021-05-20T07:47:24.000Z</time>
      </trkpt>
      <trkpt lat="47.29653" lon="-2.36399">
        <ele>25.200000762939</ele>
        <time>2021-05-20T07:47:25.000Z</time>
      </trkpt>
      <trkpt lat="47.29657" lon="-2.36407">
        <ele>24.799999237061</ele>
        <time>2021-05-20T07:47:26.000Z</time>
      </trkpt>
      <trkpt lat="47.2966" lon="-2.36415">
        <ele>24.39999961853</ele>
        <time>2021-05-20T07:47:27.000Z</time>
      </trkpt>
      <trkpt lat="47.29663" lon="-2.36423">
        <ele>24</ele>
        <time>2021-05-20T07:47:28.000Z</time>
      </trkpt>
      <trkpt lat="47.29666" lon="-2.36431">
        <ele>23.60000038147</ele>
        <time>2021-05-20T07:47:29.000Z</time>
      </trkpt>
      <trkpt lat="47.29669" lon="-2.36438">
        <ele>23.200000762939</ele>
        <time>2021-05-20T07:47:30.000Z</time>
      </trkpt>
      <trkpt lat="47.29672" lon="-2.36445">
        <ele>23.200000762939</ele>
        <time>2021-05-20T07:47:31.000Z</time>
      </trkpt>
      <trkpt lat="47.29697" lon="-2.36509">
        <ele>23.200000762939</ele>
        <time>2021-05-20T07:47:40.000Z</time>
      </trkpt>
      <trkpt lat="47.29702" lon="-2.36524">
        <ele>23.60000038147</ele>
        <time>2021-05-20T07:47:42.000Z</time>
      </trkpt>
      <trkpt lat="47.29705" lon="-2.36531">
        <ele>24</ele>
        <time>2021-05-20T07:47:43.000Z</time>
      </trkpt>
      <trkpt lat="47.29707" lon="-2.36537">
        <ele>24.60000038147</ele>
        <time>2021-05-20T07:47:44.000Z</time>
      </trkpt>
      <trkpt lat="47.2971" lon="-2.36544">
        <ele>25</ele>
        <time>2021-05-20T07:47:45.000Z</time>
      </trkpt>
      <trkpt lat="47.29713" lon="-2.36551">
        <ele>25.39999961853</ele>
        <time>2021-05-20T07:47:46.000Z</time>
      </trkpt>
      <trkpt lat="47.29716" lon="-2.36558">
        <ele>25.39999961853</ele>
        <time>2021-05-20T07:47:47.000Z</time>
      </trkpt>
      <trkpt lat="47.29727" lon="-2.36589">
        <ele>25.799999237061</ele>
        <time>2021-05-20T07:47:52.000Z</time>
      </trkpt>
      <trkpt lat="47.2973" lon="-2.36594">
        <ele>26.200000762939</ele>
        <time>2021-05-20T07:47:53.000Z</time>
      </trkpt>
      <trkpt lat="47.29732" lon="-2.36599">
        <ele>26.60000038147</ele>
        <time>2021-05-20T07:47:54.000Z</time>
      </trkpt>
      <trkpt lat="47.29734" lon="-2.36604">
        <ele>27</ele>
        <time>2021-05-20T07:47:55.000Z</time>
      </trkpt>
      <trkpt lat="47.29738" lon="-2.36605">
        <ele>27.39999961853</ele>
        <time>2021-05-20T07:47:56.000Z</time>
      </trkpt>
      <trkpt lat="47.29749" lon="-2.36599">
        <ele>27.39999961853</ele>
        <time>2021-05-20T07:47:59.000Z</time>
      </trkpt>
      <trkpt lat="47.29759" lon="-2.36586">
        <ele>27.39999961853</ele>
        <time>2021-05-20T07:48:02.000Z</time>
      </trkpt>
      <trkpt lat="47.29767" lon="-2.36578">
        <ele>27.39999961853</ele>
        <time>2021-05-20T07:48:04.000Z</time>
      </trkpt>
      <trkpt lat="47.29798" lon="-2.36548">
        <ele>27.39999961853</ele>
        <time>2021-05-20T07:48:11.000Z</time>
      </trkpt>
      <trkpt lat="47.29805" lon="-2.36541">
        <ele>27.39999961853</ele>
        <time>2021-05-20T07:48:14.000Z</time>
      </trkpt>
      <trkpt lat="47.29803" lon="-2.36527">
        <ele>27.39999961853</ele>
        <time>2021-05-20T07:48:19.000Z</time>
      </trkpt>
      <trkpt lat="47.29802" lon="-2.36519">
        <ele>27.39999961853</ele>
        <time>2021-05-20T07:48:23.000Z</time>
      </trkpt>
      <trkpt lat="47.29804" lon="-2.36521">
        <ele>27.39999961853</ele>
        <time>2021-05-20T08:04:16.000Z</time>
      </trkpt>
      <trkpt lat="47.29805" lon="-2.36523">
        <ele>27.39999961853</ele>
        <time>2021-05-20T08:04:17.000Z</time>
      </trkpt>
      <trkpt lat="47.29805" lon="-2.36535">
        <ele>27.39999961853</ele>
        <time>2021-05-20T08:04:23.000Z</time>
      </trkpt>
      <trkpt lat="47.29805" lon="-2.3654">
        <ele>27.39999961853</ele>
        <time>2021-05-20T08:04:25.000Z</time>
      </trkpt>
      <trkpt lat="47.29799" lon="-2.36548">
        <ele>27.39999961853</ele>
        <time>2021-05-20T08:04:28.000Z</time>
      </trkpt>
      <trkpt lat="47.29794" lon="-2.36554">
        <ele>28</ele>
        <time>2021-05-20T08:04:30.000Z</time>
      </trkpt>
      <trkpt lat="47.29791" lon="-2.36558">
        <ele>28.39999961853</ele>
        <time>2021-05-20T08:04:31.000Z</time>
      </trkpt>
      <trkpt lat="47.29788" lon="-2.3656">
        <ele>28.799999237061</ele>
        <time>2021-05-20T08:04:32.000Z</time>
      </trkpt>
      <trkpt lat="47.29784" lon="-2.36563">
        <ele>29.200000762939</ele>
        <time>2021-05-20T08:04:33.000Z</time>
      </trkpt>
      <trkpt lat="47.29781" lon="-2.36566">
        <ele>29.60000038147</ele>
        <time>2021-05-20T08:04:34.000Z</time>
      </trkpt>
      <trkpt lat="47.29778" lon="-2.36568">
        <ele>29.60000038147</ele>
        <time>2021-05-20T08:04:35.000Z</time>
      </trkpt>
      <trkpt lat="47.29759" lon="-2.36587">
        <ele>29.60000038147</ele>
        <time>2021-05-20T08:04:42.000Z</time>
      </trkpt>
      <trkpt lat="47.29745" lon="-2.366">
        <ele>29.60000038147</ele>
        <time>2021-05-20T08:04:49.000Z</time>
      </trkpt>
      <trkpt lat="47.29737" lon="-2.36617">
        <ele>29.60000038147</ele>
        <time>2021-05-20T08:04:56.000Z</time>
      </trkpt>
      <trkpt lat="47.29743" lon="-2.36634">
        <ele>29.60000038147</ele>
        <time>2021-05-20T08:05:01.000Z</time>
      </trkpt>
      <trkpt lat="47.2975" lon="-2.36662">
        <ele>29.60000038147</ele>
        <time>2021-05-20T08:05:07.000Z</time>
      </trkpt>
      <trkpt lat="47.2976" lon="-2.36692">
        <ele>29.60000038147</ele>
        <time>2021-05-20T08:05:13.000Z</time>
      </trkpt>
      <trkpt lat="47.29766" lon="-2.36709">
        <ele>30</ele>
        <time>2021-05-20T08:05:16.000Z</time>
      </trkpt>
      <trkpt lat="47.29768" lon="-2.36715">
        <ele>30.39999961853</ele>
        <time>2021-05-20T08:05:17.000Z</time>
      </trkpt>
      <trkpt lat="47.29769" lon="-2.3672">
        <ele>30.799999237061</ele>
        <time>2021-05-20T08:05:18.000Z</time>
      </trkpt>
      <trkpt lat="47.29771" lon="-2.36726">
        <ele>31.200000762939</ele>
        <time>2021-05-20T08:05:19.000Z</time>
      </trkpt>
      <trkpt lat="47.29773" lon="-2.36732">
        <ele>31.60000038147</ele>
        <time>2021-05-20T08:05:20.000Z</time>
      </trkpt>
      <trkpt lat="47.29787" lon="-2.36761">
        <ele>31.60000038147</ele>
        <time>2021-05-20T08:05:26.000Z</time>
      </trkpt>
      <trkpt lat="47.29809" lon="-2.36803">
        <ele>31.60000038147</ele>
        <time>2021-05-20T08:05:34.000Z</time>
      </trkpt>
      <trkpt lat="47.29811" lon="-2.36807">
        <ele>32.200000762939</ele>
        <time>2021-05-20T08:05:35.000Z</time>
      </trkpt>
      <trkpt lat="47.29814" lon="-2.36812">
        <ele>32.599998474121</ele>
        <time>2021-05-20T08:05:36.000Z</time>
      </trkpt>
      <trkpt lat="47.29816" lon="-2.36818">
        <ele>33</ele>
        <time>2021-05-20T08:05:37.000Z</time>
      </trkpt>
      <trkpt lat="47.29818" lon="-2.36823">
        <ele>33.400001525879</ele>
        <time>2021-05-20T08:05:38.000Z</time>
      </trkpt>
      <trkpt lat="47.29821" lon="-2.36828">
        <ele>33.799999237061</ele>
        <time>2021-05-20T08:05:39.000Z</time>
      </trkpt>
      <trkpt lat="47.29828" lon="-2.36845">
        <ele>33.799999237061</ele>
        <time>2021-05-20T08:05:42.000Z</time>
      </trkpt>
      <trkpt lat="47.29844" lon="-2.36882">
        <ele>33.799999237061</ele>
        <time>2021-05-20T08:05:49.000Z</time>
      </trkpt>
      <trkpt lat="47.29848" lon="-2.36894">
        <ele>34.400001525879</ele>
        <time>2021-05-20T08:05:51.000Z</time>
      </trkpt>
      <trkpt lat="47.29851" lon="-2.36899">
        <ele>34.799999237061</ele>
        <time>2021-05-20T08:05:52.000Z</time>
      </trkpt>
      <trkpt lat="47.29853" lon="-2.36905">
        <ele>35.200000762939</ele>
        <time>2021-05-20T08:05:53.000Z</time>
      </trkpt>
      <trkpt lat="47.29856" lon="-2.3691">
        <ele>35.599998474121</ele>
        <time>2021-05-20T08:05:54.000Z</time>
      </trkpt>
      <trkpt lat="47.29858" lon="-2.36915">
        <ele>36</ele>
        <time>2021-05-20T08:05:55.000Z</time>
      </trkpt>
      <trkpt lat="47.29861" lon="-2.3692">
        <ele>36</ele>
        <time>2021-05-20T08:05:56.000Z</time>
      </trkpt>
      <trkpt lat="47.29876" lon="-2.36946">
        <ele>36</ele>
        <time>2021-05-20T08:06:01.000Z</time>
      </trkpt>
      <trkpt lat="47.29879" lon="-2.3695">
        <ele>36</ele>
        <time>2021-05-20T08:06:02.000Z</time>
      </trkpt>
      <trkpt lat="47.29891" lon="-2.36957">
        <ele>36</ele>
        <time>2021-05-20T08:06:05.000Z</time>
      </trkpt>
      <trkpt lat="47.29901" lon="-2.36961">
        <ele>36</ele>
        <time>2021-05-20T08:06:07.000Z</time>
      </trkpt>
      <trkpt lat="47.29918" lon="-2.36979">
        <ele>36</ele>
        <time>2021-05-20T08:06:11.000Z</time>
      </trkpt>
      <trkpt lat="47.29932" lon="-2.36989">
        <ele>36</ele>
        <time>2021-05-20T08:06:14.000Z</time>
      </trkpt>
      <trkpt lat="47.29947" lon="-2.36997">
        <ele>36</ele>
        <time>2021-05-20T08:06:17.000Z</time>
      </trkpt>
      <trkpt lat="47.29988" lon="-2.37018">
        <ele>36</ele>
        <time>2021-05-20T08:06:25.000Z</time>
      </trkpt>
      <trkpt lat="47.29997" lon="-2.37024">
        <ele>36.400001525879</ele>
        <time>2021-05-20T08:06:27.000Z</time>
      </trkpt>
      <trkpt lat="47.30003" lon="-2.37026">
        <ele>37.200000762939</ele>
        <time>2021-05-20T08:06:28.000Z</time>
      </trkpt>
      <trkpt lat="47.30007" lon="-2.37029">
        <ele>37.599998474121</ele>
        <time>2021-05-20T08:06:29.000Z</time>
      </trkpt>
      <trkpt lat="47.30012" lon="-2.37032">
        <ele>38</ele>
        <time>2021-05-20T08:06:30.000Z</time>
      </trkpt>
      <trkpt lat="47.30024" lon="-2.3704">
        <ele>38</ele>
        <time>2021-05-20T08:06:33.000Z</time>
      </trkpt>
      <trkpt lat="47.30035" lon="-2.37049">
        <ele>38.400001525879</ele>
        <time>2021-05-20T08:06:36.000Z</time>
      </trkpt>
      <trkpt lat="47.30039" lon="-2.37052">
        <ele>39</ele>
        <time>2021-05-20T08:06:37.000Z</time>
      </trkpt>
      <trkpt lat="47.30043" lon="-2.37055">
        <ele>39.400001525879</ele>
        <time>2021-05-20T08:06:38.000Z</time>
      </trkpt>
      <trkpt lat="47.30046" lon="-2.37058">
        <ele>39.799999237061</ele>
        <time>2021-05-20T08:06:39.000Z</time>
      </trkpt>
      <trkpt lat="47.3005" lon="-2.37061">
        <ele>40.400001525879</ele>
        <time>2021-05-20T08:06:40.000Z</time>
      </trkpt>
      <trkpt lat="47.30053" lon="-2.37064">
        <ele>40.400001525879</ele>
        <time>2021-05-20T08:06:41.000Z</time>
      </trkpt>
      <trkpt lat="47.30086" lon="-2.37092">
        <ele>40.400001525879</ele>
        <time>2021-05-20T08:06:50.000Z</time>
      </trkpt>
      <trkpt lat="47.30096" lon="-2.37103">
        <ele>40.799999237061</ele>
        <time>2021-05-20T08:06:53.000Z</time>
      </trkpt>
      <trkpt lat="47.301" lon="-2.37107">
        <ele>41.599998474121</ele>
        <time>2021-05-20T08:06:54.000Z</time>
      </trkpt>
      <trkpt lat="47.30104" lon="-2.3711">
        <ele>42</ele>
        <time>2021-05-20T08:06:55.000Z</time>
      </trkpt>
      <trkpt lat="47.30107" lon="-2.37114">
        <ele>42.400001525879</ele>
        <time>2021-05-20T08:06:56.000Z</time>
      </trkpt>
      <trkpt lat="47.30115" lon="-2.3712">
        <ele>42.400001525879</ele>
        <time>2021-05-20T08:06:58.000Z</time>
      </trkpt>
      <trkpt lat="47.30134" lon="-2.3714">
        <ele>42.799999237061</ele>
        <time>2021-05-20T08:07:04.000Z</time>
      </trkpt>
      <trkpt lat="47.30137" lon="-2.37143">
        <ele>43.200000762939</ele>
        <time>2021-05-20T08:07:05.000Z</time>
      </trkpt>
      <trkpt lat="47.3014" lon="-2.37146">
        <ele>43.599998474121</ele>
        <time>2021-05-20T08:07:06.000Z</time>
      </trkpt>
      <trkpt lat="47.30143" lon="-2.3715">
        <ele>44.200000762939</ele>
        <time>2021-05-20T08:07:07.000Z</time>
      </trkpt>
      <trkpt lat="47.30146" lon="-2.37153">
        <ele>44.599998474121</ele>
        <time>2021-05-20T08:07:08.000Z</time>
      </trkpt>
      <trkpt lat="47.30164" lon="-2.37175">
        <ele>44.599998474121</ele>
        <time>2021-05-20T08:07:14.000Z</time>
      </trkpt>
      <trkpt lat="47.30179" lon="-2.37193">
        <ele>45.400001525879</ele>
        <time>2021-05-20T08:07:19.000Z</time>
      </trkpt>
      <trkpt lat="47.30182" lon="-2.37196">
        <ele>45.799999237061</ele>
        <time>2021-05-20T08:07:20.000Z</time>
      </trkpt>
      <trkpt lat="47.30185" lon="-2.37199">
        <ele>46.200000762939</ele>
        <time>2021-05-20T08:07:21.000Z</time>
      </trkpt>
      <trkpt lat="47.30188" lon="-2.37203">
        <ele>46.599998474121</ele>
        <time>2021-05-20T08:07:22.000Z</time>
      </trkpt>
      <trkpt lat="47.30208" lon="-2.37227">
        <ele>46.599998474121</ele>
        <time>2021-05-20T08:07:28.000Z</time>
      </trkpt>
      <trkpt lat="47.30232" lon="-2.37262">
        <ele>46.599998474121</ele>
        <time>2021-05-20T08:07:35.000Z</time>
      </trkpt>
      <trkpt lat="47.30259" lon="-2.37301">
        <ele>46.599998474121</ele>
        <time>2021-05-20T08:07:41.000Z</time>
      </trkpt>
      <trkpt lat="47.3029" lon="-2.37347">
        <ele>46.599998474121</ele>
        <time>2021-05-20T08:07:47.000Z</time>
      </trkpt>
      <trkpt lat="47.30312" lon="-2.37381">
        <ele>46.200000762939</ele>
        <time>2021-05-20T08:07:51.000Z</time>
      </trkpt>
      <trkpt lat="47.30318" lon="-2.37389">
        <ele>45.599998474121</ele>
        <time>2021-05-20T08:07:52.000Z</time>
      </trkpt>
      <trkpt lat="47.30323" lon="-2.37398">
        <ele>45.200000762939</ele>
        <time>2021-05-20T08:07:53.000Z</time>
      </trkpt>
      <trkpt lat="47.30329" lon="-2.37406">
        <ele>44.599998474121</ele>
        <time>2021-05-20T08:07:54.000Z</time>
      </trkpt>
      <trkpt lat="47.30334" lon="-2.37415">
        <ele>44.200000762939</ele>
        <time>2021-05-20T08:07:55.000Z</time>
      </trkpt>
      <trkpt lat="47.30363" lon="-2.37473">
        <ele>43.799999237061</ele>
        <time>2021-05-20T08:08:01.000Z</time>
      </trkpt>
      <trkpt lat="47.30367" lon="-2.37484">
        <ele>43.400001525879</ele>
        <time>2021-05-20T08:08:02.000Z</time>
      </trkpt>
      <trkpt lat="47.30371" lon="-2.37495">
        <ele>43</ele>
        <time>2021-05-20T08:08:03.000Z</time>
      </trkpt>
      <trkpt lat="47.30375" lon="-2.37507">
        <ele>42.599998474121</ele>
        <time>2021-05-20T08:08:04.000Z</time>
      </trkpt>
      <trkpt lat="47.30379" lon="-2.37519">
        <ele>42.200000762939</ele>
        <time>2021-05-20T08:08:05.000Z</time>
      </trkpt>
      <trkpt lat="47.30386" lon="-2.37542">
        <ele>41.599998474121</ele>
        <time>2021-05-20T08:08:07.000Z</time>
      </trkpt>
      <trkpt lat="47.30389" lon="-2.37553">
        <ele>41.200000762939</ele>
        <time>2021-05-20T08:08:08.000Z</time>
      </trkpt>
      <trkpt lat="47.30391" lon="-2.37565">
        <ele>40.400001525879</ele>
        <time>2021-05-20T08:08:09.000Z</time>
      </trkpt>
      <trkpt lat="47.30393" lon="-2.37576">
        <ele>39.799999237061</ele>
        <time>2021-05-20T08:08:10.000Z</time>
      </trkpt>
      <trkpt lat="47.30399" lon="-2.3761">
        <ele>39.799999237061</ele>
        <time>2021-05-20T08:08:13.000Z</time>
      </trkpt>
      <trkpt lat="47.30409" lon="-2.37682">
        <ele>39.799999237061</ele>
        <time>2021-05-20T08:08:20.000Z</time>
      </trkpt>
      <trkpt lat="47.30417" lon="-2.37761">
        <ele>39.799999237061</ele>
        <time>2021-05-20T08:08:28.000Z</time>
      </trkpt>
      <trkpt lat="47.30428" lon="-2.37819">
        <ele>39.799999237061</ele>
        <time>2021-05-20T08:08:35.000Z</time>
      </trkpt>
      <trkpt lat="47.30437" lon="-2.37872">
        <ele>39.799999237061</ele>
        <time>2021-05-20T08:08:42.000Z</time>
      </trkpt>
      <trkpt lat="47.30451" lon="-2.37919">
        <ele>39.799999237061</ele>
        <time>2021-05-20T08:08:49.000Z</time>
      </trkpt>
      <trkpt lat="47.30469" lon="-2.37963">
        <ele>39.799999237061</ele>
        <time>2021-05-20T08:08:56.000Z</time>
      </trkpt>
      <trkpt lat="47.30486" lon="-2.38001">
        <ele>39.799999237061</ele>
        <time>2021-05-20T08:09:02.000Z</time>
      </trkpt>
      <trkpt lat="47.30499" lon="-2.38005">
        <ele>39.799999237061</ele>
        <time>2021-05-20T08:09:05.000Z</time>
      </trkpt>
      <trkpt lat="47.30517" lon="-2.37989">
        <ele>39.799999237061</ele>
        <time>2021-05-20T08:09:08.000Z</time>
      </trkpt>
      <trkpt lat="47.30531" lon="-2.37978">
        <ele>39.400001525879</ele>
        <time>2021-05-20T08:09:10.000Z</time>
      </trkpt>
      <trkpt lat="47.30539" lon="-2.37971">
        <ele>39</ele>
        <time>2021-05-20T08:09:11.000Z</time>
      </trkpt>
      <trkpt lat="47.30546" lon="-2.37965">
        <ele>38.599998474121</ele>
        <time>2021-05-20T08:09:12.000Z</time>
      </trkpt>
      <trkpt lat="47.30553" lon="-2.3796">
        <ele>38</ele>
        <time>2021-05-20T08:09:13.000Z</time>
      </trkpt>
      <trkpt lat="47.3056" lon="-2.37957">
        <ele>37.400001525879</ele>
        <time>2021-05-20T08:09:14.000Z</time>
      </trkpt>
      <trkpt lat="47.30567" lon="-2.37955">
        <ele>36.799999237061</ele>
        <time>2021-05-20T08:09:15.000Z</time>
      </trkpt>
      <trkpt lat="47.30574" lon="-2.37953">
        <ele>36.200000762939</ele>
        <time>2021-05-20T08:09:16.000Z</time>
      </trkpt>
      <trkpt lat="47.30579" lon="-2.37952">
        <ele>35.599998474121</ele>
        <time>2021-05-20T08:09:17.000Z</time>
      </trkpt>
      <trkpt lat="47.30584" lon="-2.37953">
        <ele>35.599998474121</ele>
        <time>2021-05-20T08:09:18.000Z</time>
      </trkpt>
      <trkpt lat="47.30588" lon="-2.37955">
        <ele>35.599998474121</ele>
        <time>2021-05-20T08:09:19.000Z</time>
      </trkpt>
      <trkpt lat="47.30592" lon="-2.37967">
        <ele>36</ele>
        <time>2021-05-20T08:09:21.000Z</time>
      </trkpt>
      <trkpt lat="47.30592" lon="-2.37974">
        <ele>36.400001525879</ele>
        <time>2021-05-20T08:09:22.000Z</time>
      </trkpt>
      <trkpt lat="47.30591" lon="-2.37982">
        <ele>37.400001525879</ele>
        <time>2021-05-20T08:09:23.000Z</time>
      </trkpt>
      <trkpt lat="47.3059" lon="-2.37989">
        <ele>37.799999237061</ele>
        <time>2021-05-20T08:09:24.000Z</time>
      </trkpt>
      <trkpt lat="47.30589" lon="-2.37997">
        <ele>37.799999237061</ele>
        <time>2021-05-20T08:09:25.000Z</time>
      </trkpt>
      <trkpt lat="47.30588" lon="-2.38013">
        <ele>37.799999237061</ele>
        <time>2021-05-20T08:09:27.000Z</time>
      </trkpt>
      <trkpt lat="47.30589" lon="-2.3802">
        <ele>38.200000762939</ele>
        <time>2021-05-20T08:09:28.000Z</time>
      </trkpt>
      <trkpt lat="47.3059" lon="-2.38027">
        <ele>38.599998474121</ele>
        <time>2021-05-20T08:09:29.000Z</time>
      </trkpt>
      <trkpt lat="47.30592" lon="-2.38034">
        <ele>39</ele>
        <time>2021-05-20T08:09:30.000Z</time>
      </trkpt>
      <trkpt lat="47.30593" lon="-2.38041">
        <ele>39.599998474121</ele>
        <time>2021-05-20T08:09:31.000Z</time>
      </trkpt>
      <trkpt lat="47.30595" lon="-2.38048">
        <ele>40</ele>
        <time>2021-05-20T08:09:32.000Z</time>
      </trkpt>
      <trkpt lat="47.30606" lon="-2.38097">
        <ele>40</ele>
        <time>2021-05-20T08:09:39.000Z</time>
      </trkpt>
      <trkpt lat="47.3062" lon="-2.38149">
        <ele>40</ele>
        <time>2021-05-20T08:09:47.000Z</time>
      </trkpt>
      <trkpt lat="47.30632" lon="-2.38193">
        <ele>40</ele>
        <time>2021-05-20T08:09:53.000Z</time>
      </trkpt>
      <trkpt lat="47.30648" lon="-2.38258">
        <ele>40</ele>
        <time>2021-05-20T08:10:02.000Z</time>
      </trkpt>
      <trkpt lat="47.3065" lon="-2.38264">
        <ele>40.400001525879</ele>
        <time>2021-05-20T08:10:03.000Z</time>
      </trkpt>
      <trkpt lat="47.30652" lon="-2.38271">
        <ele>40.799999237061</ele>
        <time>2021-05-20T08:10:04.000Z</time>
      </trkpt>
      <trkpt lat="47.30653" lon="-2.38278">
        <ele>41.200000762939</ele>
        <time>2021-05-20T08:10:05.000Z</time>
      </trkpt>
      <trkpt lat="47.30655" lon="-2.38285">
        <ele>41.599998474121</ele>
        <time>2021-05-20T08:10:06.000Z</time>
      </trkpt>
      <trkpt lat="47.30657" lon="-2.38291">
        <ele>42</ele>
        <time>2021-05-20T08:10:07.000Z</time>
      </trkpt>
      <trkpt lat="47.30662" lon="-2.38312">
        <ele>42</ele>
        <time>2021-05-20T08:10:10.000Z</time>
      </trkpt>
      <trkpt lat="47.30678" lon="-2.38377">
        <ele>42</ele>
        <time>2021-05-20T08:10:19.000Z</time>
      </trkpt>
      <trkpt lat="47.30692" lon="-2.38432">
        <ele>42</ele>
        <time>2021-05-20T08:10:26.000Z</time>
      </trkpt>
      <trkpt lat="47.30709" lon="-2.38495">
        <ele>42</ele>
        <time>2021-05-20T08:10:34.000Z</time>
      </trkpt>
      <trkpt lat="47.30733" lon="-2.38572">
        <ele>42</ele>
        <time>2021-05-20T08:10:44.000Z</time>
      </trkpt>
      <trkpt lat="47.30751" lon="-2.38633">
        <ele>42</ele>
        <time>2021-05-20T08:10:52.000Z</time>
      </trkpt>
      <trkpt lat="47.30768" lon="-2.38687">
        <ele>42</ele>
        <time>2021-05-20T08:10:59.000Z</time>
      </trkpt>
      <trkpt lat="47.30788" lon="-2.38748">
        <ele>42</ele>
        <time>2021-05-20T08:11:07.000Z</time>
      </trkpt>
      <trkpt lat="47.30791" lon="-2.38755">
        <ele>42</ele>
        <time>2021-05-20T08:11:08.000Z</time>
      </trkpt>
      <trkpt lat="47.30804" lon="-2.38771">
        <ele>42</ele>
        <time>2021-05-20T08:11:11.000Z</time>
      </trkpt>
      <trkpt lat="47.3083" lon="-2.38786">
        <ele>42</ele>
        <time>2021-05-20T08:11:16.000Z</time>
      </trkpt>
      <trkpt lat="47.30842" lon="-2.38787">
        <ele>42</ele>
        <time>2021-05-20T08:11:18.000Z</time>
      </trkpt>
      <trkpt lat="47.30865" lon="-2.38793">
        <ele>42</ele>
        <time>2021-05-20T08:11:22.000Z</time>
      </trkpt>
      <trkpt lat="47.30871" lon="-2.38797">
        <ele>42</ele>
        <time>2021-05-20T08:11:23.000Z</time>
      </trkpt>
      <trkpt lat="47.3088" lon="-2.38806">
        <ele>41.599998474121</ele>
        <time>2021-05-20T08:11:25.000Z</time>
      </trkpt>
      <trkpt lat="47.30883" lon="-2.38812">
        <ele>40.799999237061</ele>
        <time>2021-05-20T08:11:26.000Z</time>
      </trkpt>
      <trkpt lat="47.30885" lon="-2.38818">
        <ele>40.400001525879</ele>
        <time>2021-05-20T08:11:27.000Z</time>
      </trkpt>
      <trkpt lat="47.30887" lon="-2.38824">
        <ele>39.799999237061</ele>
        <time>2021-05-20T08:11:28.000Z</time>
      </trkpt>
      <trkpt lat="47.3089" lon="-2.38832">
        <ele>39.799999237061</ele>
        <time>2021-05-20T08:11:30.000Z</time>
      </trkpt>
      <trkpt lat="47.30901" lon="-2.38847">
        <ele>39.799999237061</ele>
        <time>2021-05-20T08:11:35.000Z</time>
      </trkpt>
      <trkpt lat="47.30903" lon="-2.38852">
        <ele>39.799999237061</ele>
        <time>2021-05-20T08:11:36.000Z</time>
      </trkpt>
      <trkpt lat="47.30907" lon="-2.38871">
        <ele>39.799999237061</ele>
        <time>2021-05-20T08:11:39.000Z</time>
      </trkpt>
      <trkpt lat="47.30908" lon="-2.38878">
        <ele>39.799999237061</ele>
        <time>2021-05-20T08:11:40.000Z</time>
      </trkpt>
      <trkpt lat="47.30914" lon="-2.38889">
        <ele>39.799999237061</ele>
        <time>2021-05-20T08:11:42.000Z</time>
      </trkpt>
      <trkpt lat="47.30928" lon="-2.38912">
        <ele>39.799999237061</ele>
        <time>2021-05-20T08:11:46.000Z</time>
      </trkpt>
      <trkpt lat="47.30927" lon="-2.38935">
        <ele>39.799999237061</ele>
        <time>2021-05-20T08:11:49.000Z</time>
      </trkpt>
      <trkpt lat="47.30921" lon="-2.38948">
        <ele>39.799999237061</ele>
        <time>2021-05-20T08:11:51.000Z</time>
      </trkpt>
      <trkpt lat="47.30912" lon="-2.38969">
        <ele>39.799999237061</ele>
        <time>2021-05-20T08:11:54.000Z</time>
      </trkpt>
      <trkpt lat="47.30909" lon="-2.38976">
        <ele>39.799999237061</ele>
        <time>2021-05-20T08:11:55.000Z</time>
      </trkpt>
      <trkpt lat="47.30904" lon="-2.39002">
        <ele>39.799999237061</ele>
        <time>2021-05-20T08:11:58.000Z</time>
      </trkpt>
      <trkpt lat="47.30902" lon="-2.39019">
        <ele>39.799999237061</ele>
        <time>2021-05-20T08:12:00.000Z</time>
      </trkpt>
      <trkpt lat="47.309" lon="-2.39063">
        <ele>39.799999237061</ele>
        <time>2021-05-20T08:12:05.000Z</time>
      </trkpt>
      <trkpt lat="47.30901" lon="-2.39081">
        <ele>39.799999237061</ele>
        <time>2021-05-20T08:12:07.000Z</time>
      </trkpt>
      <trkpt lat="47.30905" lon="-2.39097">
        <ele>39.799999237061</ele>
        <time>2021-05-20T08:12:09.000Z</time>
      </trkpt>
      <trkpt lat="47.30922" lon="-2.39144">
        <ele>39.799999237061</ele>
        <time>2021-05-20T08:12:15.000Z</time>
      </trkpt>
      <trkpt lat="47.30939" lon="-2.39189">
        <ele>39.799999237061</ele>
        <time>2021-05-20T08:12:21.000Z</time>
      </trkpt>
      <trkpt lat="47.30966" lon="-2.3925">
        <ele>39.799999237061</ele>
        <time>2021-05-20T08:12:29.000Z</time>
      </trkpt>
      <trkpt lat="47.30992" lon="-2.3932">
        <ele>39.799999237061</ele>
        <time>2021-05-20T08:12:38.000Z</time>
      </trkpt>
      <trkpt lat="47.3101" lon="-2.39375">
        <ele>39.799999237061</ele>
        <time>2021-05-20T08:12:45.000Z</time>
      </trkpt>
      <trkpt lat="47.31032" lon="-2.39442">
        <ele>39.799999237061</ele>
        <time>2021-05-20T08:12:53.000Z</time>
      </trkpt>
      <trkpt lat="47.31052" lon="-2.39504">
        <ele>39.799999237061</ele>
        <time>2021-05-20T08:13:00.000Z</time>
      </trkpt>
      <trkpt lat="47.3107" lon="-2.39555">
        <ele>39.799999237061</ele>
        <time>2021-05-20T08:13:07.000Z</time>
      </trkpt>
      <trkpt lat="47.31084" lon="-2.39595">
        <ele>39.799999237061</ele>
        <time>2021-05-20T08:13:13.000Z</time>
      </trkpt>
      <trkpt lat="47.31101" lon="-2.3964">
        <ele>39.799999237061</ele>
        <time>2021-05-20T08:13:20.000Z</time>
      </trkpt>
      <trkpt lat="47.31124" lon="-2.39706">
        <ele>39.799999237061</ele>
        <time>2021-05-20T08:13:29.000Z</time>
      </trkpt>
      <trkpt lat="47.31145" lon="-2.39765">
        <ele>39.799999237061</ele>
        <time>2021-05-20T08:13:36.000Z</time>
      </trkpt>
      <trkpt lat="47.31164" lon="-2.39818">
        <ele>39.400001525879</ele>
        <time>2021-05-20T08:13:42.000Z</time>
      </trkpt>
      <trkpt lat="47.31168" lon="-2.39826">
        <ele>39</ele>
        <time>2021-05-20T08:13:43.000Z</time>
      </trkpt>
      <trkpt lat="47.31172" lon="-2.39834">
        <ele>38.599998474121</ele>
        <time>2021-05-20T08:13:44.000Z</time>
      </trkpt>
      <trkpt lat="47.31176" lon="-2.39841">
        <ele>38.200000762939</ele>
        <time>2021-05-20T08:13:45.000Z</time>
      </trkpt>
      <trkpt lat="47.31179" lon="-2.39848">
        <ele>37.799999237061</ele>
        <time>2021-05-20T08:13:46.000Z</time>
      </trkpt>
      <trkpt lat="47.31181" lon="-2.39857">
        <ele>37.799999237061</ele>
        <time>2021-05-20T08:13:47.000Z</time>
      </trkpt>
      <trkpt lat="47.31182" lon="-2.39865">
        <ele>37.799999237061</ele>
        <time>2021-05-20T08:13:48.000Z</time>
      </trkpt>
      <trkpt lat="47.31185" lon="-2.39879">
        <ele>37.799999237061</ele>
        <time>2021-05-20T08:13:50.000Z</time>
      </trkpt>
      <trkpt lat="47.31187" lon="-2.39884">
        <ele>37.799999237061</ele>
        <time>2021-05-20T08:13:51.000Z</time>
      </trkpt>
      <trkpt lat="47.31192" lon="-2.39901">
        <ele>37.799999237061</ele>
        <time>2021-05-20T08:13:55.000Z</time>
      </trkpt>
      <trkpt lat="47.31196" lon="-2.3991">
        <ele>37.200000762939</ele>
        <time>2021-05-20T08:13:57.000Z</time>
      </trkpt>
      <trkpt lat="47.31198" lon="-2.39914">
        <ele>36.799999237061</ele>
        <time>2021-05-20T08:13:58.000Z</time>
      </trkpt>
      <trkpt lat="47.31199" lon="-2.39917">
        <ele>36.200000762939</ele>
        <time>2021-05-20T08:13:59.000Z</time>
      </trkpt>
      <trkpt lat="47.312" lon="-2.3992">
        <ele>35.799999237061</ele>
        <time>2021-05-20T08:14:00.000Z</time>
      </trkpt>
      <trkpt lat="47.31201" lon="-2.39922">
        <ele>35.200000762939</ele>
        <time>2021-05-20T08:14:01.000Z</time>
      </trkpt>
      <trkpt lat="47.31203" lon="-2.39926">
        <ele>35.200000762939</ele>
        <time>2021-05-20T08:14:03.000Z</time>
      </trkpt>
      <trkpt lat="47.31208" lon="-2.39933">
        <ele>35.200000762939</ele>
        <time>2021-05-20T08:14:06.000Z</time>
      </trkpt>
      <trkpt lat="47.31209" lon="-2.39937">
        <ele>35.200000762939</ele>
        <time>2021-05-20T08:14:07.000Z</time>
      </trkpt>
      <trkpt lat="47.31218" lon="-2.39959">
        <ele>35.200000762939</ele>
        <time>2021-05-20T08:14:12.000Z</time>
      </trkpt>
      <trkpt lat="47.31222" lon="-2.3997">
        <ele>34.799999237061</ele>
        <time>2021-05-20T08:14:14.000Z</time>
      </trkpt>
      <trkpt lat="47.31224" lon="-2.39975">
        <ele>34.400001525879</ele>
        <time>2021-05-20T08:14:15.000Z</time>
      </trkpt>
      <trkpt lat="47.31226" lon="-2.39981">
        <ele>34</ele>
        <time>2021-05-20T08:14:16.000Z</time>
      </trkpt>
      <trkpt lat="47.31228" lon="-2.39986">
        <ele>33.599998474121</ele>
        <time>2021-05-20T08:14:17.000Z</time>
      </trkpt>
      <trkpt lat="47.3123" lon="-2.39991">
        <ele>33</ele>
        <time>2021-05-20T08:14:18.000Z</time>
      </trkpt>
      <trkpt lat="47.31233" lon="-2.40005">
        <ele>33</ele>
        <time>2021-05-20T08:14:20.000Z</time>
      </trkpt>
      <trkpt lat="47.31235" lon="-2.40012">
        <ele>32.599998474121</ele>
        <time>2021-05-20T08:14:21.000Z</time>
      </trkpt>
      <trkpt lat="47.31237" lon="-2.40018">
        <ele>32.200000762939</ele>
        <time>2021-05-20T08:14:22.000Z</time>
      </trkpt>
      <trkpt lat="47.31238" lon="-2.40024">
        <ele>31.799999237061</ele>
        <time>2021-05-20T08:14:23.000Z</time>
      </trkpt>
      <trkpt lat="47.31239" lon="-2.40029">
        <ele>31.39999961853</ele>
        <time>2021-05-20T08:14:24.000Z</time>
      </trkpt>
      <trkpt lat="47.31241" lon="-2.40034">
        <ele>31</ele>
        <time>2021-05-20T08:14:25.000Z</time>
      </trkpt>
      <trkpt lat="47.31243" lon="-2.40038">
        <ele>31</ele>
        <time>2021-05-20T08:14:26.000Z</time>
      </trkpt>
      <trkpt lat="47.31245" lon="-2.4004">
        <ele>31</ele>
        <time>2021-05-20T08:14:27.000Z</time>
      </trkpt>
      <trkpt lat="47.31254" lon="-2.40048">
        <ele>31</ele>
        <time>2021-05-20T08:14:32.000Z</time>
      </trkpt>
      <trkpt lat="47.31259" lon="-2.40052">
        <ele>31</ele>
        <time>2021-05-20T08:14:34.000Z</time>
      </trkpt>
      <trkpt lat="47.31264" lon="-2.40054">
        <ele>31</ele>
        <time>2021-05-20T08:14:35.000Z</time>
      </trkpt>
      <trkpt lat="47.31289" lon="-2.40061">
        <ele>31</ele>
        <time>2021-05-20T08:14:40.000Z</time>
      </trkpt>
      <trkpt lat="47.31321" lon="-2.40072">
        <ele>31</ele>
        <time>2021-05-20T08:14:47.000Z</time>
      </trkpt>
      <trkpt lat="47.31348" lon="-2.40085">
        <ele>31</ele>
        <time>2021-05-20T08:14:54.000Z</time>
      </trkpt>
      <trkpt lat="47.31371" lon="-2.40098">
        <ele>31</ele>
        <time>2021-05-20T08:15:00.000Z</time>
      </trkpt>
      <trkpt lat="47.31396" lon="-2.40113">
        <ele>31</ele>
        <time>2021-05-20T08:15:06.000Z</time>
      </trkpt>
      <trkpt lat="47.31416" lon="-2.40127">
        <ele>31</ele>
        <time>2021-05-20T08:15:12.000Z</time>
      </trkpt>
      <trkpt lat="47.31439" lon="-2.40143">
        <ele>31</ele>
        <time>2021-05-20T08:15:18.000Z</time>
      </trkpt>
      <trkpt lat="47.31456" lon="-2.40155">
        <ele>31</ele>
        <time>2021-05-20T08:15:22.000Z</time>
      </trkpt>
      <trkpt lat="47.3146" lon="-2.40159">
        <ele>31</ele>
        <time>2021-05-20T08:15:23.000Z</time>
      </trkpt>
      <trkpt lat="47.31468" lon="-2.40164">
        <ele>31.39999961853</ele>
        <time>2021-05-20T08:15:25.000Z</time>
      </trkpt>
      <trkpt lat="47.31472" lon="-2.40168">
        <ele>31.799999237061</ele>
        <time>2021-05-20T08:15:26.000Z</time>
      </trkpt>
      <trkpt lat="47.31477" lon="-2.40171">
        <ele>32.200000762939</ele>
        <time>2021-05-20T08:15:27.000Z</time>
      </trkpt>
      <trkpt lat="47.31481" lon="-2.40174">
        <ele>32.599998474121</ele>
        <time>2021-05-20T08:15:28.000Z</time>
      </trkpt>
      <trkpt lat="47.31485" lon="-2.40178">
        <ele>33</ele>
        <time>2021-05-20T08:15:29.000Z</time>
      </trkpt>
      <trkpt lat="47.3149" lon="-2.4018">
        <ele>33</ele>
        <time>2021-05-20T08:15:30.000Z</time>
      </trkpt>
      <trkpt lat="47.31507" lon="-2.40191">
        <ele>33</ele>
        <time>2021-05-20T08:15:34.000Z</time>
      </trkpt>
      <trkpt lat="47.31529" lon="-2.4021">
        <ele>33</ele>
        <time>2021-05-20T08:15:40.000Z</time>
      </trkpt>
      <trkpt lat="47.31557" lon="-2.40232">
        <ele>33</ele>
        <time>2021-05-20T08:15:46.000Z</time>
      </trkpt>
      <trkpt lat="47.31578" lon="-2.40251">
        <ele>33.400001525879</ele>
        <time>2021-05-20T08:15:50.000Z</time>
      </trkpt>
      <trkpt lat="47.31583" lon="-2.40255">
        <ele>33.799999237061</ele>
        <time>2021-05-20T08:15:51.000Z</time>
      </trkpt>
      <trkpt lat="47.31587" lon="-2.40259">
        <ele>34.400001525879</ele>
        <time>2021-05-20T08:15:52.000Z</time>
      </trkpt>
      <trkpt lat="47.31592" lon="-2.40263">
        <ele>34.799999237061</ele>
        <time>2021-05-20T08:15:53.000Z</time>
      </trkpt>
      <trkpt lat="47.31597" lon="-2.40266">
        <ele>35.200000762939</ele>
        <time>2021-05-20T08:15:54.000Z</time>
      </trkpt>
      <trkpt lat="47.31629" lon="-2.40289">
        <ele>35.200000762939</ele>
        <time>2021-05-20T08:16:01.000Z</time>
      </trkpt>
      <trkpt lat="47.31651" lon="-2.40306">
        <ele>35.200000762939</ele>
        <time>2021-05-20T08:16:06.000Z</time>
      </trkpt>
      <trkpt lat="47.31671" lon="-2.40323">
        <ele>35.200000762939</ele>
        <time>2021-05-20T08:16:12.000Z</time>
      </trkpt>
      <trkpt lat="47.31675" lon="-2.40327">
        <ele>35.599998474121</ele>
        <time>2021-05-20T08:16:14.000Z</time>
      </trkpt>
      <trkpt lat="47.31678" lon="-2.40328">
        <ele>36</ele>
        <time>2021-05-20T08:16:15.000Z</time>
      </trkpt>
      <trkpt lat="47.31681" lon="-2.4033">
        <ele>36.400001525879</ele>
        <time>2021-05-20T08:16:16.000Z</time>
      </trkpt>
      <trkpt lat="47.31685" lon="-2.40332">
        <ele>36.799999237061</ele>
        <time>2021-05-20T08:16:17.000Z</time>
      </trkpt>
      <trkpt lat="47.31688" lon="-2.40334">
        <ele>37.200000762939</ele>
        <time>2021-05-20T08:16:18.000Z</time>
      </trkpt>
      <trkpt lat="47.31703" lon="-2.40344">
        <ele>37.200000762939</ele>
        <time>2021-05-20T08:16:23.000Z</time>
      </trkpt>
      <trkpt lat="47.31719" lon="-2.40358">
        <ele>37.200000762939</ele>
        <time>2021-05-20T08:16:30.000Z</time>
      </trkpt>
      <trkpt lat="47.31739" lon="-2.40374">
        <ele>37.200000762939</ele>
        <time>2021-05-20T08:16:37.000Z</time>
      </trkpt>
      <trkpt lat="47.31761" lon="-2.40389">
        <ele>37.200000762939</ele>
        <time>2021-05-20T08:16:44.000Z</time>
      </trkpt>
      <trkpt lat="47.31782" lon="-2.40408">
        <ele>37.200000762939</ele>
        <time>2021-05-20T08:16:50.000Z</time>
      </trkpt>
      <trkpt lat="47.31786" lon="-2.40411">
        <ele>37.799999237061</ele>
        <time>2021-05-20T08:16:51.000Z</time>
      </trkpt>
      <trkpt lat="47.3179" lon="-2.40414">
        <ele>38.200000762939</ele>
        <time>2021-05-20T08:16:52.000Z</time>
      </trkpt>
      <trkpt lat="47.31794" lon="-2.40417">
        <ele>38.599998474121</ele>
        <time>2021-05-20T08:16:53.000Z</time>
      </trkpt>
      <trkpt lat="47.31797" lon="-2.4042">
        <ele>39</ele>
        <time>2021-05-20T08:16:54.000Z</time>
      </trkpt>
      <trkpt lat="47.31801" lon="-2.40422">
        <ele>39.400001525879</ele>
        <time>2021-05-20T08:16:55.000Z</time>
      </trkpt>
      <trkpt lat="47.31806" lon="-2.40425">
        <ele>39.400001525879</ele>
        <time>2021-05-20T08:16:56.000Z</time>
      </trkpt>
      <trkpt lat="47.31825" lon="-2.40441">
        <ele>39.400001525879</ele>
        <time>2021-05-20T08:17:01.000Z</time>
      </trkpt>
      <trkpt lat="47.31873" lon="-2.40475">
        <ele>39.400001525879</ele>
        <time>2021-05-20T08:17:10.000Z</time>
      </trkpt>
      <trkpt lat="47.31907" lon="-2.40501">
        <ele>39.400001525879</ele>
        <time>2021-05-20T08:17:17.000Z</time>
      </trkpt>
      <trkpt lat="47.31916" lon="-2.40508">
        <ele>39.799999237061</ele>
        <time>2021-05-20T08:17:19.000Z</time>
      </trkpt>
      <trkpt lat="47.31921" lon="-2.40512">
        <ele>40.200000762939</ele>
        <time>2021-05-20T08:17:20.000Z</time>
      </trkpt>
      <trkpt lat="47.31926" lon="-2.40515">
        <ele>40.599998474121</ele>
        <time>2021-05-20T08:17:21.000Z</time>
      </trkpt>
      <trkpt lat="47.31931" lon="-2.40519">
        <ele>41</ele>
        <time>2021-05-20T08:17:22.000Z</time>
      </trkpt>
      <trkpt lat="47.31935" lon="-2.40523">
        <ele>41.400001525879</ele>
        <time>2021-05-20T08:17:23.000Z</time>
      </trkpt>
      <trkpt lat="47.31964" lon="-2.40545">
        <ele>41.400001525879</ele>
        <time>2021-05-20T08:17:30.000Z</time>
      </trkpt>
      <trkpt lat="47.31968" lon="-2.40548">
        <ele>41.400001525879</ele>
        <time>2021-05-20T08:17:31.000Z</time>
      </trkpt>
      <trkpt lat="47.31991" lon="-2.40567">
        <ele>41.799999237061</ele>
        <time>2021-05-20T08:17:36.000Z</time>
      </trkpt>
      <trkpt lat="47.31996" lon="-2.40571">
        <ele>42.599998474121</ele>
        <time>2021-05-20T08:17:37.000Z</time>
      </trkpt>
      <trkpt lat="47.32" lon="-2.40575">
        <ele>43</ele>
        <time>2021-05-20T08:17:38.000Z</time>
      </trkpt>
      <trkpt lat="47.32005" lon="-2.40578">
        <ele>43.400001525879</ele>
        <time>2021-05-20T08:17:39.000Z</time>
      </trkpt>
      <trkpt lat="47.32028" lon="-2.406">
        <ele>43.400001525879</ele>
        <time>2021-05-20T08:17:44.000Z</time>
      </trkpt>
      <trkpt lat="47.32052" lon="-2.40622">
        <ele>44</ele>
        <time>2021-05-20T08:17:49.000Z</time>
      </trkpt>
      <trkpt lat="47.32057" lon="-2.40626">
        <ele>44.400001525879</ele>
        <time>2021-05-20T08:17:50.000Z</time>
      </trkpt>
      <trkpt lat="47.32062" lon="-2.4063">
        <ele>44.799999237061</ele>
        <time>2021-05-20T08:17:51.000Z</time>
      </trkpt>
      <trkpt lat="47.32067" lon="-2.40635">
        <ele>45.200000762939</ele>
        <time>2021-05-20T08:17:52.000Z</time>
      </trkpt>
      <trkpt lat="47.32071" lon="-2.4064">
        <ele>45.599998474121</ele>
        <time>2021-05-20T08:17:53.000Z</time>
      </trkpt>
      <trkpt lat="47.32106" lon="-2.40675">
        <ele>45.599998474121</ele>
        <time>2021-05-20T08:18:00.000Z</time>
      </trkpt>
      <trkpt lat="47.32139" lon="-2.40711">
        <ele>45.599998474121</ele>
        <time>2021-05-20T08:18:07.000Z</time>
      </trkpt>
      <trkpt lat="47.32169" lon="-2.40749">
        <ele>45.599998474121</ele>
        <time>2021-05-20T08:18:14.000Z</time>
      </trkpt>
      <trkpt lat="47.32193" lon="-2.40784">
        <ele>45.599998474121</ele>
        <time>2021-05-20T08:18:21.000Z</time>
      </trkpt>
      <trkpt lat="47.32205" lon="-2.40795">
        <ele>45.599998474121</ele>
        <time>2021-05-20T08:18:25.000Z</time>
      </trkpt>
      <trkpt lat="47.3221" lon="-2.40796">
        <ele>45.599998474121</ele>
        <time>2021-05-20T08:18:29.000Z</time>
      </trkpt>
      <trkpt lat="47.32215" lon="-2.40805">
        <ele>45.599998474121</ele>
        <time>2021-05-20T08:18:34.000Z</time>
      </trkpt>
      <trkpt lat="47.3222" lon="-2.40814">
        <ele>45.599998474121</ele>
        <time>2021-05-20T08:18:38.000Z</time>
      </trkpt>
      <trkpt lat="47.32223" lon="-2.40816">
        <ele>45.599998474121</ele>
        <time>2021-05-20T08:18:39.000Z</time>
      </trkpt>
      <trkpt lat="47.32232" lon="-2.4083">
        <ele>45.599998474121</ele>
        <time>2021-05-20T08:18:42.000Z</time>
      </trkpt>
      <trkpt lat="47.32254" lon="-2.4087">
        <ele>46</ele>
        <time>2021-05-20T08:18:48.000Z</time>
      </trkpt>
      <trkpt lat="47.32258" lon="-2.40877">
        <ele>46.400001525879</ele>
        <time>2021-05-20T08:18:49.000Z</time>
      </trkpt>
      <trkpt lat="47.32262" lon="-2.40884">
        <ele>47.200000762939</ele>
        <time>2021-05-20T08:18:50.000Z</time>
      </trkpt>
      <trkpt lat="47.32265" lon="-2.4089">
        <ele>47.599998474121</ele>
        <time>2021-05-20T08:18:51.000Z</time>
      </trkpt>
      <trkpt lat="47.32279" lon="-2.40914">
        <ele>47.599998474121</ele>
        <time>2021-05-20T08:18:55.000Z</time>
      </trkpt>
      <trkpt lat="47.32304" lon="-2.40963">
        <ele>47.599998474121</ele>
        <time>2021-05-20T08:19:03.000Z</time>
      </trkpt>
      <trkpt lat="47.32323" lon="-2.40998">
        <ele>47.599998474121</ele>
        <time>2021-05-20T08:19:09.000Z</time>
      </trkpt>
      <trkpt lat="47.32346" lon="-2.41041">
        <ele>47.599998474121</ele>
        <time>2021-05-20T08:19:16.000Z</time>
      </trkpt>
      <trkpt lat="47.32363" lon="-2.41074">
        <ele>48</ele>
        <time>2021-05-20T08:19:22.000Z</time>
      </trkpt>
      <trkpt lat="47.32366" lon="-2.41078">
        <ele>48.400001525879</ele>
        <time>2021-05-20T08:19:23.000Z</time>
      </trkpt>
      <trkpt lat="47.32368" lon="-2.41081">
        <ele>48.799999237061</ele>
        <time>2021-05-20T08:19:24.000Z</time>
      </trkpt>
      <trkpt lat="47.3237" lon="-2.41085">
        <ele>49.200000762939</ele>
        <time>2021-05-20T08:19:25.000Z</time>
      </trkpt>
      <trkpt lat="47.32373" lon="-2.4109">
        <ele>49.599998474121</ele>
        <time>2021-05-20T08:19:26.000Z</time>
      </trkpt>
      <trkpt lat="47.3238" lon="-2.41107">
        <ele>49.599998474121</ele>
        <time>2021-05-20T08:19:29.000Z</time>
      </trkpt>
      <trkpt lat="47.32386" lon="-2.41118">
        <ele>49.599998474121</ele>
        <time>2021-05-20T08:19:31.000Z</time>
      </trkpt>
      <trkpt lat="47.32405" lon="-2.41155">
        <ele>49.599998474121</ele>
        <time>2021-05-20T08:19:38.000Z</time>
      </trkpt>
      <trkpt lat="47.32414" lon="-2.41171">
        <ele>49.599998474121</ele>
        <time>2021-05-20T08:19:43.000Z</time>
      </trkpt>
      <trkpt lat="47.32424" lon="-2.41191">
        <ele>49.599998474121</ele>
        <time>2021-05-20T08:19:48.000Z</time>
      </trkpt>
      <trkpt lat="47.32433" lon="-2.41209">
        <ele>49.599998474121</ele>
        <time>2021-05-20T08:19:52.000Z</time>
      </trkpt>
      <trkpt lat="47.32444" lon="-2.4123">
        <ele>49.599998474121</ele>
        <time>2021-05-20T08:19:56.000Z</time>
      </trkpt>
      <trkpt lat="47.32467" lon="-2.41274">
        <ele>49.599998474121</ele>
        <time>2021-05-20T08:20:03.000Z</time>
      </trkpt>
      <trkpt lat="47.32491" lon="-2.41321">
        <ele>49.599998474121</ele>
        <time>2021-05-20T08:20:10.000Z</time>
      </trkpt>
      <trkpt lat="47.32519" lon="-2.41377">
        <ele>49.599998474121</ele>
        <time>2021-05-20T08:20:18.000Z</time>
      </trkpt>
      <trkpt lat="47.32548" lon="-2.41432">
        <ele>49.599998474121</ele>
        <time>2021-05-20T08:20:26.000Z</time>
      </trkpt>
      <trkpt lat="47.32557" lon="-2.4145">
        <ele>49.599998474121</ele>
        <time>2021-05-20T08:20:29.000Z</time>
      </trkpt>
      <trkpt lat="47.32566" lon="-2.41463">
        <ele>49.599998474121</ele>
        <time>2021-05-20T08:20:32.000Z</time>
      </trkpt>
      <trkpt lat="47.32571" lon="-2.41482">
        <ele>49.599998474121</ele>
        <time>2021-05-20T08:20:36.000Z</time>
      </trkpt>
      <trkpt lat="47.32572" lon="-2.41508">
        <ele>49.599998474121</ele>
        <time>2021-05-20T08:20:40.000Z</time>
      </trkpt>
      <trkpt lat="47.32582" lon="-2.41522">
        <ele>49.599998474121</ele>
        <time>2021-05-20T08:20:43.000Z</time>
      </trkpt>
      <trkpt lat="47.32592" lon="-2.41524">
        <ele>49.599998474121</ele>
        <time>2021-05-20T08:20:45.000Z</time>
      </trkpt>
      <trkpt lat="47.32603" lon="-2.41526">
        <ele>49.599998474121</ele>
        <time>2021-05-20T08:20:47.000Z</time>
      </trkpt>
      <trkpt lat="47.32613" lon="-2.41527">
        <ele>49.599998474121</ele>
        <time>2021-05-20T08:20:49.000Z</time>
      </trkpt>
      <trkpt lat="47.32628" lon="-2.41529">
        <ele>49.200000762939</ele>
        <time>2021-05-20T08:20:52.000Z</time>
      </trkpt>
      <trkpt lat="47.32633" lon="-2.4153">
        <ele>48.799999237061</ele>
        <time>2021-05-20T08:20:53.000Z</time>
      </trkpt>
      <trkpt lat="47.32638" lon="-2.41532">
        <ele>48</ele>
        <time>2021-05-20T08:20:54.000Z</time>
      </trkpt>
      <trkpt lat="47.32643" lon="-2.41533">
        <ele>47.599998474121</ele>
        <time>2021-05-20T08:20:55.000Z</time>
      </trkpt>
      <trkpt lat="47.32668" lon="-2.41537">
        <ele>47.599998474121</ele>
        <time>2021-05-20T08:21:00.000Z</time>
      </trkpt>
      <trkpt lat="47.32696" lon="-2.41543">
        <ele>47.599998474121</ele>
        <time>2021-05-20T08:21:06.000Z</time>
      </trkpt>
      <trkpt lat="47.32699" lon="-2.41545">
        <ele>47.599998474121</ele>
        <time>2021-05-20T08:21:07.000Z</time>
      </trkpt>
      <trkpt lat="47.32703" lon="-2.41551">
        <ele>47.200000762939</ele>
        <time>2021-05-20T08:21:09.000Z</time>
      </trkpt>
      <trkpt lat="47.32703" lon="-2.41554">
        <ele>46.799999237061</ele>
        <time>2021-05-20T08:21:10.000Z</time>
      </trkpt>
      <trkpt lat="47.32702" lon="-2.41558">
        <ele>46.400001525879</ele>
        <time>2021-05-20T08:21:11.000Z</time>
      </trkpt>
      <trkpt lat="47.32702" lon="-2.41562">
        <ele>45.799999237061</ele>
        <time>2021-05-20T08:21:12.000Z</time>
      </trkpt>
      <trkpt lat="47.32701" lon="-2.41566">
        <ele>45.400001525879</ele>
        <time>2021-05-20T08:21:13.000Z</time>
      </trkpt>
      <trkpt lat="47.327" lon="-2.41575">
        <ele>45.400001525879</ele>
        <time>2021-05-20T08:21:16.000Z</time>
      </trkpt>
      <trkpt lat="47.327" lon="-2.41578">
        <ele>45.400001525879</ele>
        <time>2021-05-20T08:21:17.000Z</time>
      </trkpt>
      <trkpt lat="47.32705" lon="-2.41583">
        <ele>45.400001525879</ele>
        <time>2021-05-20T08:21:20.000Z</time>
      </trkpt>
      <trkpt lat="47.32706" lon="-2.41603">
        <ele>45.400001525879</ele>
        <time>2021-05-20T08:21:23.000Z</time>
      </trkpt>
      <trkpt lat="47.32714" lon="-2.4162">
        <ele>45.400001525879</ele>
        <time>2021-05-20T08:21:26.000Z</time>
      </trkpt>
      <trkpt lat="47.32716" lon="-2.41627">
        <ele>45.400001525879</ele>
        <time>2021-05-20T08:21:29.000Z</time>
      </trkpt>
      <trkpt lat="47.32711" lon="-2.41629">
        <ele>45.400001525879</ele>
        <time>2021-05-20T08:21:32.000Z</time>
      </trkpt>
      <trkpt lat="47.32708" lon="-2.4163">
        <ele>45.400001525879</ele>
        <time>2021-05-20T08:21:33.000Z</time>
      </trkpt>
      <trkpt lat="47.32693" lon="-2.41631">
        <ele>45.400001525879</ele>
        <time>2021-05-20T08:21:37.000Z</time>
      </trkpt>
      <trkpt lat="47.32682" lon="-2.4163">
        <ele>45.400001525879</ele>
        <time>2021-05-20T08:21:40.000Z</time>
      </trkpt>
      <trkpt lat="47.32668" lon="-2.41625">
        <ele>45.400001525879</ele>
        <time>2021-05-20T08:21:43.000Z</time>
      </trkpt>
      <trkpt lat="47.32656" lon="-2.4162">
        <ele>45.799999237061</ele>
        <time>2021-05-20T08:21:46.000Z</time>
      </trkpt>
      <trkpt lat="47.32652" lon="-2.41618">
        <ele>46.200000762939</ele>
        <time>2021-05-20T08:21:47.000Z</time>
      </trkpt>
      <trkpt lat="47.32648" lon="-2.41617">
        <ele>46.799999237061</ele>
        <time>2021-05-20T08:21:48.000Z</time>
      </trkpt>
      <trkpt lat="47.32644" lon="-2.41615">
        <ele>47.200000762939</ele>
        <time>2021-05-20T08:21:49.000Z</time>
      </trkpt>
      <trkpt lat="47.32641" lon="-2.41614">
        <ele>47.599998474121</ele>
        <time>2021-05-20T08:21:50.000Z</time>
      </trkpt>
      <trkpt lat="47.32637" lon="-2.41613">
        <ele>47.599998474121</ele>
        <time>2021-05-20T08:21:51.000Z</time>
      </trkpt>
      <trkpt lat="47.32615" lon="-2.41604">
        <ele>48</ele>
        <time>2021-05-20T08:21:58.000Z</time>
      </trkpt>
      <trkpt lat="47.32611" lon="-2.41604">
        <ele>48.400001525879</ele>
        <time>2021-05-20T08:21:59.000Z</time>
      </trkpt>
      <trkpt lat="47.32608" lon="-2.41605">
        <ele>48.799999237061</ele>
        <time>2021-05-20T08:22:00.000Z</time>
      </trkpt>
      <trkpt lat="47.32604" lon="-2.41605">
        <ele>49.200000762939</ele>
        <time>2021-05-20T08:22:01.000Z</time>
      </trkpt>
      <trkpt lat="47.32601" lon="-2.41606">
        <ele>49.599998474121</ele>
        <time>2021-05-20T08:22:02.000Z</time>
      </trkpt>
      <trkpt lat="47.32593" lon="-2.41607">
        <ele>49.599998474121</ele>
        <time>2021-05-20T08:22:04.000Z</time>
      </trkpt>
      <trkpt lat="47.32578" lon="-2.416">
        <ele>49.599998474121</ele>
        <time>2021-05-20T08:22:08.000Z</time>
      </trkpt>
      <trkpt lat="47.32553" lon="-2.41579">
        <ele>49.599998474121</ele>
        <time>2021-05-20T08:22:15.000Z</time>
      </trkpt>
      <trkpt lat="47.32534" lon="-2.4158">
        <ele>49.599998474121</ele>
        <time>2021-05-20T08:22:20.000Z</time>
      </trkpt>
      <trkpt lat="47.32507" lon="-2.41589">
        <ele>49.599998474121</ele>
        <time>2021-05-20T08:22:26.000Z</time>
      </trkpt>
      <trkpt lat="47.32483" lon="-2.41584">
        <ele>49.599998474121</ele>
        <time>2021-05-20T08:22:31.000Z</time>
      </trkpt>
      <trkpt lat="47.32443" lon="-2.4157">
        <ele>49.599998474121</ele>
        <time>2021-05-20T08:22:39.000Z</time>
      </trkpt>
      <trkpt lat="47.32414" lon="-2.41569">
        <ele>49.599998474121</ele>
        <time>2021-05-20T08:22:45.000Z</time>
      </trkpt>
      <trkpt lat="47.32405" lon="-2.41568">
        <ele>49.599998474121</ele>
        <time>2021-05-20T08:22:47.000Z</time>
      </trkpt>
      <trkpt lat="47.32391" lon="-2.41561">
        <ele>49.599998474121</ele>
        <time>2021-05-20T08:22:50.000Z</time>
      </trkpt>
      <trkpt lat="47.32386" lon="-2.41557">
        <ele>49.599998474121</ele>
        <time>2021-05-20T08:22:51.000Z</time>
      </trkpt>
      <trkpt lat="47.32381" lon="-2.41553">
        <ele>49.599998474121</ele>
        <time>2021-05-20T08:22:52.000Z</time>
      </trkpt>
      <trkpt lat="47.32365" lon="-2.41547">
        <ele>49.599998474121</ele>
        <time>2021-05-20T08:22:55.000Z</time>
      </trkpt>
      <trkpt lat="47.32344" lon="-2.4155">
        <ele>49.599998474121</ele>
        <time>2021-05-20T08:22:59.000Z</time>
      </trkpt>
      <trkpt lat="47.32323" lon="-2.41572">
        <ele>49.599998474121</ele>
        <time>2021-05-20T08:23:04.000Z</time>
      </trkpt>
      <trkpt lat="47.32314" lon="-2.41603">
        <ele>49.599998474121</ele>
        <time>2021-05-20T08:23:08.000Z</time>
      </trkpt>
      <trkpt lat="47.32312" lon="-2.41611">
        <ele>49.599998474121</ele>
        <time>2021-05-20T08:23:09.000Z</time>
      </trkpt>
      <trkpt lat="47.3231" lon="-2.4162">
        <ele>49.599998474121</ele>
        <time>2021-05-20T08:23:10.000Z</time>
      </trkpt>
      <trkpt lat="47.32301" lon="-2.41642">
        <ele>49.599998474121</ele>
        <time>2021-05-20T08:23:13.000Z</time>
      </trkpt>
      <trkpt lat="47.32298" lon="-2.41656">
        <ele>49.599998474121</ele>
        <time>2021-05-20T08:23:15.000Z</time>
      </trkpt>
      <trkpt lat="47.32298" lon="-2.41668">
        <ele>49.599998474121</ele>
        <time>2021-05-20T08:23:17.000Z</time>
      </trkpt>
      <trkpt lat="47.32299" lon="-2.41688">
        <ele>49.599998474121</ele>
        <time>2021-05-20T08:23:20.000Z</time>
      </trkpt>
      <trkpt lat="47.32298" lon="-2.41705">
        <ele>49.599998474121</ele>
        <time>2021-05-20T08:23:22.000Z</time>
      </trkpt>
      <trkpt lat="47.32289" lon="-2.41737">
        <ele>49.599998474121</ele>
        <time>2021-05-20T08:23:26.000Z</time>
      </trkpt>
      <trkpt lat="47.32286" lon="-2.41744">
        <ele>49.599998474121</ele>
        <time>2021-05-20T08:23:27.000Z</time>
      </trkpt>
      <trkpt lat="47.32282" lon="-2.41757">
        <ele>49.599998474121</ele>
        <time>2021-05-20T08:23:29.000Z</time>
      </trkpt>
      <trkpt lat="47.32282" lon="-2.4177">
        <ele>49.599998474121</ele>
        <time>2021-05-20T08:23:31.000Z</time>
      </trkpt>
      <trkpt lat="47.3229" lon="-2.41787">
        <ele>49.200000762939</ele>
        <time>2021-05-20T08:23:34.000Z</time>
      </trkpt>
      <trkpt lat="47.32292" lon="-2.41792">
        <ele>48.799999237061</ele>
        <time>2021-05-20T08:23:35.000Z</time>
      </trkpt>
      <trkpt lat="47.32293" lon="-2.41799">
        <ele>48.400001525879</ele>
        <time>2021-05-20T08:23:36.000Z</time>
      </trkpt>
      <trkpt lat="47.32293" lon="-2.41805">
        <ele>47.799999237061</ele>
        <time>2021-05-20T08:23:37.000Z</time>
      </trkpt>
      <trkpt lat="47.32291" lon="-2.41811">
        <ele>47.400001525879</ele>
        <time>2021-05-20T08:23:38.000Z</time>
      </trkpt>
      <trkpt lat="47.32278" lon="-2.41832">
        <ele>47.400001525879</ele>
        <time>2021-05-20T08:23:42.000Z</time>
      </trkpt>
      <trkpt lat="47.3225" lon="-2.41876">
        <ele>47.400001525879</ele>
        <time>2021-05-20T08:23:50.000Z</time>
      </trkpt>
      <trkpt lat="47.32251" lon="-2.41898">
        <ele>47.400001525879</ele>
        <time>2021-05-20T08:23:53.000Z</time>
      </trkpt>
      <trkpt lat="47.32256" lon="-2.41912">
        <ele>47</ele>
        <time>2021-05-20T08:23:55.000Z</time>
      </trkpt>
      <trkpt lat="47.32259" lon="-2.41919">
        <ele>46.599998474121</ele>
        <time>2021-05-20T08:23:56.000Z</time>
      </trkpt>
      <trkpt lat="47.32263" lon="-2.41925">
        <ele>46.200000762939</ele>
        <time>2021-05-20T08:23:57.000Z</time>
      </trkpt>
      <trkpt lat="47.32267" lon="-2.41931">
        <ele>45.599998474121</ele>
        <time>2021-05-20T08:23:58.000Z</time>
      </trkpt>
      <trkpt lat="47.32271" lon="-2.41937">
        <ele>45.200000762939</ele>
        <time>2021-05-20T08:23:59.000Z</time>
      </trkpt>
      <trkpt lat="47.3229" lon="-2.41956">
        <ele>45.200000762939</ele>
        <time>2021-05-20T08:24:03.000Z</time>
      </trkpt>
      <trkpt lat="47.32315" lon="-2.4198">
        <ele>45.200000762939</ele>
        <time>2021-05-20T08:24:09.000Z</time>
      </trkpt>
      <trkpt lat="47.32322" lon="-2.41989">
        <ele>45.200000762939</ele>
        <time>2021-05-20T08:24:11.000Z</time>
      </trkpt>
      <trkpt lat="47.32329" lon="-2.41999">
        <ele>45.200000762939</ele>
        <time>2021-05-20T08:24:13.000Z</time>
      </trkpt>
      <trkpt lat="47.32341" lon="-2.42011">
        <ele>45.200000762939</ele>
        <time>2021-05-20T08:24:16.000Z</time>
      </trkpt>
      <trkpt lat="47.32345" lon="-2.42014">
        <ele>45.599998474121</ele>
        <time>2021-05-20T08:24:17.000Z</time>
      </trkpt>
      <trkpt lat="47.32349" lon="-2.42018">
        <ele>46</ele>
        <time>2021-05-20T08:24:18.000Z</time>
      </trkpt>
      <trkpt lat="47.32352" lon="-2.42023">
        <ele>46.400001525879</ele>
        <time>2021-05-20T08:24:19.000Z</time>
      </trkpt>
      <trkpt lat="47.32356" lon="-2.42027">
        <ele>46.799999237061</ele>
        <time>2021-05-20T08:24:20.000Z</time>
      </trkpt>
      <trkpt lat="47.3236" lon="-2.42031">
        <ele>47.200000762939</ele>
        <time>2021-05-20T08:24:21.000Z</time>
      </trkpt>
      <trkpt lat="47.32368" lon="-2.4204">
        <ele>47.200000762939</ele>
        <time>2021-05-20T08:24:23.000Z</time>
      </trkpt>
      <trkpt lat="47.32388" lon="-2.4206">
        <ele>47.200000762939</ele>
        <time>2021-05-20T08:24:28.000Z</time>
      </trkpt>
      <trkpt lat="47.32395" lon="-2.42069">
        <ele>47.200000762939</ele>
        <time>2021-05-20T08:24:30.000Z</time>
      </trkpt>
      <trkpt lat="47.32415" lon="-2.4209">
        <ele>48.200000762939</ele>
        <time>2021-05-20T08:24:36.000Z</time>
      </trkpt>
      <trkpt lat="47.32418" lon="-2.42092">
        <ele>48.599998474121</ele>
        <time>2021-05-20T08:24:37.000Z</time>
      </trkpt>
      <trkpt lat="47.32422" lon="-2.42095">
        <ele>49</ele>
        <time>2021-05-20T08:24:38.000Z</time>
      </trkpt>
      <trkpt lat="47.32424" lon="-2.42098">
        <ele>49.400001525879</ele>
        <time>2021-05-20T08:24:39.000Z</time>
      </trkpt>
      <trkpt lat="47.32431" lon="-2.42106">
        <ele>49.400001525879</ele>
        <time>2021-05-20T08:24:42.000Z</time>
      </trkpt>
      <trkpt lat="47.32442" lon="-2.42124">
        <ele>49.400001525879</ele>
        <time>2021-05-20T08:24:48.000Z</time>
      </trkpt>
      <trkpt lat="47.32439" lon="-2.42141">
        <ele>49.400001525879</ele>
        <time>2021-05-20T08:24:51.000Z</time>
      </trkpt>
      <trkpt lat="47.32435" lon="-2.42146">
        <ele>49.400001525879</ele>
        <time>2021-05-20T08:24:52.000Z</time>
      </trkpt>
      <trkpt lat="47.32432" lon="-2.42151">
        <ele>49.799999237061</ele>
        <time>2021-05-20T08:24:53.000Z</time>
      </trkpt>
      <trkpt lat="47.32428" lon="-2.42155">
        <ele>50.200000762939</ele>
        <time>2021-05-20T08:24:54.000Z</time>
      </trkpt>
      <trkpt lat="47.32424" lon="-2.42161">
        <ele>50.599998474121</ele>
        <time>2021-05-20T08:24:55.000Z</time>
      </trkpt>
      <trkpt lat="47.3242" lon="-2.42166">
        <ele>51.200000762939</ele>
        <time>2021-05-20T08:24:56.000Z</time>
      </trkpt>
      <trkpt lat="47.32416" lon="-2.42172">
        <ele>51.599998474121</ele>
        <time>2021-05-20T08:24:57.000Z</time>
      </trkpt>
      <trkpt lat="47.32407" lon="-2.42182">
        <ele>51.599998474121</ele>
        <time>2021-05-20T08:24:59.000Z</time>
      </trkpt>
      <trkpt lat="47.32398" lon="-2.42191">
        <ele>51.599998474121</ele>
        <time>2021-05-20T08:25:01.000Z</time>
      </trkpt>
      <trkpt lat="47.32374" lon="-2.42219">
        <ele>51.599998474121</ele>
        <time>2021-05-20T08:25:07.000Z</time>
      </trkpt>
      <trkpt lat="47.32348" lon="-2.42253">
        <ele>51.599998474121</ele>
        <time>2021-05-20T08:25:14.000Z</time>
      </trkpt>
      <trkpt lat="47.32337" lon="-2.42269">
        <ele>51.200000762939</ele>
        <time>2021-05-20T08:25:17.000Z</time>
      </trkpt>
      <trkpt lat="47.32334" lon="-2.42274">
        <ele>50.599998474121</ele>
        <time>2021-05-20T08:25:18.000Z</time>
      </trkpt>
      <trkpt lat="47.32331" lon="-2.42279">
        <ele>50.200000762939</ele>
        <time>2021-05-20T08:25:19.000Z</time>
      </trkpt>
      <trkpt lat="47.32328" lon="-2.42284">
        <ele>49.799999237061</ele>
        <time>2021-05-20T08:25:20.000Z</time>
      </trkpt>
      <trkpt lat="47.32325" lon="-2.42289">
        <ele>49.400001525879</ele>
        <time>2021-05-20T08:25:21.000Z</time>
      </trkpt>
      <trkpt lat="47.32318" lon="-2.42307">
        <ele>49.400001525879</ele>
        <time>2021-05-20T08:25:24.000Z</time>
      </trkpt>
      <trkpt lat="47.32319" lon="-2.42321">
        <ele>49.400001525879</ele>
        <time>2021-05-20T08:25:26.000Z</time>
      </trkpt>
      <trkpt lat="47.32325" lon="-2.42385">
        <ele>49.400001525879</ele>
        <time>2021-05-20T08:25:34.000Z</time>
      </trkpt>
      <trkpt lat="47.32326" lon="-2.42394">
        <ele>49</ele>
        <time>2021-05-20T08:25:35.000Z</time>
      </trkpt>
      <trkpt lat="47.32325" lon="-2.42402">
        <ele>48.599998474121</ele>
        <time>2021-05-20T08:25:36.000Z</time>
      </trkpt>
      <trkpt lat="47.32324" lon="-2.4241">
        <ele>48.200000762939</ele>
        <time>2021-05-20T08:25:37.000Z</time>
      </trkpt>
      <trkpt lat="47.32322" lon="-2.42417">
        <ele>47.799999237061</ele>
        <time>2021-05-20T08:25:38.000Z</time>
      </trkpt>
      <trkpt lat="47.32319" lon="-2.42424">
        <ele>47.200000762939</ele>
        <time>2021-05-20T08:25:39.000Z</time>
      </trkpt>
      <trkpt lat="47.32313" lon="-2.42434">
        <ele>47.200000762939</ele>
        <time>2021-05-20T08:25:41.000Z</time>
      </trkpt>
      <trkpt lat="47.3231" lon="-2.42439">
        <ele>47.200000762939</ele>
        <time>2021-05-20T08:25:42.000Z</time>
      </trkpt>
      <trkpt lat="47.32303" lon="-2.42453">
        <ele>47.200000762939</ele>
        <time>2021-05-20T08:25:45.000Z</time>
      </trkpt>
      <trkpt lat="47.32296" lon="-2.42472">
        <ele>47.200000762939</ele>
        <time>2021-05-20T08:25:48.000Z</time>
      </trkpt>
      <trkpt lat="47.32283" lon="-2.42505">
        <ele>46.799999237061</ele>
        <time>2021-05-20T08:25:53.000Z</time>
      </trkpt>
      <trkpt lat="47.32279" lon="-2.42512">
        <ele>46.400001525879</ele>
        <time>2021-05-20T08:25:54.000Z</time>
      </trkpt>
      <trkpt lat="47.32275" lon="-2.42519">
        <ele>46</ele>
        <time>2021-05-20T08:25:55.000Z</time>
      </trkpt>
      <trkpt lat="47.32271" lon="-2.42527">
        <ele>45.599998474121</ele>
        <time>2021-05-20T08:25:56.000Z</time>
      </trkpt>
      <trkpt lat="47.32268" lon="-2.42536">
        <ele>45</ele>
        <time>2021-05-20T08:25:57.000Z</time>
      </trkpt>
      <trkpt lat="47.32254" lon="-2.42564">
        <ele>44.599998474121</ele>
        <time>2021-05-20T08:26:00.000Z</time>
      </trkpt>
      <trkpt lat="47.32249" lon="-2.42573">
        <ele>44.200000762939</ele>
        <time>2021-05-20T08:26:01.000Z</time>
      </trkpt>
      <trkpt lat="47.32244" lon="-2.42583">
        <ele>43.799999237061</ele>
        <time>2021-05-20T08:26:02.000Z</time>
      </trkpt>
      <trkpt lat="47.32239" lon="-2.42592">
        <ele>43.400001525879</ele>
        <time>2021-05-20T08:26:03.000Z</time>
      </trkpt>
      <trkpt lat="47.32233" lon="-2.42601">
        <ele>43</ele>
        <time>2021-05-20T08:26:04.000Z</time>
      </trkpt>
      <trkpt lat="47.32221" lon="-2.42618">
        <ele>42.599998474121</ele>
        <time>2021-05-20T08:26:06.000Z</time>
      </trkpt>
      <trkpt lat="47.32215" lon="-2.42627">
        <ele>42</ele>
        <time>2021-05-20T08:26:07.000Z</time>
      </trkpt>
      <trkpt lat="47.32209" lon="-2.42635">
        <ele>41.599998474121</ele>
        <time>2021-05-20T08:26:08.000Z</time>
      </trkpt>
      <trkpt lat="47.32203" lon="-2.42645">
        <ele>41.200000762939</ele>
        <time>2021-05-20T08:26:09.000Z</time>
      </trkpt>
      <trkpt lat="47.32196" lon="-2.42653">
        <ele>40.599998474121</ele>
        <time>2021-05-20T08:26:10.000Z</time>
      </trkpt>
      <trkpt lat="47.3219" lon="-2.42662">
        <ele>40.200000762939</ele>
        <time>2021-05-20T08:26:11.000Z</time>
      </trkpt>
      <trkpt lat="47.32184" lon="-2.42671">
        <ele>39.599998474121</ele>
        <time>2021-05-20T08:26:12.000Z</time>
      </trkpt>
      <trkpt lat="47.32177" lon="-2.4268">
        <ele>39</ele>
        <time>2021-05-20T08:26:13.000Z</time>
      </trkpt>
      <trkpt lat="47.32171" lon="-2.42689">
        <ele>38.599998474121</ele>
        <time>2021-05-20T08:26:14.000Z</time>
      </trkpt>
      <trkpt lat="47.32165" lon="-2.42697">
        <ele>38.200000762939</ele>
        <time>2021-05-20T08:26:15.000Z</time>
      </trkpt>
      <trkpt lat="47.32159" lon="-2.42706">
        <ele>37.400001525879</ele>
        <time>2021-05-20T08:26:16.000Z</time>
      </trkpt>
      <trkpt lat="47.32153" lon="-2.42714">
        <ele>37</ele>
        <time>2021-05-20T08:26:17.000Z</time>
      </trkpt>
      <trkpt lat="47.32147" lon="-2.42723">
        <ele>36.599998474121</ele>
        <time>2021-05-20T08:26:18.000Z</time>
      </trkpt>
      <trkpt lat="47.32136" lon="-2.42739">
        <ele>36.200000762939</ele>
        <time>2021-05-20T08:26:20.000Z</time>
      </trkpt>
      <trkpt lat="47.32129" lon="-2.42747">
        <ele>35.599998474121</ele>
        <time>2021-05-20T08:26:21.000Z</time>
      </trkpt>
      <trkpt lat="47.32123" lon="-2.42754">
        <ele>35.200000762939</ele>
        <time>2021-05-20T08:26:22.000Z</time>
      </trkpt>
      <trkpt lat="47.32116" lon="-2.4276">
        <ele>34.799999237061</ele>
        <time>2021-05-20T08:26:23.000Z</time>
      </trkpt>
      <trkpt lat="47.32108" lon="-2.42766">
        <ele>34.400001525879</ele>
        <time>2021-05-20T08:26:24.000Z</time>
      </trkpt>
      <trkpt lat="47.32101" lon="-2.42771">
        <ele>33.799999237061</ele>
        <time>2021-05-20T08:26:25.000Z</time>
      </trkpt>
      <trkpt lat="47.32094" lon="-2.42776">
        <ele>33.400001525879</ele>
        <time>2021-05-20T08:26:26.000Z</time>
      </trkpt>
      <trkpt lat="47.32086" lon="-2.4278">
        <ele>32.799999237061</ele>
        <time>2021-05-20T08:26:27.000Z</time>
      </trkpt>
      <trkpt lat="47.3208" lon="-2.42783">
        <ele>32.400001525879</ele>
        <time>2021-05-20T08:26:28.000Z</time>
      </trkpt>
      <trkpt lat="47.32062" lon="-2.42793">
        <ele>32</ele>
        <time>2021-05-20T08:26:31.000Z</time>
      </trkpt>
      <trkpt lat="47.32056" lon="-2.42796">
        <ele>31.60000038147</ele>
        <time>2021-05-20T08:26:32.000Z</time>
      </trkpt>
      <trkpt lat="47.3205" lon="-2.42799">
        <ele>31.200000762939</ele>
        <time>2021-05-20T08:26:33.000Z</time>
      </trkpt>
      <trkpt lat="47.32045" lon="-2.42802">
        <ele>30.60000038147</ele>
        <time>2021-05-20T08:26:34.000Z</time>
      </trkpt>
      <trkpt lat="47.3204" lon="-2.42807">
        <ele>30.200000762939</ele>
        <time>2021-05-20T08:26:35.000Z</time>
      </trkpt>
      <trkpt lat="47.32033" lon="-2.42816">
        <ele>30.200000762939</ele>
        <time>2021-05-20T08:26:37.000Z</time>
      </trkpt>
      <trkpt lat="47.32031" lon="-2.42821">
        <ele>29.799999237061</ele>
        <time>2021-05-20T08:26:38.000Z</time>
      </trkpt>
      <trkpt lat="47.3203" lon="-2.42825">
        <ele>29.39999961853</ele>
        <time>2021-05-20T08:26:39.000Z</time>
      </trkpt>
      <trkpt lat="47.32028" lon="-2.4283">
        <ele>29</ele>
        <time>2021-05-20T08:26:40.000Z</time>
      </trkpt>
      <trkpt lat="47.32027" lon="-2.42833">
        <ele>28.200000762939</ele>
        <time>2021-05-20T08:26:41.000Z</time>
      </trkpt>
      <trkpt lat="47.32014" lon="-2.42849">
        <ele>28.200000762939</ele>
        <time>2021-05-20T08:26:45.000Z</time>
      </trkpt>
      <trkpt lat="47.3201" lon="-2.42853">
        <ele>28.200000762939</ele>
        <time>2021-05-20T08:26:46.000Z</time>
      </trkpt>
      <trkpt lat="47.3199" lon="-2.4287">
        <ele>28.200000762939</ele>
        <time>2021-05-20T08:26:50.000Z</time>
      </trkpt>
      <trkpt lat="47.31985" lon="-2.42876">
        <ele>27.799999237061</ele>
        <time>2021-05-20T08:26:51.000Z</time>
      </trkpt>
      <trkpt lat="47.31981" lon="-2.42882">
        <ele>27.39999961853</ele>
        <time>2021-05-20T08:26:52.000Z</time>
      </trkpt>
      <trkpt lat="47.31976" lon="-2.42888">
        <ele>27</ele>
        <time>2021-05-20T08:26:53.000Z</time>
      </trkpt>
      <trkpt lat="47.31971" lon="-2.42894">
        <ele>26.60000038147</ele>
        <time>2021-05-20T08:26:54.000Z</time>
      </trkpt>
      <trkpt lat="47.31966" lon="-2.429">
        <ele>26.200000762939</ele>
        <time>2021-05-20T08:26:55.000Z</time>
      </trkpt>
      <trkpt lat="47.31946" lon="-2.42926">
        <ele>26.200000762939</ele>
        <time>2021-05-20T08:26:59.000Z</time>
      </trkpt>
      <trkpt lat="47.31931" lon="-2.42944">
        <ele>25.799999237061</ele>
        <time>2021-05-20T08:27:02.000Z</time>
      </trkpt>
      <trkpt lat="47.31926" lon="-2.4295">
        <ele>25.200000762939</ele>
        <time>2021-05-20T08:27:03.000Z</time>
      </trkpt>
      <trkpt lat="47.31921" lon="-2.42956">
        <ele>24.799999237061</ele>
        <time>2021-05-20T08:27:04.000Z</time>
      </trkpt>
      <trkpt lat="47.31916" lon="-2.42961">
        <ele>23.799999237061</ele>
        <time>2021-05-20T08:27:05.000Z</time>
      </trkpt>
      <trkpt lat="47.31906" lon="-2.42973">
        <ele>23.799999237061</ele>
        <time>2021-05-20T08:27:07.000Z</time>
      </trkpt>
      <trkpt lat="47.31896" lon="-2.42985">
        <ele>23.39999961853</ele>
        <time>2021-05-20T08:27:09.000Z</time>
      </trkpt>
      <trkpt lat="47.31891" lon="-2.42991">
        <ele>23</ele>
        <time>2021-05-20T08:27:10.000Z</time>
      </trkpt>
      <trkpt lat="47.31886" lon="-2.42996">
        <ele>22.60000038147</ele>
        <time>2021-05-20T08:27:11.000Z</time>
      </trkpt>
      <trkpt lat="47.31881" lon="-2.43">
        <ele>22.200000762939</ele>
        <time>2021-05-20T08:27:12.000Z</time>
      </trkpt>
      <trkpt lat="47.31876" lon="-2.43004">
        <ele>21.799999237061</ele>
        <time>2021-05-20T08:27:13.000Z</time>
      </trkpt>
      <trkpt lat="47.3187" lon="-2.43008">
        <ele>21.799999237061</ele>
        <time>2021-05-20T08:27:14.000Z</time>
      </trkpt>
      <trkpt lat="47.31853" lon="-2.43014">
        <ele>21.799999237061</ele>
        <time>2021-05-20T08:27:17.000Z</time>
      </trkpt>
      <trkpt lat="47.31841" lon="-2.43015">
        <ele>21.799999237061</ele>
        <time>2021-05-20T08:27:19.000Z</time>
      </trkpt>
      <trkpt lat="47.3182" lon="-2.43016">
        <ele>21.799999237061</ele>
        <time>2021-05-20T08:27:23.000Z</time>
      </trkpt>
      <trkpt lat="47.31815" lon="-2.43021">
        <ele>21.799999237061</ele>
        <time>2021-05-20T08:27:24.000Z</time>
      </trkpt>
      <trkpt lat="47.31791" lon="-2.43045">
        <ele>21.200000762939</ele>
        <time>2021-05-20T08:27:28.000Z</time>
      </trkpt>
      <trkpt lat="47.31785" lon="-2.43051">
        <ele>20.799999237061</ele>
        <time>2021-05-20T08:27:29.000Z</time>
      </trkpt>
      <trkpt lat="47.31778" lon="-2.43059">
        <ele>20</ele>
        <time>2021-05-20T08:27:30.000Z</time>
      </trkpt>
      <trkpt lat="47.31771" lon="-2.43067">
        <ele>19.39999961853</ele>
        <time>2021-05-20T08:27:31.000Z</time>
      </trkpt>
      <trkpt lat="47.31764" lon="-2.43075">
        <ele>18.799999237061</ele>
        <time>2021-05-20T08:27:32.000Z</time>
      </trkpt>
      <trkpt lat="47.31756" lon="-2.43083">
        <ele>18.200000762939</ele>
        <time>2021-05-20T08:27:33.000Z</time>
      </trkpt>
      <trkpt lat="47.3175" lon="-2.43092">
        <ele>17.60000038147</ele>
        <time>2021-05-20T08:27:34.000Z</time>
      </trkpt>
      <trkpt lat="47.31743" lon="-2.431">
        <ele>17</ele>
        <time>2021-05-20T08:27:35.000Z</time>
      </trkpt>
      <trkpt lat="47.31736" lon="-2.43108">
        <ele>16.39999961853</ele>
        <time>2021-05-20T08:27:36.000Z</time>
      </trkpt>
      <trkpt lat="47.31729" lon="-2.43116">
        <ele>16</ele>
        <time>2021-05-20T08:27:37.000Z</time>
      </trkpt>
      <trkpt lat="47.31722" lon="-2.43124">
        <ele>15.199999809265</ele>
        <time>2021-05-20T08:27:38.000Z</time>
      </trkpt>
      <trkpt lat="47.31715" lon="-2.43131">
        <ele>14.60000038147</ele>
        <time>2021-05-20T08:27:39.000Z</time>
      </trkpt>
      <trkpt lat="47.31708" lon="-2.43139">
        <ele>14</ele>
        <time>2021-05-20T08:27:40.000Z</time>
      </trkpt>
      <trkpt lat="47.31702" lon="-2.43146">
        <ele>13.39999961853</ele>
        <time>2021-05-20T08:27:41.000Z</time>
      </trkpt>
      <trkpt lat="47.31695" lon="-2.43153">
        <ele>12.60000038147</ele>
        <time>2021-05-20T08:27:42.000Z</time>
      </trkpt>
      <trkpt lat="47.31688" lon="-2.43161">
        <ele>12.199999809265</ele>
        <time>2021-05-20T08:27:43.000Z</time>
      </trkpt>
      <trkpt lat="47.31682" lon="-2.43168">
        <ele>11.60000038147</ele>
        <time>2021-05-20T08:27:44.000Z</time>
      </trkpt>
      <trkpt lat="47.31675" lon="-2.43175">
        <ele>11</ele>
        <time>2021-05-20T08:27:45.000Z</time>
      </trkpt>
      <trkpt lat="47.31669" lon="-2.43182">
        <ele>10.60000038147</ele>
        <time>2021-05-20T08:27:46.000Z</time>
      </trkpt>
      <trkpt lat="47.31664" lon="-2.43188">
        <ele>10</ele>
        <time>2021-05-20T08:27:47.000Z</time>
      </trkpt>
      <trkpt lat="47.31647" lon="-2.43208">
        <ele>10</ele>
        <time>2021-05-20T08:27:50.000Z</time>
      </trkpt>
      <trkpt lat="47.31631" lon="-2.43226">
        <ele>9.6000003814697</ele>
        <time>2021-05-20T08:27:53.000Z</time>
      </trkpt>
      <trkpt lat="47.31625" lon="-2.4323">
        <ele>9.1999998092651</ele>
        <time>2021-05-20T08:27:54.000Z</time>
      </trkpt>
      <trkpt lat="47.31618" lon="-2.43233">
        <ele>8.3999996185303</ele>
        <time>2021-05-20T08:27:55.000Z</time>
      </trkpt>
      <trkpt lat="47.31612" lon="-2.43236">
        <ele>8</ele>
        <time>2021-05-20T08:27:56.000Z</time>
      </trkpt>
      <trkpt lat="47.31581" lon="-2.43248">
        <ele>7.5999999046326</ele>
        <time>2021-05-20T08:28:01.000Z</time>
      </trkpt>
      <trkpt lat="47.31575" lon="-2.43251">
        <ele>7.1999998092651</ele>
        <time>2021-05-20T08:28:02.000Z</time>
      </trkpt>
      <trkpt lat="47.3157" lon="-2.43253">
        <ele>6.5999999046326</ele>
        <time>2021-05-20T08:28:03.000Z</time>
      </trkpt>
      <trkpt lat="47.31564" lon="-2.43255">
        <ele>6.1999998092651</ele>
        <time>2021-05-20T08:28:04.000Z</time>
      </trkpt>
      <trkpt lat="47.31559" lon="-2.43258">
        <ele>5.8000001907349</ele>
        <time>2021-05-20T08:28:05.000Z</time>
      </trkpt>
      <trkpt lat="47.31523" lon="-2.4327">
        <ele>5.8000001907349</ele>
        <time>2021-05-20T08:28:11.000Z</time>
      </trkpt>
      <trkpt lat="47.3147" lon="-2.43283">
        <ele>5.1999998092651</ele>
        <time>2021-05-20T08:28:20.000Z</time>
      </trkpt>
      <trkpt lat="47.31464" lon="-2.43285">
        <ele>4.8000001907349</ele>
        <time>2021-05-20T08:28:21.000Z</time>
      </trkpt>
      <trkpt lat="47.31458" lon="-2.43286">
        <ele>4.4000000953674</ele>
        <time>2021-05-20T08:28:22.000Z</time>
      </trkpt>
      <trkpt lat="47.31452" lon="-2.43287">
        <ele>4</ele>
        <time>2021-05-20T08:28:23.000Z</time>
      </trkpt>
      <trkpt lat="47.31446" lon="-2.43288">
        <ele>3.4000000953674</ele>
        <time>2021-05-20T08:28:24.000Z</time>
      </trkpt>
      <trkpt lat="47.31424" lon="-2.43294">
        <ele>3.4000000953674</ele>
        <time>2021-05-20T08:28:28.000Z</time>
      </trkpt>
      <trkpt lat="47.31373" lon="-2.43306">
        <ele>3.4000000953674</ele>
        <time>2021-05-20T08:28:37.000Z</time>
      </trkpt>
      <trkpt lat="47.31328" lon="-2.43317">
        <ele>3.4000000953674</ele>
        <time>2021-05-20T08:28:45.000Z</time>
      </trkpt>
      <trkpt lat="47.31284" lon="-2.43333">
        <ele>3.4000000953674</ele>
        <time>2021-05-20T08:28:53.000Z</time>
      </trkpt>
      <trkpt lat="47.31231" lon="-2.43355">
        <ele>3.4000000953674</ele>
        <time>2021-05-20T08:29:03.000Z</time>
      </trkpt>
      <trkpt lat="47.31227" lon="-2.43357">
        <ele>3</ele>
        <time>2021-05-20T08:29:04.000Z</time>
      </trkpt>
      <trkpt lat="47.31223" lon="-2.43358">
        <ele>2.5999999046326</ele>
        <time>2021-05-20T08:29:05.000Z</time>
      </trkpt>
      <trkpt lat="47.31218" lon="-2.43359">
        <ele>2</ele>
        <time>2021-05-20T08:29:06.000Z</time>
      </trkpt>
      <trkpt lat="47.31214" lon="-2.4336">
        <ele>1.6000000238419</ele>
        <time>2021-05-20T08:29:07.000Z</time>
      </trkpt>
      <trkpt lat="47.3121" lon="-2.43363">
        <ele>1.2000000476837</ele>
        <time>2021-05-20T08:29:08.000Z</time>
      </trkpt>
      <trkpt lat="47.31207" lon="-2.43366">
        <ele>1.2000000476837</ele>
        <time>2021-05-20T08:29:09.000Z</time>
      </trkpt>
      <trkpt lat="47.31203" lon="-2.43388">
        <ele>1.2000000476837</ele>
        <time>2021-05-20T08:29:12.000Z</time>
      </trkpt>
      <trkpt lat="47.31206" lon="-2.43404">
        <ele>1.2000000476837</ele>
        <time>2021-05-20T08:29:14.000Z</time>
      </trkpt>
      <trkpt lat="47.31209" lon="-2.43422">
        <ele>1.2000000476837</ele>
        <time>2021-05-20T08:29:16.000Z</time>
      </trkpt>
      <trkpt lat="47.31212" lon="-2.4344">
        <ele>1.2000000476837</ele>
        <time>2021-05-20T08:29:18.000Z</time>
      </trkpt>
      <trkpt lat="47.31218" lon="-2.43476">
        <ele>1.2000000476837</ele>
        <time>2021-05-20T08:29:22.000Z</time>
      </trkpt>
      <trkpt lat="47.31228" lon="-2.43546">
        <ele>1.2000000476837</ele>
        <time>2021-05-20T08:29:30.000Z</time>
      </trkpt>
      <trkpt lat="47.31239" lon="-2.43616">
        <ele>1.2000000476837</ele>
        <time>2021-05-20T08:29:38.000Z</time>
      </trkpt>
      <trkpt lat="47.31252" lon="-2.43684">
        <ele>1.2000000476837</ele>
        <time>2021-05-20T08:29:46.000Z</time>
      </trkpt>
      <trkpt lat="47.31259" lon="-2.43707">
        <ele>1.2000000476837</ele>
        <time>2021-05-20T08:29:49.000Z</time>
      </trkpt>
      <trkpt lat="47.31269" lon="-2.43729">
        <ele>1.2000000476837</ele>
        <time>2021-05-20T08:29:52.000Z</time>
      </trkpt>
      <trkpt lat="47.31272" lon="-2.43737">
        <ele>0.80000001192093</ele>
        <time>2021-05-20T08:29:53.000Z</time>
      </trkpt>
      <trkpt lat="47.31275" lon="-2.43744">
        <ele>0.40000000596046</ele>
        <time>2021-05-20T08:29:54.000Z</time>
      </trkpt>
      <trkpt lat="47.31279" lon="-2.43752">
        <ele>-0.20000000298023</ele>
        <time>2021-05-20T08:29:55.000Z</time>
      </trkpt>
      <trkpt lat="47.31282" lon="-2.4376">
        <ele>-0.60000002384186</ele>
        <time>2021-05-20T08:29:56.000Z</time>
      </trkpt>
      <trkpt lat="47.31285" lon="-2.43769">
        <ele>-1</ele>
        <time>2021-05-20T08:29:57.000Z</time>
      </trkpt>
      <trkpt lat="47.31292" lon="-2.43785">
        <ele>-1</ele>
        <time>2021-05-20T08:29:59.000Z</time>
      </trkpt>
      <trkpt lat="47.31308" lon="-2.43814">
        <ele>-1</ele>
        <time>2021-05-20T08:30:03.000Z</time>
      </trkpt>
      <trkpt lat="47.31318" lon="-2.43824">
        <ele>-1</ele>
        <time>2021-05-20T08:30:05.000Z</time>
      </trkpt>
      <trkpt lat="47.31326" lon="-2.43837">
        <ele>-1</ele>
        <time>2021-05-20T08:30:07.000Z</time>
      </trkpt>
      <trkpt lat="47.31335" lon="-2.43859">
        <ele>-1</ele>
        <time>2021-05-20T08:30:10.000Z</time>
      </trkpt>
      <trkpt lat="47.31355" lon="-2.43912">
        <ele>-1</ele>
        <time>2021-05-20T08:30:17.000Z</time>
      </trkpt>
      <trkpt lat="47.31379" lon="-2.43964">
        <ele>-1</ele>
        <time>2021-05-20T08:30:24.000Z</time>
      </trkpt>
      <trkpt lat="47.31388" lon="-2.43976">
        <ele>-1</ele>
        <time>2021-05-20T08:30:26.000Z</time>
      </trkpt>
      <trkpt lat="47.31405" lon="-2.44">
        <ele>-1</ele>
        <time>2021-05-20T08:30:30.000Z</time>
      </trkpt>
      <trkpt lat="47.31438" lon="-2.44041">
        <ele>-1</ele>
        <time>2021-05-20T08:30:37.000Z</time>
      </trkpt>
      <trkpt lat="47.31472" lon="-2.44084">
        <ele>-1.3999999761581</ele>
        <time>2021-05-20T08:30:44.000Z</time>
      </trkpt>
      <trkpt lat="47.31476" lon="-2.4409">
        <ele>-1.7999999523163</ele>
        <time>2021-05-20T08:30:45.000Z</time>
      </trkpt>
      <trkpt lat="47.31481" lon="-2.44097">
        <ele>-2.2000000476837</ele>
        <time>2021-05-20T08:30:46.000Z</time>
      </trkpt>
      <trkpt lat="47.31486" lon="-2.44103">
        <ele>-2.5999999046326</ele>
        <time>2021-05-20T08:30:47.000Z</time>
      </trkpt>
      <trkpt lat="47.31491" lon="-2.4411">
        <ele>-3</ele>
        <time>2021-05-20T08:30:48.000Z</time>
      </trkpt>
      <trkpt lat="47.31509" lon="-2.44134">
        <ele>-3</ele>
        <time>2021-05-20T08:30:52.000Z</time>
      </trkpt>
      <trkpt lat="47.31533" lon="-2.44175">
        <ele>-3</ele>
        <time>2021-05-20T08:30:58.000Z</time>
      </trkpt>
      <trkpt lat="47.31549" lon="-2.44227">
        <ele>-3</ele>
        <time>2021-05-20T08:31:04.000Z</time>
      </trkpt>
      <trkpt lat="47.31559" lon="-2.44287">
        <ele>-3</ele>
        <time>2021-05-20T08:31:10.000Z</time>
      </trkpt>
      <trkpt lat="47.3157" lon="-2.44367">
        <ele>-3</ele>
        <time>2021-05-20T08:31:18.000Z</time>
      </trkpt>
      <trkpt lat="47.31581" lon="-2.44439">
        <ele>-3</ele>
        <time>2021-05-20T08:31:26.000Z</time>
      </trkpt>
      <trkpt lat="47.31583" lon="-2.44447">
        <ele>-3</ele>
        <time>2021-05-20T08:31:27.000Z</time>
      </trkpt>
      <trkpt lat="47.31597" lon="-2.44506">
        <ele>-3</ele>
        <time>2021-05-20T08:31:34.000Z</time>
      </trkpt>
      <trkpt lat="47.31615" lon="-2.44542">
        <ele>-3</ele>
        <time>2021-05-20T08:31:39.000Z</time>
      </trkpt>
      <trkpt lat="47.31649" lon="-2.446">
        <ele>-3</ele>
        <time>2021-05-20T08:31:47.000Z</time>
      </trkpt>
      <trkpt lat="47.31671" lon="-2.44648">
        <ele>-3</ele>
        <time>2021-05-20T08:31:53.000Z</time>
      </trkpt>
      <trkpt lat="47.31694" lon="-2.44706">
        <ele>-3</ele>
        <time>2021-05-20T08:32:00.000Z</time>
      </trkpt>
      <trkpt lat="47.31722" lon="-2.44773">
        <ele>-3</ele>
        <time>2021-05-20T08:32:08.000Z</time>
      </trkpt>
      <trkpt lat="47.31746" lon="-2.44844">
        <ele>-3</ele>
        <time>2021-05-20T08:32:16.000Z</time>
      </trkpt>
      <trkpt lat="47.31766" lon="-2.44896">
        <ele>-3</ele>
        <time>2021-05-20T08:32:22.000Z</time>
      </trkpt>
      <trkpt lat="47.318" lon="-2.44969">
        <ele>-3</ele>
        <time>2021-05-20T08:32:31.000Z</time>
      </trkpt>
      <trkpt lat="47.31804" lon="-2.44976">
        <ele>-3</ele>
        <time>2021-05-20T08:32:32.000Z</time>
      </trkpt>
      <trkpt lat="47.31824" lon="-2.45022">
        <ele>-3</ele>
        <time>2021-05-20T08:32:38.000Z</time>
      </trkpt>
      <trkpt lat="47.31845" lon="-2.45099">
        <ele>-3</ele>
        <time>2021-05-20T08:32:47.000Z</time>
      </trkpt>
      <trkpt lat="47.31859" lon="-2.45154">
        <ele>-3</ele>
        <time>2021-05-20T08:32:54.000Z</time>
      </trkpt>
      <trkpt lat="47.31863" lon="-2.45193">
        <ele>-3</ele>
        <time>2021-05-20T08:32:59.000Z</time>
      </trkpt>
      <trkpt lat="47.3186" lon="-2.452">
        <ele>-3</ele>
        <time>2021-05-20T08:33:00.000Z</time>
      </trkpt>
      <trkpt lat="47.31846" lon="-2.45213">
        <ele>-3</ele>
        <time>2021-05-20T08:33:03.000Z</time>
      </trkpt>
      <trkpt lat="47.31841" lon="-2.45217">
        <ele>-3</ele>
        <time>2021-05-20T08:33:04.000Z</time>
      </trkpt>
      <trkpt lat="47.3183" lon="-2.45227">
        <ele>-3</ele>
        <time>2021-05-20T08:33:06.000Z</time>
      </trkpt>
      <trkpt lat="47.31821" lon="-2.4524">
        <ele>-3</ele>
        <time>2021-05-20T08:33:08.000Z</time>
      </trkpt>
      <trkpt lat="47.31787" lon="-2.45287">
        <ele>-3</ele>
        <time>2021-05-20T08:33:16.000Z</time>
      </trkpt>
      <trkpt lat="47.31771" lon="-2.45315">
        <ele>-3</ele>
        <time>2021-05-20T08:33:21.000Z</time>
      </trkpt>
      <trkpt lat="47.31765" lon="-2.45325">
        <ele>-3</ele>
        <time>2021-05-20T08:33:23.000Z</time>
      </trkpt>
      <trkpt lat="47.31754" lon="-2.45336">
        <ele>-3</ele>
        <time>2021-05-20T08:33:26.000Z</time>
      </trkpt>
      <trkpt lat="47.31739" lon="-2.45344">
        <ele>-3</ele>
        <time>2021-05-20T08:33:29.000Z</time>
      </trkpt>
      <trkpt lat="47.31725" lon="-2.4535">
        <ele>-3</ele>
        <time>2021-05-20T08:33:32.000Z</time>
      </trkpt>
      <trkpt lat="47.31704" lon="-2.45352">
        <ele>-3</ele>
        <time>2021-05-20T08:33:36.000Z</time>
      </trkpt>
      <trkpt lat="47.31698" lon="-2.45349">
        <ele>-3</ele>
        <time>2021-05-20T08:33:37.000Z</time>
      </trkpt>
      <trkpt lat="47.31684" lon="-2.45331">
        <ele>-3</ele>
        <time>2021-05-20T08:33:40.000Z</time>
      </trkpt>
      <trkpt lat="47.31666" lon="-2.45308">
        <ele>-3</ele>
        <time>2021-05-20T08:33:44.000Z</time>
      </trkpt>
      <trkpt lat="47.31656" lon="-2.453">
        <ele>-3</ele>
        <time>2021-05-20T08:33:46.000Z</time>
      </trkpt>
      <trkpt lat="47.31634" lon="-2.45295">
        <ele>-3</ele>
        <time>2021-05-20T08:33:50.000Z</time>
      </trkpt>
      <trkpt lat="47.3159" lon="-2.45291">
        <ele>-3</ele>
        <time>2021-05-20T08:33:58.000Z</time>
      </trkpt>
      <trkpt lat="47.31574" lon="-2.45287">
        <ele>-3</ele>
        <time>2021-05-20T08:34:01.000Z</time>
      </trkpt>
      <trkpt lat="47.31563" lon="-2.45283">
        <ele>-3</ele>
        <time>2021-05-20T08:34:03.000Z</time>
      </trkpt>
      <trkpt lat="47.31535" lon="-2.45267">
        <ele>-3</ele>
        <time>2021-05-20T08:34:08.000Z</time>
      </trkpt>
      <trkpt lat="47.31523" lon="-2.45265">
        <ele>-3</ele>
        <time>2021-05-20T08:34:10.000Z</time>
      </trkpt>
      <trkpt lat="47.31505" lon="-2.45268">
        <ele>-3</ele>
        <time>2021-05-20T08:34:13.000Z</time>
      </trkpt>
      <trkpt lat="47.315" lon="-2.4527">
        <ele>-3</ele>
        <time>2021-05-20T08:34:14.000Z</time>
      </trkpt>
      <trkpt lat="47.31467" lon="-2.45274">
        <ele>-3</ele>
        <time>2021-05-20T08:34:20.000Z</time>
      </trkpt>
      <trkpt lat="47.3144" lon="-2.45273">
        <ele>-3</ele>
        <time>2021-05-20T08:34:25.000Z</time>
      </trkpt>
      <trkpt lat="47.31434" lon="-2.45272">
        <ele>-3</ele>
        <time>2021-05-20T08:34:26.000Z</time>
      </trkpt>
      <trkpt lat="47.31394" lon="-2.45268">
        <ele>-3</ele>
        <time>2021-05-20T08:34:33.000Z</time>
      </trkpt>
      <trkpt lat="47.31349" lon="-2.45273">
        <ele>-3</ele>
        <time>2021-05-20T08:34:41.000Z</time>
      </trkpt>
      <trkpt lat="47.31305" lon="-2.45285">
        <ele>-3</ele>
        <time>2021-05-20T08:34:49.000Z</time>
      </trkpt>
      <trkpt lat="47.31286" lon="-2.45295">
        <ele>-3</ele>
        <time>2021-05-20T08:34:53.000Z</time>
      </trkpt>
      <trkpt lat="47.31275" lon="-2.45301">
        <ele>-3</ele>
        <time>2021-05-20T08:34:55.000Z</time>
      </trkpt>
      <trkpt lat="47.31242" lon="-2.45326">
        <ele>-3</ele>
        <time>2021-05-20T08:35:02.000Z</time>
      </trkpt>
      <trkpt lat="47.31238" lon="-2.45332">
        <ele>-3</ele>
        <time>2021-05-20T08:35:03.000Z</time>
      </trkpt>
      <trkpt lat="47.31225" lon="-2.45359">
        <ele>-3</ele>
        <time>2021-05-20T08:35:07.000Z</time>
      </trkpt>
      <trkpt lat="47.31224" lon="-2.45366">
        <ele>-3</ele>
        <time>2021-05-20T08:35:08.000Z</time>
      </trkpt>
      <trkpt lat="47.31214" lon="-2.45401">
        <ele>-3</ele>
        <time>2021-05-20T08:35:13.000Z</time>
      </trkpt>
      <trkpt lat="47.31201" lon="-2.45441">
        <ele>-2.2000000476837</ele>
        <time>2021-05-20T08:35:19.000Z</time>
      </trkpt>
      <trkpt lat="47.31198" lon="-2.45448">
        <ele>-1.7999999523163</ele>
        <time>2021-05-20T08:35:20.000Z</time>
      </trkpt>
      <trkpt lat="47.31195" lon="-2.45454">
        <ele>-1.3999999761581</ele>
        <time>2021-05-20T08:35:21.000Z</time>
      </trkpt>
      <trkpt lat="47.31192" lon="-2.45461">
        <ele>-1</ele>
        <time>2021-05-20T08:35:22.000Z</time>
      </trkpt>
      <trkpt lat="47.31169" lon="-2.455">
        <ele>-1</ele>
        <time>2021-05-20T08:35:28.000Z</time>
      </trkpt>
      <trkpt lat="47.31152" lon="-2.45509">
        <ele>-1.6000000238419</ele>
        <time>2021-05-20T08:35:31.000Z</time>
      </trkpt>
      <trkpt lat="47.31147" lon="-2.45512">
        <ele>-2.2000000476837</ele>
        <time>2021-05-20T08:35:32.000Z</time>
      </trkpt>
      <trkpt lat="47.31141" lon="-2.45515">
        <ele>-2.5999999046326</ele>
        <time>2021-05-20T08:35:33.000Z</time>
      </trkpt>
      <trkpt lat="47.31136" lon="-2.45519">
        <ele>-3.2000000476837</ele>
        <time>2021-05-20T08:35:34.000Z</time>
      </trkpt>
      <trkpt lat="47.31132" lon="-2.45523">
        <ele>-3.7999999523163</ele>
        <time>2021-05-20T08:35:35.000Z</time>
      </trkpt>
      <trkpt lat="47.31123" lon="-2.4553">
        <ele>-3.7999999523163</ele>
        <time>2021-05-20T08:35:37.000Z</time>
      </trkpt>
      <trkpt lat="47.31107" lon="-2.45538">
        <ele>-3.7999999523163</ele>
        <time>2021-05-20T08:35:40.000Z</time>
      </trkpt>
      <trkpt lat="47.31095" lon="-2.45539">
        <ele>-3.7999999523163</ele>
        <time>2021-05-20T08:35:42.000Z</time>
      </trkpt>
      <trkpt lat="47.31078" lon="-2.45545">
        <ele>-3.7999999523163</ele>
        <time>2021-05-20T08:35:45.000Z</time>
      </trkpt>
      <trkpt lat="47.31068" lon="-2.45552">
        <ele>-3.7999999523163</ele>
        <time>2021-05-20T08:35:47.000Z</time>
      </trkpt>
      <trkpt lat="47.31042" lon="-2.45566">
        <ele>-3.7999999523163</ele>
        <time>2021-05-20T08:35:52.000Z</time>
      </trkpt>
      <trkpt lat="47.31031" lon="-2.45569">
        <ele>-3.7999999523163</ele>
        <time>2021-05-20T08:35:54.000Z</time>
      </trkpt>
      <trkpt lat="47.31025" lon="-2.45569">
        <ele>-3.7999999523163</ele>
        <time>2021-05-20T08:35:55.000Z</time>
      </trkpt>
      <trkpt lat="47.31003" lon="-2.45568">
        <ele>-3.7999999523163</ele>
        <time>2021-05-20T08:35:59.000Z</time>
      </trkpt>
      <trkpt lat="47.30969" lon="-2.45565">
        <ele>-3.2000000476837</ele>
        <time>2021-05-20T08:36:05.000Z</time>
      </trkpt>
      <trkpt lat="47.30964" lon="-2.45565">
        <ele>-2.7999999523163</ele>
        <time>2021-05-20T08:36:06.000Z</time>
      </trkpt>
      <trkpt lat="47.30958" lon="-2.45565">
        <ele>-1.7999999523163</ele>
        <time>2021-05-20T08:36:07.000Z</time>
      </trkpt>
      <trkpt lat="47.30953" lon="-2.45567">
        <ele>-2</ele>
        <time>2021-05-20T08:36:08.000Z</time>
      </trkpt>
      <trkpt lat="47.30947" lon="-2.45569">
        <ele>-2.4000000953674</ele>
        <time>2021-05-20T08:36:09.000Z</time>
      </trkpt>
      <trkpt lat="47.30942" lon="-2.45571">
        <ele>-2.7999999523163</ele>
        <time>2021-05-20T08:36:10.000Z</time>
      </trkpt>
      <trkpt lat="47.30937" lon="-2.45573">
        <ele>-3.2000000476837</ele>
        <time>2021-05-20T08:36:11.000Z</time>
      </trkpt>
      <trkpt lat="47.30932" lon="-2.45576">
        <ele>-3.5999999046326</ele>
        <time>2021-05-20T08:36:12.000Z</time>
      </trkpt>
      <trkpt lat="47.30896" lon="-2.45595">
        <ele>-3.5999999046326</ele>
        <time>2021-05-20T08:36:19.000Z</time>
      </trkpt>
      <trkpt lat="47.30863" lon="-2.45616">
        <ele>-3.5999999046326</ele>
        <time>2021-05-20T08:36:26.000Z</time>
      </trkpt>
      <trkpt lat="47.30823" lon="-2.45644">
        <ele>-3.5999999046326</ele>
        <time>2021-05-20T08:36:34.000Z</time>
      </trkpt>
      <trkpt lat="47.30788" lon="-2.45664">
        <ele>-3.5999999046326</ele>
        <time>2021-05-20T08:36:41.000Z</time>
      </trkpt>
      <trkpt lat="47.30776" lon="-2.45665">
        <ele>-3.5999999046326</ele>
        <time>2021-05-20T08:36:43.000Z</time>
      </trkpt>
      <trkpt lat="47.30766" lon="-2.45661">
        <ele>-3.5999999046326</ele>
        <time>2021-05-20T08:36:45.000Z</time>
      </trkpt>
      <trkpt lat="47.30756" lon="-2.45656">
        <ele>-3.5999999046326</ele>
        <time>2021-05-20T08:36:47.000Z</time>
      </trkpt>
      <trkpt lat="47.30741" lon="-2.45645">
        <ele>-3.5999999046326</ele>
        <time>2021-05-20T08:36:50.000Z</time>
      </trkpt>
      <trkpt lat="47.30712" lon="-2.45619">
        <ele>-3.5999999046326</ele>
        <time>2021-05-20T08:36:56.000Z</time>
      </trkpt>
      <trkpt lat="47.30681" lon="-2.45586">
        <ele>-3.5999999046326</ele>
        <time>2021-05-20T08:37:03.000Z</time>
      </trkpt>
      <trkpt lat="47.30661" lon="-2.45568">
        <ele>-3.5999999046326</ele>
        <time>2021-05-20T08:37:07.000Z</time>
      </trkpt>
      <trkpt lat="47.3065" lon="-2.45563">
        <ele>-3.5999999046326</ele>
        <time>2021-05-20T08:37:09.000Z</time>
      </trkpt>
      <trkpt lat="47.30644" lon="-2.45561">
        <ele>-3.5999999046326</ele>
        <time>2021-05-20T08:37:10.000Z</time>
      </trkpt>
      <trkpt lat="47.30633" lon="-2.4556">
        <ele>-3.5999999046326</ele>
        <time>2021-05-20T08:37:12.000Z</time>
      </trkpt>
      <trkpt lat="47.30615" lon="-2.45564">
        <ele>-3.5999999046326</ele>
        <time>2021-05-20T08:37:15.000Z</time>
      </trkpt>
      <trkpt lat="47.30597" lon="-2.45577">
        <ele>-3.5999999046326</ele>
        <time>2021-05-20T08:37:19.000Z</time>
      </trkpt>
      <trkpt lat="47.30593" lon="-2.4558">
        <ele>-3.5999999046326</ele>
        <time>2021-05-20T08:37:20.000Z</time>
      </trkpt>
      <trkpt lat="47.30575" lon="-2.45593">
        <ele>-3.5999999046326</ele>
        <time>2021-05-20T08:37:24.000Z</time>
      </trkpt>
      <trkpt lat="47.30558" lon="-2.45597">
        <ele>-3.5999999046326</ele>
        <time>2021-05-20T08:37:27.000Z</time>
      </trkpt>
      <trkpt lat="47.30538" lon="-2.45587">
        <ele>-3.5999999046326</ele>
        <time>2021-05-20T08:37:31.000Z</time>
      </trkpt>
      <trkpt lat="47.30497" lon="-2.45562">
        <ele>-3.5999999046326</ele>
        <time>2021-05-20T08:37:39.000Z</time>
      </trkpt>
      <trkpt lat="47.3046" lon="-2.45551">
        <ele>-3.5999999046326</ele>
        <time>2021-05-20T08:37:46.000Z</time>
      </trkpt>
      <trkpt lat="47.30438" lon="-2.45566">
        <ele>-3.5999999046326</ele>
        <time>2021-05-20T08:37:50.000Z</time>
      </trkpt>
      <trkpt lat="47.30408" lon="-2.45589">
        <ele>-3.5999999046326</ele>
        <time>2021-05-20T08:37:57.000Z</time>
      </trkpt>
      <trkpt lat="47.30388" lon="-2.45602">
        <ele>-3.5999999046326</ele>
        <time>2021-05-20T08:38:02.000Z</time>
      </trkpt>
      <trkpt lat="47.30385" lon="-2.45609">
        <ele>-3.5999999046326</ele>
        <time>2021-05-20T08:38:03.000Z</time>
      </trkpt>
      <trkpt lat="47.30387" lon="-2.45634">
        <ele>-3.5999999046326</ele>
        <time>2021-05-20T08:38:06.000Z</time>
      </trkpt>
      <trkpt lat="47.30381" lon="-2.45668">
        <ele>-3.5999999046326</ele>
        <time>2021-05-20T08:38:10.000Z</time>
      </trkpt>
      <trkpt lat="47.30372" lon="-2.45693">
        <ele>-3.2000000476837</ele>
        <time>2021-05-20T08:38:13.000Z</time>
      </trkpt>
      <trkpt lat="47.30369" lon="-2.457">
        <ele>-2.7999999523163</ele>
        <time>2021-05-20T08:38:14.000Z</time>
      </trkpt>
      <trkpt lat="47.30367" lon="-2.45708">
        <ele>-2.4000000953674</ele>
        <time>2021-05-20T08:38:15.000Z</time>
      </trkpt>
      <trkpt lat="47.30366" lon="-2.45717">
        <ele>-2</ele>
        <time>2021-05-20T08:38:16.000Z</time>
      </trkpt>
      <trkpt lat="47.30366" lon="-2.45725">
        <ele>-1.6000000238419</ele>
        <time>2021-05-20T08:38:17.000Z</time>
      </trkpt>
      <trkpt lat="47.30368" lon="-2.45734">
        <ele>-1.6000000238419</ele>
        <time>2021-05-20T08:38:18.000Z</time>
      </trkpt>
      <trkpt lat="47.3037" lon="-2.45742">
        <ele>-1.6000000238419</ele>
        <time>2021-05-20T08:38:19.000Z</time>
      </trkpt>
      <trkpt lat="47.3037" lon="-2.45751">
        <ele>-1.6000000238419</ele>
        <time>2021-05-20T08:38:20.000Z</time>
      </trkpt>
      <trkpt lat="47.30368" lon="-2.45767">
        <ele>-1.6000000238419</ele>
        <time>2021-05-20T08:38:22.000Z</time>
      </trkpt>
      <trkpt lat="47.30364" lon="-2.45783">
        <ele>-1.6000000238419</ele>
        <time>2021-05-20T08:38:24.000Z</time>
      </trkpt>
      <trkpt lat="47.30361" lon="-2.45808">
        <ele>-1.6000000238419</ele>
        <time>2021-05-20T08:38:27.000Z</time>
      </trkpt>
      <trkpt lat="47.30363" lon="-2.45816">
        <ele>-1.6000000238419</ele>
        <time>2021-05-20T08:38:28.000Z</time>
      </trkpt>
      <trkpt lat="47.30368" lon="-2.45841">
        <ele>-1.6000000238419</ele>
        <time>2021-05-20T08:38:31.000Z</time>
      </trkpt>
      <trkpt lat="47.30373" lon="-2.45867">
        <ele>-1.6000000238419</ele>
        <time>2021-05-20T08:38:34.000Z</time>
      </trkpt>
      <trkpt lat="47.30378" lon="-2.45902">
        <ele>-1.6000000238419</ele>
        <time>2021-05-20T08:38:38.000Z</time>
      </trkpt>
      <trkpt lat="47.30379" lon="-2.45929">
        <ele>-1.6000000238419</ele>
        <time>2021-05-20T08:38:41.000Z</time>
      </trkpt>
      <trkpt lat="47.30381" lon="-2.45977">
        <ele>-1.6000000238419</ele>
        <time>2021-05-20T08:38:47.000Z</time>
      </trkpt>
      <trkpt lat="47.30384" lon="-2.46011">
        <ele>-1.6000000238419</ele>
        <time>2021-05-20T08:38:51.000Z</time>
      </trkpt>
      <trkpt lat="47.30389" lon="-2.46026">
        <ele>-1.6000000238419</ele>
        <time>2021-05-20T08:38:53.000Z</time>
      </trkpt>
      <trkpt lat="47.30407" lon="-2.46051">
        <ele>-1.6000000238419</ele>
        <time>2021-05-20T08:38:57.000Z</time>
      </trkpt>
      <trkpt lat="47.30421" lon="-2.46067">
        <ele>-2</ele>
        <time>2021-05-20T08:39:00.000Z</time>
      </trkpt>
      <trkpt lat="47.30423" lon="-2.46075">
        <ele>-2.7999999523163</ele>
        <time>2021-05-20T08:39:01.000Z</time>
      </trkpt>
      <trkpt lat="47.30425" lon="-2.46084">
        <ele>-3.2000000476837</ele>
        <time>2021-05-20T08:39:02.000Z</time>
      </trkpt>
      <trkpt lat="47.30424" lon="-2.46093">
        <ele>-3.5999999046326</ele>
        <time>2021-05-20T08:39:03.000Z</time>
      </trkpt>
      <trkpt lat="47.30423" lon="-2.46103">
        <ele>-3.2000000476837</ele>
        <time>2021-05-20T08:39:04.000Z</time>
      </trkpt>
      <trkpt lat="47.30422" lon="-2.46111">
        <ele>-2.5999999046326</ele>
        <time>2021-05-20T08:39:05.000Z</time>
      </trkpt>
      <trkpt lat="47.3042" lon="-2.46119">
        <ele>-2.2000000476837</ele>
        <time>2021-05-20T08:39:06.000Z</time>
      </trkpt>
      <trkpt lat="47.30418" lon="-2.46126">
        <ele>-1.7999999523163</ele>
        <time>2021-05-20T08:39:07.000Z</time>
      </trkpt>
      <trkpt lat="47.30417" lon="-2.46134">
        <ele>-1.3999999761581</ele>
        <time>2021-05-20T08:39:08.000Z</time>
      </trkpt>
      <trkpt lat="47.30417" lon="-2.46142">
        <ele>-1.3999999761581</ele>
        <time>2021-05-20T08:39:09.000Z</time>
      </trkpt>
      <trkpt lat="47.30418" lon="-2.46151">
        <ele>-1.3999999761581</ele>
        <time>2021-05-20T08:39:10.000Z</time>
      </trkpt>
      <trkpt lat="47.30429" lon="-2.46172">
        <ele>-1.3999999761581</ele>
        <time>2021-05-20T08:39:13.000Z</time>
      </trkpt>
      <trkpt lat="47.30433" lon="-2.46178">
        <ele>-1.3999999761581</ele>
        <time>2021-05-20T08:39:14.000Z</time>
      </trkpt>
      <trkpt lat="47.30436" lon="-2.46185">
        <ele>-1.3999999761581</ele>
        <time>2021-05-20T08:39:15.000Z</time>
      </trkpt>
      <trkpt lat="47.30442" lon="-2.4621">
        <ele>-1.3999999761581</ele>
        <time>2021-05-20T08:39:18.000Z</time>
      </trkpt>
      <trkpt lat="47.30445" lon="-2.46218">
        <ele>-1.3999999761581</ele>
        <time>2021-05-20T08:39:19.000Z</time>
      </trkpt>
      <trkpt lat="47.3045" lon="-2.46232">
        <ele>-1.3999999761581</ele>
        <time>2021-05-20T08:39:21.000Z</time>
      </trkpt>
      <trkpt lat="47.30459" lon="-2.46253">
        <ele>-1.3999999761581</ele>
        <time>2021-05-20T08:39:24.000Z</time>
      </trkpt>
      <trkpt lat="47.30463" lon="-2.46269">
        <ele>-1.3999999761581</ele>
        <time>2021-05-20T08:39:26.000Z</time>
      </trkpt>
      <trkpt lat="47.30459" lon="-2.46285">
        <ele>-1.3999999761581</ele>
        <time>2021-05-20T08:39:28.000Z</time>
      </trkpt>
      <trkpt lat="47.30446" lon="-2.46301">
        <ele>-1.3999999761581</ele>
        <time>2021-05-20T08:39:31.000Z</time>
      </trkpt>
      <trkpt lat="47.3043" lon="-2.46313">
        <ele>-1.3999999761581</ele>
        <time>2021-05-20T08:39:34.000Z</time>
      </trkpt>
      <trkpt lat="47.30425" lon="-2.46317">
        <ele>-1.7999999523163</ele>
        <time>2021-05-20T08:39:35.000Z</time>
      </trkpt>
      <trkpt lat="47.3042" lon="-2.46321">
        <ele>-2.2000000476837</ele>
        <time>2021-05-20T08:39:36.000Z</time>
      </trkpt>
      <trkpt lat="47.30415" lon="-2.46326">
        <ele>-2.5999999046326</ele>
        <time>2021-05-20T08:39:37.000Z</time>
      </trkpt>
      <trkpt lat="47.30411" lon="-2.46331">
        <ele>-3</ele>
        <time>2021-05-20T08:39:38.000Z</time>
      </trkpt>
      <trkpt lat="47.30407" lon="-2.46336">
        <ele>-3.4000000953674</ele>
        <time>2021-05-20T08:39:39.000Z</time>
      </trkpt>
      <trkpt lat="47.304" lon="-2.46346">
        <ele>-3.4000000953674</ele>
        <time>2021-05-20T08:39:41.000Z</time>
      </trkpt>
      <trkpt lat="47.30398" lon="-2.46352">
        <ele>-3</ele>
        <time>2021-05-20T08:39:42.000Z</time>
      </trkpt>
      <trkpt lat="47.30395" lon="-2.46357">
        <ele>-2.5999999046326</ele>
        <time>2021-05-20T08:39:43.000Z</time>
      </trkpt>
      <trkpt lat="47.30392" lon="-2.46364">
        <ele>-2.2000000476837</ele>
        <time>2021-05-20T08:39:44.000Z</time>
      </trkpt>
      <trkpt lat="47.30389" lon="-2.4637">
        <ele>-1.6000000238419</ele>
        <time>2021-05-20T08:39:45.000Z</time>
      </trkpt>
      <trkpt lat="47.30386" lon="-2.46376">
        <ele>-1.2000000476837</ele>
        <time>2021-05-20T08:39:46.000Z</time>
      </trkpt>
      <trkpt lat="47.30378" lon="-2.46395">
        <ele>-1.2000000476837</ele>
        <time>2021-05-20T08:39:49.000Z</time>
      </trkpt>
      <trkpt lat="47.30375" lon="-2.46402">
        <ele>-1.6000000238419</ele>
        <time>2021-05-20T08:39:50.000Z</time>
      </trkpt>
      <trkpt lat="47.30372" lon="-2.46409">
        <ele>-2</ele>
        <time>2021-05-20T08:39:51.000Z</time>
      </trkpt>
      <trkpt lat="47.30369" lon="-2.46415">
        <ele>-2.4000000953674</ele>
        <time>2021-05-20T08:39:52.000Z</time>
      </trkpt>
      <trkpt lat="47.30366" lon="-2.46421">
        <ele>-2.7999999523163</ele>
        <time>2021-05-20T08:39:53.000Z</time>
      </trkpt>
      <trkpt lat="47.30364" lon="-2.46428">
        <ele>-3.2000000476837</ele>
        <time>2021-05-20T08:39:54.000Z</time>
      </trkpt>
      <trkpt lat="47.30354" lon="-2.46447">
        <ele>-3.2000000476837</ele>
        <time>2021-05-20T08:39:57.000Z</time>
      </trkpt>
      <trkpt lat="47.30333" lon="-2.46473">
        <ele>-3.2000000476837</ele>
        <time>2021-05-20T08:40:02.000Z</time>
      </trkpt>
      <trkpt lat="47.30329" lon="-2.46477">
        <ele>-3.2000000476837</ele>
        <time>2021-05-20T08:40:03.000Z</time>
      </trkpt>
      <trkpt lat="47.30324" lon="-2.4648">
        <ele>-3.2000000476837</ele>
        <time>2021-05-20T08:40:04.000Z</time>
      </trkpt>
      <trkpt lat="47.30304" lon="-2.46488">
        <ele>-3.2000000476837</ele>
        <time>2021-05-20T08:40:08.000Z</time>
      </trkpt>
      <trkpt lat="47.30264" lon="-2.46499">
        <ele>-3.2000000476837</ele>
        <time>2021-05-20T08:40:16.000Z</time>
      </trkpt>
      <trkpt lat="47.30249" lon="-2.46502">
        <ele>-3.2000000476837</ele>
        <time>2021-05-20T08:40:19.000Z</time>
      </trkpt>
      <trkpt lat="47.30229" lon="-2.46507">
        <ele>-3.2000000476837</ele>
        <time>2021-05-20T08:40:23.000Z</time>
      </trkpt>
      <trkpt lat="47.30184" lon="-2.46518">
        <ele>-3.2000000476837</ele>
        <time>2021-05-20T08:40:32.000Z</time>
      </trkpt>
      <trkpt lat="47.30145" lon="-2.46529">
        <ele>-3.2000000476837</ele>
        <time>2021-05-20T08:40:40.000Z</time>
      </trkpt>
      <trkpt lat="47.30107" lon="-2.46539">
        <ele>-3.2000000476837</ele>
        <time>2021-05-20T08:40:48.000Z</time>
      </trkpt>
      <trkpt lat="47.30086" lon="-2.46544">
        <ele>-3.2000000476837</ele>
        <time>2021-05-20T08:40:52.000Z</time>
      </trkpt>
      <trkpt lat="47.30077" lon="-2.46544">
        <ele>-3.2000000476837</ele>
        <time>2021-05-20T08:40:54.000Z</time>
      </trkpt>
      <trkpt lat="47.30049" lon="-2.46533">
        <ele>-3.2000000476837</ele>
        <time>2021-05-20T08:41:00.000Z</time>
      </trkpt>
      <trkpt lat="47.30029" lon="-2.46517">
        <ele>-3.2000000476837</ele>
        <time>2021-05-20T08:41:05.000Z</time>
      </trkpt>
      <trkpt lat="47.30024" lon="-2.46514">
        <ele>-3.2000000476837</ele>
        <time>2021-05-20T08:41:06.000Z</time>
      </trkpt>
      <trkpt lat="47.30003" lon="-2.4651">
        <ele>-3.2000000476837</ele>
        <time>2021-05-20T08:41:10.000Z</time>
      </trkpt>
      <trkpt lat="47.29988" lon="-2.46524">
        <ele>-3.2000000476837</ele>
        <time>2021-05-20T08:41:13.000Z</time>
      </trkpt>
      <trkpt lat="47.29984" lon="-2.4653">
        <ele>-3.2000000476837</ele>
        <time>2021-05-20T08:41:14.000Z</time>
      </trkpt>
      <trkpt lat="47.29975" lon="-2.46543">
        <ele>-2.7999999523163</ele>
        <time>2021-05-20T08:41:16.000Z</time>
      </trkpt>
      <trkpt lat="47.29971" lon="-2.4655">
        <ele>-2.4000000953674</ele>
        <time>2021-05-20T08:41:17.000Z</time>
      </trkpt>
      <trkpt lat="47.29967" lon="-2.46556">
        <ele>-2</ele>
        <time>2021-05-20T08:41:18.000Z</time>
      </trkpt>
      <trkpt lat="47.29962" lon="-2.46561">
        <ele>-1.6000000238419</ele>
        <time>2021-05-20T08:41:19.000Z</time>
      </trkpt>
      <trkpt lat="47.29957" lon="-2.46565">
        <ele>-1.2000000476837</ele>
        <time>2021-05-20T08:41:20.000Z</time>
      </trkpt>
      <trkpt lat="47.29946" lon="-2.46572">
        <ele>-1.2000000476837</ele>
        <time>2021-05-20T08:41:22.000Z</time>
      </trkpt>
      <trkpt lat="47.29941" lon="-2.46574">
        <ele>-1.2000000476837</ele>
        <time>2021-05-20T08:41:23.000Z</time>
      </trkpt>
      <trkpt lat="47.29906" lon="-2.46587">
        <ele>-1.2000000476837</ele>
        <time>2021-05-20T08:41:30.000Z</time>
      </trkpt>
      <trkpt lat="47.29878" lon="-2.46596">
        <ele>-1.2000000476837</ele>
        <time>2021-05-20T08:41:36.000Z</time>
      </trkpt>
      <trkpt lat="47.29861" lon="-2.46602">
        <ele>-1.2000000476837</ele>
        <time>2021-05-20T08:41:40.000Z</time>
      </trkpt>
      <trkpt lat="47.29852" lon="-2.46605">
        <ele>-1.2000000476837</ele>
        <time>2021-05-20T08:41:42.000Z</time>
      </trkpt>
      <trkpt lat="47.29833" lon="-2.46611">
        <ele>-1.6000000238419</ele>
        <time>2021-05-20T08:41:46.000Z</time>
      </trkpt>
      <trkpt lat="47.29828" lon="-2.46612">
        <ele>-2</ele>
        <time>2021-05-20T08:41:47.000Z</time>
      </trkpt>
      <trkpt lat="47.29823" lon="-2.46612">
        <ele>-2.5999999046326</ele>
        <time>2021-05-20T08:41:48.000Z</time>
      </trkpt>
      <trkpt lat="47.29818" lon="-2.46613">
        <ele>-3</ele>
        <time>2021-05-20T08:41:49.000Z</time>
      </trkpt>
      <trkpt lat="47.29812" lon="-2.46614">
        <ele>-3.4000000953674</ele>
        <time>2021-05-20T08:41:50.000Z</time>
      </trkpt>
      <trkpt lat="47.29807" lon="-2.46613">
        <ele>-3.4000000953674</ele>
        <time>2021-05-20T08:41:51.000Z</time>
      </trkpt>
      <trkpt lat="47.29792" lon="-2.46607">
        <ele>-3.4000000953674</ele>
        <time>2021-05-20T08:41:54.000Z</time>
      </trkpt>
      <trkpt lat="47.29783" lon="-2.46599">
        <ele>-3.4000000953674</ele>
        <time>2021-05-20T08:41:56.000Z</time>
      </trkpt>
      <trkpt lat="47.29761" lon="-2.4658">
        <ele>-3.4000000953674</ele>
        <time>2021-05-20T08:42:01.000Z</time>
      </trkpt>
      <trkpt lat="47.29756" lon="-2.46577">
        <ele>-3.4000000953674</ele>
        <time>2021-05-20T08:42:02.000Z</time>
      </trkpt>
      <trkpt lat="47.29737" lon="-2.46575">
        <ele>-3.4000000953674</ele>
        <time>2021-05-20T08:42:06.000Z</time>
      </trkpt>
      <trkpt lat="47.29728" lon="-2.4658">
        <ele>-3.4000000953674</ele>
        <time>2021-05-20T08:42:08.000Z</time>
      </trkpt>
      <trkpt lat="47.29723" lon="-2.46583">
        <ele>-3.4000000953674</ele>
        <time>2021-05-20T08:42:09.000Z</time>
      </trkpt>
      <trkpt lat="47.29715" lon="-2.46591">
        <ele>-3.4000000953674</ele>
        <time>2021-05-20T08:42:11.000Z</time>
      </trkpt>
      <trkpt lat="47.29702" lon="-2.46603">
        <ele>-3.4000000953674</ele>
        <time>2021-05-20T08:42:14.000Z</time>
      </trkpt>
      <trkpt lat="47.29693" lon="-2.46611">
        <ele>-3.4000000953674</ele>
        <time>2021-05-20T08:42:16.000Z</time>
      </trkpt>
      <trkpt lat="47.2966" lon="-2.4664">
        <ele>-3.4000000953674</ele>
        <time>2021-05-20T08:42:23.000Z</time>
      </trkpt>
      <trkpt lat="47.29625" lon="-2.46672">
        <ele>-3.4000000953674</ele>
        <time>2021-05-20T08:42:31.000Z</time>
      </trkpt>
      <trkpt lat="47.29585" lon="-2.46708">
        <ele>-3.4000000953674</ele>
        <time>2021-05-20T08:42:40.000Z</time>
      </trkpt>
      <trkpt lat="47.2955" lon="-2.46728">
        <ele>-3.4000000953674</ele>
        <time>2021-05-20T08:42:47.000Z</time>
      </trkpt>
      <trkpt lat="47.29514" lon="-2.46741">
        <ele>-3.4000000953674</ele>
        <time>2021-05-20T08:42:54.000Z</time>
      </trkpt>
      <trkpt lat="47.29478" lon="-2.46752">
        <ele>-3.4000000953674</ele>
        <time>2021-05-20T08:43:01.000Z</time>
      </trkpt>
      <trkpt lat="47.29472" lon="-2.46751">
        <ele>-3.4000000953674</ele>
        <time>2021-05-20T08:43:02.000Z</time>
      </trkpt>
      <trkpt lat="47.29453" lon="-2.4674">
        <ele>-3</ele>
        <time>2021-05-20T08:43:06.000Z</time>
      </trkpt>
      <trkpt lat="47.29448" lon="-2.46735">
        <ele>-2.5999999046326</ele>
        <time>2021-05-20T08:43:07.000Z</time>
      </trkpt>
      <trkpt lat="47.29444" lon="-2.46731">
        <ele>-1.7999999523163</ele>
        <time>2021-05-20T08:43:08.000Z</time>
      </trkpt>
      <trkpt lat="47.29439" lon="-2.46727">
        <ele>-1.3999999761581</ele>
        <time>2021-05-20T08:43:09.000Z</time>
      </trkpt>
      <trkpt lat="47.29435" lon="-2.46724">
        <ele>-1.3999999761581</ele>
        <time>2021-05-20T08:43:10.000Z</time>
      </trkpt>
      <trkpt lat="47.29425" lon="-2.4672">
        <ele>-1.3999999761581</ele>
        <time>2021-05-20T08:43:12.000Z</time>
      </trkpt>
      <trkpt lat="47.29409" lon="-2.46719">
        <ele>-1.3999999761581</ele>
        <time>2021-05-20T08:43:15.000Z</time>
      </trkpt>
      <trkpt lat="47.29399" lon="-2.46721">
        <ele>-1.3999999761581</ele>
        <time>2021-05-20T08:43:17.000Z</time>
      </trkpt>
      <trkpt lat="47.29388" lon="-2.46723">
        <ele>-1.3999999761581</ele>
        <time>2021-05-20T08:43:19.000Z</time>
      </trkpt>
      <trkpt lat="47.29365" lon="-2.4672">
        <ele>-1.3999999761581</ele>
        <time>2021-05-20T08:43:23.000Z</time>
      </trkpt>
      <trkpt lat="47.29333" lon="-2.46704">
        <ele>-1.3999999761581</ele>
        <time>2021-05-20T08:43:29.000Z</time>
      </trkpt>
      <trkpt lat="47.29295" lon="-2.46684">
        <ele>-1.3999999761581</ele>
        <time>2021-05-20T08:43:36.000Z</time>
      </trkpt>
      <trkpt lat="47.29274" lon="-2.4667">
        <ele>-1.3999999761581</ele>
        <time>2021-05-20T08:43:40.000Z</time>
      </trkpt>
      <trkpt lat="47.29266" lon="-2.4666">
        <ele>-1.3999999761581</ele>
        <time>2021-05-20T08:43:42.000Z</time>
      </trkpt>
      <trkpt lat="47.29257" lon="-2.46639">
        <ele>-1.3999999761581</ele>
        <time>2021-05-20T08:43:45.000Z</time>
      </trkpt>
      <trkpt lat="47.29255" lon="-2.46631">
        <ele>-1.3999999761581</ele>
        <time>2021-05-20T08:43:46.000Z</time>
      </trkpt>
      <trkpt lat="47.29248" lon="-2.46588">
        <ele>-1.3999999761581</ele>
        <time>2021-05-20T08:43:51.000Z</time>
      </trkpt>
      <trkpt lat="47.29242" lon="-2.46563">
        <ele>-1.3999999761581</ele>
        <time>2021-05-20T08:43:54.000Z</time>
      </trkpt>
      <trkpt lat="47.29235" lon="-2.46548">
        <ele>-1.3999999761581</ele>
        <time>2021-05-20T08:43:56.000Z</time>
      </trkpt>
      <trkpt lat="47.29219" lon="-2.46526">
        <ele>-1.3999999761581</ele>
        <time>2021-05-20T08:44:00.000Z</time>
      </trkpt>
      <trkpt lat="47.29214" lon="-2.46522">
        <ele>-1.3999999761581</ele>
        <time>2021-05-20T08:44:01.000Z</time>
      </trkpt>
      <trkpt lat="47.2918" lon="-2.46491">
        <ele>-1.3999999761581</ele>
        <time>2021-05-20T08:44:08.000Z</time>
      </trkpt>
      <trkpt lat="47.29144" lon="-2.46469">
        <ele>-1.3999999761581</ele>
        <time>2021-05-20T08:44:15.000Z</time>
      </trkpt>
      <trkpt lat="47.29111" lon="-2.46461">
        <ele>-1.3999999761581</ele>
        <time>2021-05-20T08:44:21.000Z</time>
      </trkpt>
      <trkpt lat="47.29073" lon="-2.46467">
        <ele>-1.3999999761581</ele>
        <time>2021-05-20T08:44:28.000Z</time>
      </trkpt>
      <trkpt lat="47.29024" lon="-2.4648">
        <ele>-1.3999999761581</ele>
        <time>2021-05-20T08:44:37.000Z</time>
      </trkpt>
      <trkpt lat="47.28989" lon="-2.46489">
        <ele>-1.3999999761581</ele>
        <time>2021-05-20T08:44:44.000Z</time>
      </trkpt>
      <trkpt lat="47.28938" lon="-2.46503">
        <ele>-1.3999999761581</ele>
        <time>2021-05-20T08:44:54.000Z</time>
      </trkpt>
      <trkpt lat="47.28905" lon="-2.46521">
        <ele>-1.3999999761581</ele>
        <time>2021-05-20T08:45:01.000Z</time>
      </trkpt>
      <trkpt lat="47.28868" lon="-2.46547">
        <ele>-1.3999999761581</ele>
        <time>2021-05-20T08:45:09.000Z</time>
      </trkpt>
      <trkpt lat="47.28836" lon="-2.46571">
        <ele>-1.3999999761581</ele>
        <time>2021-05-20T08:45:16.000Z</time>
      </trkpt>
      <trkpt lat="47.28814" lon="-2.46592">
        <ele>-1.3999999761581</ele>
        <time>2021-05-20T08:45:21.000Z</time>
      </trkpt>
      <trkpt lat="47.2881" lon="-2.46597">
        <ele>-1.3999999761581</ele>
        <time>2021-05-20T08:45:22.000Z</time>
      </trkpt>
      <trkpt lat="47.28801" lon="-2.46625">
        <ele>-1.3999999761581</ele>
        <time>2021-05-20T08:45:26.000Z</time>
      </trkpt>
      <trkpt lat="47.28799" lon="-2.46632">
        <ele>-1.3999999761581</ele>
        <time>2021-05-20T08:45:27.000Z</time>
      </trkpt>
      <trkpt lat="47.28793" lon="-2.46653">
        <ele>-1.3999999761581</ele>
        <time>2021-05-20T08:45:30.000Z</time>
      </trkpt>
      <trkpt lat="47.28786" lon="-2.46666">
        <ele>-1.3999999761581</ele>
        <time>2021-05-20T08:45:32.000Z</time>
      </trkpt>
      <trkpt lat="47.28763" lon="-2.46687">
        <ele>-1.3999999761581</ele>
        <time>2021-05-20T08:45:37.000Z</time>
      </trkpt>
      <trkpt lat="47.28754" lon="-2.46692">
        <ele>-1.3999999761581</ele>
        <time>2021-05-20T08:45:39.000Z</time>
      </trkpt>
      <trkpt lat="47.28731" lon="-2.46703">
        <ele>-1.3999999761581</ele>
        <time>2021-05-20T08:45:44.000Z</time>
      </trkpt>
      <trkpt lat="47.28701" lon="-2.46714">
        <ele>-1.3999999761581</ele>
        <time>2021-05-20T08:45:50.000Z</time>
      </trkpt>
      <trkpt lat="47.28691" lon="-2.4672">
        <ele>-1.3999999761581</ele>
        <time>2021-05-20T08:45:52.000Z</time>
      </trkpt>
      <trkpt lat="47.28682" lon="-2.46726">
        <ele>-1.3999999761581</ele>
        <time>2021-05-20T08:45:54.000Z</time>
      </trkpt>
      <trkpt lat="47.28669" lon="-2.46738">
        <ele>-1.3999999761581</ele>
        <time>2021-05-20T08:45:57.000Z</time>
      </trkpt>
      <trkpt lat="47.28661" lon="-2.46747">
        <ele>-1.3999999761581</ele>
        <time>2021-05-20T08:45:59.000Z</time>
      </trkpt>
      <trkpt lat="47.2863" lon="-2.46786">
        <ele>-1.3999999761581</ele>
        <time>2021-05-20T08:46:07.000Z</time>
      </trkpt>
      <trkpt lat="47.28602" lon="-2.46822">
        <ele>-1.3999999761581</ele>
        <time>2021-05-20T08:46:14.000Z</time>
      </trkpt>
      <trkpt lat="47.28566" lon="-2.46867">
        <ele>-1.3999999761581</ele>
        <time>2021-05-20T08:46:22.000Z</time>
      </trkpt>
      <trkpt lat="47.28537" lon="-2.46901">
        <ele>-1.3999999761581</ele>
        <time>2021-05-20T08:46:29.000Z</time>
      </trkpt>
      <trkpt lat="47.28523" lon="-2.46914">
        <ele>-1.3999999761581</ele>
        <time>2021-05-20T08:46:32.000Z</time>
      </trkpt>
      <trkpt lat="47.28513" lon="-2.4692">
        <ele>-1.3999999761581</ele>
        <time>2021-05-20T08:46:34.000Z</time>
      </trkpt>
      <trkpt lat="47.28508" lon="-2.46922">
        <ele>-1.3999999761581</ele>
        <time>2021-05-20T08:46:35.000Z</time>
      </trkpt>
      <trkpt lat="47.28473" lon="-2.46938">
        <ele>-1.3999999761581</ele>
        <time>2021-05-20T08:46:42.000Z</time>
      </trkpt>
      <trkpt lat="47.28446" lon="-2.46959">
        <ele>-1.3999999761581</ele>
        <time>2021-05-20T08:46:48.000Z</time>
      </trkpt>
      <trkpt lat="47.28419" lon="-2.46991">
        <ele>-1.3999999761581</ele>
        <time>2021-05-20T08:46:55.000Z</time>
      </trkpt>
      <trkpt lat="47.28394" lon="-2.47022">
        <ele>-1.7999999523163</ele>
        <time>2021-05-20T08:47:01.000Z</time>
      </trkpt>
      <trkpt lat="47.2839" lon="-2.47026">
        <ele>-2.2000000476837</ele>
        <time>2021-05-20T08:47:02.000Z</time>
      </trkpt>
      <trkpt lat="47.28386" lon="-2.47031">
        <ele>-2.5999999046326</ele>
        <time>2021-05-20T08:47:03.000Z</time>
      </trkpt>
      <trkpt lat="47.28383" lon="-2.47035">
        <ele>-3</ele>
        <time>2021-05-20T08:47:04.000Z</time>
      </trkpt>
      <trkpt lat="47.28379" lon="-2.4704">
        <ele>-3.4000000953674</ele>
        <time>2021-05-20T08:47:05.000Z</time>
      </trkpt>
      <trkpt lat="47.28359" lon="-2.47065">
        <ele>-3.4000000953674</ele>
        <time>2021-05-20T08:47:10.000Z</time>
      </trkpt>
      <trkpt lat="47.28326" lon="-2.47103">
        <ele>-3.4000000953674</ele>
        <time>2021-05-20T08:47:17.000Z</time>
      </trkpt>
      <trkpt lat="47.28299" lon="-2.47136">
        <ele>-3.4000000953674</ele>
        <time>2021-05-20T08:47:23.000Z</time>
      </trkpt>
      <trkpt lat="47.28263" lon="-2.47179">
        <ele>-3.4000000953674</ele>
        <time>2021-05-20T08:47:31.000Z</time>
      </trkpt>
      <trkpt lat="47.28233" lon="-2.4722">
        <ele>-3.4000000953674</ele>
        <time>2021-05-20T08:47:38.000Z</time>
      </trkpt>
      <trkpt lat="47.28201" lon="-2.47256">
        <ele>-3.4000000953674</ele>
        <time>2021-05-20T08:47:45.000Z</time>
      </trkpt>
      <trkpt lat="47.28177" lon="-2.47282">
        <ele>-3.4000000953674</ele>
        <time>2021-05-20T08:47:50.000Z</time>
      </trkpt>
      <trkpt lat="47.28172" lon="-2.47286">
        <ele>-3.4000000953674</ele>
        <time>2021-05-20T08:47:51.000Z</time>
      </trkpt>
      <trkpt lat="47.28137" lon="-2.47305">
        <ele>-3.4000000953674</ele>
        <time>2021-05-20T08:47:58.000Z</time>
      </trkpt>
      <trkpt lat="47.28127" lon="-2.47324">
        <ele>-3.4000000953674</ele>
        <time>2021-05-20T08:48:01.000Z</time>
      </trkpt>
      <trkpt lat="47.28126" lon="-2.47332">
        <ele>-3.4000000953674</ele>
        <time>2021-05-20T08:48:02.000Z</time>
      </trkpt>
      <trkpt lat="47.28114" lon="-2.47394">
        <ele>-3.4000000953674</ele>
        <time>2021-05-20T08:48:09.000Z</time>
      </trkpt>
      <trkpt lat="47.28103" lon="-2.47454">
        <ele>-3.4000000953674</ele>
        <time>2021-05-20T08:48:16.000Z</time>
      </trkpt>
      <trkpt lat="47.28092" lon="-2.47514">
        <ele>-3.4000000953674</ele>
        <time>2021-05-20T08:48:23.000Z</time>
      </trkpt>
      <trkpt lat="47.28081" lon="-2.47574">
        <ele>-3.4000000953674</ele>
        <time>2021-05-20T08:48:30.000Z</time>
      </trkpt>
      <trkpt lat="47.28079" lon="-2.47631">
        <ele>-3.4000000953674</ele>
        <time>2021-05-20T08:48:37.000Z</time>
      </trkpt>
      <trkpt lat="47.2808" lon="-2.47657">
        <ele>-3.7999999523163</ele>
        <time>2021-05-20T08:48:40.000Z</time>
      </trkpt>
      <trkpt lat="47.2808" lon="-2.47665">
        <ele>-4.1999998092651</ele>
        <time>2021-05-20T08:48:41.000Z</time>
      </trkpt>
      <trkpt lat="47.28081" lon="-2.47673">
        <ele>-4.8000001907349</ele>
        <time>2021-05-20T08:48:42.000Z</time>
      </trkpt>
      <trkpt lat="47.28082" lon="-2.47681">
        <ele>-5.1999998092651</ele>
        <time>2021-05-20T08:48:43.000Z</time>
      </trkpt>
      <trkpt lat="47.28083" lon="-2.47689">
        <ele>-5.5999999046326</ele>
        <time>2021-05-20T08:48:44.000Z</time>
      </trkpt>
      <trkpt lat="47.28092" lon="-2.47755">
        <ele>-5.5999999046326</ele>
        <time>2021-05-20T08:48:52.000Z</time>
      </trkpt>
      <trkpt lat="47.281" lon="-2.47815">
        <ele>-5.5999999046326</ele>
        <time>2021-05-20T08:49:00.000Z</time>
      </trkpt>
      <trkpt lat="47.28107" lon="-2.47856">
        <ele>-5.1999998092651</ele>
        <time>2021-05-20T08:49:06.000Z</time>
      </trkpt>
      <trkpt lat="47.28109" lon="-2.47863">
        <ele>-4.8000001907349</ele>
        <time>2021-05-20T08:49:07.000Z</time>
      </trkpt>
      <trkpt lat="47.28112" lon="-2.47869">
        <ele>-4.4000000953674</ele>
        <time>2021-05-20T08:49:08.000Z</time>
      </trkpt>
      <trkpt lat="47.28114" lon="-2.47876">
        <ele>-4</ele>
        <time>2021-05-20T08:49:09.000Z</time>
      </trkpt>
      <trkpt lat="47.28114" lon="-2.47883">
        <ele>-3.5999999046326</ele>
        <time>2021-05-20T08:49:10.000Z</time>
      </trkpt>
      <trkpt lat="47.28112" lon="-2.47891">
        <ele>-3.5999999046326</ele>
        <time>2021-05-20T08:49:11.000Z</time>
      </trkpt>
      <trkpt lat="47.28117" lon="-2.47916">
        <ele>-3.5999999046326</ele>
        <time>2021-05-20T08:49:14.000Z</time>
      </trkpt>
      <trkpt lat="47.28133" lon="-2.47942">
        <ele>-3.5999999046326</ele>
        <time>2021-05-20T08:49:18.000Z</time>
      </trkpt>
      <trkpt lat="47.2815" lon="-2.47952">
        <ele>-3.5999999046326</ele>
        <time>2021-05-20T08:49:21.000Z</time>
      </trkpt>
      <trkpt lat="47.28156" lon="-2.47966">
        <ele>-3.5999999046326</ele>
        <time>2021-05-20T08:49:23.000Z</time>
      </trkpt>
      <trkpt lat="47.28156" lon="-2.47992">
        <ele>-3.5999999046326</ele>
        <time>2021-05-20T08:49:26.000Z</time>
      </trkpt>
      <trkpt lat="47.28157" lon="-2.48001">
        <ele>-3.5999999046326</ele>
        <time>2021-05-20T08:49:27.000Z</time>
      </trkpt>
      <trkpt lat="47.28163" lon="-2.48058">
        <ele>-3.5999999046326</ele>
        <time>2021-05-20T08:49:33.000Z</time>
      </trkpt>
      <trkpt lat="47.2817" lon="-2.48122">
        <ele>-3.5999999046326</ele>
        <time>2021-05-20T08:49:40.000Z</time>
      </trkpt>
      <trkpt lat="47.28175" lon="-2.48157">
        <ele>-3.5999999046326</ele>
        <time>2021-05-20T08:49:44.000Z</time>
      </trkpt>
      <trkpt lat="47.28179" lon="-2.48184">
        <ele>-3.5999999046326</ele>
        <time>2021-05-20T08:49:47.000Z</time>
      </trkpt>
      <trkpt lat="47.28186" lon="-2.48216">
        <ele>-3.5999999046326</ele>
        <time>2021-05-20T08:49:51.000Z</time>
      </trkpt>
      <trkpt lat="47.28192" lon="-2.48229">
        <ele>-3.5999999046326</ele>
        <time>2021-05-20T08:49:53.000Z</time>
      </trkpt>
      <trkpt lat="47.28202" lon="-2.48247">
        <ele>-3.2000000476837</ele>
        <time>2021-05-20T08:49:56.000Z</time>
      </trkpt>
      <trkpt lat="47.28202" lon="-2.48255">
        <ele>-2.7999999523163</ele>
        <time>2021-05-20T08:49:57.000Z</time>
      </trkpt>
      <trkpt lat="47.28201" lon="-2.48264">
        <ele>-2.4000000953674</ele>
        <time>2021-05-20T08:49:58.000Z</time>
      </trkpt>
      <trkpt lat="47.28199" lon="-2.48272">
        <ele>-2</ele>
        <time>2021-05-20T08:49:59.000Z</time>
      </trkpt>
      <trkpt lat="47.28198" lon="-2.48281">
        <ele>-1.6000000238419</ele>
        <time>2021-05-20T08:50:00.000Z</time>
      </trkpt>
      <trkpt lat="47.28193" lon="-2.48314">
        <ele>-1.6000000238419</ele>
        <time>2021-05-20T08:50:04.000Z</time>
      </trkpt>
      <trkpt lat="47.28193" lon="-2.48329">
        <ele>-1.6000000238419</ele>
        <time>2021-05-20T08:50:06.000Z</time>
      </trkpt>
      <trkpt lat="47.28202" lon="-2.48351">
        <ele>-1.6000000238419</ele>
        <time>2021-05-20T08:50:10.000Z</time>
      </trkpt>
      <trkpt lat="47.28219" lon="-2.48345">
        <ele>-1.6000000238419</ele>
        <time>2021-05-20T08:50:13.000Z</time>
      </trkpt>
      <trkpt lat="47.28224" lon="-2.48343">
        <ele>-1.6000000238419</ele>
        <time>2021-05-20T08:50:14.000Z</time>
      </trkpt>
      <trkpt lat="47.28241" lon="-2.48346">
        <ele>-2</ele>
        <time>2021-05-20T08:50:17.000Z</time>
      </trkpt>
      <trkpt lat="47.28246" lon="-2.4835">
        <ele>-2.4000000953674</ele>
        <time>2021-05-20T08:50:18.000Z</time>
      </trkpt>
      <trkpt lat="47.28251" lon="-2.48356">
        <ele>-2.7999999523163</ele>
        <time>2021-05-20T08:50:19.000Z</time>
      </trkpt>
      <trkpt lat="47.28255" lon="-2.48362">
        <ele>-3.2000000476837</ele>
        <time>2021-05-20T08:50:20.000Z</time>
      </trkpt>
      <trkpt lat="47.28261" lon="-2.48367">
        <ele>-3.5999999046326</ele>
        <time>2021-05-20T08:50:21.000Z</time>
      </trkpt>
      <trkpt lat="47.28273" lon="-2.48369">
        <ele>-3.5999999046326</ele>
        <time>2021-05-20T08:50:23.000Z</time>
      </trkpt>
      <trkpt lat="47.28285" lon="-2.48366">
        <ele>-3.5999999046326</ele>
        <time>2021-05-20T08:50:25.000Z</time>
      </trkpt>
      <trkpt lat="47.2829" lon="-2.48366">
        <ele>-3.5999999046326</ele>
        <time>2021-05-20T08:50:26.000Z</time>
      </trkpt>
      <trkpt lat="47.28301" lon="-2.48379">
        <ele>-3.5999999046326</ele>
        <time>2021-05-20T08:50:29.000Z</time>
      </trkpt>
      <trkpt lat="47.28309" lon="-2.48384">
        <ele>-4</ele>
        <time>2021-05-20T08:50:31.000Z</time>
      </trkpt>
      <trkpt lat="47.28313" lon="-2.48384">
        <ele>-4.4000000953674</ele>
        <time>2021-05-20T08:50:32.000Z</time>
      </trkpt>
      <trkpt lat="47.28319" lon="-2.48382">
        <ele>-5.1999998092651</ele>
        <time>2021-05-20T08:50:33.000Z</time>
      </trkpt>
      <trkpt lat="47.28324" lon="-2.48378">
        <ele>-5.5999999046326</ele>
        <time>2021-05-20T08:50:34.000Z</time>
      </trkpt>
      <trkpt lat="47.2833" lon="-2.48374">
        <ele>-5.5999999046326</ele>
        <time>2021-05-20T08:50:35.000Z</time>
      </trkpt>
      <trkpt lat="47.28336" lon="-2.48369">
        <ele>-5.5999999046326</ele>
        <time>2021-05-20T08:50:36.000Z</time>
      </trkpt>
      <trkpt lat="47.28342" lon="-2.48364">
        <ele>-5.5999999046326</ele>
        <time>2021-05-20T08:50:37.000Z</time>
      </trkpt>
      <trkpt lat="47.28361" lon="-2.48357">
        <ele>-5.5999999046326</ele>
        <time>2021-05-20T08:50:40.000Z</time>
      </trkpt>
      <trkpt lat="47.28367" lon="-2.48355">
        <ele>-5.5999999046326</ele>
        <time>2021-05-20T08:50:41.000Z</time>
      </trkpt>
      <trkpt lat="47.28388" lon="-2.48352">
        <ele>-5.5999999046326</ele>
        <time>2021-05-20T08:50:45.000Z</time>
      </trkpt>
      <trkpt lat="47.2841" lon="-2.48366">
        <ele>-5.5999999046326</ele>
        <time>2021-05-20T08:50:49.000Z</time>
      </trkpt>
      <trkpt lat="47.28438" lon="-2.4839">
        <ele>-5.5999999046326</ele>
        <time>2021-05-20T08:50:54.000Z</time>
      </trkpt>
      <trkpt lat="47.28443" lon="-2.48394">
        <ele>-5.5999999046326</ele>
        <time>2021-05-20T08:50:55.000Z</time>
      </trkpt>
      <trkpt lat="47.28448" lon="-2.48407">
        <ele>-5.5999999046326</ele>
        <time>2021-05-20T08:50:57.000Z</time>
      </trkpt>
      <trkpt lat="47.28446" lon="-2.4843">
        <ele>-5.5999999046326</ele>
        <time>2021-05-20T08:51:00.000Z</time>
      </trkpt>
      <trkpt lat="47.28445" lon="-2.48447">
        <ele>-5.5999999046326</ele>
        <time>2021-05-20T08:51:02.000Z</time>
      </trkpt>
      <trkpt lat="47.28443" lon="-2.48473">
        <ele>-5.5999999046326</ele>
        <time>2021-05-20T08:51:05.000Z</time>
      </trkpt>
      <trkpt lat="47.28441" lon="-2.485">
        <ele>-5.5999999046326</ele>
        <time>2021-05-20T08:51:08.000Z</time>
      </trkpt>
      <trkpt lat="47.28437" lon="-2.48515">
        <ele>-5.5999999046326</ele>
        <time>2021-05-20T08:51:10.000Z</time>
      </trkpt>
      <trkpt lat="47.28435" lon="-2.48522">
        <ele>-5.5999999046326</ele>
        <time>2021-05-20T08:51:11.000Z</time>
      </trkpt>
      <trkpt lat="47.28435" lon="-2.48538">
        <ele>-5.5999999046326</ele>
        <time>2021-05-20T08:51:13.000Z</time>
      </trkpt>
      <trkpt lat="47.28444" lon="-2.48548">
        <ele>-5.5999999046326</ele>
        <time>2021-05-20T08:51:15.000Z</time>
      </trkpt>
      <trkpt lat="47.28455" lon="-2.48554">
        <ele>-5.5999999046326</ele>
        <time>2021-05-20T08:51:17.000Z</time>
      </trkpt>
      <trkpt lat="47.28461" lon="-2.48558">
        <ele>-5.5999999046326</ele>
        <time>2021-05-20T08:51:18.000Z</time>
      </trkpt>
      <trkpt lat="47.2847" lon="-2.48571">
        <ele>-5.5999999046326</ele>
        <time>2021-05-20T08:51:20.000Z</time>
      </trkpt>
      <trkpt lat="47.28475" lon="-2.48587">
        <ele>-5.5999999046326</ele>
        <time>2021-05-20T08:51:22.000Z</time>
      </trkpt>
      <trkpt lat="47.28477" lon="-2.48595">
        <ele>-5.5999999046326</ele>
        <time>2021-05-20T08:51:23.000Z</time>
      </trkpt>
      <trkpt lat="47.28478" lon="-2.48621">
        <ele>-5.5999999046326</ele>
        <time>2021-05-20T08:51:26.000Z</time>
      </trkpt>
      <trkpt lat="47.28474" lon="-2.48638">
        <ele>-5.5999999046326</ele>
        <time>2021-05-20T08:51:28.000Z</time>
      </trkpt>
      <trkpt lat="47.28469" lon="-2.48664">
        <ele>-5.5999999046326</ele>
        <time>2021-05-20T08:51:31.000Z</time>
      </trkpt>
      <trkpt lat="47.28469" lon="-2.48672">
        <ele>-5.5999999046326</ele>
        <time>2021-05-20T08:51:32.000Z</time>
      </trkpt>
      <trkpt lat="47.28475" lon="-2.48687">
        <ele>-5.5999999046326</ele>
        <time>2021-05-20T08:51:34.000Z</time>
      </trkpt>
      <trkpt lat="47.28485" lon="-2.48699">
        <ele>-5.5999999046326</ele>
        <time>2021-05-20T08:51:36.000Z</time>
      </trkpt>
      <trkpt lat="47.285" lon="-2.48715">
        <ele>-5.5999999046326</ele>
        <time>2021-05-20T08:51:39.000Z</time>
      </trkpt>
      <trkpt lat="47.28525" lon="-2.4875">
        <ele>-5.5999999046326</ele>
        <time>2021-05-20T08:51:45.000Z</time>
      </trkpt>
      <trkpt lat="47.28551" lon="-2.48795">
        <ele>-5.5999999046326</ele>
        <time>2021-05-20T08:51:52.000Z</time>
      </trkpt>
      <trkpt lat="47.28565" lon="-2.48822">
        <ele>-5.5999999046326</ele>
        <time>2021-05-20T08:51:56.000Z</time>
      </trkpt>
      <trkpt lat="47.2857" lon="-2.48827">
        <ele>-5.5999999046326</ele>
        <time>2021-05-20T08:51:57.000Z</time>
      </trkpt>
      <trkpt lat="47.28574" lon="-2.48834">
        <ele>-5.5999999046326</ele>
        <time>2021-05-20T08:51:58.000Z</time>
      </trkpt>
      <trkpt lat="47.2858" lon="-2.48859">
        <ele>-5.5999999046326</ele>
        <time>2021-05-20T08:52:01.000Z</time>
      </trkpt>
      <trkpt lat="47.28576" lon="-2.489">
        <ele>-5.5999999046326</ele>
        <time>2021-05-20T08:52:06.000Z</time>
      </trkpt>
      <trkpt lat="47.28563" lon="-2.48915">
        <ele>-5.5999999046326</ele>
        <time>2021-05-20T08:52:09.000Z</time>
      </trkpt>
      <trkpt lat="47.28547" lon="-2.48922">
        <ele>-5.5999999046326</ele>
        <time>2021-05-20T08:52:12.000Z</time>
      </trkpt>
      <trkpt lat="47.28542" lon="-2.48925">
        <ele>-5.5999999046326</ele>
        <time>2021-05-20T08:52:13.000Z</time>
      </trkpt>
      <trkpt lat="47.28519" lon="-2.4893">
        <ele>-5.5999999046326</ele>
        <time>2021-05-20T08:52:17.000Z</time>
      </trkpt>
      <trkpt lat="47.28508" lon="-2.48928">
        <ele>-5.5999999046326</ele>
        <time>2021-05-20T08:52:19.000Z</time>
      </trkpt>
      <trkpt lat="47.28482" lon="-2.48925">
        <ele>-5.5999999046326</ele>
        <time>2021-05-20T08:52:24.000Z</time>
      </trkpt>
      <trkpt lat="47.28476" lon="-2.48927">
        <ele>-5.5999999046326</ele>
        <time>2021-05-20T08:52:25.000Z</time>
      </trkpt>
      <trkpt lat="47.28468" lon="-2.48945">
        <ele>-5.5999999046326</ele>
        <time>2021-05-20T08:52:28.000Z</time>
      </trkpt>
      <trkpt lat="47.28466" lon="-2.48952">
        <ele>-5.5999999046326</ele>
        <time>2021-05-20T08:52:29.000Z</time>
      </trkpt>
      <trkpt lat="47.28465" lon="-2.48958">
        <ele>-5.5999999046326</ele>
        <time>2021-05-20T08:52:30.000Z</time>
      </trkpt>
      <trkpt lat="47.28468" lon="-2.48968">
        <ele>-5.5999999046326</ele>
        <time>2021-05-20T08:52:32.000Z</time>
      </trkpt>
      <trkpt lat="47.28476" lon="-2.48974">
        <ele>-5.5999999046326</ele>
        <time>2021-05-20T08:52:34.000Z</time>
      </trkpt>
      <trkpt lat="47.28486" lon="-2.4898">
        <ele>-5.5999999046326</ele>
        <time>2021-05-20T08:52:36.000Z</time>
      </trkpt>
      <trkpt lat="47.28491" lon="-2.48984">
        <ele>-5.5999999046326</ele>
        <time>2021-05-20T08:52:37.000Z</time>
      </trkpt>
      <trkpt lat="47.28498" lon="-2.48998">
        <ele>-5.5999999046326</ele>
        <time>2021-05-20T08:52:39.000Z</time>
      </trkpt>
      <trkpt lat="47.28501" lon="-2.49034">
        <ele>-5.1999998092651</ele>
        <time>2021-05-20T08:52:43.000Z</time>
      </trkpt>
      <trkpt lat="47.28501" lon="-2.49043">
        <ele>-4.8000001907349</ele>
        <time>2021-05-20T08:52:44.000Z</time>
      </trkpt>
      <trkpt lat="47.28502" lon="-2.49051">
        <ele>-4.4000000953674</ele>
        <time>2021-05-20T08:52:45.000Z</time>
      </trkpt>
      <trkpt lat="47.28503" lon="-2.4906">
        <ele>-4</ele>
        <time>2021-05-20T08:52:46.000Z</time>
      </trkpt>
      <trkpt lat="47.28504" lon="-2.49068">
        <ele>-3.5999999046326</ele>
        <time>2021-05-20T08:52:47.000Z</time>
      </trkpt>
      <trkpt lat="47.28504" lon="-2.49076">
        <ele>-3.2000000476837</ele>
        <time>2021-05-20T08:52:48.000Z</time>
      </trkpt>
      <trkpt lat="47.28505" lon="-2.49083">
        <ele>-2.5999999046326</ele>
        <time>2021-05-20T08:52:49.000Z</time>
      </trkpt>
      <trkpt lat="47.28505" lon="-2.49091">
        <ele>-2.2000000476837</ele>
        <time>2021-05-20T08:52:50.000Z</time>
      </trkpt>
      <trkpt lat="47.28505" lon="-2.49099">
        <ele>-1.7999999523163</ele>
        <time>2021-05-20T08:52:51.000Z</time>
      </trkpt>
      <trkpt lat="47.28505" lon="-2.49107">
        <ele>-1.2000000476837</ele>
        <time>2021-05-20T08:52:52.000Z</time>
      </trkpt>
      <trkpt lat="47.28504" lon="-2.49115">
        <ele>-1.2000000476837</ele>
        <time>2021-05-20T08:52:53.000Z</time>
      </trkpt>
      <trkpt lat="47.28503" lon="-2.49138">
        <ele>-0.80000001192093</ele>
        <time>2021-05-20T08:52:56.000Z</time>
      </trkpt>
      <trkpt lat="47.28505" lon="-2.49145">
        <ele>-0.40000000596046</ele>
        <time>2021-05-20T08:52:57.000Z</time>
      </trkpt>
      <trkpt lat="47.28508" lon="-2.49151">
        <ele>2.2</ele>
        <time>2021-05-20T08:52:58.000Z</time>
      </trkpt>
      <trkpt lat="47.28511" lon="-2.49158">
        <ele>0.60000002384186</ele>
        <time>2021-05-20T08:52:59.000Z</time>
      </trkpt>
      <trkpt lat="47.28514" lon="-2.49165">
        <ele>1</ele>
        <time>2021-05-20T08:53:00.000Z</time>
      </trkpt>
      <trkpt lat="47.28517" lon="-2.49172">
        <ele>0.60000002384186</ele>
        <time>2021-05-20T08:53:01.000Z</time>
      </trkpt>
      <trkpt lat="47.2852" lon="-2.49179">
        <ele>2</ele>
        <time>2021-05-20T08:53:02.000Z</time>
      </trkpt>
      <trkpt lat="47.28522" lon="-2.49188">
        <ele>-0.40000000596046</ele>
        <time>2021-05-20T08:53:03.000Z</time>
      </trkpt>
      <trkpt lat="47.28525" lon="-2.49197">
        <ele>-0.80000001192093</ele>
        <time>2021-05-20T08:53:04.000Z</time>
      </trkpt>
      <trkpt lat="47.28527" lon="-2.49206">
        <ele>-1.2000000476837</ele>
        <time>2021-05-20T08:53:05.000Z</time>
      </trkpt>
      <trkpt lat="47.28528" lon="-2.49215">
        <ele>-1.2000000476837</ele>
        <time>2021-05-20T08:53:06.000Z</time>
      </trkpt>
      <trkpt lat="47.28532" lon="-2.49241">
        <ele>-1.2000000476837</ele>
        <time>2021-05-20T08:53:09.000Z</time>
      </trkpt>
      <trkpt lat="47.28534" lon="-2.49259">
        <ele>-1.2000000476837</ele>
        <time>2021-05-20T08:53:11.000Z</time>
      </trkpt>
      <trkpt lat="47.28535" lon="-2.49267">
        <ele>-1.2000000476837</ele>
        <time>2021-05-20T08:53:12.000Z</time>
      </trkpt>
      <trkpt lat="47.28538" lon="-2.49283">
        <ele>-1.2000000476837</ele>
        <time>2021-05-20T08:53:14.000Z</time>
      </trkpt>
      <trkpt lat="47.28542" lon="-2.49298">
        <ele>-1.2000000476837</ele>
        <time>2021-05-20T08:53:16.000Z</time>
      </trkpt>
      <trkpt lat="47.28541" lon="-2.49321">
        <ele>-1.2000000476837</ele>
        <time>2021-05-20T08:53:19.000Z</time>
      </trkpt>
      <trkpt lat="47.2854" lon="-2.49344">
        <ele>-1.2000000476837</ele>
        <time>2021-05-20T08:53:22.000Z</time>
      </trkpt>
      <trkpt lat="47.28542" lon="-2.49359">
        <ele>-1.2000000476837</ele>
        <time>2021-05-20T08:53:24.000Z</time>
      </trkpt>
      <trkpt lat="47.28545" lon="-2.49408">
        <ele>-1.2000000476837</ele>
        <time>2021-05-20T08:53:30.000Z</time>
      </trkpt>
      <trkpt lat="47.28546" lon="-2.49433">
        <ele>-1.6000000238419</ele>
        <time>2021-05-20T08:53:33.000Z</time>
      </trkpt>
      <trkpt lat="47.28545" lon="-2.49442">
        <ele>-2.2000000476837</ele>
        <time>2021-05-20T08:53:34.000Z</time>
      </trkpt>
      <trkpt lat="47.28544" lon="-2.4945">
        <ele>-2.5999999046326</ele>
        <time>2021-05-20T08:53:35.000Z</time>
      </trkpt>
      <trkpt lat="47.28543" lon="-2.49458">
        <ele>-3.2000000476837</ele>
        <time>2021-05-20T08:53:36.000Z</time>
      </trkpt>
      <trkpt lat="47.28541" lon="-2.49466">
        <ele>-3.5999999046326</ele>
        <time>2021-05-20T08:53:37.000Z</time>
      </trkpt>
      <trkpt lat="47.28537" lon="-2.4948">
        <ele>-3.5999999046326</ele>
        <time>2021-05-20T08:53:39.000Z</time>
      </trkpt>
      <trkpt lat="47.28529" lon="-2.4949">
        <ele>-3.5999999046326</ele>
        <time>2021-05-20T08:53:41.000Z</time>
      </trkpt>
      <trkpt lat="47.28513" lon="-2.49493">
        <ele>-3.5999999046326</ele>
        <time>2021-05-20T08:53:44.000Z</time>
      </trkpt>
      <trkpt lat="47.28508" lon="-2.49495">
        <ele>-3.5999999046326</ele>
        <time>2021-05-20T08:53:45.000Z</time>
      </trkpt>
      <trkpt lat="47.28488" lon="-2.49502">
        <ele>-3.5999999046326</ele>
        <time>2021-05-20T08:53:49.000Z</time>
      </trkpt>
      <trkpt lat="47.28483" lon="-2.49505">
        <ele>-3.5999999046326</ele>
        <time>2021-05-20T08:53:50.000Z</time>
      </trkpt>
      <trkpt lat="47.28473" lon="-2.4952">
        <ele>-3.5999999046326</ele>
        <time>2021-05-20T08:53:53.000Z</time>
      </trkpt>
      <trkpt lat="47.2847" lon="-2.49537">
        <ele>-3.5999999046326</ele>
        <time>2021-05-20T08:53:56.000Z</time>
      </trkpt>
      <trkpt lat="47.28462" lon="-2.49548">
        <ele>-3.5999999046326</ele>
        <time>2021-05-20T08:53:59.000Z</time>
      </trkpt>
      <trkpt lat="47.28447" lon="-2.49551">
        <ele>-4</ele>
        <time>2021-05-20T08:54:02.000Z</time>
      </trkpt>
      <trkpt lat="47.28442" lon="-2.49552">
        <ele>-4.4000000953674</ele>
        <time>2021-05-20T08:54:03.000Z</time>
      </trkpt>
      <trkpt lat="47.28436" lon="-2.49553">
        <ele>-4.8000001907349</ele>
        <time>2021-05-20T08:54:04.000Z</time>
      </trkpt>
      <trkpt lat="47.28431" lon="-2.49555">
        <ele>-5.1999998092651</ele>
        <time>2021-05-20T08:54:05.000Z</time>
      </trkpt>
      <trkpt lat="47.28426" lon="-2.49557">
        <ele>-5.5999999046326</ele>
        <time>2021-05-20T08:54:06.000Z</time>
      </trkpt>
      <trkpt lat="47.28404" lon="-2.49568">
        <ele>-5.5999999046326</ele>
        <time>2021-05-20T08:54:10.000Z</time>
      </trkpt>
      <trkpt lat="47.28389" lon="-2.49578">
        <ele>-5.5999999046326</ele>
        <time>2021-05-20T08:54:13.000Z</time>
      </trkpt>
      <trkpt lat="47.28386" lon="-2.49591">
        <ele>-5.5999999046326</ele>
        <time>2021-05-20T08:54:15.000Z</time>
      </trkpt>
      <trkpt lat="47.28389" lon="-2.49613">
        <ele>-5.5999999046326</ele>
        <time>2021-05-20T08:54:18.000Z</time>
      </trkpt>
      <trkpt lat="47.28391" lon="-2.4962">
        <ele>-5.5999999046326</ele>
        <time>2021-05-20T08:54:19.000Z</time>
      </trkpt>
      <trkpt lat="47.28395" lon="-2.49643">
        <ele>-5.5999999046326</ele>
        <time>2021-05-20T08:54:22.000Z</time>
      </trkpt>
      <trkpt lat="47.28401" lon="-2.49657">
        <ele>-5.5999999046326</ele>
        <time>2021-05-20T08:54:24.000Z</time>
      </trkpt>
      <trkpt lat="47.28403" lon="-2.49664">
        <ele>-5.5999999046326</ele>
        <time>2021-05-20T08:54:25.000Z</time>
      </trkpt>
      <trkpt lat="47.2841" lon="-2.49695">
        <ele>-5.5999999046326</ele>
        <time>2021-05-20T08:54:29.000Z</time>
      </trkpt>
      <trkpt lat="47.28415" lon="-2.49716">
        <ele>-5.5999999046326</ele>
        <time>2021-05-20T08:54:32.000Z</time>
      </trkpt>
      <trkpt lat="47.28415" lon="-2.49723">
        <ele>-5.1999998092651</ele>
        <time>2021-05-20T08:54:33.000Z</time>
      </trkpt>
      <trkpt lat="47.28415" lon="-2.49728">
        <ele>-4.8000001907349</ele>
        <time>2021-05-20T08:54:34.000Z</time>
      </trkpt>
      <trkpt lat="47.28414" lon="-2.4973">
        <ele>-4.4000000953674</ele>
        <time>2021-05-20T08:54:35.000Z</time>
      </trkpt>
      <trkpt lat="47.28413" lon="-2.49732">
        <ele>-4</ele>
        <time>2021-05-20T08:54:36.000Z</time>
      </trkpt>
      <trkpt lat="47.28411" lon="-2.49734">
        <ele>-3.5999999046326</ele>
        <time>2021-05-20T08:54:37.000Z</time>
      </trkpt>
      <trkpt lat="47.28409" lon="-2.49735">
        <ele>-3.5999999046326</ele>
        <time>2021-05-20T08:54:38.000Z</time>
      </trkpt>
      <trkpt lat="47.284" lon="-2.4974">
        <ele>-3.5999999046326</ele>
        <time>2021-05-20T08:54:43.000Z</time>
      </trkpt>
      <trkpt lat="47.284" lon="-2.4974">
        <ele>-3.5999999046326</ele>
        <time>2021-05-20T08:54:44.000Z</time>
      </trkpt>
      <trkpt lat="47.28398" lon="-2.49742">
        <ele>-3.5999999046326</ele>
        <time>2021-05-20T08:54:52.000Z</time>
      </trkpt>
      <trkpt lat="47.28396" lon="-2.49744">
        <ele>-3.5999999046326</ele>
        <time>2021-05-20T08:54:54.000Z</time>
      </trkpt>
      <trkpt lat="47.28386" lon="-2.4975">
        <ele>-3.5999999046326</ele>
        <time>2021-05-20T08:55:00.000Z</time>
      </trkpt>
      <trkpt lat="47.28373" lon="-2.49759">
        <ele>-3.5999999046326</ele>
        <time>2021-05-20T08:55:07.000Z</time>
      </trkpt>
      <trkpt lat="47.28362" lon="-2.49766">
        <ele>-3.5999999046326</ele>
        <time>2021-05-20T08:55:13.000Z</time>
      </trkpt>
      <trkpt lat="47.2835" lon="-2.49774">
        <ele>-3.5999999046326</ele>
        <time>2021-05-20T08:55:21.000Z</time>
      </trkpt>
      <trkpt lat="47.28342" lon="-2.4978">
        <ele>-3.5999999046326</ele>
        <time>2021-05-20T08:55:26.000Z</time>
      </trkpt>
      <trkpt lat="47.28342" lon="-2.49782">
        <ele>-3.5999999046326</ele>
        <time>2021-05-20T08:55:27.000Z</time>
      </trkpt>
      <trkpt lat="47.28342" lon="-2.49797">
        <ele>-3.5999999046326</ele>
        <time>2021-05-20T08:55:31.000Z</time>
      </trkpt>
      <trkpt lat="47.28342" lon="-2.49801">
        <ele>-3.5999999046326</ele>
        <time>2021-05-20T08:55:32.000Z</time>
      </trkpt>
      <trkpt lat="47.28344" lon="-2.49823">
        <ele>-3.5999999046326</ele>
        <time>2021-05-20T08:55:37.000Z</time>
      </trkpt>
      <trkpt lat="47.28354" lon="-2.4983">
        <ele>-3.5999999046326</ele>
        <time>2021-05-20T08:55:40.000Z</time>
      </trkpt>
      <trkpt lat="47.28358" lon="-2.49831">
        <ele>-3.5999999046326</ele>
        <time>2021-05-20T08:55:41.000Z</time>
      </trkpt>
      <trkpt lat="47.28383" lon="-2.4984">
        <ele>-3.5999999046326</ele>
        <time>2021-05-20T08:55:48.000Z</time>
      </trkpt>
      <trkpt lat="47.28393" lon="-2.49855">
        <ele>-4</ele>
        <time>2021-05-20T08:55:51.000Z</time>
      </trkpt>
      <trkpt lat="47.28394" lon="-2.49862">
        <ele>-4.4000000953674</ele>
        <time>2021-05-20T08:55:52.000Z</time>
      </trkpt>
      <trkpt lat="47.28396" lon="-2.49868">
        <ele>-5.1999998092651</ele>
        <time>2021-05-20T08:55:53.000Z</time>
      </trkpt>
      <trkpt lat="47.28398" lon="-2.49874">
        <ele>-5.5999999046326</ele>
        <time>2021-05-20T08:55:54.000Z</time>
      </trkpt>
      <trkpt lat="47.28407" lon="-2.49899">
        <ele>-5.5999999046326</ele>
        <time>2021-05-20T08:55:58.000Z</time>
      </trkpt>
      <trkpt lat="47.2841" lon="-2.49905">
        <ele>-5.5999999046326</ele>
        <time>2021-05-20T08:55:59.000Z</time>
      </trkpt>
      <trkpt lat="47.28423" lon="-2.49913">
        <ele>-5.5999999046326</ele>
        <time>2021-05-20T08:56:02.000Z</time>
      </trkpt>
      <trkpt lat="47.28437" lon="-2.49914">
        <ele>-5.5999999046326</ele>
        <time>2021-05-20T08:56:05.000Z</time>
      </trkpt>
      <trkpt lat="47.28442" lon="-2.49913">
        <ele>-5.5999999046326</ele>
        <time>2021-05-20T08:56:06.000Z</time>
      </trkpt>
      <trkpt lat="47.28446" lon="-2.49912">
        <ele>-5.5999999046326</ele>
        <time>2021-05-20T08:56:07.000Z</time>
      </trkpt>
      <trkpt lat="47.28461" lon="-2.49899">
        <ele>-5.5999999046326</ele>
        <time>2021-05-20T08:56:11.000Z</time>
      </trkpt>
      <trkpt lat="47.28472" lon="-2.49894">
        <ele>-5.5999999046326</ele>
        <time>2021-05-20T08:56:14.000Z</time>
      </trkpt>
      <trkpt lat="47.2848" lon="-2.49892">
        <ele>-5.5999999046326</ele>
        <time>2021-05-20T08:56:16.000Z</time>
      </trkpt>
      <trkpt lat="47.28506" lon="-2.49888">
        <ele>-5.5999999046326</ele>
        <time>2021-05-20T08:56:21.000Z</time>
      </trkpt>
      <trkpt lat="47.28517" lon="-2.49888">
        <ele>-5.5999999046326</ele>
        <time>2021-05-20T08:56:23.000Z</time>
      </trkpt>
      <trkpt lat="47.28525" lon="-2.49896">
        <ele>-5.5999999046326</ele>
        <time>2021-05-20T08:56:25.000Z</time>
      </trkpt>
      <trkpt lat="47.2853" lon="-2.49917">
        <ele>-5.5999999046326</ele>
        <time>2021-05-20T08:56:28.000Z</time>
      </trkpt>
      <trkpt lat="47.28531" lon="-2.49925">
        <ele>-5.5999999046326</ele>
        <time>2021-05-20T08:56:29.000Z</time>
      </trkpt>
      <trkpt lat="47.28532" lon="-2.4994">
        <ele>-5.1999998092651</ele>
        <time>2021-05-20T08:56:31.000Z</time>
      </trkpt>
      <trkpt lat="47.28532" lon="-2.49947">
        <ele>-4.8000001907349</ele>
        <time>2021-05-20T08:56:32.000Z</time>
      </trkpt>
      <trkpt lat="47.28533" lon="-2.49955">
        <ele>-4.1999998092651</ele>
        <time>2021-05-20T08:56:33.000Z</time>
      </trkpt>
      <trkpt lat="47.28533" lon="-2.49962">
        <ele>-3.7999999523163</ele>
        <time>2021-05-20T08:56:34.000Z</time>
      </trkpt>
      <trkpt lat="47.28534" lon="-2.49969">
        <ele>-3.4000000953674</ele>
        <time>2021-05-20T08:56:35.000Z</time>
      </trkpt>
      <trkpt lat="47.28541" lon="-2.50028">
        <ele>-3.4000000953674</ele>
        <time>2021-05-20T08:56:41.000Z</time>
      </trkpt>
      <trkpt lat="47.28541" lon="-2.50028">
        <ele>-3.4000000953674</ele>
        <time>2021-05-20T08:56:44.000Z</time>
      </trkpt>
      <trkpt lat="47.28549" lon="-2.50079">
        <ele>-3.4000000953674</ele>
        <time>2021-05-20T08:56:51.000Z</time>
      </trkpt>
      <trkpt lat="47.28555" lon="-2.50126">
        <ele>-3.4000000953674</ele>
        <time>2021-05-20T08:56:58.000Z</time>
      </trkpt>
      <trkpt lat="47.28556" lon="-2.50152">
        <ele>-3.4000000953674</ele>
        <time>2021-05-20T08:57:02.000Z</time>
      </trkpt>
      <trkpt lat="47.28552" lon="-2.50163">
        <ele>-3.4000000953674</ele>
        <time>2021-05-20T08:57:04.000Z</time>
      </trkpt>
      <trkpt lat="47.28544" lon="-2.50167">
        <ele>-3.7999999523163</ele>
        <time>2021-05-20T08:57:07.000Z</time>
      </trkpt>
      <trkpt lat="47.28542" lon="-2.50167">
        <ele>-4.8000001907349</ele>
        <time>2021-05-20T08:57:08.000Z</time>
      </trkpt>
      <trkpt lat="47.28541" lon="-2.50167">
        <ele>-5.4000000953674</ele>
        <time>2021-05-20T08:57:09.000Z</time>
      </trkpt>
      <trkpt lat="47.28539" lon="-2.50167">
        <ele>-5.8000001907349</ele>
        <time>2021-05-20T08:57:10.000Z</time>
      </trkpt>
      <trkpt lat="47.28536" lon="-2.50168">
        <ele>-5.8000001907349</ele>
        <time>2021-05-20T08:57:12.000Z</time>
      </trkpt>
      <trkpt lat="47.28524" lon="-2.50171">
        <ele>-5.8000001907349</ele>
        <time>2021-05-20T08:57:17.000Z</time>
      </trkpt>
      <trkpt lat="47.28521" lon="-2.50171">
        <ele>-5.8000001907349</ele>
        <time>2021-05-20T08:57:19.000Z</time>
      </trkpt>
      <trkpt lat="47.28517" lon="-2.50167">
        <ele>-5.8000001907349</ele>
        <time>2021-05-20T08:57:21.000Z</time>
      </trkpt>
      <trkpt lat="47.28511" lon="-2.50162">
        <ele>-5.8000001907349</ele>
        <time>2021-05-20T08:57:25.000Z</time>
      </trkpt>
      <trkpt lat="47.28506" lon="-2.50161">
        <ele>-5.8000001907349</ele>
        <time>2021-05-20T08:57:42.000Z</time>
      </trkpt>
      <trkpt lat="47.28503" lon="-2.50164">
        <ele>-5.8000001907349</ele>
        <time>2021-05-20T08:57:44.000Z</time>
      </trkpt>
      <trkpt lat="47.285" lon="-2.50172">
        <ele>-5.8000001907349</ele>
        <time>2021-05-20T08:57:47.000Z</time>
      </trkpt>
      <trkpt lat="47.28499" lon="-2.50176">
        <ele>-5.8000001907349</ele>
        <time>2021-05-20T08:57:48.000Z</time>
      </trkpt>
      <trkpt lat="47.28499" lon="-2.50198">
        <ele>-5.8000001907349</ele>
        <time>2021-05-20T08:57:53.000Z</time>
      </trkpt>
      <trkpt lat="47.28497" lon="-2.50223">
        <ele>-5.8000001907349</ele>
        <time>2021-05-20T08:57:59.000Z</time>
      </trkpt>
      <trkpt lat="47.28489" lon="-2.50238">
        <ele>-5.8000001907349</ele>
        <time>2021-05-20T08:58:05.000Z</time>
      </trkpt>
      <trkpt lat="47.28485" lon="-2.50246">
        <ele>-5.8000001907349</ele>
        <time>2021-05-20T08:58:09.000Z</time>
      </trkpt>
      <trkpt lat="47.28484" lon="-2.5025">
        <ele>-5.8000001907349</ele>
        <time>2021-05-20T08:58:10.000Z</time>
      </trkpt>
      <trkpt lat="47.28488" lon="-2.50259">
        <ele>-5.8000001907349</ele>
        <time>2021-05-20T08:58:13.000Z</time>
      </trkpt>
      <trkpt lat="47.28493" lon="-2.50269">
        <ele>-5.8000001907349</ele>
        <time>2021-05-20T08:58:17.000Z</time>
      </trkpt>
      <trkpt lat="47.28496" lon="-2.50272">
        <ele>-5.8000001907349</ele>
        <time>2021-05-20T08:58:18.000Z</time>
      </trkpt>
      <trkpt lat="47.28514" lon="-2.5028">
        <ele>-5.8000001907349</ele>
        <time>2021-05-20T08:58:23.000Z</time>
      </trkpt>
      <trkpt lat="47.28528" lon="-2.50286">
        <ele>-5.8000001907349</ele>
        <time>2021-05-20T08:58:26.000Z</time>
      </trkpt>
      <trkpt lat="47.28536" lon="-2.50294">
        <ele>-5.8000001907349</ele>
        <time>2021-05-20T08:58:28.000Z</time>
      </trkpt>
      <trkpt lat="47.28566" lon="-2.50318">
        <ele>-5.8000001907349</ele>
        <time>2021-05-20T08:58:35.000Z</time>
      </trkpt>
      <trkpt lat="47.28592" lon="-2.50326">
        <ele>-5.8000001907349</ele>
        <time>2021-05-20T08:58:40.000Z</time>
      </trkpt>
      <trkpt lat="47.28598" lon="-2.50326">
        <ele>-5.8000001907349</ele>
        <time>2021-05-20T08:58:41.000Z</time>
      </trkpt>
      <trkpt lat="47.28615" lon="-2.5033">
        <ele>-5.8000001907349</ele>
        <time>2021-05-20T08:58:44.000Z</time>
      </trkpt>
      <trkpt lat="47.28625" lon="-2.50336">
        <ele>-5.8000001907349</ele>
        <time>2021-05-20T08:58:46.000Z</time>
      </trkpt>
      <trkpt lat="47.28663" lon="-2.50366">
        <ele>-5.8000001907349</ele>
        <time>2021-05-20T08:58:53.000Z</time>
      </trkpt>
      <trkpt lat="47.28702" lon="-2.50398">
        <ele>-5.8000001907349</ele>
        <time>2021-05-20T08:59:00.000Z</time>
      </trkpt>
      <trkpt lat="47.28724" lon="-2.50419">
        <ele>-5.8000001907349</ele>
        <time>2021-05-20T08:59:04.000Z</time>
      </trkpt>
      <trkpt lat="47.28748" lon="-2.5045">
        <ele>-5.8000001907349</ele>
        <time>2021-05-20T08:59:09.000Z</time>
      </trkpt>
      <trkpt lat="47.28753" lon="-2.50456">
        <ele>-5.8000001907349</ele>
        <time>2021-05-20T08:59:10.000Z</time>
      </trkpt>
      <trkpt lat="47.28782" lon="-2.50479">
        <ele>-5.8000001907349</ele>
        <time>2021-05-20T08:59:15.000Z</time>
      </trkpt>
      <trkpt lat="47.28806" lon="-2.50495">
        <ele>-5.8000001907349</ele>
        <time>2021-05-20T08:59:19.000Z</time>
      </trkpt>
      <trkpt lat="47.28817" lon="-2.50502">
        <ele>-5.8000001907349</ele>
        <time>2021-05-20T08:59:21.000Z</time>
      </trkpt>
      <trkpt lat="47.28849" lon="-2.50526">
        <ele>-5.8000001907349</ele>
        <time>2021-05-20T08:59:26.000Z</time>
      </trkpt>
      <trkpt lat="47.28901" lon="-2.50559">
        <ele>-5.8000001907349</ele>
        <time>2021-05-20T08:59:34.000Z</time>
      </trkpt>
      <trkpt lat="47.28934" lon="-2.50582">
        <ele>-5.8000001907349</ele>
        <time>2021-05-20T08:59:39.000Z</time>
      </trkpt>
      <trkpt lat="47.28948" lon="-2.5059">
        <ele>-5.8000001907349</ele>
        <time>2021-05-20T08:59:41.000Z</time>
      </trkpt>
      <trkpt lat="47.28987" lon="-2.50617">
        <ele>-5.8000001907349</ele>
        <time>2021-05-20T08:59:47.000Z</time>
      </trkpt>
      <trkpt lat="47.29027" lon="-2.50645">
        <ele>-5.8000001907349</ele>
        <time>2021-05-20T08:59:54.000Z</time>
      </trkpt>
      <trkpt lat="47.29041" lon="-2.50656">
        <ele>-5.8000001907349</ele>
        <time>2021-05-20T08:59:57.000Z</time>
      </trkpt>
      <trkpt lat="47.29046" lon="-2.50657">
        <ele>-5.8000001907349</ele>
        <time>2021-05-20T08:59:59.000Z</time>
      </trkpt>
      <trkpt lat="47.29052" lon="-2.50638">
        <ele>-5.8000001907349</ele>
        <time>2021-05-20T09:00:02.000Z</time>
      </trkpt>
      <trkpt lat="47.29052" lon="-2.50629">
        <ele>-5.8000001907349</ele>
        <time>2021-05-20T09:00:03.000Z</time>
      </trkpt>
      <trkpt lat="47.29054" lon="-2.50621">
        <ele>-5.8000001907349</ele>
        <time>2021-05-20T09:00:04.000Z</time>
      </trkpt>
      <trkpt lat="47.2906" lon="-2.50606">
        <ele>-5.8000001907349</ele>
        <time>2021-05-20T09:00:06.000Z</time>
      </trkpt>
      <trkpt lat="47.29063" lon="-2.50598">
        <ele>-5.4000000953674</ele>
        <time>2021-05-20T09:00:07.000Z</time>
      </trkpt>
      <trkpt lat="47.29066" lon="-2.5059">
        <ele>-4.8000001907349</ele>
        <time>2021-05-20T09:00:08.000Z</time>
      </trkpt>
      <trkpt lat="47.29069" lon="-2.50582">
        <ele>-4.4000000953674</ele>
        <time>2021-05-20T09:00:09.000Z</time>
      </trkpt>
      <trkpt lat="47.29072" lon="-2.50574">
        <ele>-3.7999999523163</ele>
        <time>2021-05-20T09:00:10.000Z</time>
      </trkpt>
      <trkpt lat="47.29075" lon="-2.50566">
        <ele>-3.4000000953674</ele>
        <time>2021-05-20T09:00:11.000Z</time>
      </trkpt>
      <trkpt lat="47.29078" lon="-2.50557">
        <ele>-3.4000000953674</ele>
        <time>2021-05-20T09:00:12.000Z</time>
      </trkpt>
      <trkpt lat="47.29098" lon="-2.50502">
        <ele>-3.4000000953674</ele>
        <time>2021-05-20T09:00:18.000Z</time>
      </trkpt>
      <trkpt lat="47.2911" lon="-2.50467">
        <ele>-3.4000000953674</ele>
        <time>2021-05-20T09:00:22.000Z</time>
      </trkpt>
      <trkpt lat="47.29119" lon="-2.50454">
        <ele>-3.4000000953674</ele>
        <time>2021-05-20T09:00:24.000Z</time>
      </trkpt>
      <trkpt lat="47.29134" lon="-2.50452">
        <ele>-3.4000000953674</ele>
        <time>2021-05-20T09:00:27.000Z</time>
      </trkpt>
      <trkpt lat="47.29159" lon="-2.50467">
        <ele>-3.4000000953674</ele>
        <time>2021-05-20T09:00:31.000Z</time>
      </trkpt>
      <trkpt lat="47.29196" lon="-2.505">
        <ele>-3.4000000953674</ele>
        <time>2021-05-20T09:00:37.000Z</time>
      </trkpt>
      <trkpt lat="47.29215" lon="-2.50529">
        <ele>-3.4000000953674</ele>
        <time>2021-05-20T09:00:41.000Z</time>
      </trkpt>
      <trkpt lat="47.29217" lon="-2.50538">
        <ele>-3.4000000953674</ele>
        <time>2021-05-20T09:00:42.000Z</time>
      </trkpt>
      <trkpt lat="47.29214" lon="-2.50567">
        <ele>-3.4000000953674</ele>
        <time>2021-05-20T09:00:45.000Z</time>
      </trkpt>
      <trkpt lat="47.29207" lon="-2.5062">
        <ele>-3</ele>
        <time>2021-05-20T09:00:50.000Z</time>
      </trkpt>
      <trkpt lat="47.29206" lon="-2.5063">
        <ele>-2.2000000476837</ele>
        <time>2021-05-20T09:00:51.000Z</time>
      </trkpt>
      <trkpt lat="47.29207" lon="-2.5064">
        <ele>-1.7999999523163</ele>
        <time>2021-05-20T09:00:52.000Z</time>
      </trkpt>
      <trkpt lat="47.29208" lon="-2.50649">
        <ele>-1.3999999761581</ele>
        <time>2021-05-20T09:00:53.000Z</time>
      </trkpt>
      <trkpt lat="47.29212" lon="-2.50666">
        <ele>-1.3999999761581</ele>
        <time>2021-05-20T09:00:55.000Z</time>
      </trkpt>
      <trkpt lat="47.29213" lon="-2.50675">
        <ele>-1.7999999523163</ele>
        <time>2021-05-20T09:00:56.000Z</time>
      </trkpt>
      <trkpt lat="47.29216" lon="-2.50684">
        <ele>-2.2000000476837</ele>
        <time>2021-05-20T09:00:57.000Z</time>
      </trkpt>
      <trkpt lat="47.29218" lon="-2.50694">
        <ele>-2.5999999046326</ele>
        <time>2021-05-20T09:00:58.000Z</time>
      </trkpt>
      <trkpt lat="47.29218" lon="-2.50703">
        <ele>-3</ele>
        <time>2021-05-20T09:00:59.000Z</time>
      </trkpt>
      <trkpt lat="47.29216" lon="-2.50713">
        <ele>-3.4000000953674</ele>
        <time>2021-05-20T09:01:00.000Z</time>
      </trkpt>
      <trkpt lat="47.29211" lon="-2.50732">
        <ele>-3.4000000953674</ele>
        <time>2021-05-20T09:01:02.000Z</time>
      </trkpt>
      <trkpt lat="47.29209" lon="-2.5074">
        <ele>-3.4000000953674</ele>
        <time>2021-05-20T09:01:03.000Z</time>
      </trkpt>
      <trkpt lat="47.29202" lon="-2.50771">
        <ele>-3.4000000953674</ele>
        <time>2021-05-20T09:01:07.000Z</time>
      </trkpt>
      <trkpt lat="47.29202" lon="-2.50779">
        <ele>-3.4000000953674</ele>
        <time>2021-05-20T09:01:08.000Z</time>
      </trkpt>
      <trkpt lat="47.29208" lon="-2.508">
        <ele>-3.4000000953674</ele>
        <time>2021-05-20T09:01:11.000Z</time>
      </trkpt>
      <trkpt lat="47.29222" lon="-2.50821">
        <ele>-3.4000000953674</ele>
        <time>2021-05-20T09:01:15.000Z</time>
      </trkpt>
      <trkpt lat="47.29227" lon="-2.50826">
        <ele>-3.4000000953674</ele>
        <time>2021-05-20T09:01:16.000Z</time>
      </trkpt>
      <trkpt lat="47.29238" lon="-2.50842">
        <ele>-3.4000000953674</ele>
        <time>2021-05-20T09:01:19.000Z</time>
      </trkpt>
      <trkpt lat="47.29243" lon="-2.50855">
        <ele>-3.4000000953674</ele>
        <time>2021-05-20T09:01:21.000Z</time>
      </trkpt>
      <trkpt lat="47.29246" lon="-2.50861">
        <ele>-3.4000000953674</ele>
        <time>2021-05-20T09:01:22.000Z</time>
      </trkpt>
      <trkpt lat="47.29259" lon="-2.50872">
        <ele>-3.4000000953674</ele>
        <time>2021-05-20T09:01:25.000Z</time>
      </trkpt>
      <trkpt lat="47.29266" lon="-2.50878">
        <ele>-3.4000000953674</ele>
        <time>2021-05-20T09:01:27.000Z</time>
      </trkpt>
      <trkpt lat="47.29272" lon="-2.50886">
        <ele>-3.4000000953674</ele>
        <time>2021-05-20T09:01:30.000Z</time>
      </trkpt>
      <trkpt lat="47.29279" lon="-2.50895">
        <ele>-3.4000000953674</ele>
        <time>2021-05-20T09:01:36.000Z</time>
      </trkpt>
      <trkpt lat="47.29288" lon="-2.50901">
        <ele>-3.4000000953674</ele>
        <time>2021-05-20T09:01:41.000Z</time>
      </trkpt>
      <trkpt lat="47.29296" lon="-2.50905">
        <ele>-3.4000000953674</ele>
        <time>2021-05-20T09:01:44.000Z</time>
      </trkpt>
      <trkpt lat="47.293" lon="-2.50904">
        <ele>-3.4000000953674</ele>
        <time>2021-05-20T09:01:45.000Z</time>
      </trkpt>
      <trkpt lat="47.29321" lon="-2.5091">
        <ele>-3.4000000953674</ele>
        <time>2021-05-20T09:01:50.000Z</time>
      </trkpt>
      <trkpt lat="47.29334" lon="-2.5092">
        <ele>-3.4000000953674</ele>
        <time>2021-05-20T09:01:53.000Z</time>
      </trkpt>
      <trkpt lat="47.29347" lon="-2.50929">
        <ele>-3.4000000953674</ele>
        <time>2021-05-20T09:01:56.000Z</time>
      </trkpt>
      <trkpt lat="47.2936" lon="-2.50934">
        <ele>-3.4000000953674</ele>
        <time>2021-05-20T09:01:59.000Z</time>
      </trkpt>
      <trkpt lat="47.29366" lon="-2.50936">
        <ele>-3.4000000953674</ele>
        <time>2021-05-20T09:02:01.000Z</time>
      </trkpt>
      <trkpt lat="47.29372" lon="-2.50937">
        <ele>-3.4000000953674</ele>
        <time>2021-05-20T09:02:05.000Z</time>
      </trkpt>
      <trkpt lat="47.29381" lon="-2.50947">
        <ele>-3.4000000953674</ele>
        <time>2021-05-20T09:02:09.000Z</time>
      </trkpt>
      <trkpt lat="47.29394" lon="-2.50977">
        <ele>-3.4000000953674</ele>
        <time>2021-05-20T09:02:16.000Z</time>
      </trkpt>
      <trkpt lat="47.29394" lon="-2.50993">
        <ele>-3.4000000953674</ele>
        <time>2021-05-20T09:02:20.000Z</time>
      </trkpt>
      <trkpt lat="47.29395" lon="-2.51004">
        <ele>-3.4000000953674</ele>
        <time>2021-05-20T09:02:25.000Z</time>
      </trkpt>
      <trkpt lat="47.29398" lon="-2.51011">
        <ele>-3.4000000953674</ele>
        <time>2021-05-20T09:02:27.000Z</time>
      </trkpt>
      <trkpt lat="47.29413" lon="-2.51031">
        <ele>-3.4000000953674</ele>
        <time>2021-05-20T09:02:33.000Z</time>
      </trkpt>
      <trkpt lat="47.29429" lon="-2.51054">
        <ele>-3.4000000953674</ele>
        <time>2021-05-20T09:02:39.000Z</time>
      </trkpt>
      <trkpt lat="47.29448" lon="-2.51078">
        <ele>-3.4000000953674</ele>
        <time>2021-05-20T09:02:45.000Z</time>
      </trkpt>
      <trkpt lat="47.29468" lon="-2.51104">
        <ele>-3.4000000953674</ele>
        <time>2021-05-20T09:02:52.000Z</time>
      </trkpt>
      <trkpt lat="47.2948" lon="-2.51122">
        <ele>-3.4000000953674</ele>
        <time>2021-05-20T09:02:59.000Z</time>
      </trkpt>
      <trkpt lat="47.29494" lon="-2.5114">
        <ele>-3.4000000953674</ele>
        <time>2021-05-20T09:03:06.000Z</time>
      </trkpt>
      <trkpt lat="47.29504" lon="-2.5116">
        <ele>-3.4000000953674</ele>
        <time>2021-05-20T09:03:11.000Z</time>
      </trkpt>
      <trkpt lat="47.29509" lon="-2.51175">
        <ele>-3.4000000953674</ele>
        <time>2021-05-20T09:03:15.000Z</time>
      </trkpt>
      <trkpt lat="47.29515" lon="-2.51193">
        <ele>-3.4000000953674</ele>
        <time>2021-05-20T09:03:22.000Z</time>
      </trkpt>
      <trkpt lat="47.29521" lon="-2.51218">
        <ele>-3.4000000953674</ele>
        <time>2021-05-20T09:03:28.000Z</time>
      </trkpt>
      <trkpt lat="47.29529" lon="-2.51242">
        <ele>-3.4000000953674</ele>
        <time>2021-05-20T09:03:34.000Z</time>
      </trkpt>
      <trkpt lat="47.29534" lon="-2.51274">
        <ele>-3.4000000953674</ele>
        <time>2021-05-20T09:03:40.000Z</time>
      </trkpt>
      <trkpt lat="47.29536" lon="-2.51281">
        <ele>-3.4000000953674</ele>
        <time>2021-05-20T09:03:41.000Z</time>
      </trkpt>
      <trkpt lat="47.29544" lon="-2.51308">
        <ele>-3.4000000953674</ele>
        <time>2021-05-20T09:03:46.000Z</time>
      </trkpt>
      <trkpt lat="47.29549" lon="-2.51317">
        <ele>-3.4000000953674</ele>
        <time>2021-05-20T09:03:50.000Z</time>
      </trkpt>
      <trkpt lat="47.29553" lon="-2.51317">
        <ele>-3.4000000953674</ele>
        <time>2021-05-20T09:03:53.000Z</time>
      </trkpt>
      <trkpt lat="47.29556" lon="-2.51316">
        <ele>-3.4000000953674</ele>
        <time>2021-05-20T09:03:55.000Z</time>
      </trkpt>
      <trkpt lat="47.29563" lon="-2.51321">
        <ele>-3.4000000953674</ele>
        <time>2021-05-20T09:03:58.000Z</time>
      </trkpt>
      <trkpt lat="47.29566" lon="-2.51326">
        <ele>-3.4000000953674</ele>
        <time>2021-05-20T09:03:59.000Z</time>
      </trkpt>
      <trkpt lat="47.29578" lon="-2.51333">
        <ele>-3.4000000953674</ele>
        <time>2021-05-20T09:04:02.000Z</time>
      </trkpt>
      <trkpt lat="47.29588" lon="-2.51337">
        <ele>-3.4000000953674</ele>
        <time>2021-05-20T09:04:04.000Z</time>
      </trkpt>
      <trkpt lat="47.29598" lon="-2.51343">
        <ele>-3.4000000953674</ele>
        <time>2021-05-20T09:04:06.000Z</time>
      </trkpt>
      <trkpt lat="47.29602" lon="-2.51347">
        <ele>-3.4000000953674</ele>
        <time>2021-05-20T09:04:07.000Z</time>
      </trkpt>
      <trkpt lat="47.29631" lon="-2.51372">
        <ele>-3.4000000953674</ele>
        <time>2021-05-20T09:04:14.000Z</time>
      </trkpt>
      <trkpt lat="47.29665" lon="-2.51398">
        <ele>-3.4000000953674</ele>
        <time>2021-05-20T09:04:21.000Z</time>
      </trkpt>
      <trkpt lat="47.29678" lon="-2.51409">
        <ele>-3.4000000953674</ele>
        <time>2021-05-20T09:04:24.000Z</time>
      </trkpt>
      <trkpt lat="47.29694" lon="-2.51422">
        <ele>-3.4000000953674</ele>
        <time>2021-05-20T09:04:27.000Z</time>
      </trkpt>
      <trkpt lat="47.29734" lon="-2.5145">
        <ele>-3.4000000953674</ele>
        <time>2021-05-20T09:04:34.000Z</time>
      </trkpt>
      <trkpt lat="47.29763" lon="-2.5147">
        <ele>-3.4000000953674</ele>
        <time>2021-05-20T09:04:39.000Z</time>
      </trkpt>
      <trkpt lat="47.29774" lon="-2.51478">
        <ele>-3.4000000953674</ele>
        <time>2021-05-20T09:04:41.000Z</time>
      </trkpt>
      <trkpt lat="47.29798" lon="-2.51487">
        <ele>-3.4000000953674</ele>
        <time>2021-05-20T09:04:45.000Z</time>
      </trkpt>
      <trkpt lat="47.29803" lon="-2.51486">
        <ele>-3.4000000953674</ele>
        <time>2021-05-20T09:04:46.000Z</time>
      </trkpt>
      <trkpt lat="47.29823" lon="-2.51483">
        <ele>-3.4000000953674</ele>
        <time>2021-05-20T09:04:50.000Z</time>
      </trkpt>
      <trkpt lat="47.29828" lon="-2.51482">
        <ele>-3.4000000953674</ele>
        <time>2021-05-20T09:04:51.000Z</time>
      </trkpt>
      <trkpt lat="47.29847" lon="-2.51473">
        <ele>-3.4000000953674</ele>
        <time>2021-05-20T09:04:55.000Z</time>
      </trkpt>
      <trkpt lat="47.29851" lon="-2.51474">
        <ele>-3.4000000953674</ele>
        <time>2021-05-20T09:04:56.000Z</time>
      </trkpt>
      <trkpt lat="47.29861" lon="-2.51488">
        <ele>-3.4000000953674</ele>
        <time>2021-05-20T09:04:59.000Z</time>
      </trkpt>
      <trkpt lat="47.29863" lon="-2.51494">
        <ele>-3.4000000953674</ele>
        <time>2021-05-20T09:05:00.000Z</time>
      </trkpt>
      <trkpt lat="47.29876" lon="-2.51534">
        <ele>-3.4000000953674</ele>
        <time>2021-05-20T09:05:06.000Z</time>
      </trkpt>
      <trkpt lat="47.29879" lon="-2.51541">
        <ele>-3.4000000953674</ele>
        <time>2021-05-20T09:05:07.000Z</time>
      </trkpt>
      <trkpt lat="47.29886" lon="-2.51569">
        <ele>-3.4000000953674</ele>
        <time>2021-05-20T09:05:11.000Z</time>
      </trkpt>
      <trkpt lat="47.29887" lon="-2.51576">
        <ele>-3.4000000953674</ele>
        <time>2021-05-20T09:05:12.000Z</time>
      </trkpt>
      <trkpt lat="47.29895" lon="-2.51606">
        <ele>-3.4000000953674</ele>
        <time>2021-05-20T09:05:17.000Z</time>
      </trkpt>
      <trkpt lat="47.299" lon="-2.51634">
        <ele>-3.4000000953674</ele>
        <time>2021-05-20T09:05:23.000Z</time>
      </trkpt>
      <trkpt lat="47.29901" lon="-2.51637">
        <ele>-3.4000000953674</ele>
        <time>2021-05-20T09:05:26.000Z</time>
      </trkpt>
      <trkpt lat="47.29903" lon="-2.51644">
        <ele>-3.4000000953674</ele>
        <time>2021-05-20T09:05:38.000Z</time>
      </trkpt>
      <trkpt lat="47.29901" lon="-2.51643">
        <ele>-3.4000000953674</ele>
        <time>2021-05-20T09:05:40.000Z</time>
      </trkpt>
      <trkpt lat="47.29902" lon="-2.51634">
        <ele>-1.2000000476837</ele>
        <time>2021-05-20T09:22:00.000Z</time>
      </trkpt>
      <trkpt lat="47.29899" lon="-2.51621">
        <ele>-1.2000000476837</ele>
        <time>2021-05-20T09:22:07.000Z</time>
      </trkpt>
      <trkpt lat="47.29893" lon="-2.51603">
        <ele>-1.2000000476837</ele>
        <time>2021-05-20T09:22:15.000Z</time>
      </trkpt>
      <trkpt lat="47.29889" lon="-2.5159">
        <ele>-1.2000000476837</ele>
        <time>2021-05-20T09:22:21.000Z</time>
      </trkpt>
      <trkpt lat="47.29888" lon="-2.51586">
        <ele>-0.80000001192093</ele>
        <time>2021-05-20T09:22:22.000Z</time>
      </trkpt>
      <trkpt lat="47.29887" lon="-2.51582">
        <ele>-0.40000000596046</ele>
        <time>2021-05-20T09:22:23.000Z</time>
      </trkpt>
      <trkpt lat="47.29886" lon="-2.51577">
        <ele>4.3</ele>
        <time>2021-05-20T09:22:24.000Z</time>
      </trkpt>
      <trkpt lat="47.29884" lon="-2.51572">
        <ele>0.40000000596046</ele>
        <time>2021-05-20T09:22:25.000Z</time>
      </trkpt>
      <trkpt lat="47.29883" lon="-2.51567">
        <ele>0.80000001192093</ele>
        <time>2021-05-20T09:22:26.000Z</time>
      </trkpt>
      <trkpt lat="47.29881" lon="-2.51563">
        <ele>0.80000001192093</ele>
        <time>2021-05-20T09:22:27.000Z</time>
      </trkpt>
      <trkpt lat="47.29873" lon="-2.51551">
        <ele>0.80000001192093</ele>
        <time>2021-05-20T09:22:30.000Z</time>
      </trkpt>
      <trkpt lat="47.2987" lon="-2.5155">
        <ele>0.80000001192093</ele>
        <time>2021-05-20T09:22:31.000Z</time>
      </trkpt>
      <trkpt lat="47.29853" lon="-2.51554">
        <ele>0.80000001192093</ele>
        <time>2021-05-20T09:22:36.000Z</time>
      </trkpt>
      <trkpt lat="47.2984" lon="-2.51558">
        <ele>0.80000001192093</ele>
        <time>2021-05-20T09:22:41.000Z</time>
      </trkpt>
      <trkpt lat="47.29838" lon="-2.5156">
        <ele>1.2000000476837</ele>
        <time>2021-05-20T09:22:42.000Z</time>
      </trkpt>
      <trkpt lat="47.29837" lon="-2.51561">
        <ele>1.7999999523163</ele>
        <time>2021-05-20T09:22:43.000Z</time>
      </trkpt>
      <trkpt lat="47.29837" lon="-2.51563">
        <ele>2.2000000476837</ele>
        <time>2021-05-20T09:22:44.000Z</time>
      </trkpt>
      <trkpt lat="47.29837" lon="-2.51566">
        <ele>2.7999999523163</ele>
        <time>2021-05-20T09:22:45.000Z</time>
      </trkpt>
      <trkpt lat="47.29838" lon="-2.51568">
        <ele>3.2000000476837</ele>
        <time>2021-05-20T09:22:46.000Z</time>
      </trkpt>
      <trkpt lat="47.2984" lon="-2.51578">
        <ele>3.2000000476837</ele>
        <time>2021-05-20T09:22:49.000Z</time>
      </trkpt>
      <trkpt lat="47.29842" lon="-2.51586">
        <ele>3.2000000476837</ele>
        <time>2021-05-20T09:22:51.000Z</time>
      </trkpt>
      <trkpt lat="47.29849" lon="-2.51614">
        <ele>3.2000000476837</ele>
        <time>2021-05-20T09:22:58.000Z</time>
      </trkpt>
      <trkpt lat="47.29859" lon="-2.51646">
        <ele>3.2000000476837</ele>
        <time>2021-05-20T09:23:04.000Z</time>
      </trkpt>
      <trkpt lat="47.29864" lon="-2.51683">
        <ele>3.2000000476837</ele>
        <time>2021-05-20T09:23:11.000Z</time>
      </trkpt>
      <trkpt lat="47.29861" lon="-2.5169">
        <ele>3.2000000476837</ele>
        <time>2021-05-20T09:23:13.000Z</time>
      </trkpt>
      <trkpt lat="47.29858" lon="-2.51693">
        <ele>3.2000000476837</ele>
        <time>2021-05-20T09:23:14.000Z</time>
      </trkpt>
      <trkpt lat="47.29837" lon="-2.51699">
        <ele>3.2000000476837</ele>
        <time>2021-05-20T09:23:20.000Z</time>
      </trkpt>
      <trkpt lat="47.29834" lon="-2.51696">
        <ele>3.2000000476837</ele>
        <time>2021-05-20T09:23:21.000Z</time>
      </trkpt>
      <trkpt lat="47.29828" lon="-2.51688">
        <ele>3.2000000476837</ele>
        <time>2021-05-20T09:23:23.000Z</time>
      </trkpt>
      <trkpt lat="47.29824" lon="-2.51676">
        <ele>3.2000000476837</ele>
        <time>2021-05-20T09:23:25.000Z</time>
      </trkpt>
      <trkpt lat="47.2982" lon="-2.51663">
        <ele>3.2000000476837</ele>
        <time>2021-05-20T09:23:27.000Z</time>
      </trkpt>
      <trkpt lat="47.29815" lon="-2.5165">
        <ele>3.2000000476837</ele>
        <time>2021-05-20T09:23:29.000Z</time>
      </trkpt>
      <trkpt lat="47.29806" lon="-2.51632">
        <ele>3.2000000476837</ele>
        <time>2021-05-20T09:23:32.000Z</time>
      </trkpt>
      <trkpt lat="47.29787" lon="-2.51598">
        <ele>3.2000000476837</ele>
        <time>2021-05-20T09:23:38.000Z</time>
      </trkpt>
      <trkpt lat="47.29767" lon="-2.51567">
        <ele>3.2000000476837</ele>
        <time>2021-05-20T09:23:44.000Z</time>
      </trkpt>
      <trkpt lat="47.29764" lon="-2.51562">
        <ele>3.2000000476837</ele>
        <time>2021-05-20T09:23:45.000Z</time>
      </trkpt>
      <trkpt lat="47.29747" lon="-2.51545">
        <ele>2.7999999523163</ele>
        <time>2021-05-20T09:23:49.000Z</time>
      </trkpt>
      <trkpt lat="47.29743" lon="-2.51541">
        <ele>2.4000000953674</ele>
        <time>2021-05-20T09:23:50.000Z</time>
      </trkpt>
      <trkpt lat="47.29739" lon="-2.51537">
        <ele>2</ele>
        <time>2021-05-20T09:23:51.000Z</time>
      </trkpt>
      <trkpt lat="47.29734" lon="-2.51533">
        <ele>1.6000000238419</ele>
        <time>2021-05-20T09:23:52.000Z</time>
      </trkpt>
      <trkpt lat="47.2973" lon="-2.51529">
        <ele>1.2000000476837</ele>
        <time>2021-05-20T09:23:53.000Z</time>
      </trkpt>
      <trkpt lat="47.29721" lon="-2.51522">
        <ele>1.2000000476837</ele>
        <time>2021-05-20T09:23:55.000Z</time>
      </trkpt>
      <trkpt lat="47.29695" lon="-2.51501">
        <ele>1.2000000476837</ele>
        <time>2021-05-20T09:24:01.000Z</time>
      </trkpt>
      <trkpt lat="47.29666" lon="-2.51483">
        <ele>1.2000000476837</ele>
        <time>2021-05-20T09:24:07.000Z</time>
      </trkpt>
      <trkpt lat="47.29633" lon="-2.51457">
        <ele>1.2000000476837</ele>
        <time>2021-05-20T09:24:14.000Z</time>
      </trkpt>
      <trkpt lat="47.29613" lon="-2.51443">
        <ele>1.2000000476837</ele>
        <time>2021-05-20T09:24:18.000Z</time>
      </trkpt>
      <trkpt lat="47.29587" lon="-2.51422">
        <ele>1.2000000476837</ele>
        <time>2021-05-20T09:24:24.000Z</time>
      </trkpt>
      <trkpt lat="47.29584" lon="-2.5142">
        <ele>1.2000000476837</ele>
        <time>2021-05-20T09:24:25.000Z</time>
      </trkpt>
      <trkpt lat="47.29563" lon="-2.51394">
        <ele>1.2000000476837</ele>
        <time>2021-05-20T09:24:32.000Z</time>
      </trkpt>
      <trkpt lat="47.29544" lon="-2.51368">
        <ele>1.2000000476837</ele>
        <time>2021-05-20T09:24:38.000Z</time>
      </trkpt>
      <trkpt lat="47.29541" lon="-2.51365">
        <ele>1.2000000476837</ele>
        <time>2021-05-20T09:24:39.000Z</time>
      </trkpt>
      <trkpt lat="47.29533" lon="-2.51366">
        <ele>1.2000000476837</ele>
        <time>2021-05-20T09:24:42.000Z</time>
      </trkpt>
      <trkpt lat="47.29523" lon="-2.51378">
        <ele>1.2000000476837</ele>
        <time>2021-05-20T09:24:46.000Z</time>
      </trkpt>
      <trkpt lat="47.29522" lon="-2.51382">
        <ele>1.2000000476837</ele>
        <time>2021-05-20T09:24:47.000Z</time>
      </trkpt>
      <trkpt lat="47.29504" lon="-2.51395">
        <ele>1.2000000476837</ele>
        <time>2021-05-20T09:24:53.000Z</time>
      </trkpt>
      <trkpt lat="47.29487" lon="-2.51396">
        <ele>1.2000000476837</ele>
        <time>2021-05-20T09:24:58.000Z</time>
      </trkpt>
      <trkpt lat="47.29477" lon="-2.51383">
        <ele>1.2000000476837</ele>
        <time>2021-05-20T09:25:02.000Z</time>
      </trkpt>
      <trkpt lat="47.29471" lon="-2.5136">
        <ele>1.2000000476837</ele>
        <time>2021-05-20T09:25:07.000Z</time>
      </trkpt>
      <trkpt lat="47.29464" lon="-2.51329">
        <ele>1.2000000476837</ele>
        <time>2021-05-20T09:25:14.000Z</time>
      </trkpt>
      <trkpt lat="47.29453" lon="-2.51296">
        <ele>1.2000000476837</ele>
        <time>2021-05-20T09:25:21.000Z</time>
      </trkpt>
      <trkpt lat="47.29451" lon="-2.5129">
        <ele>1.2000000476837</ele>
        <time>2021-05-20T09:25:22.000Z</time>
      </trkpt>
      <trkpt lat="47.29441" lon="-2.51268">
        <ele>1.2000000476837</ele>
        <time>2021-05-20T09:25:26.000Z</time>
      </trkpt>
      <trkpt lat="47.29429" lon="-2.51246">
        <ele>1.2000000476837</ele>
        <time>2021-05-20T09:25:31.000Z</time>
      </trkpt>
      <trkpt lat="47.29419" lon="-2.51229">
        <ele>1.2000000476837</ele>
        <time>2021-05-20T09:25:35.000Z</time>
      </trkpt>
      <trkpt lat="47.29417" lon="-2.51223">
        <ele>1.2000000476837</ele>
        <time>2021-05-20T09:25:36.000Z</time>
      </trkpt>
      <trkpt lat="47.29403" lon="-2.5119">
        <ele>1.2000000476837</ele>
        <time>2021-05-20T09:25:42.000Z</time>
      </trkpt>
      <trkpt lat="47.29395" lon="-2.5115">
        <ele>1.2000000476837</ele>
        <time>2021-05-20T09:25:49.000Z</time>
      </trkpt>
      <trkpt lat="47.29389" lon="-2.51122">
        <ele>1.2000000476837</ele>
        <time>2021-05-20T09:25:55.000Z</time>
      </trkpt>
      <trkpt lat="47.29386" lon="-2.51105">
        <ele>1.2000000476837</ele>
        <time>2021-05-20T09:26:00.000Z</time>
      </trkpt>
      <trkpt lat="47.29385" lon="-2.51095">
        <ele>1.2000000476837</ele>
        <time>2021-05-20T09:26:07.000Z</time>
      </trkpt>
      <trkpt lat="47.29379" lon="-2.51082">
        <ele>1.2000000476837</ele>
        <time>2021-05-20T09:26:14.000Z</time>
      </trkpt>
      <trkpt lat="47.29378" lon="-2.51079">
        <ele>1.2000000476837</ele>
        <time>2021-05-20T09:26:16.000Z</time>
      </trkpt>
      <trkpt lat="47.29374" lon="-2.51074">
        <ele>1.2000000476837</ele>
        <time>2021-05-20T09:26:19.000Z</time>
      </trkpt>
      <trkpt lat="47.29373" lon="-2.51073">
        <ele>1.2000000476837</ele>
        <time>2021-05-20T09:26:20.000Z</time>
      </trkpt>
      <trkpt lat="47.29372" lon="-2.51067">
        <ele>1.2000000476837</ele>
        <time>2021-05-20T09:26:23.000Z</time>
      </trkpt>
      <trkpt lat="47.2937" lon="-2.51061">
        <ele>1.2000000476837</ele>
        <time>2021-05-20T09:26:25.000Z</time>
      </trkpt>
      <trkpt lat="47.2936" lon="-2.51042">
        <ele>1.2000000476837</ele>
        <time>2021-05-20T09:26:30.000Z</time>
      </trkpt>
      <trkpt lat="47.29345" lon="-2.51014">
        <ele>1.2000000476837</ele>
        <time>2021-05-20T09:26:36.000Z</time>
      </trkpt>
      <trkpt lat="47.29334" lon="-2.50998">
        <ele>1.2000000476837</ele>
        <time>2021-05-20T09:26:40.000Z</time>
      </trkpt>
      <trkpt lat="47.29321" lon="-2.50975">
        <ele>1.2000000476837</ele>
        <time>2021-05-20T09:26:45.000Z</time>
      </trkpt>
      <trkpt lat="47.29302" lon="-2.50947">
        <ele>1.2000000476837</ele>
        <time>2021-05-20T09:26:52.000Z</time>
      </trkpt>
      <trkpt lat="47.29284" lon="-2.50917">
        <ele>1.2000000476837</ele>
        <time>2021-05-20T09:26:58.000Z</time>
      </trkpt>
      <trkpt lat="47.29281" lon="-2.5091">
        <ele>1.2000000476837</ele>
        <time>2021-05-20T09:26:59.000Z</time>
      </trkpt>
      <trkpt lat="47.29275" lon="-2.50895">
        <ele>1.2000000476837</ele>
        <time>2021-05-20T09:27:02.000Z</time>
      </trkpt>
      <trkpt lat="47.29274" lon="-2.50892">
        <ele>1.2000000476837</ele>
        <time>2021-05-20T09:27:03.000Z</time>
      </trkpt>
      <trkpt lat="47.29261" lon="-2.50877">
        <ele>1.2000000476837</ele>
        <time>2021-05-20T09:27:08.000Z</time>
      </trkpt>
      <trkpt lat="47.29242" lon="-2.50865">
        <ele>1.2000000476837</ele>
        <time>2021-05-20T09:27:12.000Z</time>
      </trkpt>
      <trkpt lat="47.29237" lon="-2.50863">
        <ele>2</ele>
        <time>2021-05-20T09:27:13.000Z</time>
      </trkpt>
      <trkpt lat="47.29233" lon="-2.50861">
        <ele>2.5999999046326</ele>
        <time>2021-05-20T09:27:14.000Z</time>
      </trkpt>
      <trkpt lat="47.29228" lon="-2.5086">
        <ele>3</ele>
        <time>2021-05-20T09:27:15.000Z</time>
      </trkpt>
      <trkpt lat="47.29223" lon="-2.50859">
        <ele>3.4000000953674</ele>
        <time>2021-05-20T09:27:16.000Z</time>
      </trkpt>
      <trkpt lat="47.29212" lon="-2.50859">
        <ele>3.4000000953674</ele>
        <time>2021-05-20T09:27:18.000Z</time>
      </trkpt>
      <trkpt lat="47.29195" lon="-2.50863">
        <ele>3.4000000953674</ele>
        <time>2021-05-20T09:27:21.000Z</time>
      </trkpt>
      <trkpt lat="47.29178" lon="-2.50869">
        <ele>3.4000000953674</ele>
        <time>2021-05-20T09:27:24.000Z</time>
      </trkpt>
      <trkpt lat="47.29163" lon="-2.5087">
        <ele>3.4000000953674</ele>
        <time>2021-05-20T09:27:27.000Z</time>
      </trkpt>
      <trkpt lat="47.29153" lon="-2.50865">
        <ele>3.4000000953674</ele>
        <time>2021-05-20T09:27:29.000Z</time>
      </trkpt>
      <trkpt lat="47.29132" lon="-2.50852">
        <ele>3.4000000953674</ele>
        <time>2021-05-20T09:27:33.000Z</time>
      </trkpt>
      <trkpt lat="47.29116" lon="-2.50842">
        <ele>3.4000000953674</ele>
        <time>2021-05-20T09:27:36.000Z</time>
      </trkpt>
      <trkpt lat="47.29094" lon="-2.50831">
        <ele>3.4000000953674</ele>
        <time>2021-05-20T09:27:40.000Z</time>
      </trkpt>
      <trkpt lat="47.29072" lon="-2.50818">
        <ele>3.4000000953674</ele>
        <time>2021-05-20T09:27:44.000Z</time>
      </trkpt>
      <trkpt lat="47.29039" lon="-2.50798">
        <ele>3.4000000953674</ele>
        <time>2021-05-20T09:27:50.000Z</time>
      </trkpt>
      <trkpt lat="47.29025" lon="-2.50789">
        <ele>3.4000000953674</ele>
        <time>2021-05-20T09:27:53.000Z</time>
      </trkpt>
      <trkpt lat="47.2901" lon="-2.50778">
        <ele>3.4000000953674</ele>
        <time>2021-05-20T09:27:56.000Z</time>
      </trkpt>
      <trkpt lat="47.28968" lon="-2.50757">
        <ele>3.4000000953674</ele>
        <time>2021-05-20T09:28:04.000Z</time>
      </trkpt>
      <trkpt lat="47.28954" lon="-2.5075">
        <ele>3.4000000953674</ele>
        <time>2021-05-20T09:28:07.000Z</time>
      </trkpt>
      <trkpt lat="47.28944" lon="-2.50743">
        <ele>3.4000000953674</ele>
        <time>2021-05-20T09:28:09.000Z</time>
      </trkpt>
      <trkpt lat="47.28939" lon="-2.5074">
        <ele>3</ele>
        <time>2021-05-20T09:28:10.000Z</time>
      </trkpt>
      <trkpt lat="47.28933" lon="-2.50736">
        <ele>2.5999999046326</ele>
        <time>2021-05-20T09:28:11.000Z</time>
      </trkpt>
      <trkpt lat="47.28928" lon="-2.50731">
        <ele>2.2000000476837</ele>
        <time>2021-05-20T09:28:12.000Z</time>
      </trkpt>
      <trkpt lat="47.28923" lon="-2.50726">
        <ele>1.7999999523163</ele>
        <time>2021-05-20T09:28:13.000Z</time>
      </trkpt>
      <trkpt lat="47.28919" lon="-2.50722">
        <ele>1.3999999761581</ele>
        <time>2021-05-20T09:28:14.000Z</time>
      </trkpt>
      <trkpt lat="47.28911" lon="-2.50712">
        <ele>1.7999999523163</ele>
        <time>2021-05-20T09:28:16.000Z</time>
      </trkpt>
      <trkpt lat="47.28907" lon="-2.50706">
        <ele>2.2000000476837</ele>
        <time>2021-05-20T09:28:17.000Z</time>
      </trkpt>
      <trkpt lat="47.28903" lon="-2.507">
        <ele>2.5999999046326</ele>
        <time>2021-05-20T09:28:18.000Z</time>
      </trkpt>
      <trkpt lat="47.28899" lon="-2.50694">
        <ele>3</ele>
        <time>2021-05-20T09:28:19.000Z</time>
      </trkpt>
      <trkpt lat="47.28895" lon="-2.50689">
        <ele>3.4000000953674</ele>
        <time>2021-05-20T09:28:20.000Z</time>
      </trkpt>
      <trkpt lat="47.28872" lon="-2.50651">
        <ele>3.4000000953674</ele>
        <time>2021-05-20T09:28:27.000Z</time>
      </trkpt>
      <trkpt lat="47.28869" lon="-2.50646">
        <ele>3.4000000953674</ele>
        <time>2021-05-20T09:28:28.000Z</time>
      </trkpt>
      <trkpt lat="47.28852" lon="-2.50632">
        <ele>3.4000000953674</ele>
        <time>2021-05-20T09:28:32.000Z</time>
      </trkpt>
      <trkpt lat="47.28842" lon="-2.50627">
        <ele>3.4000000953674</ele>
        <time>2021-05-20T09:28:34.000Z</time>
      </trkpt>
      <trkpt lat="47.28817" lon="-2.50614">
        <ele>3.4000000953674</ele>
        <time>2021-05-20T09:28:39.000Z</time>
      </trkpt>
      <trkpt lat="47.2878" lon="-2.50597">
        <ele>3.4000000953674</ele>
        <time>2021-05-20T09:28:46.000Z</time>
      </trkpt>
      <trkpt lat="47.28745" lon="-2.50581">
        <ele>3.4000000953674</ele>
        <time>2021-05-20T09:28:53.000Z</time>
      </trkpt>
      <trkpt lat="47.28736" lon="-2.50575">
        <ele>3.4000000953674</ele>
        <time>2021-05-20T09:28:55.000Z</time>
      </trkpt>
      <trkpt lat="47.28721" lon="-2.50566">
        <ele>3.4000000953674</ele>
        <time>2021-05-20T09:28:58.000Z</time>
      </trkpt>
      <trkpt lat="47.28681" lon="-2.50537">
        <ele>3.4000000953674</ele>
        <time>2021-05-20T09:29:06.000Z</time>
      </trkpt>
      <trkpt lat="47.28635" lon="-2.50503">
        <ele>3.4000000953674</ele>
        <time>2021-05-20T09:29:15.000Z</time>
      </trkpt>
      <trkpt lat="47.28604" lon="-2.50483">
        <ele>3.4000000953674</ele>
        <time>2021-05-20T09:29:21.000Z</time>
      </trkpt>
      <trkpt lat="47.28568" lon="-2.50459">
        <ele>3.4000000953674</ele>
        <time>2021-05-20T09:29:28.000Z</time>
      </trkpt>
      <trkpt lat="47.28528" lon="-2.50433">
        <ele>3.4000000953674</ele>
        <time>2021-05-20T09:29:36.000Z</time>
      </trkpt>
      <trkpt lat="47.28508" lon="-2.50423">
        <ele>3.4000000953674</ele>
        <time>2021-05-20T09:29:40.000Z</time>
      </trkpt>
      <trkpt lat="47.28499" lon="-2.50417">
        <ele>3.7999999523163</ele>
        <time>2021-05-20T09:29:42.000Z</time>
      </trkpt>
      <trkpt lat="47.28495" lon="-2.50414">
        <ele>4.1999998092651</ele>
        <time>2021-05-20T09:29:43.000Z</time>
      </trkpt>
      <trkpt lat="47.2849" lon="-2.50411">
        <ele>4.5999999046326</ele>
        <time>2021-05-20T09:29:44.000Z</time>
      </trkpt>
      <trkpt lat="47.28486" lon="-2.50409">
        <ele>5.1999998092651</ele>
        <time>2021-05-20T09:29:45.000Z</time>
      </trkpt>
      <trkpt lat="47.28481" lon="-2.50406">
        <ele>5.5999999046326</ele>
        <time>2021-05-20T09:29:46.000Z</time>
      </trkpt>
      <trkpt lat="47.28475" lon="-2.50403">
        <ele>5.5999999046326</ele>
        <time>2021-05-20T09:29:47.000Z</time>
      </trkpt>
      <trkpt lat="47.28429" lon="-2.50375">
        <ele>5.5999999046326</ele>
        <time>2021-05-20T09:29:56.000Z</time>
      </trkpt>
      <trkpt lat="47.28419" lon="-2.50369">
        <ele>5</ele>
        <time>2021-05-20T09:29:58.000Z</time>
      </trkpt>
      <trkpt lat="47.28414" lon="-2.50366">
        <ele>4.5999999046326</ele>
        <time>2021-05-20T09:29:59.000Z</time>
      </trkpt>
      <trkpt lat="47.2841" lon="-2.50364">
        <ele>4.1999998092651</ele>
        <time>2021-05-20T09:30:00.000Z</time>
      </trkpt>
      <trkpt lat="47.28405" lon="-2.50361">
        <ele>3.7999999523163</ele>
        <time>2021-05-20T09:30:01.000Z</time>
      </trkpt>
      <trkpt lat="47.284" lon="-2.50358">
        <ele>3.2000000476837</ele>
        <time>2021-05-20T09:30:02.000Z</time>
      </trkpt>
      <trkpt lat="47.28386" lon="-2.50349">
        <ele>3.2000000476837</ele>
        <time>2021-05-20T09:30:05.000Z</time>
      </trkpt>
      <trkpt lat="47.28351" lon="-2.50325">
        <ele>3.2000000476837</ele>
        <time>2021-05-20T09:30:12.000Z</time>
      </trkpt>
      <trkpt lat="47.28337" lon="-2.50316">
        <ele>3.2000000476837</ele>
        <time>2021-05-20T09:30:15.000Z</time>
      </trkpt>
      <trkpt lat="47.2833" lon="-2.5031">
        <ele>3.2000000476837</ele>
        <time>2021-05-20T09:30:17.000Z</time>
      </trkpt>
      <trkpt lat="47.28322" lon="-2.50306">
        <ele>3.2000000476837</ele>
        <time>2021-05-20T09:30:21.000Z</time>
      </trkpt>
      <trkpt lat="47.28315" lon="-2.50313">
        <ele>3.2000000476837</ele>
        <time>2021-05-20T09:30:26.000Z</time>
      </trkpt>
      <trkpt lat="47.28302" lon="-2.50328">
        <ele>3.2000000476837</ele>
        <time>2021-05-20T09:30:31.000Z</time>
      </trkpt>
      <trkpt lat="47.28291" lon="-2.50319">
        <ele>3.2000000476837</ele>
        <time>2021-05-20T09:30:34.000Z</time>
      </trkpt>
      <trkpt lat="47.28287" lon="-2.50314">
        <ele>3.2000000476837</ele>
        <time>2021-05-20T09:30:35.000Z</time>
      </trkpt>
      <trkpt lat="47.28283" lon="-2.50312">
        <ele>3.2000000476837</ele>
        <time>2021-05-20T09:30:36.000Z</time>
      </trkpt>
      <trkpt lat="47.28276" lon="-2.50308">
        <ele>3.2000000476837</ele>
        <time>2021-05-20T09:30:38.000Z</time>
      </trkpt>
      <trkpt lat="47.2827" lon="-2.50295">
        <ele>3.2000000476837</ele>
        <time>2021-05-20T09:30:42.000Z</time>
      </trkpt>
      <trkpt lat="47.28269" lon="-2.50293">
        <ele>3.2000000476837</ele>
        <time>2021-05-20T09:30:45.000Z</time>
      </trkpt>
      <trkpt lat="47.28266" lon="-2.50288">
        <ele>3.2000000476837</ele>
        <time>2021-05-20T09:31:09.000Z</time>
      </trkpt>
      <trkpt lat="47.28264" lon="-2.50276">
        <ele>3.2000000476837</ele>
        <time>2021-05-20T09:31:15.000Z</time>
      </trkpt>
      <trkpt lat="47.28263" lon="-2.50272">
        <ele>3.2000000476837</ele>
        <time>2021-05-20T09:31:19.000Z</time>
      </trkpt>
      <trkpt lat="47.28262" lon="-2.50272">
        <ele>3.2000000476837</ele>
        <time>2021-05-20T09:32:32.000Z</time>
      </trkpt>
      <trkpt lat="47.28256" lon="-2.50262">
        <ele>3.2000000476837</ele>
        <time>2021-05-20T09:32:36.000Z</time>
      </trkpt>
      <trkpt lat="47.28242" lon="-2.50244">
        <ele>3.2000000476837</ele>
        <time>2021-05-20T09:32:41.000Z</time>
      </trkpt>
      <trkpt lat="47.28227" lon="-2.50223">
        <ele>3.2000000476837</ele>
        <time>2021-05-20T09:32:46.000Z</time>
      </trkpt>
      <trkpt lat="47.28214" lon="-2.50187">
        <ele>3.2000000476837</ele>
        <time>2021-05-20T09:32:52.000Z</time>
      </trkpt>
      <trkpt lat="47.28208" lon="-2.5017">
        <ele>3.2000000476837</ele>
        <time>2021-05-20T09:32:55.000Z</time>
      </trkpt>
      <trkpt lat="47.28203" lon="-2.50152">
        <ele>3.2000000476837</ele>
        <time>2021-05-20T09:32:58.000Z</time>
      </trkpt>
      <trkpt lat="47.28194" lon="-2.50109">
        <ele>3.2000000476837</ele>
        <time>2021-05-20T09:33:05.000Z</time>
      </trkpt>
      <trkpt lat="47.28186" lon="-2.50072">
        <ele>3.2000000476837</ele>
        <time>2021-05-20T09:33:11.000Z</time>
      </trkpt>
      <trkpt lat="47.28183" lon="-2.5006">
        <ele>3.2000000476837</ele>
        <time>2021-05-20T09:33:13.000Z</time>
      </trkpt>
      <trkpt lat="47.28179" lon="-2.50036">
        <ele>3.2000000476837</ele>
        <time>2021-05-20T09:33:17.000Z</time>
      </trkpt>
      <trkpt lat="47.28172" lon="-2.50009">
        <ele>3.2000000476837</ele>
        <time>2021-05-20T09:33:22.000Z</time>
      </trkpt>
      <trkpt lat="47.28171" lon="-2.50002">
        <ele>3.2000000476837</ele>
        <time>2021-05-20T09:33:23.000Z</time>
      </trkpt>
      <trkpt lat="47.28164" lon="-2.49953">
        <ele>3.2000000476837</ele>
        <time>2021-05-20T09:33:31.000Z</time>
      </trkpt>
      <trkpt lat="47.28155" lon="-2.49918">
        <ele>3.2000000476837</ele>
        <time>2021-05-20T09:33:36.000Z</time>
      </trkpt>
      <trkpt lat="47.28154" lon="-2.49911">
        <ele>3.2000000476837</ele>
        <time>2021-05-20T09:33:37.000Z</time>
      </trkpt>
      <trkpt lat="47.28153" lon="-2.49898">
        <ele>3.2000000476837</ele>
        <time>2021-05-20T09:33:39.000Z</time>
      </trkpt>
      <trkpt lat="47.28151" lon="-2.49877">
        <ele>3.2000000476837</ele>
        <time>2021-05-20T09:33:42.000Z</time>
      </trkpt>
      <trkpt lat="47.28144" lon="-2.49822">
        <ele>3.2000000476837</ele>
        <time>2021-05-20T09:33:50.000Z</time>
      </trkpt>
      <trkpt lat="47.2814" lon="-2.49779">
        <ele>3.2000000476837</ele>
        <time>2021-05-20T09:33:57.000Z</time>
      </trkpt>
      <trkpt lat="47.28136" lon="-2.49742">
        <ele>3.2000000476837</ele>
        <time>2021-05-20T09:34:04.000Z</time>
      </trkpt>
      <trkpt lat="47.28132" lon="-2.49701">
        <ele>3.2000000476837</ele>
        <time>2021-05-20T09:34:11.000Z</time>
      </trkpt>
      <trkpt lat="47.2813" lon="-2.49689">
        <ele>3.5999999046326</ele>
        <time>2021-05-20T09:34:13.000Z</time>
      </trkpt>
      <trkpt lat="47.28129" lon="-2.49683">
        <ele>4.4000000953674</ele>
        <time>2021-05-20T09:34:14.000Z</time>
      </trkpt>
      <trkpt lat="47.28129" lon="-2.49677">
        <ele>4.8000001907349</ele>
        <time>2021-05-20T09:34:15.000Z</time>
      </trkpt>
      <trkpt lat="47.28128" lon="-2.49671">
        <ele>5.1999998092651</ele>
        <time>2021-05-20T09:34:16.000Z</time>
      </trkpt>
      <trkpt lat="47.28125" lon="-2.49659">
        <ele>5.1999998092651</ele>
        <time>2021-05-20T09:34:18.000Z</time>
      </trkpt>
      <trkpt lat="47.28112" lon="-2.49634">
        <ele>5.1999998092651</ele>
        <time>2021-05-20T09:34:24.000Z</time>
      </trkpt>
      <trkpt lat="47.28098" lon="-2.49615">
        <ele>5.1999998092651</ele>
        <time>2021-05-20T09:34:31.000Z</time>
      </trkpt>
      <trkpt lat="47.28088" lon="-2.49599">
        <ele>5.1999998092651</ele>
        <time>2021-05-20T09:34:37.000Z</time>
      </trkpt>
      <trkpt lat="47.28072" lon="-2.49574">
        <ele>5.1999998092651</ele>
        <time>2021-05-20T09:34:43.000Z</time>
      </trkpt>
      <trkpt lat="47.28058" lon="-2.49556">
        <ele>5.1999998092651</ele>
        <time>2021-05-20T09:34:47.000Z</time>
      </trkpt>
      <trkpt lat="47.28051" lon="-2.49547">
        <ele>5.1999998092651</ele>
        <time>2021-05-20T09:34:49.000Z</time>
      </trkpt>
      <trkpt lat="47.28029" lon="-2.49522">
        <ele>5.1999998092651</ele>
        <time>2021-05-20T09:34:56.000Z</time>
      </trkpt>
      <trkpt lat="47.28017" lon="-2.49506">
        <ele>5.1999998092651</ele>
        <time>2021-05-20T09:35:01.000Z</time>
      </trkpt>
      <trkpt lat="47.28006" lon="-2.4949">
        <ele>5.1999998092651</ele>
        <time>2021-05-20T09:35:05.000Z</time>
      </trkpt>
      <trkpt lat="47.28" lon="-2.49481">
        <ele>5.1999998092651</ele>
        <time>2021-05-20T09:35:07.000Z</time>
      </trkpt>
      <trkpt lat="47.27984" lon="-2.4946">
        <ele>5.1999998092651</ele>
        <time>2021-05-20T09:35:12.000Z</time>
      </trkpt>
      <trkpt lat="47.27962" lon="-2.49429">
        <ele>5.1999998092651</ele>
        <time>2021-05-20T09:35:19.000Z</time>
      </trkpt>
      <trkpt lat="47.27945" lon="-2.49407">
        <ele>5.8000001907349</ele>
        <time>2021-05-20T09:35:24.000Z</time>
      </trkpt>
      <trkpt lat="47.27942" lon="-2.49402">
        <ele>6.1999998092651</ele>
        <time>2021-05-20T09:35:25.000Z</time>
      </trkpt>
      <trkpt lat="47.27939" lon="-2.49397">
        <ele>6.5999999046326</ele>
        <time>2021-05-20T09:35:26.000Z</time>
      </trkpt>
      <trkpt lat="47.27936" lon="-2.49392">
        <ele>7.1999998092651</ele>
        <time>2021-05-20T09:35:27.000Z</time>
      </trkpt>
      <trkpt lat="47.27932" lon="-2.49387">
        <ele>7.5999999046326</ele>
        <time>2021-05-20T09:35:28.000Z</time>
      </trkpt>
      <trkpt lat="47.27928" lon="-2.49382">
        <ele>7.5999999046326</ele>
        <time>2021-05-20T09:35:29.000Z</time>
      </trkpt>
      <trkpt lat="47.27902" lon="-2.49347">
        <ele>7.5999999046326</ele>
        <time>2021-05-20T09:35:36.000Z</time>
      </trkpt>
      <trkpt lat="47.27884" lon="-2.49322">
        <ele>7.5999999046326</ele>
        <time>2021-05-20T09:35:41.000Z</time>
      </trkpt>
      <trkpt lat="47.27877" lon="-2.49313">
        <ele>7.5999999046326</ele>
        <time>2021-05-20T09:35:43.000Z</time>
      </trkpt>
      <trkpt lat="47.27873" lon="-2.49309">
        <ele>7.5999999046326</ele>
        <time>2021-05-20T09:35:44.000Z</time>
      </trkpt>
      <trkpt lat="47.27853" lon="-2.49289">
        <ele>7.5999999046326</ele>
        <time>2021-05-20T09:35:49.000Z</time>
      </trkpt>
      <trkpt lat="47.27826" lon="-2.49273">
        <ele>7.5999999046326</ele>
        <time>2021-05-20T09:35:55.000Z</time>
      </trkpt>
      <trkpt lat="47.27822" lon="-2.49272">
        <ele>7.5999999046326</ele>
        <time>2021-05-20T09:35:56.000Z</time>
      </trkpt>
      <trkpt lat="47.27804" lon="-2.49266">
        <ele>7.5999999046326</ele>
        <time>2021-05-20T09:36:00.000Z</time>
      </trkpt>
      <trkpt lat="47.2778" lon="-2.49263">
        <ele>7.5999999046326</ele>
        <time>2021-05-20T09:36:05.000Z</time>
      </trkpt>
      <trkpt lat="47.27775" lon="-2.49263">
        <ele>7.5999999046326</ele>
        <time>2021-05-20T09:36:06.000Z</time>
      </trkpt>
      <trkpt lat="47.27752" lon="-2.49261">
        <ele>7.5999999046326</ele>
        <time>2021-05-20T09:36:11.000Z</time>
      </trkpt>
      <trkpt lat="47.27748" lon="-2.49261">
        <ele>7.5999999046326</ele>
        <time>2021-05-20T09:36:12.000Z</time>
      </trkpt>
      <trkpt lat="47.27734" lon="-2.4926">
        <ele>7.1999998092651</ele>
        <time>2021-05-20T09:36:15.000Z</time>
      </trkpt>
      <trkpt lat="47.2773" lon="-2.49261">
        <ele>6.8000001907349</ele>
        <time>2021-05-20T09:36:16.000Z</time>
      </trkpt>
      <trkpt lat="47.27725" lon="-2.4926">
        <ele>6.4000000953674</ele>
        <time>2021-05-20T09:36:17.000Z</time>
      </trkpt>
      <trkpt lat="47.27721" lon="-2.4926">
        <ele>5.5999999046326</ele>
        <time>2021-05-20T09:36:18.000Z</time>
      </trkpt>
      <trkpt lat="47.27716" lon="-2.4926">
        <ele>5.5999999046326</ele>
        <time>2021-05-20T09:36:19.000Z</time>
      </trkpt>
      <trkpt lat="47.2768" lon="-2.49256">
        <ele>5.5999999046326</ele>
        <time>2021-05-20T09:36:27.000Z</time>
      </trkpt>
      <trkpt lat="47.27671" lon="-2.49254">
        <ele>5.5999999046326</ele>
        <time>2021-05-20T09:36:29.000Z</time>
      </trkpt>
      <trkpt lat="47.27646" lon="-2.49248">
        <ele>5.5999999046326</ele>
        <time>2021-05-20T09:36:34.000Z</time>
      </trkpt>
      <trkpt lat="47.27637" lon="-2.49243">
        <ele>5.5999999046326</ele>
        <time>2021-05-20T09:36:36.000Z</time>
      </trkpt>
      <trkpt lat="47.2763" lon="-2.4923">
        <ele>5.5999999046326</ele>
        <time>2021-05-20T09:36:38.000Z</time>
      </trkpt>
      <trkpt lat="47.27615" lon="-2.49203">
        <ele>5.5999999046326</ele>
        <time>2021-05-20T09:36:42.000Z</time>
      </trkpt>
      <trkpt lat="47.27608" lon="-2.49189">
        <ele>5.5999999046326</ele>
        <time>2021-05-20T09:36:44.000Z</time>
      </trkpt>
      <trkpt lat="47.27595" lon="-2.4916">
        <ele>5.5999999046326</ele>
        <time>2021-05-20T09:36:48.000Z</time>
      </trkpt>
      <trkpt lat="47.27593" lon="-2.49153">
        <ele>6</ele>
        <time>2021-05-20T09:36:49.000Z</time>
      </trkpt>
      <trkpt lat="47.27591" lon="-2.49147">
        <ele>6.4000000953674</ele>
        <time>2021-05-20T09:36:50.000Z</time>
      </trkpt>
      <trkpt lat="47.2759" lon="-2.4914">
        <ele>7</ele>
        <time>2021-05-20T09:36:51.000Z</time>
      </trkpt>
      <trkpt lat="47.27588" lon="-2.49133">
        <ele>7.4000000953674</ele>
        <time>2021-05-20T09:36:52.000Z</time>
      </trkpt>
      <trkpt lat="47.27588" lon="-2.49126">
        <ele>7.8000001907349</ele>
        <time>2021-05-20T09:36:53.000Z</time>
      </trkpt>
      <trkpt lat="47.27587" lon="-2.49118">
        <ele>7.8000001907349</ele>
        <time>2021-05-20T09:36:54.000Z</time>
      </trkpt>
      <trkpt lat="47.27586" lon="-2.49064">
        <ele>7.8000001907349</ele>
        <time>2021-05-20T09:37:01.000Z</time>
      </trkpt>
      <trkpt lat="47.27589" lon="-2.49005">
        <ele>7.8000001907349</ele>
        <time>2021-05-20T09:37:09.000Z</time>
      </trkpt>
      <trkpt lat="47.27592" lon="-2.48953">
        <ele>7.8000001907349</ele>
        <time>2021-05-20T09:37:16.000Z</time>
      </trkpt>
      <trkpt lat="47.27597" lon="-2.48898">
        <ele>7.8000001907349</ele>
        <time>2021-05-20T09:37:23.000Z</time>
      </trkpt>
      <trkpt lat="47.27602" lon="-2.48836">
        <ele>7.8000001907349</ele>
        <time>2021-05-20T09:37:31.000Z</time>
      </trkpt>
      <trkpt lat="47.27605" lon="-2.48782">
        <ele>7.8000001907349</ele>
        <time>2021-05-20T09:37:38.000Z</time>
      </trkpt>
      <trkpt lat="47.276" lon="-2.48727">
        <ele>7.8000001907349</ele>
        <time>2021-05-20T09:37:45.000Z</time>
      </trkpt>
      <trkpt lat="47.27594" lon="-2.4866">
        <ele>7.8000001907349</ele>
        <time>2021-05-20T09:37:54.000Z</time>
      </trkpt>
      <trkpt lat="47.27591" lon="-2.48645">
        <ele>7</ele>
        <time>2021-05-20T09:37:57.000Z</time>
      </trkpt>
      <trkpt lat="47.27589" lon="-2.48643">
        <ele>6.5999999046326</ele>
        <time>2021-05-20T09:37:58.000Z</time>
      </trkpt>
      <trkpt lat="47.27586" lon="-2.48643">
        <ele>6.1999998092651</ele>
        <time>2021-05-20T09:37:59.000Z</time>
      </trkpt>
      <trkpt lat="47.27582" lon="-2.48646">
        <ele>5.5999999046326</ele>
        <time>2021-05-20T09:38:00.000Z</time>
      </trkpt>
      <trkpt lat="47.2758" lon="-2.48651">
        <ele>5.5999999046326</ele>
        <time>2021-05-20T09:38:01.000Z</time>
      </trkpt>
      <trkpt lat="47.27567" lon="-2.4868">
        <ele>5.5999999046326</ele>
        <time>2021-05-20T09:38:06.000Z</time>
      </trkpt>
      <trkpt lat="47.2756" lon="-2.48689">
        <ele>6.1999998092651</ele>
        <time>2021-05-20T09:38:08.000Z</time>
      </trkpt>
      <trkpt lat="47.27556" lon="-2.48692">
        <ele>6.5999999046326</ele>
        <time>2021-05-20T09:38:09.000Z</time>
      </trkpt>
      <trkpt lat="47.27552" lon="-2.48694">
        <ele>7</ele>
        <time>2021-05-20T09:38:10.000Z</time>
      </trkpt>
      <trkpt lat="47.27547" lon="-2.48695">
        <ele>7.4000000953674</ele>
        <time>2021-05-20T09:38:11.000Z</time>
      </trkpt>
      <trkpt lat="47.27543" lon="-2.48695">
        <ele>8</ele>
        <time>2021-05-20T09:38:12.000Z</time>
      </trkpt>
      <trkpt lat="47.27539" lon="-2.48695">
        <ele>8</ele>
        <time>2021-05-20T09:38:13.000Z</time>
      </trkpt>
      <trkpt lat="47.27532" lon="-2.48693">
        <ele>8</ele>
        <time>2021-05-20T09:38:15.000Z</time>
      </trkpt>
      <trkpt lat="47.27521" lon="-2.4868">
        <ele>8</ele>
        <time>2021-05-20T09:38:19.000Z</time>
      </trkpt>
      <trkpt lat="47.2751" lon="-2.48673">
        <ele>7.4000000953674</ele>
        <time>2021-05-20T09:38:22.000Z</time>
      </trkpt>
      <trkpt lat="47.27507" lon="-2.4867">
        <ele>6.8000001907349</ele>
        <time>2021-05-20T09:38:23.000Z</time>
      </trkpt>
      <trkpt lat="47.27504" lon="-2.48666">
        <ele>6.4000000953674</ele>
        <time>2021-05-20T09:38:24.000Z</time>
      </trkpt>
      <trkpt lat="47.27501" lon="-2.48662">
        <ele>5.8000001907349</ele>
        <time>2021-05-20T09:38:25.000Z</time>
      </trkpt>
      <trkpt lat="47.27497" lon="-2.48659">
        <ele>5.4000000953674</ele>
        <time>2021-05-20T09:38:26.000Z</time>
      </trkpt>
      <trkpt lat="47.27493" lon="-2.48651">
        <ele>5.4000000953674</ele>
        <time>2021-05-20T09:38:28.000Z</time>
      </trkpt>
      <trkpt lat="47.27486" lon="-2.48631">
        <ele>5.4000000953674</ele>
        <time>2021-05-20T09:38:33.000Z</time>
      </trkpt>
      <trkpt lat="47.2748" lon="-2.48606">
        <ele>5.4000000953674</ele>
        <time>2021-05-20T09:38:39.000Z</time>
      </trkpt>
      <trkpt lat="47.27475" lon="-2.48576">
        <ele>5.4000000953674</ele>
        <time>2021-05-20T09:38:45.000Z</time>
      </trkpt>
      <trkpt lat="47.27471" lon="-2.48557">
        <ele>5.4000000953674</ele>
        <time>2021-05-20T09:38:50.000Z</time>
      </trkpt>
      <trkpt lat="47.27469" lon="-2.48538">
        <ele>5.4000000953674</ele>
        <time>2021-05-20T09:38:55.000Z</time>
      </trkpt>
      <trkpt lat="47.2747" lon="-2.48512">
        <ele>5.4000000953674</ele>
        <time>2021-05-20T09:39:02.000Z</time>
      </trkpt>
      <trkpt lat="47.27469" lon="-2.48494">
        <ele>5.4000000953674</ele>
        <time>2021-05-20T09:39:08.000Z</time>
      </trkpt>
      <trkpt lat="47.27468" lon="-2.48471">
        <ele>4.8000001907349</ele>
        <time>2021-05-20T09:39:13.000Z</time>
      </trkpt>
      <trkpt lat="47.27467" lon="-2.48466">
        <ele>4.4000000953674</ele>
        <time>2021-05-20T09:39:14.000Z</time>
      </trkpt>
      <trkpt lat="47.27466" lon="-2.4846">
        <ele>4</ele>
        <time>2021-05-20T09:39:15.000Z</time>
      </trkpt>
      <trkpt lat="47.27466" lon="-2.48455">
        <ele>3.5999999046326</ele>
        <time>2021-05-20T09:39:16.000Z</time>
      </trkpt>
      <trkpt lat="47.27465" lon="-2.48449">
        <ele>3</ele>
        <time>2021-05-20T09:39:17.000Z</time>
      </trkpt>
      <trkpt lat="47.27461" lon="-2.48431">
        <ele>3</ele>
        <time>2021-05-20T09:39:20.000Z</time>
      </trkpt>
      <trkpt lat="47.27446" lon="-2.48382">
        <ele>3</ele>
        <time>2021-05-20T09:39:29.000Z</time>
      </trkpt>
      <trkpt lat="47.27434" lon="-2.48338">
        <ele>3</ele>
        <time>2021-05-20T09:39:37.000Z</time>
      </trkpt>
      <trkpt lat="47.27431" lon="-2.48325">
        <ele>3</ele>
        <time>2021-05-20T09:39:39.000Z</time>
      </trkpt>
      <trkpt lat="47.27425" lon="-2.48284">
        <ele>3.5999999046326</ele>
        <time>2021-05-20T09:39:45.000Z</time>
      </trkpt>
      <trkpt lat="47.27424" lon="-2.48277">
        <ele>4</ele>
        <time>2021-05-20T09:39:46.000Z</time>
      </trkpt>
      <trkpt lat="47.27423" lon="-2.48271">
        <ele>4.4000000953674</ele>
        <time>2021-05-20T09:39:47.000Z</time>
      </trkpt>
      <trkpt lat="47.27422" lon="-2.48265">
        <ele>4.8000001907349</ele>
        <time>2021-05-20T09:39:48.000Z</time>
      </trkpt>
      <trkpt lat="47.27422" lon="-2.48259">
        <ele>5.4000000953674</ele>
        <time>2021-05-20T09:39:49.000Z</time>
      </trkpt>
      <trkpt lat="47.27419" lon="-2.48243">
        <ele>5.4000000953674</ele>
        <time>2021-05-20T09:39:52.000Z</time>
      </trkpt>
      <trkpt lat="47.27412" lon="-2.48208">
        <ele>5.4000000953674</ele>
        <time>2021-05-20T09:39:58.000Z</time>
      </trkpt>
      <trkpt lat="47.27411" lon="-2.48198">
        <ele>6.1999998092651</ele>
        <time>2021-05-20T09:40:00.000Z</time>
      </trkpt>
      <trkpt lat="47.2741" lon="-2.48193">
        <ele>6.5999999046326</ele>
        <time>2021-05-20T09:40:01.000Z</time>
      </trkpt>
      <trkpt lat="47.27409" lon="-2.48187">
        <ele>7.1999998092651</ele>
        <time>2021-05-20T09:40:02.000Z</time>
      </trkpt>
      <trkpt lat="47.27409" lon="-2.48181">
        <ele>7.5999999046326</ele>
        <time>2021-05-20T09:40:03.000Z</time>
      </trkpt>
      <trkpt lat="47.27409" lon="-2.48168">
        <ele>7.5999999046326</ele>
        <time>2021-05-20T09:40:05.000Z</time>
      </trkpt>
      <trkpt lat="47.27408" lon="-2.48156">
        <ele>7.5999999046326</ele>
        <time>2021-05-20T09:40:07.000Z</time>
      </trkpt>
      <trkpt lat="47.2741" lon="-2.48139">
        <ele>7.5999999046326</ele>
        <time>2021-05-20T09:40:10.000Z</time>
      </trkpt>
      <trkpt lat="47.27413" lon="-2.48134">
        <ele>7.5999999046326</ele>
        <time>2021-05-20T09:40:11.000Z</time>
      </trkpt>
      <trkpt lat="47.27424" lon="-2.48127">
        <ele>7.5999999046326</ele>
        <time>2021-05-20T09:40:14.000Z</time>
      </trkpt>
      <trkpt lat="47.27434" lon="-2.48128">
        <ele>7.5999999046326</ele>
        <time>2021-05-20T09:40:17.000Z</time>
      </trkpt>
      <trkpt lat="47.27441" lon="-2.48129">
        <ele>7.5999999046326</ele>
        <time>2021-05-20T09:40:19.000Z</time>
      </trkpt>
      <trkpt lat="47.27458" lon="-2.48123">
        <ele>7.5999999046326</ele>
        <time>2021-05-20T09:40:24.000Z</time>
      </trkpt>
      <trkpt lat="47.27482" lon="-2.48115">
        <ele>7.5999999046326</ele>
        <time>2021-05-20T09:40:31.000Z</time>
      </trkpt>
      <trkpt lat="47.27492" lon="-2.48111">
        <ele>7.5999999046326</ele>
        <time>2021-05-20T09:40:35.000Z</time>
      </trkpt>
      <trkpt lat="47.27493" lon="-2.48106">
        <ele>7.5999999046326</ele>
        <time>2021-05-20T09:40:36.000Z</time>
      </trkpt>
      <trkpt lat="47.2749" lon="-2.48086">
        <ele>7.5999999046326</ele>
        <time>2021-05-20T09:40:40.000Z</time>
      </trkpt>
      <trkpt lat="47.27489" lon="-2.4808">
        <ele>8</ele>
        <time>2021-05-20T09:40:41.000Z</time>
      </trkpt>
      <trkpt lat="47.27487" lon="-2.48074">
        <ele>8.3999996185303</ele>
        <time>2021-05-20T09:40:42.000Z</time>
      </trkpt>
      <trkpt lat="47.27485" lon="-2.48068">
        <ele>8.8000001907349</ele>
        <time>2021-05-20T09:40:43.000Z</time>
      </trkpt>
      <trkpt lat="47.27482" lon="-2.48062">
        <ele>9.1999998092651</ele>
        <time>2021-05-20T09:40:44.000Z</time>
      </trkpt>
      <trkpt lat="47.27479" lon="-2.48055">
        <ele>9.6000003814697</ele>
        <time>2021-05-20T09:40:45.000Z</time>
      </trkpt>
      <trkpt lat="47.2746" lon="-2.48023">
        <ele>9.1999998092651</ele>
        <time>2021-05-20T09:40:50.000Z</time>
      </trkpt>
      <trkpt lat="47.27457" lon="-2.48018">
        <ele>8.8000001907349</ele>
        <time>2021-05-20T09:40:51.000Z</time>
      </trkpt>
      <trkpt lat="47.27453" lon="-2.48012">
        <ele>8.3999996185303</ele>
        <time>2021-05-20T09:40:52.000Z</time>
      </trkpt>
      <trkpt lat="47.2745" lon="-2.48006">
        <ele>8</ele>
        <time>2021-05-20T09:40:53.000Z</time>
      </trkpt>
      <trkpt lat="47.27447" lon="-2.48">
        <ele>7.5999999046326</ele>
        <time>2021-05-20T09:40:54.000Z</time>
      </trkpt>
      <trkpt lat="47.2744" lon="-2.47987">
        <ele>7.5999999046326</ele>
        <time>2021-05-20T09:40:56.000Z</time>
      </trkpt>
      <trkpt lat="47.27422" lon="-2.47962">
        <ele>7.5999999046326</ele>
        <time>2021-05-20T09:41:00.000Z</time>
      </trkpt>
      <trkpt lat="47.27417" lon="-2.47955">
        <ele>7.5999999046326</ele>
        <time>2021-05-20T09:41:01.000Z</time>
      </trkpt>
      <trkpt lat="47.27411" lon="-2.47949">
        <ele>7.1999998092651</ele>
        <time>2021-05-20T09:41:02.000Z</time>
      </trkpt>
      <trkpt lat="47.27405" lon="-2.47943">
        <ele>6.8000001907349</ele>
        <time>2021-05-20T09:41:03.000Z</time>
      </trkpt>
      <trkpt lat="47.27399" lon="-2.47937">
        <ele>6.4000000953674</ele>
        <time>2021-05-20T09:41:04.000Z</time>
      </trkpt>
      <trkpt lat="47.27392" lon="-2.47932">
        <ele>6</ele>
        <time>2021-05-20T09:41:05.000Z</time>
      </trkpt>
      <trkpt lat="47.27386" lon="-2.47927">
        <ele>5.5999999046326</ele>
        <time>2021-05-20T09:41:06.000Z</time>
      </trkpt>
      <trkpt lat="47.27336" lon="-2.47886">
        <ele>5.5999999046326</ele>
        <time>2021-05-20T09:41:14.000Z</time>
      </trkpt>
      <trkpt lat="47.27299" lon="-2.47857">
        <ele>5.5999999046326</ele>
        <time>2021-05-20T09:41:21.000Z</time>
      </trkpt>
      <trkpt lat="47.27269" lon="-2.47827">
        <ele>5.5999999046326</ele>
        <time>2021-05-20T09:41:27.000Z</time>
      </trkpt>
      <trkpt lat="47.27234" lon="-2.47772">
        <ele>5.5999999046326</ele>
        <time>2021-05-20T09:41:35.000Z</time>
      </trkpt>
      <trkpt lat="47.27212" lon="-2.47715">
        <ele>5.5999999046326</ele>
        <time>2021-05-20T09:41:42.000Z</time>
      </trkpt>
      <trkpt lat="47.2721" lon="-2.47708">
        <ele>6</ele>
        <time>2021-05-20T09:41:43.000Z</time>
      </trkpt>
      <trkpt lat="47.27208" lon="-2.477">
        <ele>6.4000000953674</ele>
        <time>2021-05-20T09:41:44.000Z</time>
      </trkpt>
      <trkpt lat="47.27206" lon="-2.47693">
        <ele>6.8000001907349</ele>
        <time>2021-05-20T09:41:45.000Z</time>
      </trkpt>
      <trkpt lat="47.27205" lon="-2.47686">
        <ele>7.1999998092651</ele>
        <time>2021-05-20T09:41:46.000Z</time>
      </trkpt>
      <trkpt lat="47.27204" lon="-2.47678">
        <ele>7.8000001907349</ele>
        <time>2021-05-20T09:41:47.000Z</time>
      </trkpt>
      <trkpt lat="47.27203" lon="-2.47664">
        <ele>7.8000001907349</ele>
        <time>2021-05-20T09:41:49.000Z</time>
      </trkpt>
      <trkpt lat="47.27205" lon="-2.47641">
        <ele>7.8000001907349</ele>
        <time>2021-05-20T09:41:53.000Z</time>
      </trkpt>
      <trkpt lat="47.27208" lon="-2.47638">
        <ele>7.8000001907349</ele>
        <time>2021-05-20T09:41:54.000Z</time>
      </trkpt>
      <trkpt lat="47.2722" lon="-2.47632">
        <ele>7.4000000953674</ele>
        <time>2021-05-20T09:41:57.000Z</time>
      </trkpt>
      <trkpt lat="47.27224" lon="-2.47629">
        <ele>7</ele>
        <time>2021-05-20T09:41:58.000Z</time>
      </trkpt>
      <trkpt lat="47.27229" lon="-2.47625">
        <ele>6.4000000953674</ele>
        <time>2021-05-20T09:41:59.000Z</time>
      </trkpt>
      <trkpt lat="47.27234" lon="-2.47622">
        <ele>6</ele>
        <time>2021-05-20T09:42:00.000Z</time>
      </trkpt>
      <trkpt lat="47.27239" lon="-2.47619">
        <ele>5.5999999046326</ele>
        <time>2021-05-20T09:42:01.000Z</time>
      </trkpt>
      <trkpt lat="47.27253" lon="-2.4761">
        <ele>5.5999999046326</ele>
        <time>2021-05-20T09:42:04.000Z</time>
      </trkpt>
      <trkpt lat="47.27273" lon="-2.47597">
        <ele>6.1999998092651</ele>
        <time>2021-05-20T09:42:08.000Z</time>
      </trkpt>
      <trkpt lat="47.27278" lon="-2.47593">
        <ele>6.5999999046326</ele>
        <time>2021-05-20T09:42:09.000Z</time>
      </trkpt>
      <trkpt lat="47.27282" lon="-2.47591">
        <ele>7</ele>
        <time>2021-05-20T09:42:10.000Z</time>
      </trkpt>
      <trkpt lat="47.27287" lon="-2.47589">
        <ele>7.4000000953674</ele>
        <time>2021-05-20T09:42:11.000Z</time>
      </trkpt>
      <trkpt lat="47.27292" lon="-2.47587">
        <ele>8</ele>
        <time>2021-05-20T09:42:12.000Z</time>
      </trkpt>
      <trkpt lat="47.27305" lon="-2.4758">
        <ele>8</ele>
        <time>2021-05-20T09:42:15.000Z</time>
      </trkpt>
      <trkpt lat="47.27307" lon="-2.47572">
        <ele>8</ele>
        <time>2021-05-20T09:42:17.000Z</time>
      </trkpt>
      <trkpt lat="47.27302" lon="-2.47553">
        <ele>8</ele>
        <time>2021-05-20T09:42:21.000Z</time>
      </trkpt>
      <trkpt lat="47.27299" lon="-2.47547">
        <ele>8</ele>
        <time>2021-05-20T09:42:22.000Z</time>
      </trkpt>
      <trkpt lat="47.27295" lon="-2.47534">
        <ele>8</ele>
        <time>2021-05-20T09:42:24.000Z</time>
      </trkpt>
      <trkpt lat="47.27291" lon="-2.47518">
        <ele>8</ele>
        <time>2021-05-20T09:42:26.000Z</time>
      </trkpt>
      <trkpt lat="47.27276" lon="-2.47462">
        <ele>8</ele>
        <time>2021-05-20T09:42:33.000Z</time>
      </trkpt>
      <trkpt lat="47.2727" lon="-2.47426">
        <ele>8</ele>
        <time>2021-05-20T09:42:38.000Z</time>
      </trkpt>
      <trkpt lat="47.27271" lon="-2.4742">
        <ele>8</ele>
        <time>2021-05-20T09:42:39.000Z</time>
      </trkpt>
      <trkpt lat="47.27276" lon="-2.47401">
        <ele>8.3999996185303</ele>
        <time>2021-05-20T09:42:42.000Z</time>
      </trkpt>
      <trkpt lat="47.27278" lon="-2.47395">
        <ele>8.8000001907349</ele>
        <time>2021-05-20T09:42:43.000Z</time>
      </trkpt>
      <trkpt lat="47.27282" lon="-2.47389">
        <ele>9.1999998092651</ele>
        <time>2021-05-20T09:42:44.000Z</time>
      </trkpt>
      <trkpt lat="47.27286" lon="-2.47384">
        <ele>9.6000003814697</ele>
        <time>2021-05-20T09:42:45.000Z</time>
      </trkpt>
      <trkpt lat="47.27289" lon="-2.47378">
        <ele>10</ele>
        <time>2021-05-20T09:42:46.000Z</time>
      </trkpt>
      <trkpt lat="47.27291" lon="-2.4737">
        <ele>10</ele>
        <time>2021-05-20T09:42:47.000Z</time>
      </trkpt>
      <trkpt lat="47.27292" lon="-2.47362">
        <ele>10</ele>
        <time>2021-05-20T09:42:48.000Z</time>
      </trkpt>
      <trkpt lat="47.27294" lon="-2.47339">
        <ele>10</ele>
        <time>2021-05-20T09:42:51.000Z</time>
      </trkpt>
      <trkpt lat="47.27294" lon="-2.47333">
        <ele>10</ele>
        <time>2021-05-20T09:42:52.000Z</time>
      </trkpt>
      <trkpt lat="47.27296" lon="-2.47328">
        <ele>10</ele>
        <time>2021-05-20T09:42:53.000Z</time>
      </trkpt>
      <trkpt lat="47.27301" lon="-2.4732">
        <ele>10</ele>
        <time>2021-05-20T09:42:55.000Z</time>
      </trkpt>
      <trkpt lat="47.27308" lon="-2.47312">
        <ele>10</ele>
        <time>2021-05-20T09:42:57.000Z</time>
      </trkpt>
      <trkpt lat="47.2732" lon="-2.473">
        <ele>10</ele>
        <time>2021-05-20T09:43:00.000Z</time>
      </trkpt>
      <trkpt lat="47.27343" lon="-2.47294">
        <ele>10</ele>
        <time>2021-05-20T09:43:04.000Z</time>
      </trkpt>
      <trkpt lat="47.27349" lon="-2.47292">
        <ele>10</ele>
        <time>2021-05-20T09:43:05.000Z</time>
      </trkpt>
      <trkpt lat="47.27356" lon="-2.47289">
        <ele>10</ele>
        <time>2021-05-20T09:43:06.000Z</time>
      </trkpt>
      <trkpt lat="47.27367" lon="-2.4728">
        <ele>9.6000003814697</ele>
        <time>2021-05-20T09:43:08.000Z</time>
      </trkpt>
      <trkpt lat="47.27373" lon="-2.47275">
        <ele>9.1999998092651</ele>
        <time>2021-05-20T09:43:09.000Z</time>
      </trkpt>
      <trkpt lat="47.27378" lon="-2.4727">
        <ele>8.8000001907349</ele>
        <time>2021-05-20T09:43:10.000Z</time>
      </trkpt>
      <trkpt lat="47.27383" lon="-2.47266">
        <ele>8.1999998092651</ele>
        <time>2021-05-20T09:43:11.000Z</time>
      </trkpt>
      <trkpt lat="47.27389" lon="-2.47262">
        <ele>7.8000001907349</ele>
        <time>2021-05-20T09:43:12.000Z</time>
      </trkpt>
      <trkpt lat="47.27394" lon="-2.47257">
        <ele>7.4000000953674</ele>
        <time>2021-05-20T09:43:13.000Z</time>
      </trkpt>
      <trkpt lat="47.274" lon="-2.47254">
        <ele>7</ele>
        <time>2021-05-20T09:43:14.000Z</time>
      </trkpt>
      <trkpt lat="47.27406" lon="-2.4725">
        <ele>6.5999999046326</ele>
        <time>2021-05-20T09:43:15.000Z</time>
      </trkpt>
      <trkpt lat="47.27412" lon="-2.47247">
        <ele>6.1999998092651</ele>
        <time>2021-05-20T09:43:16.000Z</time>
      </trkpt>
      <trkpt lat="47.27417" lon="-2.47243">
        <ele>5.8000001907349</ele>
        <time>2021-05-20T09:43:17.000Z</time>
      </trkpt>
      <trkpt lat="47.27446" lon="-2.47226">
        <ele>5.8000001907349</ele>
        <time>2021-05-20T09:43:22.000Z</time>
      </trkpt>
      <trkpt lat="47.27458" lon="-2.47218">
        <ele>5.4000000953674</ele>
        <time>2021-05-20T09:43:24.000Z</time>
      </trkpt>
      <trkpt lat="47.27464" lon="-2.47214">
        <ele>5</ele>
        <time>2021-05-20T09:43:25.000Z</time>
      </trkpt>
      <trkpt lat="47.2747" lon="-2.47209">
        <ele>4.5999999046326</ele>
        <time>2021-05-20T09:43:26.000Z</time>
      </trkpt>
      <trkpt lat="47.27475" lon="-2.47205">
        <ele>4.1999998092651</ele>
        <time>2021-05-20T09:43:27.000Z</time>
      </trkpt>
      <trkpt lat="47.27481" lon="-2.47201">
        <ele>3.7999999523163</ele>
        <time>2021-05-20T09:43:28.000Z</time>
      </trkpt>
      <trkpt lat="47.27487" lon="-2.47198">
        <ele>3.7999999523163</ele>
        <time>2021-05-20T09:43:29.000Z</time>
      </trkpt>
      <trkpt lat="47.27493" lon="-2.47195">
        <ele>3.7999999523163</ele>
        <time>2021-05-20T09:43:30.000Z</time>
      </trkpt>
      <trkpt lat="47.27503" lon="-2.47188">
        <ele>3.7999999523163</ele>
        <time>2021-05-20T09:43:32.000Z</time>
      </trkpt>
      <trkpt lat="47.27504" lon="-2.47182">
        <ele>3.7999999523163</ele>
        <time>2021-05-20T09:43:33.000Z</time>
      </trkpt>
      <trkpt lat="47.27499" lon="-2.47162">
        <ele>3.7999999523163</ele>
        <time>2021-05-20T09:43:36.000Z</time>
      </trkpt>
      <trkpt lat="47.27496" lon="-2.47155">
        <ele>3.7999999523163</ele>
        <time>2021-05-20T09:43:37.000Z</time>
      </trkpt>
      <trkpt lat="47.27491" lon="-2.47142">
        <ele>3.7999999523163</ele>
        <time>2021-05-20T09:43:39.000Z</time>
      </trkpt>
      <trkpt lat="47.27483" lon="-2.47121">
        <ele>3.7999999523163</ele>
        <time>2021-05-20T09:43:42.000Z</time>
      </trkpt>
      <trkpt lat="47.27476" lon="-2.47095">
        <ele>3.7999999523163</ele>
        <time>2021-05-20T09:43:46.000Z</time>
      </trkpt>
      <trkpt lat="47.27477" lon="-2.47082">
        <ele>3.7999999523163</ele>
        <time>2021-05-20T09:43:48.000Z</time>
      </trkpt>
      <trkpt lat="47.27488" lon="-2.47069">
        <ele>3.7999999523163</ele>
        <time>2021-05-20T09:43:51.000Z</time>
      </trkpt>
      <trkpt lat="47.27492" lon="-2.47065">
        <ele>3.7999999523163</ele>
        <time>2021-05-20T09:43:52.000Z</time>
      </trkpt>
      <trkpt lat="47.27496" lon="-2.4706">
        <ele>3.7999999523163</ele>
        <time>2021-05-20T09:43:53.000Z</time>
      </trkpt>
      <trkpt lat="47.27511" lon="-2.47044">
        <ele>3.7999999523163</ele>
        <time>2021-05-20T09:43:57.000Z</time>
      </trkpt>
      <trkpt lat="47.27522" lon="-2.47031">
        <ele>3.7999999523163</ele>
        <time>2021-05-20T09:44:02.000Z</time>
      </trkpt>
      <trkpt lat="47.27526" lon="-2.47025">
        <ele>3.7999999523163</ele>
        <time>2021-05-20T09:44:07.000Z</time>
      </trkpt>
      <trkpt lat="47.27528" lon="-2.47021">
        <ele>3.7999999523163</ele>
        <time>2021-05-20T09:45:23.000Z</time>
      </trkpt>
      <trkpt lat="47.27534" lon="-2.47006">
        <ele>3.7999999523163</ele>
        <time>2021-05-20T09:45:28.000Z</time>
      </trkpt>
      <trkpt lat="47.27546" lon="-2.46984">
        <ele>3.7999999523163</ele>
        <time>2021-05-20T09:45:33.000Z</time>
      </trkpt>
      <trkpt lat="47.2755" lon="-2.4698">
        <ele>3.7999999523163</ele>
        <time>2021-05-20T09:45:34.000Z</time>
      </trkpt>
      <trkpt lat="47.27557" lon="-2.46977">
        <ele>3.7999999523163</ele>
        <time>2021-05-20T09:45:36.000Z</time>
      </trkpt>
      <trkpt lat="47.2757" lon="-2.46983">
        <ele>3.7999999523163</ele>
        <time>2021-05-20T09:45:39.000Z</time>
      </trkpt>
      <trkpt lat="47.27574" lon="-2.46985">
        <ele>3.7999999523163</ele>
        <time>2021-05-20T09:45:40.000Z</time>
      </trkpt>
      <trkpt lat="47.27587" lon="-2.46991">
        <ele>3.7999999523163</ele>
        <time>2021-05-20T09:45:43.000Z</time>
      </trkpt>
      <trkpt lat="47.27599" lon="-2.46992">
        <ele>3.7999999523163</ele>
        <time>2021-05-20T09:45:46.000Z</time>
      </trkpt>
      <trkpt lat="47.27619" lon="-2.4699">
        <ele>3.7999999523163</ele>
        <time>2021-05-20T09:45:51.000Z</time>
      </trkpt>
      <trkpt lat="47.27623" lon="-2.4699">
        <ele>3.7999999523163</ele>
        <time>2021-05-20T09:45:52.000Z</time>
      </trkpt>
      <trkpt lat="47.27636" lon="-2.46988">
        <ele>3.7999999523163</ele>
        <time>2021-05-20T09:45:55.000Z</time>
      </trkpt>
      <trkpt lat="47.27642" lon="-2.4699">
        <ele>3.7999999523163</ele>
        <time>2021-05-20T09:45:56.000Z</time>
      </trkpt>
      <trkpt lat="47.27653" lon="-2.46991">
        <ele>3.7999999523163</ele>
        <time>2021-05-20T09:45:58.000Z</time>
      </trkpt>
      <trkpt lat="47.27656" lon="-2.46989">
        <ele>3.2000000476837</ele>
        <time>2021-05-20T09:45:59.000Z</time>
      </trkpt>
      <trkpt lat="47.27656" lon="-2.46985">
        <ele>2.7999999523163</ele>
        <time>2021-05-20T09:46:00.000Z</time>
      </trkpt>
      <trkpt lat="47.27657" lon="-2.46979">
        <ele>2.4000000953674</ele>
        <time>2021-05-20T09:46:01.000Z</time>
      </trkpt>
      <trkpt lat="47.27658" lon="-2.46973">
        <ele>2</ele>
        <time>2021-05-20T09:46:02.000Z</time>
      </trkpt>
      <trkpt lat="47.27658" lon="-2.46966">
        <ele>1.6000000238419</ele>
        <time>2021-05-20T09:46:03.000Z</time>
      </trkpt>
      <trkpt lat="47.27661" lon="-2.46945">
        <ele>1.6000000238419</ele>
        <time>2021-05-20T09:46:06.000Z</time>
      </trkpt>
      <trkpt lat="47.27664" lon="-2.46932">
        <ele>1.6000000238419</ele>
        <time>2021-05-20T09:46:08.000Z</time>
      </trkpt>
      <trkpt lat="47.2767" lon="-2.46925">
        <ele>1.6000000238419</ele>
        <time>2021-05-20T09:46:10.000Z</time>
      </trkpt>
      <trkpt lat="47.27683" lon="-2.46928">
        <ele>1.6000000238419</ele>
        <time>2021-05-20T09:46:13.000Z</time>
      </trkpt>
      <trkpt lat="47.27698" lon="-2.46932">
        <ele>1.6000000238419</ele>
        <time>2021-05-20T09:46:16.000Z</time>
      </trkpt>
      <trkpt lat="47.27709" lon="-2.46935">
        <ele>1.6000000238419</ele>
        <time>2021-05-20T09:46:18.000Z</time>
      </trkpt>
      <trkpt lat="47.27737" lon="-2.46936">
        <ele>1.6000000238419</ele>
        <time>2021-05-20T09:46:23.000Z</time>
      </trkpt>
      <trkpt lat="47.27763" lon="-2.46936">
        <ele>1.6000000238419</ele>
        <time>2021-05-20T09:46:27.000Z</time>
      </trkpt>
      <trkpt lat="47.2777" lon="-2.46935">
        <ele>1.2000000476837</ele>
        <time>2021-05-20T09:46:29.000Z</time>
      </trkpt>
      <trkpt lat="47.27772" lon="-2.4693">
        <ele>0.80000001192093</ele>
        <time>2021-05-20T09:46:30.000Z</time>
      </trkpt>
      <trkpt lat="47.27771" lon="-2.46924">
        <ele>0.20000000298023</ele>
        <time>2021-05-20T09:46:31.000Z</time>
      </trkpt>
      <trkpt lat="47.27771" lon="-2.46918">
        <ele>-0.20000000298023</ele>
        <time>2021-05-20T09:46:32.000Z</time>
      </trkpt>
      <trkpt lat="47.27771" lon="-2.46912">
        <ele>-0.60000002384186</ele>
        <time>2021-05-20T09:46:33.000Z</time>
      </trkpt>
      <trkpt lat="47.27776" lon="-2.46889">
        <ele>-0.60000002384186</ele>
        <time>2021-05-20T09:46:37.000Z</time>
      </trkpt>
      <trkpt lat="47.27782" lon="-2.46852">
        <ele>-0.60000002384186</ele>
        <time>2021-05-20T09:46:41.000Z</time>
      </trkpt>
      <trkpt lat="47.27783" lon="-2.46842">
        <ele>-0.60000002384186</ele>
        <time>2021-05-20T09:46:42.000Z</time>
      </trkpt>
      <trkpt lat="47.27782" lon="-2.46832">
        <ele>-0.60000002384186</ele>
        <time>2021-05-20T09:46:43.000Z</time>
      </trkpt>
      <trkpt lat="47.27778" lon="-2.4681">
        <ele>-0.60000002384186</ele>
        <time>2021-05-20T09:46:46.000Z</time>
      </trkpt>
      <trkpt lat="47.27772" lon="-2.46783">
        <ele>-0.60000002384186</ele>
        <time>2021-05-20T09:46:50.000Z</time>
      </trkpt>
      <trkpt lat="47.2777" lon="-2.46775">
        <ele>-0.60000002384186</ele>
        <time>2021-05-20T09:46:51.000Z</time>
      </trkpt>
      <trkpt lat="47.27768" lon="-2.46768">
        <ele>-0.60000002384186</ele>
        <time>2021-05-20T09:46:52.000Z</time>
      </trkpt>
      <trkpt lat="47.27762" lon="-2.46744">
        <ele>-0.60000002384186</ele>
        <time>2021-05-20T09:46:55.000Z</time>
      </trkpt>
      <trkpt lat="47.27758" lon="-2.46721">
        <ele>-0.60000002384186</ele>
        <time>2021-05-20T09:46:58.000Z</time>
      </trkpt>
      <trkpt lat="47.27756" lon="-2.46705">
        <ele>-0.60000002384186</ele>
        <time>2021-05-20T09:47:00.000Z</time>
      </trkpt>
      <trkpt lat="47.27757" lon="-2.46699">
        <ele>-0.60000002384186</ele>
        <time>2021-05-20T09:47:01.000Z</time>
      </trkpt>
      <trkpt lat="47.27762" lon="-2.46677">
        <ele>-0.60000002384186</ele>
        <time>2021-05-20T09:47:04.000Z</time>
      </trkpt>
      <trkpt lat="47.27762" lon="-2.46662">
        <ele>-0.60000002384186</ele>
        <time>2021-05-20T09:47:06.000Z</time>
      </trkpt>
      <trkpt lat="47.27763" lon="-2.46654">
        <ele>-0.60000002384186</ele>
        <time>2021-05-20T09:47:07.000Z</time>
      </trkpt>
      <trkpt lat="47.27764" lon="-2.4664">
        <ele>-0.60000002384186</ele>
        <time>2021-05-20T09:47:09.000Z</time>
      </trkpt>
      <trkpt lat="47.27761" lon="-2.4662">
        <ele>-0.60000002384186</ele>
        <time>2021-05-20T09:47:12.000Z</time>
      </trkpt>
      <trkpt lat="47.27766" lon="-2.46604">
        <ele>-0.60000002384186</ele>
        <time>2021-05-20T09:47:15.000Z</time>
      </trkpt>
      <trkpt lat="47.27759" lon="-2.46583">
        <ele>-0.60000002384186</ele>
        <time>2021-05-20T09:47:19.000Z</time>
      </trkpt>
      <trkpt lat="47.27747" lon="-2.46556">
        <ele>-0.60000002384186</ele>
        <time>2021-05-20T09:47:23.000Z</time>
      </trkpt>
      <trkpt lat="47.27745" lon="-2.46548">
        <ele>-0.60000002384186</ele>
        <time>2021-05-20T09:47:24.000Z</time>
      </trkpt>
      <trkpt lat="47.27743" lon="-2.46538">
        <ele>7.8</ele>
        <time>2021-05-20T09:47:25.000Z</time>
      </trkpt>
      <trkpt lat="47.2774" lon="-2.46529">
        <ele>0.40000000596046</ele>
        <time>2021-05-20T09:47:26.000Z</time>
      </trkpt>
      <trkpt lat="47.27738" lon="-2.4652">
        <ele>0.80000001192093</ele>
        <time>2021-05-20T09:47:27.000Z</time>
      </trkpt>
      <trkpt lat="47.27735" lon="-2.4651">
        <ele>1.2000000476837</ele>
        <time>2021-05-20T09:47:28.000Z</time>
      </trkpt>
      <trkpt lat="47.27733" lon="-2.465">
        <ele>1.7999999523163</ele>
        <time>2021-05-20T09:47:29.000Z</time>
      </trkpt>
      <trkpt lat="47.27731" lon="-2.4649">
        <ele>1.7999999523163</ele>
        <time>2021-05-20T09:47:30.000Z</time>
      </trkpt>
      <trkpt lat="47.27712" lon="-2.46434">
        <ele>1.7999999523163</ele>
        <time>2021-05-20T09:47:36.000Z</time>
      </trkpt>
      <trkpt lat="47.27693" lon="-2.46392">
        <ele>1.7999999523163</ele>
        <time>2021-05-20T09:47:41.000Z</time>
      </trkpt>
      <trkpt lat="47.2768" lon="-2.46351">
        <ele>1.7999999523163</ele>
        <time>2021-05-20T09:47:46.000Z</time>
      </trkpt>
      <trkpt lat="47.27677" lon="-2.46334">
        <ele>1.7999999523163</ele>
        <time>2021-05-20T09:47:48.000Z</time>
      </trkpt>
      <trkpt lat="47.27673" lon="-2.4631">
        <ele>1.7999999523163</ele>
        <time>2021-05-20T09:47:51.000Z</time>
      </trkpt>
      <trkpt lat="47.27671" lon="-2.46303">
        <ele>1.7999999523163</ele>
        <time>2021-05-20T09:47:52.000Z</time>
      </trkpt>
      <trkpt lat="47.27662" lon="-2.46283">
        <ele>1.7999999523163</ele>
        <time>2021-05-20T09:47:55.000Z</time>
      </trkpt>
      <trkpt lat="47.27667" lon="-2.46267">
        <ele>1.7999999523163</ele>
        <time>2021-05-20T09:47:58.000Z</time>
      </trkpt>
      <trkpt lat="47.27675" lon="-2.46237">
        <ele>1.7999999523163</ele>
        <time>2021-05-20T09:48:02.000Z</time>
      </trkpt>
      <trkpt lat="47.2767" lon="-2.46211">
        <ele>1.7999999523163</ele>
        <time>2021-05-20T09:48:05.000Z</time>
      </trkpt>
      <trkpt lat="47.27669" lon="-2.46203">
        <ele>1.7999999523163</ele>
        <time>2021-05-20T09:48:06.000Z</time>
      </trkpt>
      <trkpt lat="47.27668" lon="-2.46167">
        <ele>1.7999999523163</ele>
        <time>2021-05-20T09:48:10.000Z</time>
      </trkpt>
      <trkpt lat="47.27668" lon="-2.46158">
        <ele>1.7999999523163</ele>
        <time>2021-05-20T09:48:11.000Z</time>
      </trkpt>
      <trkpt lat="47.27667" lon="-2.4614">
        <ele>1.7999999523163</ele>
        <time>2021-05-20T09:48:13.000Z</time>
      </trkpt>
      <trkpt lat="47.27662" lon="-2.46111">
        <ele>1.2000000476837</ele>
        <time>2021-05-20T09:48:16.000Z</time>
      </trkpt>
      <trkpt lat="47.27661" lon="-2.46101">
        <ele>0.80000001192093</ele>
        <time>2021-05-20T09:48:17.000Z</time>
      </trkpt>
      <trkpt lat="47.27659" lon="-2.46092">
        <ele>0.40000000596046</ele>
        <time>2021-05-20T09:48:18.000Z</time>
      </trkpt>
      <trkpt lat="47.27657" lon="-2.46081">
        <ele>-0.20000000298023</ele>
        <time>2021-05-20T09:48:19.000Z</time>
      </trkpt>
      <trkpt lat="47.27655" lon="-2.46071">
        <ele>-0.60000002384186</ele>
        <time>2021-05-20T09:48:20.000Z</time>
      </trkpt>
      <trkpt lat="47.27652" lon="-2.46051">
        <ele>-0.60000002384186</ele>
        <time>2021-05-20T09:48:22.000Z</time>
      </trkpt>
      <trkpt lat="47.2764" lon="-2.45991">
        <ele>-0.60000002384186</ele>
        <time>2021-05-20T09:48:28.000Z</time>
      </trkpt>
      <trkpt lat="47.27639" lon="-2.45981">
        <ele>-0.60000002384186</ele>
        <time>2021-05-20T09:48:29.000Z</time>
      </trkpt>
      <trkpt lat="47.27637" lon="-2.45941">
        <ele>-0.60000002384186</ele>
        <time>2021-05-20T09:48:33.000Z</time>
      </trkpt>
      <trkpt lat="47.27638" lon="-2.45932">
        <ele>-0.60000002384186</ele>
        <time>2021-05-20T09:48:34.000Z</time>
      </trkpt>
      <trkpt lat="47.2764" lon="-2.45892">
        <ele>-0.60000002384186</ele>
        <time>2021-05-20T09:48:38.000Z</time>
      </trkpt>
      <trkpt lat="47.27642" lon="-2.45834">
        <ele>-0.60000002384186</ele>
        <time>2021-05-20T09:48:44.000Z</time>
      </trkpt>
      <trkpt lat="47.27643" lon="-2.45816">
        <ele>-0.60000002384186</ele>
        <time>2021-05-20T09:48:46.000Z</time>
      </trkpt>
      <trkpt lat="47.27643" lon="-2.45779">
        <ele>-0.60000002384186</ele>
        <time>2021-05-20T09:48:50.000Z</time>
      </trkpt>
      <trkpt lat="47.2764" lon="-2.45748">
        <ele>-0.60000002384186</ele>
        <time>2021-05-20T09:48:54.000Z</time>
      </trkpt>
      <trkpt lat="47.27633" lon="-2.45713">
        <ele>-0.60000002384186</ele>
        <time>2021-05-20T09:48:59.000Z</time>
      </trkpt>
      <trkpt lat="47.27629" lon="-2.45704">
        <ele>-0.60000002384186</ele>
        <time>2021-05-20T09:49:02.000Z</time>
      </trkpt>
      <trkpt lat="47.27629" lon="-2.45704">
        <ele>-0.60000002384186</ele>
        <time>2021-05-20T09:49:04.000Z</time>
      </trkpt>
      <trkpt lat="47.27627" lon="-2.45705">
        <ele>-0.60000002384186</ele>
        <time>2021-05-20T09:49:07.000Z</time>
      </trkpt>
      <trkpt lat="47.27624" lon="-2.45706">
        <ele>-0.60000002384186</ele>
        <time>2021-05-20T09:49:08.000Z</time>
      </trkpt>
      <trkpt lat="47.27608" lon="-2.45714">
        <ele>-0.60000002384186</ele>
        <time>2021-05-20T09:49:12.000Z</time>
      </trkpt>
      <trkpt lat="47.27603" lon="-2.45716">
        <ele>9.5</ele>
        <time>2021-05-20T09:49:13.000Z</time>
      </trkpt>
      <trkpt lat="47.27597" lon="-2.45718">
        <ele>0.40000000596046</ele>
        <time>2021-05-20T09:49:14.000Z</time>
      </trkpt>
      <trkpt lat="47.27591" lon="-2.4572">
        <ele>0.80000001192093</ele>
        <time>2021-05-20T09:49:15.000Z</time>
      </trkpt>
      <trkpt lat="47.27586" lon="-2.45722">
        <ele>1.3999999761581</ele>
        <time>2021-05-20T09:49:16.000Z</time>
      </trkpt>
      <trkpt lat="47.2758" lon="-2.45723">
        <ele>1.7999999523163</ele>
        <time>2021-05-20T09:49:17.000Z</time>
      </trkpt>
      <trkpt lat="47.27547" lon="-2.45735">
        <ele>1.7999999523163</ele>
        <time>2021-05-20T09:49:22.000Z</time>
      </trkpt>
      <trkpt lat="47.27497" lon="-2.45752">
        <ele>1.7999999523163</ele>
        <time>2021-05-20T09:49:30.000Z</time>
      </trkpt>
      <trkpt lat="47.27447" lon="-2.45767">
        <ele>1.7999999523163</ele>
        <time>2021-05-20T09:49:38.000Z</time>
      </trkpt>
      <trkpt lat="47.27403" lon="-2.45773">
        <ele>1.7999999523163</ele>
        <time>2021-05-20T09:49:45.000Z</time>
      </trkpt>
      <trkpt lat="47.27386" lon="-2.45776">
        <ele>1.7999999523163</ele>
        <time>2021-05-20T09:49:48.000Z</time>
      </trkpt>
      <trkpt lat="47.27375" lon="-2.45777">
        <ele>1.3999999761581</ele>
        <time>2021-05-20T09:49:50.000Z</time>
      </trkpt>
      <trkpt lat="47.27371" lon="-2.45774">
        <ele>1</ele>
        <time>2021-05-20T09:49:51.000Z</time>
      </trkpt>
      <trkpt lat="47.27368" lon="-2.45768">
        <ele>0.60000002384186</ele>
        <time>2021-05-20T09:49:52.000Z</time>
      </trkpt>
      <trkpt lat="47.27365" lon="-2.45761">
        <ele>-0.20000000298023</ele>
        <time>2021-05-20T09:49:53.000Z</time>
      </trkpt>
      <trkpt lat="47.27363" lon="-2.45752">
        <ele>-0.20000000298023</ele>
        <time>2021-05-20T09:49:54.000Z</time>
      </trkpt>
      <trkpt lat="47.27361" lon="-2.45745">
        <ele>-0.20000000298023</ele>
        <time>2021-05-20T09:49:55.000Z</time>
      </trkpt>
      <trkpt lat="47.27343" lon="-2.45691">
        <ele>-0.20000000298023</ele>
        <time>2021-05-20T09:50:02.000Z</time>
      </trkpt>
      <trkpt lat="47.2733" lon="-2.45653">
        <ele>-0.20000000298023</ele>
        <time>2021-05-20T09:50:07.000Z</time>
      </trkpt>
      <trkpt lat="47.27327" lon="-2.45645">
        <ele>-0.20000000298023</ele>
        <time>2021-05-20T09:50:08.000Z</time>
      </trkpt>
      <trkpt lat="47.27321" lon="-2.4562">
        <ele>-0.20000000298023</ele>
        <time>2021-05-20T09:50:11.000Z</time>
      </trkpt>
      <trkpt lat="47.27326" lon="-2.45603">
        <ele>-0.20000000298023</ele>
        <time>2021-05-20T09:50:13.000Z</time>
      </trkpt>
      <trkpt lat="47.27342" lon="-2.45589">
        <ele>-0.20000000298023</ele>
        <time>2021-05-20T09:50:16.000Z</time>
      </trkpt>
      <trkpt lat="47.27348" lon="-2.45586">
        <ele>-0.20000000298023</ele>
        <time>2021-05-20T09:50:17.000Z</time>
      </trkpt>
      <trkpt lat="47.27379" lon="-2.45571">
        <ele>-0.20000000298023</ele>
        <time>2021-05-20T09:50:22.000Z</time>
      </trkpt>
      <trkpt lat="47.27425" lon="-2.45556">
        <ele>-0.20000000298023</ele>
        <time>2021-05-20T09:50:29.000Z</time>
      </trkpt>
      <trkpt lat="47.2743" lon="-2.4555">
        <ele>-0.20000000298023</ele>
        <time>2021-05-20T09:50:30.000Z</time>
      </trkpt>
      <trkpt lat="47.27438" lon="-2.45536">
        <ele>-0.20000000298023</ele>
        <time>2021-05-20T09:50:32.000Z</time>
      </trkpt>
      <trkpt lat="47.27439" lon="-2.45526">
        <ele>-0.20000000298023</ele>
        <time>2021-05-20T09:50:33.000Z</time>
      </trkpt>
      <trkpt lat="47.27441" lon="-2.45512">
        <ele>-0.20000000298023</ele>
        <time>2021-05-20T09:50:35.000Z</time>
      </trkpt>
      <trkpt lat="47.27454" lon="-2.45504">
        <ele>-0.20000000298023</ele>
        <time>2021-05-20T09:50:38.000Z</time>
      </trkpt>
      <trkpt lat="47.2746" lon="-2.455">
        <ele>-0.20000000298023</ele>
        <time>2021-05-20T09:50:39.000Z</time>
      </trkpt>
      <trkpt lat="47.27481" lon="-2.45487">
        <ele>-0.20000000298023</ele>
        <time>2021-05-20T09:50:43.000Z</time>
      </trkpt>
      <trkpt lat="47.27486" lon="-2.45482">
        <ele>-0.20000000298023</ele>
        <time>2021-05-20T09:50:44.000Z</time>
      </trkpt>
      <trkpt lat="47.27494" lon="-2.45472">
        <ele>-0.20000000298023</ele>
        <time>2021-05-20T09:50:46.000Z</time>
      </trkpt>
      <trkpt lat="47.27497" lon="-2.45465">
        <ele>-0.20000000298023</ele>
        <time>2021-05-20T09:50:47.000Z</time>
      </trkpt>
      <trkpt lat="47.27496" lon="-2.45443">
        <ele>-0.20000000298023</ele>
        <time>2021-05-20T09:50:50.000Z</time>
      </trkpt>
      <trkpt lat="47.27495" lon="-2.45434">
        <ele>-0.20000000298023</ele>
        <time>2021-05-20T09:50:51.000Z</time>
      </trkpt>
      <trkpt lat="47.27491" lon="-2.45408">
        <ele>-0.20000000298023</ele>
        <time>2021-05-20T09:50:54.000Z</time>
      </trkpt>
      <trkpt lat="47.27492" lon="-2.45402">
        <ele>-0.20000000298023</ele>
        <time>2021-05-20T09:50:55.000Z</time>
      </trkpt>
      <trkpt lat="47.27499" lon="-2.45397">
        <ele>-0.60000002384186</ele>
        <time>2021-05-20T09:50:57.000Z</time>
      </trkpt>
      <trkpt lat="47.27504" lon="-2.45396">
        <ele>-1</ele>
        <time>2021-05-20T09:50:58.000Z</time>
      </trkpt>
      <trkpt lat="47.27509" lon="-2.45396">
        <ele>-1.3999999761581</ele>
        <time>2021-05-20T09:50:59.000Z</time>
      </trkpt>
      <trkpt lat="47.27515" lon="-2.45394">
        <ele>-1.7999999523163</ele>
        <time>2021-05-20T09:51:00.000Z</time>
      </trkpt>
      <trkpt lat="47.2752" lon="-2.45392">
        <ele>-2.2000000476837</ele>
        <time>2021-05-20T09:51:01.000Z</time>
      </trkpt>
      <trkpt lat="47.27526" lon="-2.45389">
        <ele>-2.2000000476837</ele>
        <time>2021-05-20T09:51:02.000Z</time>
      </trkpt>
      <trkpt lat="47.27552" lon="-2.45377">
        <ele>-2.2000000476837</ele>
        <time>2021-05-20T09:51:06.000Z</time>
      </trkpt>
      <trkpt lat="47.27566" lon="-2.45371">
        <ele>-2.2000000476837</ele>
        <time>2021-05-20T09:51:08.000Z</time>
      </trkpt>
      <trkpt lat="47.27607" lon="-2.45361">
        <ele>-2.2000000476837</ele>
        <time>2021-05-20T09:51:14.000Z</time>
      </trkpt>
      <trkpt lat="47.27612" lon="-2.4536">
        <ele>-2.2000000476837</ele>
        <time>2021-05-20T09:51:15.000Z</time>
      </trkpt>
      <trkpt lat="47.27619" lon="-2.45353">
        <ele>-2.2000000476837</ele>
        <time>2021-05-20T09:51:17.000Z</time>
      </trkpt>
      <trkpt lat="47.27619" lon="-2.4533">
        <ele>-2.2000000476837</ele>
        <time>2021-05-20T09:51:20.000Z</time>
      </trkpt>
      <trkpt lat="47.27613" lon="-2.4527">
        <ele>-2.2000000476837</ele>
        <time>2021-05-20T09:51:26.000Z</time>
      </trkpt>
      <trkpt lat="47.27603" lon="-2.45188">
        <ele>-2.2000000476837</ele>
        <time>2021-05-20T09:51:33.000Z</time>
      </trkpt>
      <trkpt lat="47.27593" lon="-2.4512">
        <ele>-2.2000000476837</ele>
        <time>2021-05-20T09:51:39.000Z</time>
      </trkpt>
      <trkpt lat="47.27591" lon="-2.45109">
        <ele>-2.2000000476837</ele>
        <time>2021-05-20T09:51:40.000Z</time>
      </trkpt>
      <trkpt lat="47.2758" lon="-2.4508">
        <ele>-2.2000000476837</ele>
        <time>2021-05-20T09:51:43.000Z</time>
      </trkpt>
      <trkpt lat="47.2757" lon="-2.45064">
        <ele>-2.2000000476837</ele>
        <time>2021-05-20T09:51:45.000Z</time>
      </trkpt>
      <trkpt lat="47.27552" lon="-2.45027">
        <ele>-2.2000000476837</ele>
        <time>2021-05-20T09:51:49.000Z</time>
      </trkpt>
      <trkpt lat="47.27545" lon="-2.4501">
        <ele>-2.2000000476837</ele>
        <time>2021-05-20T09:51:51.000Z</time>
      </trkpt>
      <trkpt lat="47.27539" lon="-2.44992">
        <ele>-2.2000000476837</ele>
        <time>2021-05-20T09:51:53.000Z</time>
      </trkpt>
      <trkpt lat="47.27522" lon="-2.44939">
        <ele>-2.2000000476837</ele>
        <time>2021-05-20T09:51:59.000Z</time>
      </trkpt>
      <trkpt lat="47.2751" lon="-2.44886">
        <ele>-2.2000000476837</ele>
        <time>2021-05-20T09:52:05.000Z</time>
      </trkpt>
      <trkpt lat="47.27506" lon="-2.4486">
        <ele>-2.2000000476837</ele>
        <time>2021-05-20T09:52:08.000Z</time>
      </trkpt>
      <trkpt lat="47.27498" lon="-2.44851">
        <ele>-2.2000000476837</ele>
        <time>2021-05-20T09:52:10.000Z</time>
      </trkpt>
      <trkpt lat="47.27478" lon="-2.44852">
        <ele>-2.2000000476837</ele>
        <time>2021-05-20T09:52:13.000Z</time>
      </trkpt>
      <trkpt lat="47.27464" lon="-2.44853">
        <ele>-2.2000000476837</ele>
        <time>2021-05-20T09:52:15.000Z</time>
      </trkpt>
      <trkpt lat="47.27453" lon="-2.44861">
        <ele>-2.2000000476837</ele>
        <time>2021-05-20T09:52:17.000Z</time>
      </trkpt>
      <trkpt lat="47.27444" lon="-2.44875">
        <ele>-2.2000000476837</ele>
        <time>2021-05-20T09:52:19.000Z</time>
      </trkpt>
      <trkpt lat="47.27435" lon="-2.44888">
        <ele>-2.2000000476837</ele>
        <time>2021-05-20T09:52:21.000Z</time>
      </trkpt>
      <trkpt lat="47.27415" lon="-2.4491">
        <ele>-2.2000000476837</ele>
        <time>2021-05-20T09:52:25.000Z</time>
      </trkpt>
      <trkpt lat="47.27399" lon="-2.4492">
        <ele>-2.2000000476837</ele>
        <time>2021-05-20T09:52:28.000Z</time>
      </trkpt>
      <trkpt lat="47.27365" lon="-2.44938">
        <ele>-1.7999999523163</ele>
        <time>2021-05-20T09:52:34.000Z</time>
      </trkpt>
      <trkpt lat="47.2736" lon="-2.4494">
        <ele>-1.3999999761581</ele>
        <time>2021-05-20T09:52:35.000Z</time>
      </trkpt>
      <trkpt lat="47.27355" lon="-2.44943">
        <ele>-1</ele>
        <time>2021-05-20T09:52:36.000Z</time>
      </trkpt>
      <trkpt lat="47.2735" lon="-2.44946">
        <ele>-0.60000002384186</ele>
        <time>2021-05-20T09:52:37.000Z</time>
      </trkpt>
      <trkpt lat="47.27345" lon="-2.44948">
        <ele>-0.20000000298023</ele>
        <time>2021-05-20T09:52:38.000Z</time>
      </trkpt>
      <trkpt lat="47.27314" lon="-2.44962">
        <ele>-0.20000000298023</ele>
        <time>2021-05-20T09:52:44.000Z</time>
      </trkpt>
      <trkpt lat="47.27309" lon="-2.44963">
        <ele>0.20000000298023</ele>
        <time>2021-05-20T09:52:45.000Z</time>
      </trkpt>
      <trkpt lat="47.27304" lon="-2.44964">
        <ele>0.60000002384186</ele>
        <time>2021-05-20T09:52:46.000Z</time>
      </trkpt>
      <trkpt lat="47.27298" lon="-2.44964">
        <ele>1</ele>
        <time>2021-05-20T09:52:47.000Z</time>
      </trkpt>
      <trkpt lat="47.27293" lon="-2.44964">
        <ele>1.6000000238419</ele>
        <time>2021-05-20T09:52:48.000Z</time>
      </trkpt>
      <trkpt lat="47.27287" lon="-2.44965">
        <ele>2</ele>
        <time>2021-05-20T09:52:49.000Z</time>
      </trkpt>
      <trkpt lat="47.27282" lon="-2.44965">
        <ele>2</ele>
        <time>2021-05-20T09:52:50.000Z</time>
      </trkpt>
      <trkpt lat="47.27276" lon="-2.44965">
        <ele>2</ele>
        <time>2021-05-20T09:52:51.000Z</time>
      </trkpt>
      <trkpt lat="47.27259" lon="-2.44968">
        <ele>2</ele>
        <time>2021-05-20T09:52:54.000Z</time>
      </trkpt>
      <trkpt lat="47.27253" lon="-2.44971">
        <ele>2</ele>
        <time>2021-05-20T09:52:55.000Z</time>
      </trkpt>
      <trkpt lat="47.27237" lon="-2.44978">
        <ele>2</ele>
        <time>2021-05-20T09:52:58.000Z</time>
      </trkpt>
      <trkpt lat="47.27215" lon="-2.44986">
        <ele>2</ele>
        <time>2021-05-20T09:53:02.000Z</time>
      </trkpt>
      <trkpt lat="47.2718" lon="-2.44994">
        <ele>2</ele>
        <time>2021-05-20T09:53:08.000Z</time>
      </trkpt>
      <trkpt lat="47.27175" lon="-2.44994">
        <ele>2</ele>
        <time>2021-05-20T09:53:09.000Z</time>
      </trkpt>
      <trkpt lat="47.27148" lon="-2.44997">
        <ele>2</ele>
        <time>2021-05-20T09:53:14.000Z</time>
      </trkpt>
      <trkpt lat="47.27143" lon="-2.44997">
        <ele>2</ele>
        <time>2021-05-20T09:53:15.000Z</time>
      </trkpt>
      <trkpt lat="47.27137" lon="-2.44998">
        <ele>2</ele>
        <time>2021-05-20T09:53:16.000Z</time>
      </trkpt>
      <trkpt lat="47.27127" lon="-2.44999">
        <ele>2</ele>
        <time>2021-05-20T09:53:18.000Z</time>
      </trkpt>
      <trkpt lat="47.27117" lon="-2.44998">
        <ele>2</ele>
        <time>2021-05-20T09:53:20.000Z</time>
      </trkpt>
      <trkpt lat="47.27076" lon="-2.44995">
        <ele>2</ele>
        <time>2021-05-20T09:53:28.000Z</time>
      </trkpt>
      <trkpt lat="47.27065" lon="-2.44991">
        <ele>2</ele>
        <time>2021-05-20T09:53:31.000Z</time>
      </trkpt>
      <trkpt lat="47.27063" lon="-2.44987">
        <ele>2</ele>
        <time>2021-05-20T09:53:32.000Z</time>
      </trkpt>
      <trkpt lat="47.27058" lon="-2.4496">
        <ele>2</ele>
        <time>2021-05-20T09:53:36.000Z</time>
      </trkpt>
      <trkpt lat="47.27058" lon="-2.44953">
        <ele>2</ele>
        <time>2021-05-20T09:53:37.000Z</time>
      </trkpt>
      <trkpt lat="47.27056" lon="-2.44914">
        <ele>2</ele>
        <time>2021-05-20T09:53:42.000Z</time>
      </trkpt>
      <trkpt lat="47.27052" lon="-2.44856">
        <ele>2</ele>
        <time>2021-05-20T09:53:49.000Z</time>
      </trkpt>
      <trkpt lat="47.27051" lon="-2.44791">
        <ele>2</ele>
        <time>2021-05-20T09:53:57.000Z</time>
      </trkpt>
      <trkpt lat="47.27049" lon="-2.44759">
        <ele>2.4000000953674</ele>
        <time>2021-05-20T09:54:01.000Z</time>
      </trkpt>
      <trkpt lat="47.27049" lon="-2.44751">
        <ele>2.7999999523163</ele>
        <time>2021-05-20T09:54:02.000Z</time>
      </trkpt>
      <trkpt lat="47.27048" lon="-2.44743">
        <ele>3.2000000476837</ele>
        <time>2021-05-20T09:54:03.000Z</time>
      </trkpt>
      <trkpt lat="47.27047" lon="-2.44736">
        <ele>3.5999999046326</ele>
        <time>2021-05-20T09:54:04.000Z</time>
      </trkpt>
      <trkpt lat="47.27046" lon="-2.44727">
        <ele>4</ele>
        <time>2021-05-20T09:54:05.000Z</time>
      </trkpt>
      <trkpt lat="47.27038" lon="-2.44691">
        <ele>4</ele>
        <time>2021-05-20T09:54:10.000Z</time>
      </trkpt>
      <trkpt lat="47.27028" lon="-2.44634">
        <ele>4</ele>
        <time>2021-05-20T09:54:17.000Z</time>
      </trkpt>
      <trkpt lat="47.27016" lon="-2.44576">
        <ele>4</ele>
        <time>2021-05-20T09:54:24.000Z</time>
      </trkpt>
      <trkpt lat="47.27008" lon="-2.44524">
        <ele>4</ele>
        <time>2021-05-20T09:54:30.000Z</time>
      </trkpt>
      <trkpt lat="47.27006" lon="-2.44516">
        <ele>4</ele>
        <time>2021-05-20T09:54:31.000Z</time>
      </trkpt>
      <trkpt lat="47.26996" lon="-2.44459">
        <ele>4</ele>
        <time>2021-05-20T09:54:38.000Z</time>
      </trkpt>
      <trkpt lat="47.26991" lon="-2.44428">
        <ele>4</ele>
        <time>2021-05-20T09:54:42.000Z</time>
      </trkpt>
      <trkpt lat="47.26989" lon="-2.44414">
        <ele>4</ele>
        <time>2021-05-20T09:54:44.000Z</time>
      </trkpt>
      <trkpt lat="47.26981" lon="-2.44405">
        <ele>4</ele>
        <time>2021-05-20T09:54:47.000Z</time>
      </trkpt>
      <trkpt lat="47.26972" lon="-2.44384">
        <ele>4</ele>
        <time>2021-05-20T09:54:51.000Z</time>
      </trkpt>
      <trkpt lat="47.26971" lon="-2.44377">
        <ele>4</ele>
        <time>2021-05-20T09:54:52.000Z</time>
      </trkpt>
      <trkpt lat="47.26964" lon="-2.44344">
        <ele>4</ele>
        <time>2021-05-20T09:54:56.000Z</time>
      </trkpt>
      <trkpt lat="47.26962" lon="-2.44336">
        <ele>4</ele>
        <time>2021-05-20T09:54:57.000Z</time>
      </trkpt>
      <trkpt lat="47.26947" lon="-2.44288">
        <ele>4</ele>
        <time>2021-05-20T09:55:03.000Z</time>
      </trkpt>
      <trkpt lat="47.26933" lon="-2.44219">
        <ele>4</ele>
        <time>2021-05-20T09:55:11.000Z</time>
      </trkpt>
      <trkpt lat="47.2693" lon="-2.44203">
        <ele>4</ele>
        <time>2021-05-20T09:55:13.000Z</time>
      </trkpt>
      <trkpt lat="47.26925" lon="-2.4419">
        <ele>4</ele>
        <time>2021-05-20T09:55:15.000Z</time>
      </trkpt>
      <trkpt lat="47.26919" lon="-2.44182">
        <ele>4</ele>
        <time>2021-05-20T09:55:17.000Z</time>
      </trkpt>
      <trkpt lat="47.26916" lon="-2.44177">
        <ele>4</ele>
        <time>2021-05-20T09:55:18.000Z</time>
      </trkpt>
      <trkpt lat="47.26912" lon="-2.44167">
        <ele>4</ele>
        <time>2021-05-20T09:55:20.000Z</time>
      </trkpt>
      <trkpt lat="47.26913" lon="-2.44151">
        <ele>4</ele>
        <time>2021-05-20T09:55:24.000Z</time>
      </trkpt>
      <trkpt lat="47.26918" lon="-2.44148">
        <ele>3.5999999046326</ele>
        <time>2021-05-20T09:55:26.000Z</time>
      </trkpt>
      <trkpt lat="47.26922" lon="-2.44147">
        <ele>3</ele>
        <time>2021-05-20T09:55:27.000Z</time>
      </trkpt>
      <trkpt lat="47.26925" lon="-2.44145">
        <ele>2.5999999046326</ele>
        <time>2021-05-20T09:55:28.000Z</time>
      </trkpt>
      <trkpt lat="47.26928" lon="-2.44144">
        <ele>2.2000000476837</ele>
        <time>2021-05-20T09:55:29.000Z</time>
      </trkpt>
      <trkpt lat="47.26932" lon="-2.44143">
        <ele>1.6000000238419</ele>
        <time>2021-05-20T09:55:30.000Z</time>
      </trkpt>
      <trkpt lat="47.2694" lon="-2.44134">
        <ele>1.6000000238419</ele>
        <time>2021-05-20T09:55:33.000Z</time>
      </trkpt>
      <trkpt lat="47.26941" lon="-2.44113">
        <ele>1.6000000238419</ele>
        <time>2021-05-20T09:55:37.000Z</time>
      </trkpt>
      <trkpt lat="47.26941" lon="-2.44107">
        <ele>1.6000000238419</ele>
        <time>2021-05-20T09:55:38.000Z</time>
      </trkpt>
      <trkpt lat="47.26936" lon="-2.44078">
        <ele>1.6000000238419</ele>
        <time>2021-05-20T09:55:45.000Z</time>
      </trkpt>
      <trkpt lat="47.26936" lon="-2.44077">
        <ele>1.6000000238419</ele>
        <time>2021-05-20T09:55:47.000Z</time>
      </trkpt>
      <trkpt lat="47.26936" lon="-2.44076">
        <ele>1.6000000238419</ele>
        <time>2021-05-20T09:55:55.000Z</time>
      </trkpt>
      <trkpt lat="47.26945" lon="-2.44065">
        <ele>1.6000000238419</ele>
        <time>2021-05-20T09:55:59.000Z</time>
      </trkpt>
      <trkpt lat="47.26954" lon="-2.44064">
        <ele>1.6000000238419</ele>
        <time>2021-05-20T09:56:01.000Z</time>
      </trkpt>
      <trkpt lat="47.26966" lon="-2.44063">
        <ele>1.6000000238419</ele>
        <time>2021-05-20T09:56:03.000Z</time>
      </trkpt>
      <trkpt lat="47.27002" lon="-2.4406">
        <ele>1.6000000238419</ele>
        <time>2021-05-20T09:56:08.000Z</time>
      </trkpt>
      <trkpt lat="47.27035" lon="-2.44057">
        <ele>1.2000000476837</ele>
        <time>2021-05-20T09:56:12.000Z</time>
      </trkpt>
      <trkpt lat="47.27044" lon="-2.44056">
        <ele>0.80000001192093</ele>
        <time>2021-05-20T09:56:13.000Z</time>
      </trkpt>
      <trkpt lat="47.27052" lon="-2.44054">
        <ele>0.40000000596046</ele>
        <time>2021-05-20T09:56:14.000Z</time>
      </trkpt>
      <trkpt lat="47.27061" lon="-2.44053">
        <ele>6.1</ele>
        <time>2021-05-20T09:56:15.000Z</time>
      </trkpt>
      <trkpt lat="47.27069" lon="-2.44051">
        <ele>-0.40000000596046</ele>
        <time>2021-05-20T09:56:16.000Z</time>
      </trkpt>
      <trkpt lat="47.27112" lon="-2.44045">
        <ele>-0.40000000596046</ele>
        <time>2021-05-20T09:56:21.000Z</time>
      </trkpt>
      <trkpt lat="47.27128" lon="-2.44041">
        <ele>-0.40000000596046</ele>
        <time>2021-05-20T09:56:23.000Z</time>
      </trkpt>
      <trkpt lat="47.27152" lon="-2.44033">
        <ele>-0.40000000596046</ele>
        <time>2021-05-20T09:56:26.000Z</time>
      </trkpt>
      <trkpt lat="47.27168" lon="-2.44027">
        <ele>-0.80000001192093</ele>
        <time>2021-05-20T09:56:28.000Z</time>
      </trkpt>
      <trkpt lat="47.27176" lon="-2.44024">
        <ele>-1.2000000476837</ele>
        <time>2021-05-20T09:56:29.000Z</time>
      </trkpt>
      <trkpt lat="47.27183" lon="-2.4402">
        <ele>-1.6000000238419</ele>
        <time>2021-05-20T09:56:30.000Z</time>
      </trkpt>
      <trkpt lat="47.27189" lon="-2.44018">
        <ele>-2</ele>
        <time>2021-05-20T09:56:31.000Z</time>
      </trkpt>
      <trkpt lat="47.27193" lon="-2.44015">
        <ele>-2.4000000953674</ele>
        <time>2021-05-20T09:56:32.000Z</time>
      </trkpt>
      <trkpt lat="47.272" lon="-2.44007">
        <ele>-2.4000000953674</ele>
        <time>2021-05-20T09:56:34.000Z</time>
      </trkpt>
      <trkpt lat="47.27207" lon="-2.43996">
        <ele>-2.4000000953674</ele>
        <time>2021-05-20T09:56:37.000Z</time>
      </trkpt>
      <trkpt lat="47.27219" lon="-2.43997">
        <ele>-2.4000000953674</ele>
        <time>2021-05-20T09:56:40.000Z</time>
      </trkpt>
      <trkpt lat="47.27237" lon="-2.44011">
        <ele>-2.4000000953674</ele>
        <time>2021-05-20T09:56:44.000Z</time>
      </trkpt>
      <trkpt lat="47.27256" lon="-2.44006">
        <ele>-2.4000000953674</ele>
        <time>2021-05-20T09:56:47.000Z</time>
      </trkpt>
      <trkpt lat="47.27281" lon="-2.43997">
        <ele>-2.4000000953674</ele>
        <time>2021-05-20T09:56:52.000Z</time>
      </trkpt>
      <trkpt lat="47.27284" lon="-2.43998">
        <ele>-2.4000000953674</ele>
        <time>2021-05-20T09:56:53.000Z</time>
      </trkpt>
      <trkpt lat="47.27287" lon="-2.44005">
        <ele>-2.4000000953674</ele>
        <time>2021-05-20T09:56:55.000Z</time>
      </trkpt>
      <trkpt lat="47.27293" lon="-2.44016">
        <ele>-2.4000000953674</ele>
        <time>2021-05-20T09:56:59.000Z</time>
      </trkpt>
      <trkpt lat="47.27299" lon="-2.44027">
        <ele>-2.4000000953674</ele>
        <time>2021-05-20T09:57:02.000Z</time>
      </trkpt>
      <trkpt lat="47.27305" lon="-2.44062">
        <ele>-2.4000000953674</ele>
        <time>2021-05-20T09:57:07.000Z</time>
      </trkpt>
      <trkpt lat="47.27307" lon="-2.44077">
        <ele>-2.4000000953674</ele>
        <time>2021-05-20T09:57:09.000Z</time>
      </trkpt>
      <trkpt lat="47.27311" lon="-2.441">
        <ele>-2.4000000953674</ele>
        <time>2021-05-20T09:57:12.000Z</time>
      </trkpt>
      <trkpt lat="47.27312" lon="-2.44108">
        <ele>-2.4000000953674</ele>
        <time>2021-05-20T09:57:13.000Z</time>
      </trkpt>
      <trkpt lat="47.27322" lon="-2.44157">
        <ele>-2.4000000953674</ele>
        <time>2021-05-20T09:57:19.000Z</time>
      </trkpt>
      <trkpt lat="47.27324" lon="-2.44165">
        <ele>-2.4000000953674</ele>
        <time>2021-05-20T09:57:20.000Z</time>
      </trkpt>
      <trkpt lat="47.27329" lon="-2.44179">
        <ele>-2.4000000953674</ele>
        <time>2021-05-20T09:57:22.000Z</time>
      </trkpt>
      <trkpt lat="47.27333" lon="-2.44183">
        <ele>-2.4000000953674</ele>
        <time>2021-05-20T09:57:23.000Z</time>
      </trkpt>
      <trkpt lat="47.27351" lon="-2.44181">
        <ele>-2.4000000953674</ele>
        <time>2021-05-20T09:57:27.000Z</time>
      </trkpt>
      <trkpt lat="47.2736" lon="-2.44175">
        <ele>-2.4000000953674</ele>
        <time>2021-05-20T09:57:29.000Z</time>
      </trkpt>
      <trkpt lat="47.27378" lon="-2.44162">
        <ele>-2.4000000953674</ele>
        <time>2021-05-20T09:57:33.000Z</time>
      </trkpt>
      <trkpt lat="47.27409" lon="-2.44145">
        <ele>-2.4000000953674</ele>
        <time>2021-05-20T09:57:40.000Z</time>
      </trkpt>
      <trkpt lat="47.2744" lon="-2.44125">
        <ele>-2.4000000953674</ele>
        <time>2021-05-20T09:57:47.000Z</time>
      </trkpt>
      <trkpt lat="47.27449" lon="-2.44119">
        <ele>-2.4000000953674</ele>
        <time>2021-05-20T09:57:49.000Z</time>
      </trkpt>
      <trkpt lat="47.27463" lon="-2.44114">
        <ele>-2.4000000953674</ele>
        <time>2021-05-20T09:57:52.000Z</time>
      </trkpt>
      <trkpt lat="47.27475" lon="-2.44109">
        <ele>-2.4000000953674</ele>
        <time>2021-05-20T09:57:55.000Z</time>
      </trkpt>
      <trkpt lat="47.27481" lon="-2.44103">
        <ele>-2.4000000953674</ele>
        <time>2021-05-20T09:57:57.000Z</time>
      </trkpt>
      <trkpt lat="47.27488" lon="-2.44096">
        <ele>-2.4000000953674</ele>
        <time>2021-05-20T09:58:01.000Z</time>
      </trkpt>
      <trkpt lat="47.27492" lon="-2.44092">
        <ele>-2.4000000953674</ele>
        <time>2021-05-20T09:58:04.000Z</time>
      </trkpt>
      <trkpt lat="47.27492" lon="-2.4409">
        <ele>-2.4000000953674</ele>
        <time>2021-05-20T09:58:07.000Z</time>
      </trkpt>
      <trkpt lat="47.275" lon="-2.44082">
        <ele>-0.40000000596046</ele>
        <time>2021-05-20T10:02:08.000Z</time>
      </trkpt>
      <trkpt lat="47.27504" lon="-2.44079">
        <ele>-0.40000000596046</ele>
        <time>2021-05-20T10:02:10.000Z</time>
      </trkpt>
      <trkpt lat="47.27522" lon="-2.44069">
        <ele>-0.40000000596046</ele>
        <time>2021-05-20T10:02:16.000Z</time>
      </trkpt>
      <trkpt lat="47.27537" lon="-2.44066">
        <ele>-0.40000000596046</ele>
        <time>2021-05-20T10:02:20.000Z</time>
      </trkpt>
      <trkpt lat="47.27566" lon="-2.4406">
        <ele>-0.40000000596046</ele>
        <time>2021-05-20T10:02:26.000Z</time>
      </trkpt>
      <trkpt lat="47.2757" lon="-2.4406">
        <ele>-0.40000000596046</ele>
        <time>2021-05-20T10:02:27.000Z</time>
      </trkpt>
      <trkpt lat="47.2758" lon="-2.44061">
        <ele>-0.40000000596046</ele>
        <time>2021-05-20T10:02:29.000Z</time>
      </trkpt>
      <trkpt lat="47.27594" lon="-2.4406">
        <ele>-0.40000000596046</ele>
        <time>2021-05-20T10:02:32.000Z</time>
      </trkpt>
      <trkpt lat="47.27626" lon="-2.44052">
        <ele>-0.40000000596046</ele>
        <time>2021-05-20T10:02:39.000Z</time>
      </trkpt>
      <trkpt lat="47.27635" lon="-2.44049">
        <ele>-0.40000000596046</ele>
        <time>2021-05-20T10:02:41.000Z</time>
      </trkpt>
      <trkpt lat="47.27654" lon="-2.44051">
        <ele>-0.40000000596046</ele>
        <time>2021-05-20T10:02:45.000Z</time>
      </trkpt>
      <trkpt lat="47.27667" lon="-2.44048">
        <ele>-0.40000000596046</ele>
        <time>2021-05-20T10:02:48.000Z</time>
      </trkpt>
      <trkpt lat="47.27672" lon="-2.44047">
        <ele>-0.40000000596046</ele>
        <time>2021-05-20T10:02:49.000Z</time>
      </trkpt>
      <trkpt lat="47.2768" lon="-2.44044">
        <ele>-0.40000000596046</ele>
        <time>2021-05-20T10:02:51.000Z</time>
      </trkpt>
      <trkpt lat="47.27692" lon="-2.44039">
        <ele>-0.40000000596046</ele>
        <time>2021-05-20T10:02:54.000Z</time>
      </trkpt>
      <trkpt lat="47.27703" lon="-2.44038">
        <ele>-0.40000000596046</ele>
        <time>2021-05-20T10:02:58.000Z</time>
      </trkpt>
      <trkpt lat="47.27705" lon="-2.44037">
        <ele>-0.40000000596046</ele>
        <time>2021-05-20T10:02:59.000Z</time>
      </trkpt>
      <trkpt lat="47.2772" lon="-2.44016">
        <ele>-0.40000000596046</ele>
        <time>2021-05-20T10:03:04.000Z</time>
      </trkpt>
      <trkpt lat="47.27728" lon="-2.43997">
        <ele>-0.80000001192093</ele>
        <time>2021-05-20T10:03:07.000Z</time>
      </trkpt>
      <trkpt lat="47.27731" lon="-2.4399">
        <ele>-1.2000000476837</ele>
        <time>2021-05-20T10:03:08.000Z</time>
      </trkpt>
      <trkpt lat="47.27733" lon="-2.43983">
        <ele>-1.6000000238419</ele>
        <time>2021-05-20T10:03:09.000Z</time>
      </trkpt>
      <trkpt lat="47.27735" lon="-2.43976">
        <ele>-2</ele>
        <time>2021-05-20T10:03:10.000Z</time>
      </trkpt>
      <trkpt lat="47.27738" lon="-2.43969">
        <ele>-2.4000000953674</ele>
        <time>2021-05-20T10:03:11.000Z</time>
      </trkpt>
      <trkpt lat="47.27747" lon="-2.4393">
        <ele>-2.4000000953674</ele>
        <time>2021-05-20T10:03:16.000Z</time>
      </trkpt>
      <trkpt lat="47.27763" lon="-2.43861">
        <ele>-2.4000000953674</ele>
        <time>2021-05-20T10:03:24.000Z</time>
      </trkpt>
      <trkpt lat="47.27765" lon="-2.43851">
        <ele>-2.4000000953674</ele>
        <time>2021-05-20T10:03:25.000Z</time>
      </trkpt>
      <trkpt lat="47.27765" lon="-2.43824">
        <ele>-2.4000000953674</ele>
        <time>2021-05-20T10:03:28.000Z</time>
      </trkpt>
      <trkpt lat="47.27766" lon="-2.43815">
        <ele>-2.4000000953674</ele>
        <time>2021-05-20T10:03:29.000Z</time>
      </trkpt>
      <trkpt lat="47.27774" lon="-2.438">
        <ele>-2.4000000953674</ele>
        <time>2021-05-20T10:03:31.000Z</time>
      </trkpt>
      <trkpt lat="47.2779" lon="-2.4377">
        <ele>-2.4000000953674</ele>
        <time>2021-05-20T10:03:35.000Z</time>
      </trkpt>
      <trkpt lat="47.27793" lon="-2.43761">
        <ele>-2.4000000953674</ele>
        <time>2021-05-20T10:03:36.000Z</time>
      </trkpt>
      <trkpt lat="47.27808" lon="-2.43698">
        <ele>-2.4000000953674</ele>
        <time>2021-05-20T10:03:43.000Z</time>
      </trkpt>
      <trkpt lat="47.27826" lon="-2.43625">
        <ele>-2.4000000953674</ele>
        <time>2021-05-20T10:03:51.000Z</time>
      </trkpt>
      <trkpt lat="47.27845" lon="-2.43551">
        <ele>-2.4000000953674</ele>
        <time>2021-05-20T10:03:59.000Z</time>
      </trkpt>
      <trkpt lat="47.2785" lon="-2.43523">
        <ele>-2</ele>
        <time>2021-05-20T10:04:02.000Z</time>
      </trkpt>
      <trkpt lat="47.27851" lon="-2.43513">
        <ele>-1.6000000238419</ele>
        <time>2021-05-20T10:04:03.000Z</time>
      </trkpt>
      <trkpt lat="47.27852" lon="-2.43504">
        <ele>-1.2000000476837</ele>
        <time>2021-05-20T10:04:04.000Z</time>
      </trkpt>
      <trkpt lat="47.27853" lon="-2.43494">
        <ele>-0.80000001192093</ele>
        <time>2021-05-20T10:04:05.000Z</time>
      </trkpt>
      <trkpt lat="47.27854" lon="-2.43484">
        <ele>-0.40000000596046</ele>
        <time>2021-05-20T10:04:06.000Z</time>
      </trkpt>
      <trkpt lat="47.27861" lon="-2.43405">
        <ele>-0.40000000596046</ele>
        <time>2021-05-20T10:04:14.000Z</time>
      </trkpt>
      <trkpt lat="47.27861" lon="-2.43395">
        <ele>-0.80000001192093</ele>
        <time>2021-05-20T10:04:15.000Z</time>
      </trkpt>
      <trkpt lat="47.2786" lon="-2.43386">
        <ele>-1.6000000238419</ele>
        <time>2021-05-20T10:04:16.000Z</time>
      </trkpt>
      <trkpt lat="47.27858" lon="-2.43377">
        <ele>-2</ele>
        <time>2021-05-20T10:04:17.000Z</time>
      </trkpt>
      <trkpt lat="47.27856" lon="-2.43368">
        <ele>-2.4000000953674</ele>
        <time>2021-05-20T10:04:18.000Z</time>
      </trkpt>
      <trkpt lat="47.27857" lon="-2.43359">
        <ele>-2.4000000953674</ele>
        <time>2021-05-20T10:04:19.000Z</time>
      </trkpt>
      <trkpt lat="47.27864" lon="-2.43344">
        <ele>-2.4000000953674</ele>
        <time>2021-05-20T10:04:21.000Z</time>
      </trkpt>
      <trkpt lat="47.2787" lon="-2.43328">
        <ele>-2.4000000953674</ele>
        <time>2021-05-20T10:04:23.000Z</time>
      </trkpt>
      <trkpt lat="47.27873" lon="-2.4331">
        <ele>-2.4000000953674</ele>
        <time>2021-05-20T10:04:26.000Z</time>
      </trkpt>
      <trkpt lat="47.27871" lon="-2.43287">
        <ele>-2.4000000953674</ele>
        <time>2021-05-20T10:04:30.000Z</time>
      </trkpt>
      <trkpt lat="47.27872" lon="-2.43263">
        <ele>-2.4000000953674</ele>
        <time>2021-05-20T10:04:35.000Z</time>
      </trkpt>
      <trkpt lat="47.27872" lon="-2.43244">
        <ele>-2</ele>
        <time>2021-05-20T10:04:40.000Z</time>
      </trkpt>
      <trkpt lat="47.27872" lon="-2.43238">
        <ele>-1</ele>
        <time>2021-05-20T10:04:41.000Z</time>
      </trkpt>
      <trkpt lat="47.27872" lon="-2.43232">
        <ele>-0.60000002384186</ele>
        <time>2021-05-20T10:04:42.000Z</time>
      </trkpt>
      <trkpt lat="47.27871" lon="-2.43225">
        <ele>-0.20000000298023</ele>
        <time>2021-05-20T10:04:43.000Z</time>
      </trkpt>
      <trkpt lat="47.27867" lon="-2.4319">
        <ele>-0.20000000298023</ele>
        <time>2021-05-20T10:04:48.000Z</time>
      </trkpt>
      <trkpt lat="47.27863" lon="-2.43162">
        <ele>-0.20000000298023</ele>
        <time>2021-05-20T10:04:53.000Z</time>
      </trkpt>
      <trkpt lat="47.27858" lon="-2.43119">
        <ele>-0.20000000298023</ele>
        <time>2021-05-20T10:04:59.000Z</time>
      </trkpt>
      <trkpt lat="47.2785" lon="-2.43058">
        <ele>-0.20000000298023</ele>
        <time>2021-05-20T10:05:08.000Z</time>
      </trkpt>
      <trkpt lat="47.27849" lon="-2.43035">
        <ele>-0.20000000298023</ele>
        <time>2021-05-20T10:05:13.000Z</time>
      </trkpt>
      <trkpt lat="47.27848" lon="-2.43015">
        <ele>-0.20000000298023</ele>
        <time>2021-05-20T10:05:19.000Z</time>
      </trkpt>
      <trkpt lat="47.27833" lon="-2.43">
        <ele>-0.20000000298023</ele>
        <time>2021-05-20T10:05:22.000Z</time>
      </trkpt>
      <trkpt lat="47.27828" lon="-2.42962">
        <ele>-0.20000000298023</ele>
        <time>2021-05-20T10:05:27.000Z</time>
      </trkpt>
      <trkpt lat="47.27826" lon="-2.42928">
        <ele>-0.20000000298023</ele>
        <time>2021-05-20T10:05:31.000Z</time>
      </trkpt>
      <trkpt lat="47.27825" lon="-2.42901">
        <ele>-0.20000000298023</ele>
        <time>2021-05-20T10:05:34.000Z</time>
      </trkpt>
      <trkpt lat="47.27821" lon="-2.4287">
        <ele>-0.20000000298023</ele>
        <time>2021-05-20T10:05:38.000Z</time>
      </trkpt>
      <trkpt lat="47.2782" lon="-2.42848">
        <ele>-0.20000000298023</ele>
        <time>2021-05-20T10:05:41.000Z</time>
      </trkpt>
      <trkpt lat="47.27819" lon="-2.42821">
        <ele>-0.20000000298023</ele>
        <time>2021-05-20T10:05:46.000Z</time>
      </trkpt>
      <trkpt lat="47.27814" lon="-2.42816">
        <ele>-0.20000000298023</ele>
        <time>2021-05-20T10:05:49.000Z</time>
      </trkpt>
      <trkpt lat="47.27814" lon="-2.42815">
        <ele>-0.20000000298023</ele>
        <time>2021-05-20T10:05:50.000Z</time>
      </trkpt>
      <trkpt lat="47.27827" lon="-2.4281">
        <ele>-0.20000000298023</ele>
        <time>2021-05-20T10:05:55.000Z</time>
      </trkpt>
      <trkpt lat="47.2783" lon="-2.42794">
        <ele>-0.20000000298023</ele>
        <time>2021-05-20T10:05:58.000Z</time>
      </trkpt>
      <trkpt lat="47.27829" lon="-2.42788">
        <ele>-0.20000000298023</ele>
        <time>2021-05-20T10:05:59.000Z</time>
      </trkpt>
      <trkpt lat="47.27829" lon="-2.42769">
        <ele>0.20000000298023</ele>
        <time>2021-05-20T10:06:02.000Z</time>
      </trkpt>
      <trkpt lat="47.27829" lon="-2.42762">
        <ele>0.80000001192093</ele>
        <time>2021-05-20T10:06:03.000Z</time>
      </trkpt>
      <trkpt lat="47.27829" lon="-2.42755">
        <ele>1.2000000476837</ele>
        <time>2021-05-20T10:06:04.000Z</time>
      </trkpt>
      <trkpt lat="47.27829" lon="-2.42747">
        <ele>1.6000000238419</ele>
        <time>2021-05-20T10:06:05.000Z</time>
      </trkpt>
      <trkpt lat="47.27829" lon="-2.42741">
        <ele>2.2000000476837</ele>
        <time>2021-05-20T10:06:06.000Z</time>
      </trkpt>
      <trkpt lat="47.27826" lon="-2.42699">
        <ele>2.2000000476837</ele>
        <time>2021-05-20T10:06:12.000Z</time>
      </trkpt>
      <trkpt lat="47.27826" lon="-2.42691">
        <ele>2.2000000476837</ele>
        <time>2021-05-20T10:06:13.000Z</time>
      </trkpt>
      <trkpt lat="47.27827" lon="-2.42668">
        <ele>1.6000000238419</ele>
        <time>2021-05-20T10:06:16.000Z</time>
      </trkpt>
      <trkpt lat="47.27827" lon="-2.42659">
        <ele>1.2000000476837</ele>
        <time>2021-05-20T10:06:17.000Z</time>
      </trkpt>
      <trkpt lat="47.27826" lon="-2.42651">
        <ele>0.80000001192093</ele>
        <time>2021-05-20T10:06:18.000Z</time>
      </trkpt>
      <trkpt lat="47.27826" lon="-2.42641">
        <ele>0.40000000596046</ele>
        <time>2021-05-20T10:06:19.000Z</time>
      </trkpt>
      <trkpt lat="47.27826" lon="-2.42631">
        <ele>2.2</ele>
        <time>2021-05-20T10:06:20.000Z</time>
      </trkpt>
      <trkpt lat="47.27823" lon="-2.42603">
        <ele>2.4</ele>
        <time>2021-05-20T10:06:23.000Z</time>
      </trkpt>
      <trkpt lat="47.27817" lon="-2.42586">
        <ele>2.6</ele>
        <time>2021-05-20T10:06:25.000Z</time>
      </trkpt>
      <trkpt lat="47.27798" lon="-2.4255">
        <ele>3</ele>
        <time>2021-05-20T10:06:30.000Z</time>
      </trkpt>
      <trkpt lat="47.27783" lon="-2.42506">
        <ele>3</ele>
        <time>2021-05-20T10:06:36.000Z</time>
      </trkpt>
      <trkpt lat="47.27765" lon="-2.42452">
        <ele>3</ele>
        <time>2021-05-20T10:06:43.000Z</time>
      </trkpt>
      <trkpt lat="47.27761" lon="-2.42436">
        <ele>-0.60000002384186</ele>
        <time>2021-05-20T10:06:45.000Z</time>
      </trkpt>
      <trkpt lat="47.2776" lon="-2.42427">
        <ele>-1</ele>
        <time>2021-05-20T10:06:46.000Z</time>
      </trkpt>
      <trkpt lat="47.27758" lon="-2.42419">
        <ele>-1.3999999761581</ele>
        <time>2021-05-20T10:06:47.000Z</time>
      </trkpt>
      <trkpt lat="47.27756" lon="-2.42411">
        <ele>-2</ele>
        <time>2021-05-20T10:06:48.000Z</time>
      </trkpt>
      <trkpt lat="47.27755" lon="-2.42403">
        <ele>-2.4000000953674</ele>
        <time>2021-05-20T10:06:49.000Z</time>
      </trkpt>
      <trkpt lat="47.27752" lon="-2.42386">
        <ele>-2.4000000953674</ele>
        <time>2021-05-20T10:06:51.000Z</time>
      </trkpt>
      <trkpt lat="47.27749" lon="-2.42361">
        <ele>-2.4000000953674</ele>
        <time>2021-05-20T10:06:54.000Z</time>
      </trkpt>
      <trkpt lat="47.27747" lon="-2.42336">
        <ele>-2.4000000953674</ele>
        <time>2021-05-20T10:06:57.000Z</time>
      </trkpt>
      <trkpt lat="47.2774" lon="-2.42269">
        <ele>-2.4000000953674</ele>
        <time>2021-05-20T10:07:05.000Z</time>
      </trkpt>
      <trkpt lat="47.27739" lon="-2.42251">
        <ele>-2.4000000953674</ele>
        <time>2021-05-20T10:07:07.000Z</time>
      </trkpt>
      <trkpt lat="47.27738" lon="-2.42224">
        <ele>-2.4000000953674</ele>
        <time>2021-05-20T10:07:10.000Z</time>
      </trkpt>
      <trkpt lat="47.27738" lon="-2.42216">
        <ele>-2.4000000953674</ele>
        <time>2021-05-20T10:07:11.000Z</time>
      </trkpt>
      <trkpt lat="47.27738" lon="-2.42176">
        <ele>-2.4000000953674</ele>
        <time>2021-05-20T10:07:16.000Z</time>
      </trkpt>
      <trkpt lat="47.2774" lon="-2.42118">
        <ele>-2.4000000953674</ele>
        <time>2021-05-20T10:07:23.000Z</time>
      </trkpt>
      <trkpt lat="47.27741" lon="-2.42109">
        <ele>-2.4000000953674</ele>
        <time>2021-05-20T10:07:24.000Z</time>
      </trkpt>
      <trkpt lat="47.27745" lon="-2.42066">
        <ele>-2.4000000953674</ele>
        <time>2021-05-20T10:07:29.000Z</time>
      </trkpt>
      <trkpt lat="47.27757" lon="-2.42006">
        <ele>-2.4000000953674</ele>
        <time>2021-05-20T10:07:36.000Z</time>
      </trkpt>
      <trkpt lat="47.27764" lon="-2.41982">
        <ele>-2</ele>
        <time>2021-05-20T10:07:39.000Z</time>
      </trkpt>
      <trkpt lat="47.27766" lon="-2.41974">
        <ele>-1.3999999761581</ele>
        <time>2021-05-20T10:07:40.000Z</time>
      </trkpt>
      <trkpt lat="47.27768" lon="-2.41966">
        <ele>-1</ele>
        <time>2021-05-20T10:07:41.000Z</time>
      </trkpt>
      <trkpt lat="47.2777" lon="-2.41958">
        <ele>-0.60000002384186</ele>
        <time>2021-05-20T10:07:42.000Z</time>
      </trkpt>
      <trkpt lat="47.27772" lon="-2.4195">
        <ele>-0.20000000298023</ele>
        <time>2021-05-20T10:07:43.000Z</time>
      </trkpt>
      <trkpt lat="47.27786" lon="-2.41905">
        <ele>-0.20000000298023</ele>
        <time>2021-05-20T10:07:49.000Z</time>
      </trkpt>
      <trkpt lat="47.27806" lon="-2.41846">
        <ele>-0.20000000298023</ele>
        <time>2021-05-20T10:07:57.000Z</time>
      </trkpt>
      <trkpt lat="47.2783" lon="-2.41793">
        <ele>-0.20000000298023</ele>
        <time>2021-05-20T10:08:05.000Z</time>
      </trkpt>
      <trkpt lat="47.27842" lon="-2.41768">
        <ele>-0.20000000298023</ele>
        <time>2021-05-20T10:08:10.000Z</time>
      </trkpt>
      <trkpt lat="47.27844" lon="-2.41762">
        <ele>-0.20000000298023</ele>
        <time>2021-05-20T10:08:11.000Z</time>
      </trkpt>
      <trkpt lat="47.27852" lon="-2.41745">
        <ele>-0.20000000298023</ele>
        <time>2021-05-20T10:08:14.000Z</time>
      </trkpt>
      <trkpt lat="47.27855" lon="-2.41739">
        <ele>-0.20000000298023</ele>
        <time>2021-05-20T10:08:15.000Z</time>
      </trkpt>
      <trkpt lat="47.27872" lon="-2.417">
        <ele>-0.20000000298023</ele>
        <time>2021-05-20T10:08:21.000Z</time>
      </trkpt>
      <trkpt lat="47.27891" lon="-2.41664">
        <ele>-0.20000000298023</ele>
        <time>2021-05-20T10:08:26.000Z</time>
      </trkpt>
      <trkpt lat="47.27895" lon="-2.41658">
        <ele>-0.20000000298023</ele>
        <time>2021-05-20T10:08:27.000Z</time>
      </trkpt>
      <trkpt lat="47.27921" lon="-2.4161">
        <ele>-0.20000000298023</ele>
        <time>2021-05-20T10:08:35.000Z</time>
      </trkpt>
      <trkpt lat="47.27947" lon="-2.4156">
        <ele>-0.20000000298023</ele>
        <time>2021-05-20T10:08:42.000Z</time>
      </trkpt>
      <trkpt lat="47.27964" lon="-2.41518">
        <ele>-0.20000000298023</ele>
        <time>2021-05-20T10:08:48.000Z</time>
      </trkpt>
      <trkpt lat="47.27979" lon="-2.4146">
        <ele>-0.20000000298023</ele>
        <time>2021-05-20T10:08:55.000Z</time>
      </trkpt>
      <trkpt lat="47.27989" lon="-2.41407">
        <ele>-0.20000000298023</ele>
        <time>2021-05-20T10:09:01.000Z</time>
      </trkpt>
      <trkpt lat="47.28001" lon="-2.41331">
        <ele>-0.20000000298023</ele>
        <time>2021-05-20T10:09:09.000Z</time>
      </trkpt>
      <trkpt lat="47.28013" lon="-2.41263">
        <ele>-0.20000000298023</ele>
        <time>2021-05-20T10:09:16.000Z</time>
      </trkpt>
      <trkpt lat="47.28028" lon="-2.41196">
        <ele>-0.20000000298023</ele>
        <time>2021-05-20T10:09:23.000Z</time>
      </trkpt>
      <trkpt lat="47.28037" lon="-2.41154">
        <ele>-0.20000000298023</ele>
        <time>2021-05-20T10:09:27.000Z</time>
      </trkpt>
      <trkpt lat="47.28043" lon="-2.41132">
        <ele>-0.20000000298023</ele>
        <time>2021-05-20T10:09:29.000Z</time>
      </trkpt>
      <trkpt lat="47.28054" lon="-2.41071">
        <ele>-0.20000000298023</ele>
        <time>2021-05-20T10:09:35.000Z</time>
      </trkpt>
      <trkpt lat="47.28067" lon="-2.41008">
        <ele>-0.20000000298023</ele>
        <time>2021-05-20T10:09:41.000Z</time>
      </trkpt>
      <trkpt lat="47.28073" lon="-2.40979">
        <ele>0.40000000596046</ele>
        <time>2021-05-20T10:09:44.000Z</time>
      </trkpt>
      <trkpt lat="47.28076" lon="-2.4097">
        <ele>1</ele>
        <time>2021-05-20T10:09:45.000Z</time>
      </trkpt>
      <trkpt lat="47.28078" lon="-2.40962">
        <ele>1.6000000238419</ele>
        <time>2021-05-20T10:09:46.000Z</time>
      </trkpt>
      <trkpt lat="47.28079" lon="-2.40954">
        <ele>2.2000000476837</ele>
        <time>2021-05-20T10:09:47.000Z</time>
      </trkpt>
      <trkpt lat="47.28081" lon="-2.40947">
        <ele>2.5999999046326</ele>
        <time>2021-05-20T10:09:48.000Z</time>
      </trkpt>
      <trkpt lat="47.28084" lon="-2.40925">
        <ele>2.5999999046326</ele>
        <time>2021-05-20T10:09:51.000Z</time>
      </trkpt>
      <trkpt lat="47.28083" lon="-2.40918">
        <ele>3.2000000476837</ele>
        <time>2021-05-20T10:09:52.000Z</time>
      </trkpt>
      <trkpt lat="47.28081" lon="-2.4091">
        <ele>3.5999999046326</ele>
        <time>2021-05-20T10:09:53.000Z</time>
      </trkpt>
      <trkpt lat="47.28079" lon="-2.40903">
        <ele>4</ele>
        <time>2021-05-20T10:09:54.000Z</time>
      </trkpt>
      <trkpt lat="47.28078" lon="-2.40897">
        <ele>4.5999999046326</ele>
        <time>2021-05-20T10:09:55.000Z</time>
      </trkpt>
      <trkpt lat="47.28075" lon="-2.4089">
        <ele>5</ele>
        <time>2021-05-20T10:09:56.000Z</time>
      </trkpt>
      <trkpt lat="47.28066" lon="-2.40864">
        <ele>5.4000000953674</ele>
        <time>2021-05-20T10:10:00.000Z</time>
      </trkpt>
      <trkpt lat="47.28064" lon="-2.40858">
        <ele>5.8000001907349</ele>
        <time>2021-05-20T10:10:01.000Z</time>
      </trkpt>
      <trkpt lat="47.28062" lon="-2.40853">
        <ele>6.1999998092651</ele>
        <time>2021-05-20T10:10:02.000Z</time>
      </trkpt>
      <trkpt lat="47.28059" lon="-2.40848">
        <ele>7.1999998092651</ele>
        <time>2021-05-20T10:10:03.000Z</time>
      </trkpt>
      <trkpt lat="47.28042" lon="-2.4083">
        <ele>6.8000001907349</ele>
        <time>2021-05-20T10:10:07.000Z</time>
      </trkpt>
      <trkpt lat="47.28038" lon="-2.40826">
        <ele>5.8000001907349</ele>
        <time>2021-05-20T10:10:08.000Z</time>
      </trkpt>
      <trkpt lat="47.28035" lon="-2.40822">
        <ele>4.8000001907349</ele>
        <time>2021-05-20T10:10:09.000Z</time>
      </trkpt>
      <trkpt lat="47.28033" lon="-2.40815">
        <ele>3.7999999523163</ele>
        <time>2021-05-20T10:10:10.000Z</time>
      </trkpt>
      <trkpt lat="47.28032" lon="-2.40808">
        <ele>2.5999999046326</ele>
        <time>2021-05-20T10:10:11.000Z</time>
      </trkpt>
      <trkpt lat="47.28034" lon="-2.40801">
        <ele>1.3999999761581</ele>
        <time>2021-05-20T10:10:12.000Z</time>
      </trkpt>
      <trkpt lat="47.28035" lon="-2.40794">
        <ele>0.20000000298023</ele>
        <time>2021-05-20T10:10:13.000Z</time>
      </trkpt>
      <trkpt lat="47.28037" lon="-2.40787">
        <ele>-0.80000001192093</ele>
        <time>2021-05-20T10:10:14.000Z</time>
      </trkpt>
      <trkpt lat="47.28038" lon="-2.40779">
        <ele>-2</ele>
        <time>2021-05-20T10:10:15.000Z</time>
      </trkpt>
      <trkpt lat="47.28048" lon="-2.40739">
        <ele>-2</ele>
        <time>2021-05-20T10:10:20.000Z</time>
      </trkpt>
      <trkpt lat="47.28055" lon="-2.40701">
        <ele>-2</ele>
        <time>2021-05-20T10:10:25.000Z</time>
      </trkpt>
      <trkpt lat="47.28055" lon="-2.40684">
        <ele>-2</ele>
        <time>2021-05-20T10:10:27.000Z</time>
      </trkpt>
      <trkpt lat="47.28053" lon="-2.40649">
        <ele>-2</ele>
        <time>2021-05-20T10:10:32.000Z</time>
      </trkpt>
      <trkpt lat="47.28049" lon="-2.40617">
        <ele>-2</ele>
        <time>2021-05-20T10:10:37.000Z</time>
      </trkpt>
      <trkpt lat="47.28049" lon="-2.4061">
        <ele>-2</ele>
        <time>2021-05-20T10:10:38.000Z</time>
      </trkpt>
      <trkpt lat="47.2805" lon="-2.40604">
        <ele>-2</ele>
        <time>2021-05-20T10:10:39.000Z</time>
      </trkpt>
      <trkpt lat="47.28055" lon="-2.40582">
        <ele>-2</ele>
        <time>2021-05-20T10:10:42.000Z</time>
      </trkpt>
      <trkpt lat="47.28068" lon="-2.40513">
        <ele>-2</ele>
        <time>2021-05-20T10:10:51.000Z</time>
      </trkpt>
      <trkpt lat="47.28076" lon="-2.40483">
        <ele>-2</ele>
        <time>2021-05-20T10:10:55.000Z</time>
      </trkpt>
      <trkpt lat="47.28079" lon="-2.40477">
        <ele>-2</ele>
        <time>2021-05-20T10:10:56.000Z</time>
      </trkpt>
      <trkpt lat="47.28099" lon="-2.40444">
        <ele>-2</ele>
        <time>2021-05-20T10:11:02.000Z</time>
      </trkpt>
      <trkpt lat="47.28105" lon="-2.4043">
        <ele>-2</ele>
        <time>2021-05-20T10:11:04.000Z</time>
      </trkpt>
      <trkpt lat="47.2811" lon="-2.40405">
        <ele>-2</ele>
        <time>2021-05-20T10:11:07.000Z</time>
      </trkpt>
      <trkpt lat="47.28111" lon="-2.40397">
        <ele>-2</ele>
        <time>2021-05-20T10:11:08.000Z</time>
      </trkpt>
      <trkpt lat="47.28118" lon="-2.40347">
        <ele>-2</ele>
        <time>2021-05-20T10:11:14.000Z</time>
      </trkpt>
      <trkpt lat="47.28119" lon="-2.40337">
        <ele>-2</ele>
        <time>2021-05-20T10:11:17.000Z</time>
      </trkpt>
      <trkpt lat="47.28121" lon="-2.4032">
        <ele>-2</ele>
        <time>2021-05-20T10:11:20.000Z</time>
      </trkpt>
      <trkpt lat="47.28122" lon="-2.40314">
        <ele>-2</ele>
        <time>2021-05-20T10:11:21.000Z</time>
      </trkpt>
      <trkpt lat="47.28126" lon="-2.40273">
        <ele>-2</ele>
        <time>2021-05-20T10:11:26.000Z</time>
      </trkpt>
      <trkpt lat="47.28134" lon="-2.40224">
        <ele>-2</ele>
        <time>2021-05-20T10:11:32.000Z</time>
      </trkpt>
      <trkpt lat="47.28141" lon="-2.40154">
        <ele>-2</ele>
        <time>2021-05-20T10:11:40.000Z</time>
      </trkpt>
      <trkpt lat="47.28149" lon="-2.40081">
        <ele>-2</ele>
        <time>2021-05-20T10:11:48.000Z</time>
      </trkpt>
      <trkpt lat="47.28155" lon="-2.40024">
        <ele>-2</ele>
        <time>2021-05-20T10:11:55.000Z</time>
      </trkpt>
      <trkpt lat="47.28155" lon="-2.40017">
        <ele>-2</ele>
        <time>2021-05-20T10:11:56.000Z</time>
      </trkpt>
      <trkpt lat="47.28158" lon="-2.39987">
        <ele>-2</ele>
        <time>2021-05-20T10:12:00.000Z</time>
      </trkpt>
      <trkpt lat="47.28161" lon="-2.39928">
        <ele>-2</ele>
        <time>2021-05-20T10:12:07.000Z</time>
      </trkpt>
      <trkpt lat="47.28166" lon="-2.39865">
        <ele>-2</ele>
        <time>2021-05-20T10:12:14.000Z</time>
      </trkpt>
      <trkpt lat="47.28172" lon="-2.39788">
        <ele>-2</ele>
        <time>2021-05-20T10:12:22.000Z</time>
      </trkpt>
      <trkpt lat="47.28178" lon="-2.39707">
        <ele>-2</ele>
        <time>2021-05-20T10:12:30.000Z</time>
      </trkpt>
      <trkpt lat="47.2818" lon="-2.39676">
        <ele>-2</ele>
        <time>2021-05-20T10:12:33.000Z</time>
      </trkpt>
      <trkpt lat="47.28181" lon="-2.39603">
        <ele>-2</ele>
        <time>2021-05-20T10:12:40.000Z</time>
      </trkpt>
      <trkpt lat="47.28183" lon="-2.39539">
        <ele>-2</ele>
        <time>2021-05-20T10:12:47.000Z</time>
      </trkpt>
      <trkpt lat="47.28185" lon="-2.39453">
        <ele>-1.6000000238419</ele>
        <time>2021-05-20T10:12:56.000Z</time>
      </trkpt>
      <trkpt lat="47.28185" lon="-2.39443">
        <ele>-0.80000001192093</ele>
        <time>2021-05-20T10:12:57.000Z</time>
      </trkpt>
      <trkpt lat="47.28185" lon="-2.39433">
        <ele>-0.40000000596046</ele>
        <time>2021-05-20T10:12:58.000Z</time>
      </trkpt>
      <trkpt lat="47.28184" lon="-2.39424">
        <ele>6.3</ele>
        <time>2021-05-20T10:12:59.000Z</time>
      </trkpt>
      <trkpt lat="47.28183" lon="-2.39388">
        <ele>6.6</ele>
        <time>2021-05-20T10:13:03.000Z</time>
      </trkpt>
      <trkpt lat="47.28183" lon="-2.39335">
        <ele>-0.40000000596046</ele>
        <time>2021-05-20T10:13:10.000Z</time>
      </trkpt>
      <trkpt lat="47.28183" lon="-2.39328">
        <ele>-0.80000001192093</ele>
        <time>2021-05-20T10:13:11.000Z</time>
      </trkpt>
      <trkpt lat="47.28184" lon="-2.39322">
        <ele>-1.3999999761581</ele>
        <time>2021-05-20T10:13:12.000Z</time>
      </trkpt>
      <trkpt lat="47.28184" lon="-2.39316">
        <ele>-1.7999999523163</ele>
        <time>2021-05-20T10:13:13.000Z</time>
      </trkpt>
      <trkpt lat="47.28184" lon="-2.3931">
        <ele>-2.2000000476837</ele>
        <time>2021-05-20T10:13:14.000Z</time>
      </trkpt>
      <trkpt lat="47.28184" lon="-2.39293">
        <ele>-2.2000000476837</ele>
        <time>2021-05-20T10:13:17.000Z</time>
      </trkpt>
      <trkpt lat="47.28183" lon="-2.39256">
        <ele>-2.2000000476837</ele>
        <time>2021-05-20T10:13:25.000Z</time>
      </trkpt>
      <trkpt lat="47.28184" lon="-2.39245">
        <ele>-2.2000000476837</ele>
        <time>2021-05-20T10:13:30.000Z</time>
      </trkpt>
      <trkpt lat="47.28183" lon="-2.39244">
        <ele>-2.2000000476837</ele>
        <time>2021-05-20T10:13:43.000Z</time>
      </trkpt>
      <trkpt lat="47.28183" lon="-2.39237">
        <ele>-2.2000000476837</ele>
        <time>2021-05-20T10:13:45.000Z</time>
      </trkpt>
      <trkpt lat="47.28182" lon="-2.39209">
        <ele>-2.2000000476837</ele>
        <time>2021-05-20T10:13:50.000Z</time>
      </trkpt>
      <trkpt lat="47.28179" lon="-2.39167">
        <ele>-2.2000000476837</ele>
        <time>2021-05-20T10:13:55.000Z</time>
      </trkpt>
      <trkpt lat="47.28178" lon="-2.39119">
        <ele>-2.2000000476837</ele>
        <time>2021-05-20T10:14:01.000Z</time>
      </trkpt>
      <trkpt lat="47.28177" lon="-2.39114">
        <ele>-1.7999999523163</ele>
        <time>2021-05-20T10:14:02.000Z</time>
      </trkpt>
      <trkpt lat="47.28177" lon="-2.39111">
        <ele>-1.3999999761581</ele>
        <time>2021-05-20T10:14:03.000Z</time>
      </trkpt>
      <trkpt lat="47.28176" lon="-2.39109">
        <ele>-1</ele>
        <time>2021-05-20T10:14:04.000Z</time>
      </trkpt>
      <trkpt lat="47.28176" lon="-2.39106">
        <ele>-0.40000000596046</ele>
        <time>2021-05-20T10:14:05.000Z</time>
      </trkpt>
      <trkpt lat="47.28176" lon="-2.39104">
        <ele>7</ele>
        <time>2021-05-20T10:14:06.000Z</time>
      </trkpt>
      <trkpt lat="47.28176" lon="-2.39104">
        <ele>7</ele>
        <time>2021-05-20T10:14:07.000Z</time>
      </trkpt>
      <trkpt lat="47.28174" lon="-2.39099">
        <ele>7</ele>
        <time>2021-05-20T10:14:22.000Z</time>
      </trkpt>
      <trkpt lat="47.28173" lon="-2.39094">
        <ele>7</ele>
        <time>2021-05-20T10:14:23.000Z</time>
      </trkpt>
      <trkpt lat="47.28171" lon="-2.3907">
        <ele>7</ele>
        <time>2021-05-20T10:14:27.000Z</time>
      </trkpt>
      <trkpt lat="47.2817" lon="-2.39063">
        <ele>7</ele>
        <time>2021-05-20T10:14:28.000Z</time>
      </trkpt>
      <trkpt lat="47.28163" lon="-2.39003">
        <ele>6.7</ele>
        <time>2021-05-20T10:14:35.000Z</time>
      </trkpt>
      <trkpt lat="47.28152" lon="-2.38936">
        <ele>6.6</ele>
        <time>2021-05-20T10:14:43.000Z</time>
      </trkpt>
      <trkpt lat="47.28136" lon="-2.38872">
        <ele>6.2</ele>
        <time>2021-05-20T10:14:51.000Z</time>
      </trkpt>
      <trkpt lat="47.28134" lon="-2.38847">
        <ele>-0.40000000596046</ele>
        <time>2021-05-20T10:14:54.000Z</time>
      </trkpt>
      <trkpt lat="47.28133" lon="-2.38838">
        <ele>-0.80000001192093</ele>
        <time>2021-05-20T10:14:55.000Z</time>
      </trkpt>
      <trkpt lat="47.28132" lon="-2.38829">
        <ele>-1.2000000476837</ele>
        <time>2021-05-20T10:14:56.000Z</time>
      </trkpt>
      <trkpt lat="47.28132" lon="-2.3882">
        <ele>-1.6000000238419</ele>
        <time>2021-05-20T10:14:57.000Z</time>
      </trkpt>
      <trkpt lat="47.28131" lon="-2.38812">
        <ele>-2</ele>
        <time>2021-05-20T10:14:58.000Z</time>
      </trkpt>
      <trkpt lat="47.2813" lon="-2.38803">
        <ele>-2</ele>
        <time>2021-05-20T10:14:59.000Z</time>
      </trkpt>
      <trkpt lat="47.28122" lon="-2.38717">
        <ele>-2</ele>
        <time>2021-05-20T10:15:09.000Z</time>
      </trkpt>
      <trkpt lat="47.28115" lon="-2.38645">
        <ele>-2</ele>
        <time>2021-05-20T10:15:17.000Z</time>
      </trkpt>
      <trkpt lat="47.28109" lon="-2.38572">
        <ele>-2</ele>
        <time>2021-05-20T10:15:24.000Z</time>
      </trkpt>
      <trkpt lat="47.28099" lon="-2.38496">
        <ele>-2</ele>
        <time>2021-05-20T10:15:31.000Z</time>
      </trkpt>
      <trkpt lat="47.28083" lon="-2.38413">
        <ele>-2</ele>
        <time>2021-05-20T10:15:38.000Z</time>
      </trkpt>
      <trkpt lat="47.28074" lon="-2.38364">
        <ele>-1.6000000238419</ele>
        <time>2021-05-20T10:15:42.000Z</time>
      </trkpt>
      <trkpt lat="47.28071" lon="-2.38351">
        <ele>-1.2000000476837</ele>
        <time>2021-05-20T10:15:43.000Z</time>
      </trkpt>
      <trkpt lat="47.28069" lon="-2.38339">
        <ele>-0.80000001192093</ele>
        <time>2021-05-20T10:15:44.000Z</time>
      </trkpt>
      <trkpt lat="47.28066" lon="-2.38327">
        <ele>-0.20000000298023</ele>
        <time>2021-05-20T10:15:45.000Z</time>
      </trkpt>
      <trkpt lat="47.28064" lon="-2.38314">
        <ele>0.20000000298023</ele>
        <time>2021-05-20T10:15:46.000Z</time>
      </trkpt>
      <trkpt lat="47.28049" lon="-2.38233">
        <ele>0.20000000298023</ele>
        <time>2021-05-20T10:15:53.000Z</time>
      </trkpt>
      <trkpt lat="47.28034" lon="-2.38156">
        <ele>0.20000000298023</ele>
        <time>2021-05-20T10:16:00.000Z</time>
      </trkpt>
      <trkpt lat="47.2803" lon="-2.38134">
        <ele>0.20000000298023</ele>
        <time>2021-05-20T10:16:02.000Z</time>
      </trkpt>
      <trkpt lat="47.28023" lon="-2.38099">
        <ele>0.20000000298023</ele>
        <time>2021-05-20T10:16:05.000Z</time>
      </trkpt>
      <trkpt lat="47.28016" lon="-2.38055">
        <ele>0.20000000298023</ele>
        <time>2021-05-20T10:16:09.000Z</time>
      </trkpt>
      <trkpt lat="47.28005" lon="-2.37994">
        <ele>0.20000000298023</ele>
        <time>2021-05-20T10:16:15.000Z</time>
      </trkpt>
      <trkpt lat="47.2799" lon="-2.37922">
        <ele>0.20000000298023</ele>
        <time>2021-05-20T10:16:22.000Z</time>
      </trkpt>
      <trkpt lat="47.27976" lon="-2.3785">
        <ele>0.20000000298023</ele>
        <time>2021-05-20T10:16:29.000Z</time>
      </trkpt>
      <trkpt lat="47.27971" lon="-2.37818">
        <ele>0.20000000298023</ele>
        <time>2021-05-20T10:16:32.000Z</time>
      </trkpt>
      <trkpt lat="47.27966" lon="-2.37796">
        <ele>0.20000000298023</ele>
        <time>2021-05-20T10:16:34.000Z</time>
      </trkpt>
      <trkpt lat="47.2796" lon="-2.37764">
        <ele>0.20000000298023</ele>
        <time>2021-05-20T10:16:37.000Z</time>
      </trkpt>
      <trkpt lat="47.27958" lon="-2.37753">
        <ele>0.20000000298023</ele>
        <time>2021-05-20T10:16:38.000Z</time>
      </trkpt>
      <trkpt lat="47.27939" lon="-2.37676">
        <ele>0.20000000298023</ele>
        <time>2021-05-20T10:16:45.000Z</time>
      </trkpt>
      <trkpt lat="47.27936" lon="-2.37666">
        <ele>0.80000001192093</ele>
        <time>2021-05-20T10:16:46.000Z</time>
      </trkpt>
      <trkpt lat="47.27934" lon="-2.37655">
        <ele>1.3999999761581</ele>
        <time>2021-05-20T10:16:47.000Z</time>
      </trkpt>
      <trkpt lat="47.27932" lon="-2.37645">
        <ele>1.7999999523163</ele>
        <time>2021-05-20T10:16:48.000Z</time>
      </trkpt>
      <trkpt lat="47.27929" lon="-2.37635">
        <ele>2.5999999046326</ele>
        <time>2021-05-20T10:16:49.000Z</time>
      </trkpt>
      <trkpt lat="47.27927" lon="-2.37625">
        <ele>3.2000000476837</ele>
        <time>2021-05-20T10:16:50.000Z</time>
      </trkpt>
      <trkpt lat="47.27925" lon="-2.37616">
        <ele>3.7999999523163</ele>
        <time>2021-05-20T10:16:51.000Z</time>
      </trkpt>
      <trkpt lat="47.27922" lon="-2.37606">
        <ele>4.4000000953674</ele>
        <time>2021-05-20T10:16:52.000Z</time>
      </trkpt>
      <trkpt lat="47.2792" lon="-2.37596">
        <ele>4.1999998092651</ele>
        <time>2021-05-20T10:16:53.000Z</time>
      </trkpt>
      <trkpt lat="47.27917" lon="-2.37587">
        <ele>4</ele>
        <time>2021-05-20T10:16:54.000Z</time>
      </trkpt>
      <trkpt lat="47.27915" lon="-2.37578">
        <ele>3.5999999046326</ele>
        <time>2021-05-20T10:16:55.000Z</time>
      </trkpt>
      <trkpt lat="47.27913" lon="-2.37568">
        <ele>3.4000000953674</ele>
        <time>2021-05-20T10:16:56.000Z</time>
      </trkpt>
      <trkpt lat="47.27911" lon="-2.37559">
        <ele>3.2000000476837</ele>
        <time>2021-05-20T10:16:57.000Z</time>
      </trkpt>
      <trkpt lat="47.27904" lon="-2.37529">
        <ele>2.7999999523163</ele>
        <time>2021-05-20T10:17:00.000Z</time>
      </trkpt>
      <trkpt lat="47.27902" lon="-2.3752">
        <ele>2.2000000476837</ele>
        <time>2021-05-20T10:17:01.000Z</time>
      </trkpt>
      <trkpt lat="47.27899" lon="-2.3751">
        <ele>1.7999999523163</ele>
        <time>2021-05-20T10:17:02.000Z</time>
      </trkpt>
      <trkpt lat="47.27897" lon="-2.37501">
        <ele>1.3999999761581</ele>
        <time>2021-05-20T10:17:03.000Z</time>
      </trkpt>
      <trkpt lat="47.27894" lon="-2.37491">
        <ele>1</ele>
        <time>2021-05-20T10:17:04.000Z</time>
      </trkpt>
      <trkpt lat="47.27893" lon="-2.37482">
        <ele>1.3999999761581</ele>
        <time>2021-05-20T10:17:05.000Z</time>
      </trkpt>
      <trkpt lat="47.27891" lon="-2.37473">
        <ele>2</ele>
        <time>2021-05-20T10:17:06.000Z</time>
      </trkpt>
      <trkpt lat="47.2789" lon="-2.37464">
        <ele>2.4000000953674</ele>
        <time>2021-05-20T10:17:07.000Z</time>
      </trkpt>
      <trkpt lat="47.27888" lon="-2.37455">
        <ele>2.7999999523163</ele>
        <time>2021-05-20T10:17:08.000Z</time>
      </trkpt>
      <trkpt lat="47.27885" lon="-2.37446">
        <ele>3.2000000476837</ele>
        <time>2021-05-20T10:17:09.000Z</time>
      </trkpt>
      <trkpt lat="47.27883" lon="-2.37437">
        <ele>2.7999999523163</ele>
        <time>2021-05-20T10:17:10.000Z</time>
      </trkpt>
      <trkpt lat="47.27881" lon="-2.37428">
        <ele>2.2000000476837</ele>
        <time>2021-05-20T10:17:11.000Z</time>
      </trkpt>
      <trkpt lat="47.27879" lon="-2.37418">
        <ele>1.7999999523163</ele>
        <time>2021-05-20T10:17:12.000Z</time>
      </trkpt>
      <trkpt lat="47.27876" lon="-2.37409">
        <ele>1.3999999761581</ele>
        <time>2021-05-20T10:17:13.000Z</time>
      </trkpt>
      <trkpt lat="47.27874" lon="-2.37399">
        <ele>1</ele>
        <time>2021-05-20T10:17:14.000Z</time>
      </trkpt>
      <trkpt lat="47.27871" lon="-2.3739">
        <ele>1</ele>
        <time>2021-05-20T10:17:15.000Z</time>
      </trkpt>
      <trkpt lat="47.27854" lon="-2.37325">
        <ele>1</ele>
        <time>2021-05-20T10:17:22.000Z</time>
      </trkpt>
      <trkpt lat="47.27835" lon="-2.37251">
        <ele>1</ele>
        <time>2021-05-20T10:17:30.000Z</time>
      </trkpt>
      <trkpt lat="47.27821" lon="-2.37194">
        <ele>1</ele>
        <time>2021-05-20T10:17:36.000Z</time>
      </trkpt>
      <trkpt lat="47.27818" lon="-2.37185">
        <ele>1</ele>
        <time>2021-05-20T10:17:37.000Z</time>
      </trkpt>
      <trkpt lat="47.27809" lon="-2.37149">
        <ele>1</ele>
        <time>2021-05-20T10:17:41.000Z</time>
      </trkpt>
      <trkpt lat="47.27806" lon="-2.37141">
        <ele>1.3999999761581</ele>
        <time>2021-05-20T10:17:42.000Z</time>
      </trkpt>
      <trkpt lat="47.27804" lon="-2.37133">
        <ele>1.7999999523163</ele>
        <time>2021-05-20T10:17:43.000Z</time>
      </trkpt>
      <trkpt lat="47.27802" lon="-2.37124">
        <ele>2.2000000476837</ele>
        <time>2021-05-20T10:17:44.000Z</time>
      </trkpt>
      <trkpt lat="47.278" lon="-2.37115">
        <ele>2.5999999046326</ele>
        <time>2021-05-20T10:17:45.000Z</time>
      </trkpt>
      <trkpt lat="47.27798" lon="-2.37107">
        <ele>3</ele>
        <time>2021-05-20T10:17:46.000Z</time>
      </trkpt>
      <trkpt lat="47.27789" lon="-2.37073">
        <ele>2.5999999046326</ele>
        <time>2021-05-20T10:17:50.000Z</time>
      </trkpt>
      <trkpt lat="47.27786" lon="-2.37065">
        <ele>2</ele>
        <time>2021-05-20T10:17:51.000Z</time>
      </trkpt>
      <trkpt lat="47.27784" lon="-2.37056">
        <ele>1.6000000238419</ele>
        <time>2021-05-20T10:17:52.000Z</time>
      </trkpt>
      <trkpt lat="47.27781" lon="-2.37047">
        <ele>0.60000002384186</ele>
        <time>2021-05-20T10:17:53.000Z</time>
      </trkpt>
      <trkpt lat="47.27764" lon="-2.36986">
        <ele>0.60000002384186</ele>
        <time>2021-05-20T10:18:00.000Z</time>
      </trkpt>
      <trkpt lat="47.27747" lon="-2.36929">
        <ele>0.60000002384186</ele>
        <time>2021-05-20T10:18:07.000Z</time>
      </trkpt>
      <trkpt lat="47.27739" lon="-2.36905">
        <ele>0.60000002384186</ele>
        <time>2021-05-20T10:18:10.000Z</time>
      </trkpt>
      <trkpt lat="47.27735" lon="-2.36888">
        <ele>0.60000002384186</ele>
        <time>2021-05-20T10:18:12.000Z</time>
      </trkpt>
      <trkpt lat="47.27715" lon="-2.36822">
        <ele>0.60000002384186</ele>
        <time>2021-05-20T10:18:19.000Z</time>
      </trkpt>
      <trkpt lat="47.27698" lon="-2.36764">
        <ele>1</ele>
        <time>2021-05-20T10:18:25.000Z</time>
      </trkpt>
      <trkpt lat="47.27696" lon="-2.36755">
        <ele>1.3999999761581</ele>
        <time>2021-05-20T10:18:26.000Z</time>
      </trkpt>
      <trkpt lat="47.27693" lon="-2.36747">
        <ele>2</ele>
        <time>2021-05-20T10:18:27.000Z</time>
      </trkpt>
      <trkpt lat="47.2769" lon="-2.36739">
        <ele>2.4000000953674</ele>
        <time>2021-05-20T10:18:28.000Z</time>
      </trkpt>
      <trkpt lat="47.27688" lon="-2.3673">
        <ele>2.7999999523163</ele>
        <time>2021-05-20T10:18:29.000Z</time>
      </trkpt>
      <trkpt lat="47.27682" lon="-2.36715">
        <ele>2.7999999523163</ele>
        <time>2021-05-20T10:18:31.000Z</time>
      </trkpt>
      <trkpt lat="47.27679" lon="-2.36707">
        <ele>2.7999999523163</ele>
        <time>2021-05-20T10:18:32.000Z</time>
      </trkpt>
      <trkpt lat="47.2766" lon="-2.36647">
        <ele>2.7999999523163</ele>
        <time>2021-05-20T10:18:39.000Z</time>
      </trkpt>
      <trkpt lat="47.27634" lon="-2.36573">
        <ele>2.7999999523163</ele>
        <time>2021-05-20T10:18:48.000Z</time>
      </trkpt>
      <trkpt lat="47.27619" lon="-2.36531">
        <ele>2.4000000953674</ele>
        <time>2021-05-20T10:18:53.000Z</time>
      </trkpt>
      <trkpt lat="47.27616" lon="-2.36523">
        <ele>2</ele>
        <time>2021-05-20T10:18:54.000Z</time>
      </trkpt>
      <trkpt lat="47.27613" lon="-2.36514">
        <ele>1.6000000238419</ele>
        <time>2021-05-20T10:18:55.000Z</time>
      </trkpt>
      <trkpt lat="47.2761" lon="-2.36506">
        <ele>1.2000000476837</ele>
        <time>2021-05-20T10:18:56.000Z</time>
      </trkpt>
      <trkpt lat="47.27606" lon="-2.36496">
        <ele>0.80000001192093</ele>
        <time>2021-05-20T10:18:57.000Z</time>
      </trkpt>
      <trkpt lat="47.27588" lon="-2.36445">
        <ele>0.80000001192093</ele>
        <time>2021-05-20T10:19:03.000Z</time>
      </trkpt>
      <trkpt lat="47.27568" lon="-2.36394">
        <ele>1.3999999761581</ele>
        <time>2021-05-20T10:19:09.000Z</time>
      </trkpt>
      <trkpt lat="47.27564" lon="-2.36386">
        <ele>1.7999999523163</ele>
        <time>2021-05-20T10:19:10.000Z</time>
      </trkpt>
      <trkpt lat="47.27562" lon="-2.36378">
        <ele>2.4000000953674</ele>
        <time>2021-05-20T10:19:11.000Z</time>
      </trkpt>
      <trkpt lat="47.27558" lon="-2.3637">
        <ele>2.7999999523163</ele>
        <time>2021-05-20T10:19:12.000Z</time>
      </trkpt>
      <trkpt lat="47.27555" lon="-2.36363">
        <ele>3.4000000953674</ele>
        <time>2021-05-20T10:19:13.000Z</time>
      </trkpt>
      <trkpt lat="47.2754" lon="-2.36325">
        <ele>3.4000000953674</ele>
        <time>2021-05-20T10:19:18.000Z</time>
      </trkpt>
      <trkpt lat="47.27524" lon="-2.36285">
        <ele>3</ele>
        <time>2021-05-20T10:19:23.000Z</time>
      </trkpt>
      <trkpt lat="47.27521" lon="-2.36277">
        <ele>2.5999999046326</ele>
        <time>2021-05-20T10:19:24.000Z</time>
      </trkpt>
      <trkpt lat="47.27518" lon="-2.36269">
        <ele>2.2000000476837</ele>
        <time>2021-05-20T10:19:25.000Z</time>
      </trkpt>
      <trkpt lat="47.27515" lon="-2.36262">
        <ele>1.6000000238419</ele>
        <time>2021-05-20T10:19:26.000Z</time>
      </trkpt>
      <trkpt lat="47.27512" lon="-2.36254">
        <ele>1.2000000476837</ele>
        <time>2021-05-20T10:19:27.000Z</time>
      </trkpt>
      <trkpt lat="47.27492" lon="-2.36202">
        <ele>1.2000000476837</ele>
        <time>2021-05-20T10:19:34.000Z</time>
      </trkpt>
      <trkpt lat="47.27471" lon="-2.36147">
        <ele>1.2000000476837</ele>
        <time>2021-05-20T10:19:41.000Z</time>
      </trkpt>
      <trkpt lat="47.27466" lon="-2.36131">
        <ele>1.2000000476837</ele>
        <time>2021-05-20T10:19:43.000Z</time>
      </trkpt>
      <trkpt lat="47.27459" lon="-2.36108">
        <ele>1.2000000476837</ele>
        <time>2021-05-20T10:19:46.000Z</time>
      </trkpt>
      <trkpt lat="47.27455" lon="-2.36101">
        <ele>1.2000000476837</ele>
        <time>2021-05-20T10:19:47.000Z</time>
      </trkpt>
      <trkpt lat="47.27442" lon="-2.36067">
        <ele>1.2000000476837</ele>
        <time>2021-05-20T10:19:52.000Z</time>
      </trkpt>
      <trkpt lat="47.27436" lon="-2.36053">
        <ele>1.2000000476837</ele>
        <time>2021-05-20T10:19:54.000Z</time>
      </trkpt>
      <trkpt lat="47.27427" lon="-2.36033">
        <ele>1.2000000476837</ele>
        <time>2021-05-20T10:19:57.000Z</time>
      </trkpt>
      <trkpt lat="47.2741" lon="-2.35991">
        <ele>1.2000000476837</ele>
        <time>2021-05-20T10:20:03.000Z</time>
      </trkpt>
      <trkpt lat="47.27384" lon="-2.35926">
        <ele>1.2000000476837</ele>
        <time>2021-05-20T10:20:11.000Z</time>
      </trkpt>
      <trkpt lat="47.27363" lon="-2.35869">
        <ele>0.80000001192093</ele>
        <time>2021-05-20T10:20:18.000Z</time>
      </trkpt>
      <trkpt lat="47.27359" lon="-2.35861">
        <ele>0.40000000596046</ele>
        <time>2021-05-20T10:20:19.000Z</time>
      </trkpt>
      <trkpt lat="47.27356" lon="-2.35853">
        <ele>6.6</ele>
        <time>2021-05-20T10:20:20.000Z</time>
      </trkpt>
      <trkpt lat="47.27353" lon="-2.35844">
        <ele>-0.40000000596046</ele>
        <time>2021-05-20T10:20:21.000Z</time>
      </trkpt>
      <trkpt lat="47.27349" lon="-2.35835">
        <ele>-0.80000001192093</ele>
        <time>2021-05-20T10:20:22.000Z</time>
      </trkpt>
      <trkpt lat="47.27343" lon="-2.35819">
        <ele>-0.80000001192093</ele>
        <time>2021-05-20T10:20:24.000Z</time>
      </trkpt>
      <trkpt lat="47.27327" lon="-2.35778">
        <ele>-0.80000001192093</ele>
        <time>2021-05-20T10:20:29.000Z</time>
      </trkpt>
      <trkpt lat="47.27319" lon="-2.35755">
        <ele>-0.80000001192093</ele>
        <time>2021-05-20T10:20:32.000Z</time>
      </trkpt>
      <trkpt lat="47.2731" lon="-2.35737">
        <ele>-0.80000001192093</ele>
        <time>2021-05-20T10:20:35.000Z</time>
      </trkpt>
      <trkpt lat="47.27308" lon="-2.3573">
        <ele>-0.80000001192093</ele>
        <time>2021-05-20T10:20:36.000Z</time>
      </trkpt>
      <trkpt lat="47.27316" lon="-2.35718">
        <ele>-0.80000001192093</ele>
        <time>2021-05-20T10:20:39.000Z</time>
      </trkpt>
      <trkpt lat="47.27322" lon="-2.35717">
        <ele>-0.80000001192093</ele>
        <time>2021-05-20T10:20:41.000Z</time>
      </trkpt>
      <trkpt lat="47.27325" lon="-2.35715">
        <ele>-0.80000001192093</ele>
        <time>2021-05-20T10:20:43.000Z</time>
      </trkpt>
      <trkpt lat="47.27325" lon="-2.35716">
        <ele>-0.80000001192093</ele>
        <time>2021-05-20T10:20:44.000Z</time>
      </trkpt>
      <trkpt lat="47.27328" lon="-2.35713">
        <ele>-0.80000001192093</ele>
        <time>2021-05-20T10:21:14.000Z</time>
      </trkpt>
      <trkpt lat="47.27331" lon="-2.35711">
        <ele>-0.80000001192093</ele>
        <time>2021-05-20T10:21:15.000Z</time>
      </trkpt>
      <trkpt lat="47.27341" lon="-2.35702">
        <ele>-0.80000001192093</ele>
        <time>2021-05-20T10:21:18.000Z</time>
      </trkpt>
      <trkpt lat="47.27346" lon="-2.35698">
        <ele>-0.80000001192093</ele>
        <time>2021-05-20T10:21:19.000Z</time>
      </trkpt>
      <trkpt lat="47.2735" lon="-2.35694">
        <ele>-0.80000001192093</ele>
        <time>2021-05-20T10:21:20.000Z</time>
      </trkpt>
      <trkpt lat="47.27368" lon="-2.35678">
        <ele>-0.80000001192093</ele>
        <time>2021-05-20T10:21:24.000Z</time>
      </trkpt>
      <trkpt lat="47.27405" lon="-2.35653">
        <ele>-0.80000001192093</ele>
        <time>2021-05-20T10:21:31.000Z</time>
      </trkpt>
      <trkpt lat="47.2742" lon="-2.35654">
        <ele>-0.80000001192093</ele>
        <time>2021-05-20T10:21:34.000Z</time>
      </trkpt>
      <trkpt lat="47.27431" lon="-2.35661">
        <ele>-0.80000001192093</ele>
        <time>2021-05-20T10:21:36.000Z</time>
      </trkpt>
      <trkpt lat="47.27444" lon="-2.35666">
        <ele>-0.80000001192093</ele>
        <time>2021-05-20T10:21:38.000Z</time>
      </trkpt>
      <trkpt lat="47.2748" lon="-2.35676">
        <ele>-0.80000001192093</ele>
        <time>2021-05-20T10:21:44.000Z</time>
      </trkpt>
      <trkpt lat="47.27517" lon="-2.35684">
        <ele>-0.40000000596046</ele>
        <time>2021-05-20T10:21:50.000Z</time>
      </trkpt>
      <trkpt lat="47.27523" lon="-2.35685">
        <ele>6.9</ele>
        <time>2021-05-20T10:21:51.000Z</time>
      </trkpt>
      <trkpt lat="47.27529" lon="-2.35687">
        <ele>0.60000002384186</ele>
        <time>2021-05-20T10:21:52.000Z</time>
      </trkpt>
      <trkpt lat="47.27535" lon="-2.35688">
        <ele>1</ele>
        <time>2021-05-20T10:21:53.000Z</time>
      </trkpt>
      <trkpt lat="47.2754" lon="-2.3569">
        <ele>1.3999999761581</ele>
        <time>2021-05-20T10:21:54.000Z</time>
      </trkpt>
      <trkpt lat="47.27558" lon="-2.35695">
        <ele>1.3999999761581</ele>
        <time>2021-05-20T10:21:57.000Z</time>
      </trkpt>
      <trkpt lat="47.276" lon="-2.35707">
        <ele>1.3999999761581</ele>
        <time>2021-05-20T10:22:04.000Z</time>
      </trkpt>
      <trkpt lat="47.27618" lon="-2.3571">
        <ele>1.3999999761581</ele>
        <time>2021-05-20T10:22:07.000Z</time>
      </trkpt>
      <trkpt lat="47.27631" lon="-2.35711">
        <ele>1.3999999761581</ele>
        <time>2021-05-20T10:22:09.000Z</time>
      </trkpt>
      <trkpt lat="47.27664" lon="-2.35721">
        <ele>1.3999999761581</ele>
        <time>2021-05-20T10:22:15.000Z</time>
      </trkpt>
      <trkpt lat="47.27674" lon="-2.35723">
        <ele>1.3999999761581</ele>
        <time>2021-05-20T10:22:17.000Z</time>
      </trkpt>
      <trkpt lat="47.27687" lon="-2.35724">
        <ele>1.3999999761581</ele>
        <time>2021-05-20T10:22:20.000Z</time>
      </trkpt>
      <trkpt lat="47.27692" lon="-2.3572">
        <ele>1.7999999523163</ele>
        <time>2021-05-20T10:22:21.000Z</time>
      </trkpt>
      <trkpt lat="47.27697" lon="-2.35716">
        <ele>2.2000000476837</ele>
        <time>2021-05-20T10:22:22.000Z</time>
      </trkpt>
      <trkpt lat="47.27702" lon="-2.35712">
        <ele>2.5999999046326</ele>
        <time>2021-05-20T10:22:23.000Z</time>
      </trkpt>
      <trkpt lat="47.27707" lon="-2.35707">
        <ele>3</ele>
        <time>2021-05-20T10:22:24.000Z</time>
      </trkpt>
      <trkpt lat="47.27712" lon="-2.35702">
        <ele>3.4000000953674</ele>
        <time>2021-05-20T10:22:25.000Z</time>
      </trkpt>
      <trkpt lat="47.27715" lon="-2.35697">
        <ele>3.4000000953674</ele>
        <time>2021-05-20T10:22:26.000Z</time>
      </trkpt>
      <trkpt lat="47.27723" lon="-2.35686">
        <ele>3.4000000953674</ele>
        <time>2021-05-20T10:22:28.000Z</time>
      </trkpt>
      <trkpt lat="47.27738" lon="-2.35664">
        <ele>4</ele>
        <time>2021-05-20T10:22:32.000Z</time>
      </trkpt>
      <trkpt lat="47.27742" lon="-2.35658">
        <ele>4.4000000953674</ele>
        <time>2021-05-20T10:22:33.000Z</time>
      </trkpt>
      <trkpt lat="47.27746" lon="-2.35652">
        <ele>4.8000001907349</ele>
        <time>2021-05-20T10:22:34.000Z</time>
      </trkpt>
      <trkpt lat="47.27751" lon="-2.35645">
        <ele>5.1999998092651</ele>
        <time>2021-05-20T10:22:35.000Z</time>
      </trkpt>
      <trkpt lat="47.27755" lon="-2.35639">
        <ele>5.5999999046326</ele>
        <time>2021-05-20T10:22:36.000Z</time>
      </trkpt>
      <trkpt lat="47.2777" lon="-2.35625">
        <ele>5.5999999046326</ele>
        <time>2021-05-20T10:22:39.000Z</time>
      </trkpt>
      <trkpt lat="47.27774" lon="-2.35621">
        <ele>5.5999999046326</ele>
        <time>2021-05-20T10:22:40.000Z</time>
      </trkpt>
      <trkpt lat="47.27795" lon="-2.35609">
        <ele>5.5999999046326</ele>
        <time>2021-05-20T10:22:44.000Z</time>
      </trkpt>
      <trkpt lat="47.278" lon="-2.35607">
        <ele>5.5999999046326</ele>
        <time>2021-05-20T10:22:45.000Z</time>
      </trkpt>
      <trkpt lat="47.27833" lon="-2.35598">
        <ele>6</ele>
        <time>2021-05-20T10:22:51.000Z</time>
      </trkpt>
      <trkpt lat="47.27838" lon="-2.35596">
        <ele>6.4000000953674</ele>
        <time>2021-05-20T10:22:52.000Z</time>
      </trkpt>
      <trkpt lat="47.27844" lon="-2.35595">
        <ele>6.8000001907349</ele>
        <time>2021-05-20T10:22:53.000Z</time>
      </trkpt>
      <trkpt lat="47.2785" lon="-2.35593">
        <ele>7.4000000953674</ele>
        <time>2021-05-20T10:22:54.000Z</time>
      </trkpt>
      <trkpt lat="47.27856" lon="-2.35591">
        <ele>7.8000001907349</ele>
        <time>2021-05-20T10:22:55.000Z</time>
      </trkpt>
      <trkpt lat="47.27873" lon="-2.35589">
        <ele>7.8000001907349</ele>
        <time>2021-05-20T10:22:58.000Z</time>
      </trkpt>
      <trkpt lat="47.27878" lon="-2.35589">
        <ele>7.8000001907349</ele>
        <time>2021-05-20T10:22:59.000Z</time>
      </trkpt>
      <trkpt lat="47.27899" lon="-2.35589">
        <ele>8.1999998092651</ele>
        <time>2021-05-20T10:23:03.000Z</time>
      </trkpt>
      <trkpt lat="47.27905" lon="-2.35588">
        <ele>8.6000003814697</ele>
        <time>2021-05-20T10:23:04.000Z</time>
      </trkpt>
      <trkpt lat="47.2791" lon="-2.35587">
        <ele>9</ele>
        <time>2021-05-20T10:23:05.000Z</time>
      </trkpt>
      <trkpt lat="47.27915" lon="-2.35587">
        <ele>9.3999996185303</ele>
        <time>2021-05-20T10:23:06.000Z</time>
      </trkpt>
      <trkpt lat="47.2792" lon="-2.35586">
        <ele>9.8000001907349</ele>
        <time>2021-05-20T10:23:07.000Z</time>
      </trkpt>
      <trkpt lat="47.2794" lon="-2.35582">
        <ele>9.8000001907349</ele>
        <time>2021-05-20T10:23:11.000Z</time>
      </trkpt>
      <trkpt lat="47.27949" lon="-2.35579">
        <ele>9.8000001907349</ele>
        <time>2021-05-20T10:23:13.000Z</time>
      </trkpt>
      <trkpt lat="47.27954" lon="-2.35577">
        <ele>10.39999961853</ele>
        <time>2021-05-20T10:23:14.000Z</time>
      </trkpt>
      <trkpt lat="47.27958" lon="-2.35576">
        <ele>11.199999809265</ele>
        <time>2021-05-20T10:23:15.000Z</time>
      </trkpt>
      <trkpt lat="47.27963" lon="-2.35574">
        <ele>11.60000038147</ele>
        <time>2021-05-20T10:23:16.000Z</time>
      </trkpt>
      <trkpt lat="47.27968" lon="-2.35573">
        <ele>12</ele>
        <time>2021-05-20T10:23:17.000Z</time>
      </trkpt>
      <trkpt lat="47.28005" lon="-2.35558">
        <ele>12</ele>
        <time>2021-05-20T10:23:25.000Z</time>
      </trkpt>
      <trkpt lat="47.2801" lon="-2.35558">
        <ele>12</ele>
        <time>2021-05-20T10:23:26.000Z</time>
      </trkpt>
      <trkpt lat="47.28018" lon="-2.35559">
        <ele>12</ele>
        <time>2021-05-20T10:23:28.000Z</time>
      </trkpt>
      <trkpt lat="47.28027" lon="-2.35565">
        <ele>12</ele>
        <time>2021-05-20T10:23:30.000Z</time>
      </trkpt>
      <trkpt lat="47.28046" lon="-2.35571">
        <ele>12</ele>
        <time>2021-05-20T10:23:35.000Z</time>
      </trkpt>
      <trkpt lat="47.28056" lon="-2.35575">
        <ele>12.39999961853</ele>
        <time>2021-05-20T10:23:38.000Z</time>
      </trkpt>
      <trkpt lat="47.28058" lon="-2.35578">
        <ele>12.800000190735</ele>
        <time>2021-05-20T10:23:39.000Z</time>
      </trkpt>
      <trkpt lat="47.28058" lon="-2.35579">
        <ele>13.60000038147</ele>
        <time>2021-05-20T10:23:40.000Z</time>
      </trkpt>
      <trkpt lat="47.28061" lon="-2.35582">
        <ele>14.199999809265</ele>
        <time>2021-05-20T10:23:41.000Z</time>
      </trkpt>
      <trkpt lat="47.28065" lon="-2.35589">
        <ele>14.199999809265</ele>
        <time>2021-05-20T10:23:44.000Z</time>
      </trkpt>
      <trkpt lat="47.28066" lon="-2.35591">
        <ele>14.199999809265</ele>
        <time>2021-05-20T10:23:45.000Z</time>
      </trkpt>
      <trkpt lat="47.28072" lon="-2.35599">
        <ele>14.199999809265</ele>
        <time>2021-05-20T10:23:50.000Z</time>
      </trkpt>
      <trkpt lat="47.28074" lon="-2.35603">
        <ele>14.199999809265</ele>
        <time>2021-05-20T10:23:54.000Z</time>
      </trkpt>
      <trkpt lat="47.2807" lon="-2.35597">
        <ele>16.39999961853</ele>
        <time>2021-05-20T10:25:01.000Z</time>
      </trkpt>
      <trkpt lat="47.28062" lon="-2.35585">
        <ele>16.39999961853</ele>
        <time>2021-05-20T10:25:06.000Z</time>
      </trkpt>
      <trkpt lat="47.28055" lon="-2.35583">
        <ele>16.39999961853</ele>
        <time>2021-05-20T10:25:08.000Z</time>
      </trkpt>
      <trkpt lat="47.28045" lon="-2.3558">
        <ele>16.39999961853</ele>
        <time>2021-05-20T10:25:11.000Z</time>
      </trkpt>
      <trkpt lat="47.28037" lon="-2.3558">
        <ele>16.39999961853</ele>
        <time>2021-05-20T10:25:14.000Z</time>
      </trkpt>
      <trkpt lat="47.28036" lon="-2.35583">
        <ele>16.39999961853</ele>
        <time>2021-05-20T10:25:15.000Z</time>
      </trkpt>
      <trkpt lat="47.28032" lon="-2.35575">
        <ele>16.39999961853</ele>
        <time>2021-05-20T10:25:19.000Z</time>
      </trkpt>
      <trkpt lat="47.28039" lon="-2.35575">
        <ele>16.39999961853</ele>
        <time>2021-05-20T10:25:22.000Z</time>
      </trkpt>
      <trkpt lat="47.28048" lon="-2.35579">
        <ele>16.39999961853</ele>
        <time>2021-05-20T10:25:26.000Z</time>
      </trkpt>
      <trkpt lat="47.28053" lon="-2.35581">
        <ele>16.39999961853</ele>
        <time>2021-05-20T10:25:28.000Z</time>
      </trkpt>
      <trkpt lat="47.28063" lon="-2.35585">
        <ele>16.39999961853</ele>
        <time>2021-05-20T10:25:34.000Z</time>
      </trkpt>
      <trkpt lat="47.28065" lon="-2.35587">
        <ele>16.39999961853</ele>
        <time>2021-05-20T10:25:35.000Z</time>
      </trkpt>
      <trkpt lat="47.28071" lon="-2.35594">
        <ele>16.39999961853</ele>
        <time>2021-05-20T10:25:39.000Z</time>
      </trkpt>
      <trkpt lat="47.2808" lon="-2.35607">
        <ele>16.39999961853</ele>
        <time>2021-05-20T10:25:47.000Z</time>
      </trkpt>
      <trkpt lat="47.28083" lon="-2.35614">
        <ele>16.39999961853</ele>
        <time>2021-05-20T10:25:52.000Z</time>
      </trkpt>
      <trkpt lat="47.2808" lon="-2.35608">
        <ele>16.39999961853</ele>
        <time>2021-05-20T10:27:59.000Z</time>
      </trkpt>
      <trkpt lat="47.2807" lon="-2.35594">
        <ele>16.39999961853</ele>
        <time>2021-05-20T10:28:05.000Z</time>
      </trkpt>
      <trkpt lat="47.28057" lon="-2.35581">
        <ele>16.39999961853</ele>
        <time>2021-05-20T10:28:10.000Z</time>
      </trkpt>
      <trkpt lat="47.28053" lon="-2.35579">
        <ele>16.39999961853</ele>
        <time>2021-05-20T10:28:11.000Z</time>
      </trkpt>
      <trkpt lat="47.28034" lon="-2.35572">
        <ele>16.39999961853</ele>
        <time>2021-05-20T10:28:15.000Z</time>
      </trkpt>
      <trkpt lat="47.28021" lon="-2.35559">
        <ele>16.39999961853</ele>
        <time>2021-05-20T10:28:18.000Z</time>
      </trkpt>
      <trkpt lat="47.28017" lon="-2.35556">
        <ele>16.39999961853</ele>
        <time>2021-05-20T10:28:19.000Z</time>
      </trkpt>
      <trkpt lat="47.28007" lon="-2.35557">
        <ele>15.800000190735</ele>
        <time>2021-05-20T10:28:21.000Z</time>
      </trkpt>
      <trkpt lat="47.28002" lon="-2.35559">
        <ele>15.39999961853</ele>
        <time>2021-05-20T10:28:22.000Z</time>
      </trkpt>
      <trkpt lat="47.27996" lon="-2.35561">
        <ele>15</ele>
        <time>2021-05-20T10:28:23.000Z</time>
      </trkpt>
      <trkpt lat="47.27991" lon="-2.35564">
        <ele>14.60000038147</ele>
        <time>2021-05-20T10:28:24.000Z</time>
      </trkpt>
      <trkpt lat="47.27985" lon="-2.35566">
        <ele>14.199999809265</ele>
        <time>2021-05-20T10:28:25.000Z</time>
      </trkpt>
      <trkpt lat="47.27969" lon="-2.35572">
        <ele>14.199999809265</ele>
        <time>2021-05-20T10:28:28.000Z</time>
      </trkpt>
      <trkpt lat="47.27963" lon="-2.35574">
        <ele>14.199999809265</ele>
        <time>2021-05-20T10:28:29.000Z</time>
      </trkpt>
      <trkpt lat="47.27938" lon="-2.35582">
        <ele>14.199999809265</ele>
        <time>2021-05-20T10:28:34.000Z</time>
      </trkpt>
      <trkpt lat="47.27891" lon="-2.35595">
        <ele>14.199999809265</ele>
        <time>2021-05-20T10:28:43.000Z</time>
      </trkpt>
      <trkpt lat="47.27842" lon="-2.35609">
        <ele>14.199999809265</ele>
        <time>2021-05-20T10:28:51.000Z</time>
      </trkpt>
      <trkpt lat="47.27807" lon="-2.35619">
        <ele>13.800000190735</ele>
        <time>2021-05-20T10:28:57.000Z</time>
      </trkpt>
      <trkpt lat="47.27801" lon="-2.3562">
        <ele>13.39999961853</ele>
        <time>2021-05-20T10:28:58.000Z</time>
      </trkpt>
      <trkpt lat="47.27796" lon="-2.35622">
        <ele>12.800000190735</ele>
        <time>2021-05-20T10:28:59.000Z</time>
      </trkpt>
      <trkpt lat="47.2779" lon="-2.35625">
        <ele>12.39999961853</ele>
        <time>2021-05-20T10:29:00.000Z</time>
      </trkpt>
      <trkpt lat="47.27785" lon="-2.35627">
        <ele>12</ele>
        <time>2021-05-20T10:29:01.000Z</time>
      </trkpt>
      <trkpt lat="47.27774" lon="-2.35634">
        <ele>12</ele>
        <time>2021-05-20T10:29:03.000Z</time>
      </trkpt>
      <trkpt lat="47.27769" lon="-2.35639">
        <ele>11.39999961853</ele>
        <time>2021-05-20T10:29:04.000Z</time>
      </trkpt>
      <trkpt lat="47.27765" lon="-2.35644">
        <ele>11</ele>
        <time>2021-05-20T10:29:05.000Z</time>
      </trkpt>
      <trkpt lat="47.2776" lon="-2.35649">
        <ele>10.60000038147</ele>
        <time>2021-05-20T10:29:06.000Z</time>
      </trkpt>
      <trkpt lat="47.27755" lon="-2.35655">
        <ele>10.199999809265</ele>
        <time>2021-05-20T10:29:07.000Z</time>
      </trkpt>
      <trkpt lat="47.27751" lon="-2.35662">
        <ele>9.8000001907349</ele>
        <time>2021-05-20T10:29:08.000Z</time>
      </trkpt>
      <trkpt lat="47.27743" lon="-2.35675">
        <ele>9.8000001907349</ele>
        <time>2021-05-20T10:29:10.000Z</time>
      </trkpt>
      <trkpt lat="47.2773" lon="-2.35694">
        <ele>9.8000001907349</ele>
        <time>2021-05-20T10:29:13.000Z</time>
      </trkpt>
      <trkpt lat="47.27721" lon="-2.35706">
        <ele>9.8000001907349</ele>
        <time>2021-05-20T10:29:15.000Z</time>
      </trkpt>
      <trkpt lat="47.27717" lon="-2.35711">
        <ele>9.8000001907349</ele>
        <time>2021-05-20T10:29:16.000Z</time>
      </trkpt>
      <trkpt lat="47.27693" lon="-2.35732">
        <ele>9.3999996185303</ele>
        <time>2021-05-20T10:29:21.000Z</time>
      </trkpt>
      <trkpt lat="47.27689" lon="-2.35736">
        <ele>9</ele>
        <time>2021-05-20T10:29:22.000Z</time>
      </trkpt>
      <trkpt lat="47.27685" lon="-2.3574">
        <ele>8.6000003814697</ele>
        <time>2021-05-20T10:29:23.000Z</time>
      </trkpt>
      <trkpt lat="47.27681" lon="-2.35743">
        <ele>7.8000001907349</ele>
        <time>2021-05-20T10:29:24.000Z</time>
      </trkpt>
      <trkpt lat="47.27677" lon="-2.35746">
        <ele>7.1999998092651</ele>
        <time>2021-05-20T10:29:25.000Z</time>
      </trkpt>
      <trkpt lat="47.27673" lon="-2.35747">
        <ele>6</ele>
        <time>2021-05-20T10:29:26.000Z</time>
      </trkpt>
      <trkpt lat="47.27669" lon="-2.35745">
        <ele>5.4000000953674</ele>
        <time>2021-05-20T10:29:27.000Z</time>
      </trkpt>
      <trkpt lat="47.27661" lon="-2.35734">
        <ele>5.4000000953674</ele>
        <time>2021-05-20T10:29:29.000Z</time>
      </trkpt>
      <trkpt lat="47.27643" lon="-2.35719">
        <ele>5.4000000953674</ele>
        <time>2021-05-20T10:29:33.000Z</time>
      </trkpt>
      <trkpt lat="47.27631" lon="-2.35715">
        <ele>5.4000000953674</ele>
        <time>2021-05-20T10:29:35.000Z</time>
      </trkpt>
      <trkpt lat="47.27608" lon="-2.3571">
        <ele>5.4000000953674</ele>
        <time>2021-05-20T10:29:39.000Z</time>
      </trkpt>
      <trkpt lat="47.27555" lon="-2.35698">
        <ele>4.8000001907349</ele>
        <time>2021-05-20T10:29:48.000Z</time>
      </trkpt>
      <trkpt lat="47.27549" lon="-2.35697">
        <ele>4.4000000953674</ele>
        <time>2021-05-20T10:29:49.000Z</time>
      </trkpt>
      <trkpt lat="47.27543" lon="-2.35695">
        <ele>4</ele>
        <time>2021-05-20T10:29:50.000Z</time>
      </trkpt>
      <trkpt lat="47.27537" lon="-2.35695">
        <ele>3.2000000476837</ele>
        <time>2021-05-20T10:29:51.000Z</time>
      </trkpt>
      <trkpt lat="47.27513" lon="-2.35689">
        <ele>3.2000000476837</ele>
        <time>2021-05-20T10:29:55.000Z</time>
      </trkpt>
      <trkpt lat="47.27474" lon="-2.35679">
        <ele>3.2000000476837</ele>
        <time>2021-05-20T10:30:01.000Z</time>
      </trkpt>
      <trkpt lat="47.27462" lon="-2.35675">
        <ele>3.2000000476837</ele>
        <time>2021-05-20T10:30:03.000Z</time>
      </trkpt>
      <trkpt lat="47.2744" lon="-2.35671">
        <ele>3.2000000476837</ele>
        <time>2021-05-20T10:30:07.000Z</time>
      </trkpt>
      <trkpt lat="47.2742" lon="-2.35666">
        <ele>3.2000000476837</ele>
        <time>2021-05-20T10:30:11.000Z</time>
      </trkpt>
      <trkpt lat="47.27415" lon="-2.35667">
        <ele>3.2000000476837</ele>
        <time>2021-05-20T10:30:12.000Z</time>
      </trkpt>
      <trkpt lat="47.27393" lon="-2.35675">
        <ele>3.2000000476837</ele>
        <time>2021-05-20T10:30:16.000Z</time>
      </trkpt>
      <trkpt lat="47.27389" lon="-2.35679">
        <ele>3.2000000476837</ele>
        <time>2021-05-20T10:30:17.000Z</time>
      </trkpt>
      <trkpt lat="47.2738" lon="-2.35685">
        <ele>3.5999999046326</ele>
        <time>2021-05-20T10:30:19.000Z</time>
      </trkpt>
      <trkpt lat="47.27375" lon="-2.35688">
        <ele>4.1999998092651</ele>
        <time>2021-05-20T10:30:20.000Z</time>
      </trkpt>
      <trkpt lat="47.2737" lon="-2.35691">
        <ele>4.5999999046326</ele>
        <time>2021-05-20T10:30:21.000Z</time>
      </trkpt>
      <trkpt lat="47.27366" lon="-2.35695">
        <ele>5.1999998092651</ele>
        <time>2021-05-20T10:30:22.000Z</time>
      </trkpt>
      <trkpt lat="47.27362" lon="-2.35698">
        <ele>5.5999999046326</ele>
        <time>2021-05-20T10:30:23.000Z</time>
      </trkpt>
      <trkpt lat="47.27358" lon="-2.35701">
        <ele>5.5999999046326</ele>
        <time>2021-05-20T10:30:24.000Z</time>
      </trkpt>
      <trkpt lat="47.27343" lon="-2.35711">
        <ele>5.1999998092651</ele>
        <time>2021-05-20T10:30:28.000Z</time>
      </trkpt>
      <trkpt lat="47.27339" lon="-2.35713">
        <ele>4.8000001907349</ele>
        <time>2021-05-20T10:30:29.000Z</time>
      </trkpt>
      <trkpt lat="47.27336" lon="-2.35716">
        <ele>4.4000000953674</ele>
        <time>2021-05-20T10:30:30.000Z</time>
      </trkpt>
      <trkpt lat="47.27332" lon="-2.35719">
        <ele>3.7999999523163</ele>
        <time>2021-05-20T10:30:31.000Z</time>
      </trkpt>
      <trkpt lat="47.2733" lon="-2.35722">
        <ele>3</ele>
        <time>2021-05-20T10:30:32.000Z</time>
      </trkpt>
      <trkpt lat="47.27327" lon="-2.35726">
        <ele>2</ele>
        <time>2021-05-20T10:30:33.000Z</time>
      </trkpt>
      <trkpt lat="47.27325" lon="-2.3573">
        <ele>1</ele>
        <time>2021-05-20T10:30:34.000Z</time>
      </trkpt>
      <trkpt lat="47.27322" lon="-2.35734">
        <ele>0.20000000298023</ele>
        <time>2021-05-20T10:30:35.000Z</time>
      </trkpt>
      <trkpt lat="47.2732" lon="-2.35738">
        <ele>-0.80000001192093</ele>
        <time>2021-05-20T10:30:36.000Z</time>
      </trkpt>
      <trkpt lat="47.27317" lon="-2.3574">
        <ele>-1.7999999523163</ele>
        <time>2021-05-20T10:30:37.000Z</time>
      </trkpt>
      <trkpt lat="47.27313" lon="-2.35741">
        <ele>-1.7999999523163</ele>
        <time>2021-05-20T10:30:38.000Z</time>
      </trkpt>
      <trkpt lat="47.2731" lon="-2.35738">
        <ele>-1.7999999523163</ele>
        <time>2021-05-20T10:30:39.000Z</time>
      </trkpt>
      <trkpt lat="47.273" lon="-2.35717">
        <ele>-1.7999999523163</ele>
        <time>2021-05-20T10:30:43.000Z</time>
      </trkpt>
      <trkpt lat="47.27298" lon="-2.35711">
        <ele>-1.7999999523163</ele>
        <time>2021-05-20T10:30:44.000Z</time>
      </trkpt>
      <trkpt lat="47.27286" lon="-2.35689">
        <ele>-1.7999999523163</ele>
        <time>2021-05-20T10:30:48.000Z</time>
      </trkpt>
      <trkpt lat="47.27272" lon="-2.35659">
        <ele>-1.7999999523163</ele>
        <time>2021-05-20T10:30:53.000Z</time>
      </trkpt>
      <trkpt lat="47.27262" lon="-2.35635">
        <ele>-1.7999999523163</ele>
        <time>2021-05-20T10:30:57.000Z</time>
      </trkpt>
      <trkpt lat="47.2724" lon="-2.35585">
        <ele>-1.7999999523163</ele>
        <time>2021-05-20T10:31:05.000Z</time>
      </trkpt>
      <trkpt lat="47.27232" lon="-2.35566">
        <ele>-1.3999999761581</ele>
        <time>2021-05-20T10:31:08.000Z</time>
      </trkpt>
      <trkpt lat="47.27229" lon="-2.3556">
        <ele>-0.80000001192093</ele>
        <time>2021-05-20T10:31:09.000Z</time>
      </trkpt>
      <trkpt lat="47.27227" lon="-2.35554">
        <ele>-0.40000000596046</ele>
        <time>2021-05-20T10:31:10.000Z</time>
      </trkpt>
      <trkpt lat="47.27224" lon="-2.35548">
        <ele>6.7</ele>
        <time>2021-05-20T10:31:11.000Z</time>
      </trkpt>
      <trkpt lat="47.27221" lon="-2.35541">
        <ele>0.40000000596046</ele>
        <time>2021-05-20T10:31:12.000Z</time>
      </trkpt>
      <trkpt lat="47.27215" lon="-2.3553">
        <ele>0.40000000596046</ele>
        <time>2021-05-20T10:31:14.000Z</time>
      </trkpt>
      <trkpt lat="47.27192" lon="-2.35481">
        <ele>0.40000000596046</ele>
        <time>2021-05-20T10:31:22.000Z</time>
      </trkpt>
      <trkpt lat="47.27158" lon="-2.35415">
        <ele>0.40000000596046</ele>
        <time>2021-05-20T10:31:32.000Z</time>
      </trkpt>
      <trkpt lat="47.2713" lon="-2.35364">
        <ele>0.40000000596046</ele>
        <time>2021-05-20T10:31:40.000Z</time>
      </trkpt>
      <trkpt lat="47.27097" lon="-2.3531">
        <ele>0.40000000596046</ele>
        <time>2021-05-20T10:31:49.000Z</time>
      </trkpt>
      <trkpt lat="47.27067" lon="-2.35262">
        <ele>0.40000000596046</ele>
        <time>2021-05-20T10:31:58.000Z</time>
      </trkpt>
      <trkpt lat="47.27039" lon="-2.35215">
        <ele>0.40000000596046</ele>
        <time>2021-05-20T10:32:07.000Z</time>
      </trkpt>
      <trkpt lat="47.27031" lon="-2.352">
        <ele>6.8</ele>
        <time>2021-05-20T10:32:10.000Z</time>
      </trkpt>
      <trkpt lat="47.27029" lon="-2.35195">
        <ele>-0.40000000596046</ele>
        <time>2021-05-20T10:32:11.000Z</time>
      </trkpt>
      <trkpt lat="47.27028" lon="-2.3519">
        <ele>-0.80000001192093</ele>
        <time>2021-05-20T10:32:12.000Z</time>
      </trkpt>
      <trkpt lat="47.27026" lon="-2.35187">
        <ele>-1.2000000476837</ele>
        <time>2021-05-20T10:32:13.000Z</time>
      </trkpt>
      <trkpt lat="47.27026" lon="-2.35184">
        <ele>-1.7999999523163</ele>
        <time>2021-05-20T10:32:14.000Z</time>
      </trkpt>
      <trkpt lat="47.27026" lon="-2.35183">
        <ele>-1.7999999523163</ele>
        <time>2021-05-20T10:32:15.000Z</time>
      </trkpt>
      <trkpt lat="47.27027" lon="-2.35182">
        <ele>-1.7999999523163</ele>
        <time>2021-05-20T10:32:16.000Z</time>
      </trkpt>
      <trkpt lat="47.27037" lon="-2.35172">
        <ele>-1.7999999523163</ele>
        <time>2021-05-20T10:32:20.000Z</time>
      </trkpt>
      <trkpt lat="47.27043" lon="-2.35163">
        <ele>-1.2000000476837</ele>
        <time>2021-05-20T10:32:22.000Z</time>
      </trkpt>
      <trkpt lat="47.27047" lon="-2.35159">
        <ele>-0.80000001192093</ele>
        <time>2021-05-20T10:32:23.000Z</time>
      </trkpt>
      <trkpt lat="47.27051" lon="-2.35154">
        <ele>-0.20000000298023</ele>
        <time>2021-05-20T10:32:24.000Z</time>
      </trkpt>
      <trkpt lat="47.27055" lon="-2.35149">
        <ele>0.20000000298023</ele>
        <time>2021-05-20T10:32:25.000Z</time>
      </trkpt>
      <trkpt lat="47.27059" lon="-2.35144">
        <ele>0.80000001192093</ele>
        <time>2021-05-20T10:32:26.000Z</time>
      </trkpt>
      <trkpt lat="47.27078" lon="-2.35125">
        <ele>0.80000001192093</ele>
        <time>2021-05-20T10:32:31.000Z</time>
      </trkpt>
      <trkpt lat="47.27091" lon="-2.35112">
        <ele>0.80000001192093</ele>
        <time>2021-05-20T10:32:35.000Z</time>
      </trkpt>
      <trkpt lat="47.27095" lon="-2.35109">
        <ele>0.80000001192093</ele>
        <time>2021-05-20T10:32:36.000Z</time>
      </trkpt>
      <trkpt lat="47.27115" lon="-2.35088">
        <ele>0.80000001192093</ele>
        <time>2021-05-20T10:32:41.000Z</time>
      </trkpt>
      <trkpt lat="47.27118" lon="-2.35085">
        <ele>0.80000001192093</ele>
        <time>2021-05-20T10:32:42.000Z</time>
      </trkpt>
      <trkpt lat="47.27128" lon="-2.35073">
        <ele>0.80000001192093</ele>
        <time>2021-05-20T10:32:45.000Z</time>
      </trkpt>
      <trkpt lat="47.27134" lon="-2.35064">
        <ele>1.2000000476837</ele>
        <time>2021-05-20T10:32:47.000Z</time>
      </trkpt>
      <trkpt lat="47.27136" lon="-2.35059">
        <ele>1.6000000238419</ele>
        <time>2021-05-20T10:32:48.000Z</time>
      </trkpt>
      <trkpt lat="47.27138" lon="-2.35052">
        <ele>2</ele>
        <time>2021-05-20T10:32:49.000Z</time>
      </trkpt>
      <trkpt lat="47.27138" lon="-2.35046">
        <ele>2.4000000953674</ele>
        <time>2021-05-20T10:32:50.000Z</time>
      </trkpt>
      <trkpt lat="47.27137" lon="-2.3504">
        <ele>2.7999999523163</ele>
        <time>2021-05-20T10:32:51.000Z</time>
      </trkpt>
      <trkpt lat="47.27135" lon="-2.35034">
        <ele>2.7999999523163</ele>
        <time>2021-05-20T10:32:52.000Z</time>
      </trkpt>
      <trkpt lat="47.27132" lon="-2.35022">
        <ele>2.7999999523163</ele>
        <time>2021-05-20T10:32:54.000Z</time>
      </trkpt>
      <trkpt lat="47.27127" lon="-2.35003">
        <ele>3.2000000476837</ele>
        <time>2021-05-20T10:32:57.000Z</time>
      </trkpt>
      <trkpt lat="47.27125" lon="-2.34997">
        <ele>3.7999999523163</ele>
        <time>2021-05-20T10:32:58.000Z</time>
      </trkpt>
      <trkpt lat="47.27123" lon="-2.34991">
        <ele>4.1999998092651</ele>
        <time>2021-05-20T10:32:59.000Z</time>
      </trkpt>
      <trkpt lat="47.27121" lon="-2.34984">
        <ele>4.5999999046326</ele>
        <time>2021-05-20T10:33:00.000Z</time>
      </trkpt>
      <trkpt lat="47.27119" lon="-2.34977">
        <ele>5.1999998092651</ele>
        <time>2021-05-20T10:33:01.000Z</time>
      </trkpt>
      <trkpt lat="47.27117" lon="-2.34971">
        <ele>5.1999998092651</ele>
        <time>2021-05-20T10:33:02.000Z</time>
      </trkpt>
      <trkpt lat="47.27111" lon="-2.34957">
        <ele>5.1999998092651</ele>
        <time>2021-05-20T10:33:04.000Z</time>
      </trkpt>
      <trkpt lat="47.27109" lon="-2.34951">
        <ele>5.1999998092651</ele>
        <time>2021-05-20T10:33:05.000Z</time>
      </trkpt>
      <trkpt lat="47.27102" lon="-2.34923">
        <ele>5.1999998092651</ele>
        <time>2021-05-20T10:33:09.000Z</time>
      </trkpt>
      <trkpt lat="47.27085" lon="-2.34868">
        <ele>5.1999998092651</ele>
        <time>2021-05-20T10:33:17.000Z</time>
      </trkpt>
      <trkpt lat="47.27068" lon="-2.34809">
        <ele>5.1999998092651</ele>
        <time>2021-05-20T10:33:25.000Z</time>
      </trkpt>
      <trkpt lat="47.27048" lon="-2.34739">
        <ele>5.1999998092651</ele>
        <time>2021-05-20T10:33:34.000Z</time>
      </trkpt>
      <trkpt lat="47.2703" lon="-2.34672">
        <ele>5.1999998092651</ele>
        <time>2021-05-20T10:33:43.000Z</time>
      </trkpt>
      <trkpt lat="47.27018" lon="-2.34618">
        <ele>5.1999998092651</ele>
        <time>2021-05-20T10:33:50.000Z</time>
      </trkpt>
      <trkpt lat="47.27002" lon="-2.34566">
        <ele>5.1999998092651</ele>
        <time>2021-05-20T10:33:57.000Z</time>
      </trkpt>
      <trkpt lat="47.26998" lon="-2.34551">
        <ele>5.1999998092651</ele>
        <time>2021-05-20T10:33:59.000Z</time>
      </trkpt>
      <trkpt lat="47.26991" lon="-2.34523">
        <ele>5.1999998092651</ele>
        <time>2021-05-20T10:34:03.000Z</time>
      </trkpt>
      <trkpt lat="47.26988" lon="-2.34489">
        <ele>5.1999998092651</ele>
        <time>2021-05-20T10:34:08.000Z</time>
      </trkpt>
      <trkpt lat="47.26989" lon="-2.34484">
        <ele>5.1999998092651</ele>
        <time>2021-05-20T10:34:09.000Z</time>
      </trkpt>
      <trkpt lat="47.26998" lon="-2.34475">
        <ele>5.1999998092651</ele>
        <time>2021-05-20T10:34:12.000Z</time>
      </trkpt>
      <trkpt lat="47.27016" lon="-2.34465">
        <ele>5.1999998092651</ele>
        <time>2021-05-20T10:34:16.000Z</time>
      </trkpt>
      <trkpt lat="47.27024" lon="-2.34456">
        <ele>5.1999998092651</ele>
        <time>2021-05-20T10:34:18.000Z</time>
      </trkpt>
      <trkpt lat="47.27028" lon="-2.34436">
        <ele>5.1999998092651</ele>
        <time>2021-05-20T10:34:21.000Z</time>
      </trkpt>
      <trkpt lat="47.27023" lon="-2.34405">
        <ele>5.1999998092651</ele>
        <time>2021-05-20T10:34:25.000Z</time>
      </trkpt>
      <trkpt lat="47.2701" lon="-2.34346">
        <ele>5.1999998092651</ele>
        <time>2021-05-20T10:34:33.000Z</time>
      </trkpt>
      <trkpt lat="47.27008" lon="-2.34319">
        <ele>5.1999998092651</ele>
        <time>2021-05-20T10:34:38.000Z</time>
      </trkpt>
      <trkpt lat="47.27006" lon="-2.343">
        <ele>4.8000001907349</ele>
        <time>2021-05-20T10:34:42.000Z</time>
      </trkpt>
      <trkpt lat="47.27006" lon="-2.34293">
        <ele>4.4000000953674</ele>
        <time>2021-05-20T10:34:43.000Z</time>
      </trkpt>
      <trkpt lat="47.27006" lon="-2.34286">
        <ele>3.7999999523163</ele>
        <time>2021-05-20T10:34:44.000Z</time>
      </trkpt>
      <trkpt lat="47.27006" lon="-2.34279">
        <ele>3</ele>
        <time>2021-05-20T10:34:45.000Z</time>
      </trkpt>
      <trkpt lat="47.27003" lon="-2.34265">
        <ele>3</ele>
        <time>2021-05-20T10:34:47.000Z</time>
      </trkpt>
      <trkpt lat="47.26991" lon="-2.34211">
        <ele>3</ele>
        <time>2021-05-20T10:34:54.000Z</time>
      </trkpt>
      <trkpt lat="47.26977" lon="-2.34148">
        <ele>3</ele>
        <time>2021-05-20T10:35:02.000Z</time>
      </trkpt>
      <trkpt lat="47.26963" lon="-2.34094">
        <ele>3</ele>
        <time>2021-05-20T10:35:09.000Z</time>
      </trkpt>
      <trkpt lat="47.26949" lon="-2.34031">
        <ele>3</ele>
        <time>2021-05-20T10:35:17.000Z</time>
      </trkpt>
      <trkpt lat="47.2694" lon="-2.33992">
        <ele>3</ele>
        <time>2021-05-20T10:35:22.000Z</time>
      </trkpt>
      <trkpt lat="47.26931" lon="-2.33953">
        <ele>3</ele>
        <time>2021-05-20T10:35:27.000Z</time>
      </trkpt>
      <trkpt lat="47.26926" lon="-2.33936">
        <ele>3</ele>
        <time>2021-05-20T10:35:29.000Z</time>
      </trkpt>
      <trkpt lat="47.26913" lon="-2.33876">
        <ele>3</ele>
        <time>2021-05-20T10:35:36.000Z</time>
      </trkpt>
      <trkpt lat="47.26898" lon="-2.33812">
        <ele>3</ele>
        <time>2021-05-20T10:35:44.000Z</time>
      </trkpt>
      <trkpt lat="47.26896" lon="-2.33806">
        <ele>2.5999999046326</ele>
        <time>2021-05-20T10:35:45.000Z</time>
      </trkpt>
      <trkpt lat="47.26893" lon="-2.338">
        <ele>2.2000000476837</ele>
        <time>2021-05-20T10:35:46.000Z</time>
      </trkpt>
      <trkpt lat="47.26889" lon="-2.33795">
        <ele>1.7999999523163</ele>
        <time>2021-05-20T10:35:47.000Z</time>
      </trkpt>
      <trkpt lat="47.26885" lon="-2.33791">
        <ele>1.3999999761581</ele>
        <time>2021-05-20T10:35:48.000Z</time>
      </trkpt>
      <trkpt lat="47.2688" lon="-2.33788">
        <ele>1</ele>
        <time>2021-05-20T10:35:49.000Z</time>
      </trkpt>
      <trkpt lat="47.26871" lon="-2.33784">
        <ele>1</ele>
        <time>2021-05-20T10:35:51.000Z</time>
      </trkpt>
      <trkpt lat="47.26862" lon="-2.3378">
        <ele>1</ele>
        <time>2021-05-20T10:35:53.000Z</time>
      </trkpt>
      <trkpt lat="47.26838" lon="-2.33771">
        <ele>1</ele>
        <time>2021-05-20T10:35:59.000Z</time>
      </trkpt>
      <trkpt lat="47.26835" lon="-2.33768">
        <ele>1</ele>
        <time>2021-05-20T10:36:00.000Z</time>
      </trkpt>
      <trkpt lat="47.26829" lon="-2.33759">
        <ele>1</ele>
        <time>2021-05-20T10:36:02.000Z</time>
      </trkpt>
      <trkpt lat="47.26823" lon="-2.33751">
        <ele>1</ele>
        <time>2021-05-20T10:36:04.000Z</time>
      </trkpt>
      <trkpt lat="47.26804" lon="-2.33729">
        <ele>1</ele>
        <time>2021-05-20T10:36:09.000Z</time>
      </trkpt>
      <trkpt lat="47.26781" lon="-2.33705">
        <ele>1</ele>
        <time>2021-05-20T10:36:15.000Z</time>
      </trkpt>
      <trkpt lat="47.26778" lon="-2.33699">
        <ele>1</ele>
        <time>2021-05-20T10:36:16.000Z</time>
      </trkpt>
      <trkpt lat="47.26775" lon="-2.33668">
        <ele>1</ele>
        <time>2021-05-20T10:36:20.000Z</time>
      </trkpt>
      <trkpt lat="47.26775" lon="-2.33659">
        <ele>1</ele>
        <time>2021-05-20T10:36:21.000Z</time>
      </trkpt>
      <trkpt lat="47.26776" lon="-2.33608">
        <ele>1</ele>
        <time>2021-05-20T10:36:26.000Z</time>
      </trkpt>
      <trkpt lat="47.26775" lon="-2.33549">
        <ele>0.60000002384186</ele>
        <time>2021-05-20T10:36:32.000Z</time>
      </trkpt>
      <trkpt lat="47.26773" lon="-2.3354">
        <ele>3.6</ele>
        <time>2021-05-20T10:36:33.000Z</time>
      </trkpt>
      <trkpt lat="47.26772" lon="-2.3353">
        <ele>-0.60000002384186</ele>
        <time>2021-05-20T10:36:34.000Z</time>
      </trkpt>
      <trkpt lat="47.2677" lon="-2.33521">
        <ele>-1</ele>
        <time>2021-05-20T10:36:35.000Z</time>
      </trkpt>
      <trkpt lat="47.26769" lon="-2.33512">
        <ele>-1.6000000238419</ele>
        <time>2021-05-20T10:36:36.000Z</time>
      </trkpt>
      <trkpt lat="47.26764" lon="-2.33484">
        <ele>-1.6000000238419</ele>
        <time>2021-05-20T10:36:39.000Z</time>
      </trkpt>
      <trkpt lat="47.26757" lon="-2.33431">
        <ele>-1.6000000238419</ele>
        <time>2021-05-20T10:36:45.000Z</time>
      </trkpt>
      <trkpt lat="47.26752" lon="-2.3338">
        <ele>-2</ele>
        <time>2021-05-20T10:36:51.000Z</time>
      </trkpt>
      <trkpt lat="47.26751" lon="-2.33371">
        <ele>-2.4000000953674</ele>
        <time>2021-05-20T10:36:52.000Z</time>
      </trkpt>
      <trkpt lat="47.2675" lon="-2.33362">
        <ele>-2.7999999523163</ele>
        <time>2021-05-20T10:36:53.000Z</time>
      </trkpt>
      <trkpt lat="47.26749" lon="-2.33354">
        <ele>-3.2000000476837</ele>
        <time>2021-05-20T10:36:54.000Z</time>
      </trkpt>
      <trkpt lat="47.26748" lon="-2.33345">
        <ele>-3.5999999046326</ele>
        <time>2021-05-20T10:36:55.000Z</time>
      </trkpt>
      <trkpt lat="47.26747" lon="-2.33337">
        <ele>-3.5999999046326</ele>
        <time>2021-05-20T10:36:56.000Z</time>
      </trkpt>
      <trkpt lat="47.2674" lon="-2.33312">
        <ele>-3.5999999046326</ele>
        <time>2021-05-20T10:36:59.000Z</time>
      </trkpt>
      <trkpt lat="47.26738" lon="-2.33304">
        <ele>-3.5999999046326</ele>
        <time>2021-05-20T10:37:00.000Z</time>
      </trkpt>
      <trkpt lat="47.26733" lon="-2.33288">
        <ele>-3.5999999046326</ele>
        <time>2021-05-20T10:37:02.000Z</time>
      </trkpt>
      <trkpt lat="47.26732" lon="-2.3328">
        <ele>-3.5999999046326</ele>
        <time>2021-05-20T10:37:03.000Z</time>
      </trkpt>
      <trkpt lat="47.26729" lon="-2.33264">
        <ele>-3.5999999046326</ele>
        <time>2021-05-20T10:37:05.000Z</time>
      </trkpt>
      <trkpt lat="47.26732" lon="-2.33238">
        <ele>-3.5999999046326</ele>
        <time>2021-05-20T10:37:08.000Z</time>
      </trkpt>
      <trkpt lat="47.26746" lon="-2.33191">
        <ele>-3.5999999046326</ele>
        <time>2021-05-20T10:37:14.000Z</time>
      </trkpt>
      <trkpt lat="47.2676" lon="-2.33141">
        <ele>-3.5999999046326</ele>
        <time>2021-05-20T10:37:20.000Z</time>
      </trkpt>
      <trkpt lat="47.26763" lon="-2.33125">
        <ele>-3.5999999046326</ele>
        <time>2021-05-20T10:37:22.000Z</time>
      </trkpt>
      <trkpt lat="47.26763" lon="-2.33101">
        <ele>-3.5999999046326</ele>
        <time>2021-05-20T10:37:25.000Z</time>
      </trkpt>
      <trkpt lat="47.26754" lon="-2.33085">
        <ele>-3.5999999046326</ele>
        <time>2021-05-20T10:37:28.000Z</time>
      </trkpt>
      <trkpt lat="47.26742" lon="-2.33091">
        <ele>-3.5999999046326</ele>
        <time>2021-05-20T10:37:31.000Z</time>
      </trkpt>
      <trkpt lat="47.26735" lon="-2.33099">
        <ele>-3.5999999046326</ele>
        <time>2021-05-20T10:37:33.000Z</time>
      </trkpt>
      <trkpt lat="47.26732" lon="-2.33103">
        <ele>-3.2000000476837</ele>
        <time>2021-05-20T10:37:34.000Z</time>
      </trkpt>
      <trkpt lat="47.26728" lon="-2.33107">
        <ele>-2.7999999523163</ele>
        <time>2021-05-20T10:37:35.000Z</time>
      </trkpt>
      <trkpt lat="47.26724" lon="-2.33111">
        <ele>-2.4000000953674</ele>
        <time>2021-05-20T10:37:36.000Z</time>
      </trkpt>
      <trkpt lat="47.26721" lon="-2.33115">
        <ele>-2</ele>
        <time>2021-05-20T10:37:37.000Z</time>
      </trkpt>
      <trkpt lat="47.26717" lon="-2.33117">
        <ele>-1.6000000238419</ele>
        <time>2021-05-20T10:37:38.000Z</time>
      </trkpt>
      <trkpt lat="47.26713" lon="-2.33115">
        <ele>-1.6000000238419</ele>
        <time>2021-05-20T10:37:40.000Z</time>
      </trkpt>
      <trkpt lat="47.26713" lon="-2.33104">
        <ele>-1.6000000238419</ele>
        <time>2021-05-20T10:37:44.000Z</time>
      </trkpt>
      <trkpt lat="47.26718" lon="-2.33096">
        <ele>-1.6000000238419</ele>
        <time>2021-05-20T10:37:46.000Z</time>
      </trkpt>
      <trkpt lat="47.2672" lon="-2.33092">
        <ele>-1.6000000238419</ele>
        <time>2021-05-20T10:37:47.000Z</time>
      </trkpt>
      <trkpt lat="47.26724" lon="-2.33088">
        <ele>-1.6000000238419</ele>
        <time>2021-05-20T10:37:48.000Z</time>
      </trkpt>
      <trkpt lat="47.2674" lon="-2.33071">
        <ele>-1.6000000238419</ele>
        <time>2021-05-20T10:37:54.000Z</time>
      </trkpt>
      <trkpt lat="47.2674" lon="-2.3307">
        <ele>-1.6000000238419</ele>
        <time>2021-05-20T10:37:56.000Z</time>
      </trkpt>
      <trkpt lat="47.2674" lon="-2.33068">
        <ele>-1.6000000238419</ele>
        <time>2021-05-20T10:37:57.000Z</time>
      </trkpt>
      <trkpt lat="47.26738" lon="-2.33062">
        <ele>-1.6000000238419</ele>
        <time>2021-05-20T10:38:00.000Z</time>
      </trkpt>
      <trkpt lat="47.26734" lon="-2.33059">
        <ele>-2</ele>
        <time>2021-05-20T10:38:02.000Z</time>
      </trkpt>
      <trkpt lat="47.26732" lon="-2.33057">
        <ele>-2.7999999523163</ele>
        <time>2021-05-20T10:38:03.000Z</time>
      </trkpt>
      <trkpt lat="47.26731" lon="-2.33054">
        <ele>-3.2000000476837</ele>
        <time>2021-05-20T10:38:04.000Z</time>
      </trkpt>
      <trkpt lat="47.2673" lon="-2.3305">
        <ele>-3.5999999046326</ele>
        <time>2021-05-20T10:38:05.000Z</time>
      </trkpt>
      <trkpt lat="47.26729" lon="-2.3303">
        <ele>-3.5999999046326</ele>
        <time>2021-05-20T10:38:09.000Z</time>
      </trkpt>
      <trkpt lat="47.2673" lon="-2.33009">
        <ele>-3.5999999046326</ele>
        <time>2021-05-20T10:38:13.000Z</time>
      </trkpt>
      <trkpt lat="47.26731" lon="-2.33003">
        <ele>-3.5999999046326</ele>
        <time>2021-05-20T10:38:14.000Z</time>
      </trkpt>
      <trkpt lat="47.26743" lon="-2.32971">
        <ele>-3.5999999046326</ele>
        <time>2021-05-20T10:38:19.000Z</time>
      </trkpt>
      <trkpt lat="47.26751" lon="-2.32961">
        <ele>-3.5999999046326</ele>
        <time>2021-05-20T10:38:21.000Z</time>
      </trkpt>
      <trkpt lat="47.26764" lon="-2.32947">
        <ele>-3.5999999046326</ele>
        <time>2021-05-20T10:38:24.000Z</time>
      </trkpt>
      <trkpt lat="47.26786" lon="-2.32924">
        <ele>-3.5999999046326</ele>
        <time>2021-05-20T10:38:29.000Z</time>
      </trkpt>
      <trkpt lat="47.26791" lon="-2.32919">
        <ele>-3.5999999046326</ele>
        <time>2021-05-20T10:38:30.000Z</time>
      </trkpt>
      <trkpt lat="47.26796" lon="-2.32916">
        <ele>-3.5999999046326</ele>
        <time>2021-05-20T10:38:31.000Z</time>
      </trkpt>
      <trkpt lat="47.26816" lon="-2.32902">
        <ele>-3.5999999046326</ele>
        <time>2021-05-20T10:38:35.000Z</time>
      </trkpt>
      <trkpt lat="47.26835" lon="-2.32883">
        <ele>-3.5999999046326</ele>
        <time>2021-05-20T10:38:39.000Z</time>
      </trkpt>
      <trkpt lat="47.2684" lon="-2.3288">
        <ele>-3.5999999046326</ele>
        <time>2021-05-20T10:38:40.000Z</time>
      </trkpt>
      <trkpt lat="47.26855" lon="-2.32874">
        <ele>-3.5999999046326</ele>
        <time>2021-05-20T10:38:43.000Z</time>
      </trkpt>
      <trkpt lat="47.26859" lon="-2.3287">
        <ele>-3.5999999046326</ele>
        <time>2021-05-20T10:38:44.000Z</time>
      </trkpt>
      <trkpt lat="47.2686" lon="-2.32851">
        <ele>-3.5999999046326</ele>
        <time>2021-05-20T10:38:47.000Z</time>
      </trkpt>
      <trkpt lat="47.26855" lon="-2.3284">
        <ele>-3.2000000476837</ele>
        <time>2021-05-20T10:38:49.000Z</time>
      </trkpt>
      <trkpt lat="47.26853" lon="-2.32835">
        <ele>-2.7999999523163</ele>
        <time>2021-05-20T10:38:50.000Z</time>
      </trkpt>
      <trkpt lat="47.26851" lon="-2.3283">
        <ele>-2.4000000953674</ele>
        <time>2021-05-20T10:38:51.000Z</time>
      </trkpt>
      <trkpt lat="47.2685" lon="-2.32824">
        <ele>-2</ele>
        <time>2021-05-20T10:38:52.000Z</time>
      </trkpt>
      <trkpt lat="47.26849" lon="-2.32819">
        <ele>-1</ele>
        <time>2021-05-20T10:38:53.000Z</time>
      </trkpt>
      <trkpt lat="47.26848" lon="-2.32815">
        <ele>-0.40000000596046</ele>
        <time>2021-05-20T10:38:54.000Z</time>
      </trkpt>
      <trkpt lat="47.26846" lon="-2.32811">
        <ele>10.2</ele>
        <time>2021-05-20T10:38:55.000Z</time>
      </trkpt>
      <trkpt lat="47.26845" lon="-2.32807">
        <ele>0.60000002384186</ele>
        <time>2021-05-20T10:38:56.000Z</time>
      </trkpt>
      <trkpt lat="47.26843" lon="-2.32803">
        <ele>1</ele>
        <time>2021-05-20T10:38:57.000Z</time>
      </trkpt>
      <trkpt lat="47.26842" lon="-2.32799">
        <ele>1.3999999761581</ele>
        <time>2021-05-20T10:38:58.000Z</time>
      </trkpt>
      <trkpt lat="47.26841" lon="-2.32794">
        <ele>1.7999999523163</ele>
        <time>2021-05-20T10:38:59.000Z</time>
      </trkpt>
      <trkpt lat="47.26839" lon="-2.3279">
        <ele>2.2000000476837</ele>
        <time>2021-05-20T10:39:00.000Z</time>
      </trkpt>
      <trkpt lat="47.26838" lon="-2.32785">
        <ele>2.5999999046326</ele>
        <time>2021-05-20T10:39:01.000Z</time>
      </trkpt>
      <trkpt lat="47.26836" lon="-2.32781">
        <ele>3.2000000476837</ele>
        <time>2021-05-20T10:39:02.000Z</time>
      </trkpt>
      <trkpt lat="47.26835" lon="-2.32777">
        <ele>3.5999999046326</ele>
        <time>2021-05-20T10:39:03.000Z</time>
      </trkpt>
      <trkpt lat="47.26834" lon="-2.32772">
        <ele>4</ele>
        <time>2021-05-20T10:39:04.000Z</time>
      </trkpt>
      <trkpt lat="47.26833" lon="-2.32768">
        <ele>4.4000000953674</ele>
        <time>2021-05-20T10:39:05.000Z</time>
      </trkpt>
      <trkpt lat="47.26832" lon="-2.32764">
        <ele>4.8000001907349</ele>
        <time>2021-05-20T10:39:06.000Z</time>
      </trkpt>
      <trkpt lat="47.2683" lon="-2.32755">
        <ele>5.4000000953674</ele>
        <time>2021-05-20T10:39:08.000Z</time>
      </trkpt>
      <trkpt lat="47.26828" lon="-2.32751">
        <ele>5.8000001907349</ele>
        <time>2021-05-20T10:39:09.000Z</time>
      </trkpt>
      <trkpt lat="47.26826" lon="-2.32747">
        <ele>6.1999998092651</ele>
        <time>2021-05-20T10:39:10.000Z</time>
      </trkpt>
      <trkpt lat="47.26824" lon="-2.32743">
        <ele>6.5999999046326</ele>
        <time>2021-05-20T10:39:11.000Z</time>
      </trkpt>
      <trkpt lat="47.26822" lon="-2.3274">
        <ele>7</ele>
        <time>2021-05-20T10:39:12.000Z</time>
      </trkpt>
      <trkpt lat="47.26816" lon="-2.32727">
        <ele>7.4000000953674</ele>
        <time>2021-05-20T10:39:15.000Z</time>
      </trkpt>
      <trkpt lat="47.26815" lon="-2.32723">
        <ele>7.8000001907349</ele>
        <time>2021-05-20T10:39:16.000Z</time>
      </trkpt>
      <trkpt lat="47.26813" lon="-2.32718">
        <ele>8.8000001907349</ele>
        <time>2021-05-20T10:39:17.000Z</time>
      </trkpt>
      <trkpt lat="47.26811" lon="-2.32714">
        <ele>9.1999998092651</ele>
        <time>2021-05-20T10:39:18.000Z</time>
      </trkpt>
      <trkpt lat="47.26803" lon="-2.32695">
        <ele>9.1999998092651</ele>
        <time>2021-05-20T10:39:22.000Z</time>
      </trkpt>
      <trkpt lat="47.26802" lon="-2.32673">
        <ele>9.1999998092651</ele>
        <time>2021-05-20T10:39:26.000Z</time>
      </trkpt>
      <trkpt lat="47.26803" lon="-2.32669">
        <ele>9.6000003814697</ele>
        <time>2021-05-20T10:39:27.000Z</time>
      </trkpt>
      <trkpt lat="47.26805" lon="-2.32664">
        <ele>10</ele>
        <time>2021-05-20T10:39:28.000Z</time>
      </trkpt>
      <trkpt lat="47.26807" lon="-2.32658">
        <ele>10.39999961853</ele>
        <time>2021-05-20T10:39:29.000Z</time>
      </trkpt>
      <trkpt lat="47.26808" lon="-2.32652">
        <ele>10.800000190735</ele>
        <time>2021-05-20T10:39:30.000Z</time>
      </trkpt>
      <trkpt lat="47.26809" lon="-2.32644">
        <ele>11.199999809265</ele>
        <time>2021-05-20T10:39:31.000Z</time>
      </trkpt>
      <trkpt lat="47.26806" lon="-2.32624">
        <ele>11.199999809265</ele>
        <time>2021-05-20T10:39:34.000Z</time>
      </trkpt>
      <trkpt lat="47.26804" lon="-2.32609">
        <ele>11.199999809265</ele>
        <time>2021-05-20T10:39:36.000Z</time>
      </trkpt>
      <trkpt lat="47.26798" lon="-2.32571">
        <ele>11.199999809265</ele>
        <time>2021-05-20T10:39:41.000Z</time>
      </trkpt>
      <trkpt lat="47.26798" lon="-2.32556">
        <ele>11.199999809265</ele>
        <time>2021-05-20T10:39:43.000Z</time>
      </trkpt>
      <trkpt lat="47.26794" lon="-2.325">
        <ele>11.199999809265</ele>
        <time>2021-05-20T10:39:51.000Z</time>
      </trkpt>
      <trkpt lat="47.26793" lon="-2.3248">
        <ele>11.199999809265</ele>
        <time>2021-05-20T10:39:54.000Z</time>
      </trkpt>
      <trkpt lat="47.26791" lon="-2.32456">
        <ele>11.199999809265</ele>
        <time>2021-05-20T10:39:58.000Z</time>
      </trkpt>
      <trkpt lat="47.26785" lon="-2.32411">
        <ele>11.199999809265</ele>
        <time>2021-05-20T10:40:05.000Z</time>
      </trkpt>
      <trkpt lat="47.26777" lon="-2.32378">
        <ele>11.199999809265</ele>
        <time>2021-05-20T10:40:11.000Z</time>
      </trkpt>
      <trkpt lat="47.26773" lon="-2.32374">
        <ele>11.199999809265</ele>
        <time>2021-05-20T10:40:12.000Z</time>
      </trkpt>
      <trkpt lat="47.26765" lon="-2.32372">
        <ele>11.199999809265</ele>
        <time>2021-05-20T10:40:14.000Z</time>
      </trkpt>
      <trkpt lat="47.26761" lon="-2.32372">
        <ele>11.60000038147</ele>
        <time>2021-05-20T10:40:15.000Z</time>
      </trkpt>
      <trkpt lat="47.26756" lon="-2.32373">
        <ele>12</ele>
        <time>2021-05-20T10:40:16.000Z</time>
      </trkpt>
      <trkpt lat="47.26752" lon="-2.32374">
        <ele>12.60000038147</ele>
        <time>2021-05-20T10:40:17.000Z</time>
      </trkpt>
      <trkpt lat="47.26748" lon="-2.32376">
        <ele>13</ele>
        <time>2021-05-20T10:40:18.000Z</time>
      </trkpt>
      <trkpt lat="47.26743" lon="-2.32378">
        <ele>13.39999961853</ele>
        <time>2021-05-20T10:40:19.000Z</time>
      </trkpt>
      <trkpt lat="47.26734" lon="-2.32382">
        <ele>13.39999961853</ele>
        <time>2021-05-20T10:40:21.000Z</time>
      </trkpt>
      <trkpt lat="47.26719" lon="-2.32373">
        <ele>13.39999961853</ele>
        <time>2021-05-20T10:40:25.000Z</time>
      </trkpt>
      <trkpt lat="47.26711" lon="-2.32349">
        <ele>13.39999961853</ele>
        <time>2021-05-20T10:40:29.000Z</time>
      </trkpt>
      <trkpt lat="47.26709" lon="-2.32342">
        <ele>13.39999961853</ele>
        <time>2021-05-20T10:40:30.000Z</time>
      </trkpt>
      <trkpt lat="47.26701" lon="-2.32317">
        <ele>13.39999961853</ele>
        <time>2021-05-20T10:40:34.000Z</time>
      </trkpt>
      <trkpt lat="47.26695" lon="-2.32293">
        <ele>13.39999961853</ele>
        <time>2021-05-20T10:40:38.000Z</time>
      </trkpt>
      <trkpt lat="47.26687" lon="-2.32256">
        <ele>13.39999961853</ele>
        <time>2021-05-20T10:40:44.000Z</time>
      </trkpt>
      <trkpt lat="47.26687" lon="-2.3225">
        <ele>13.39999961853</ele>
        <time>2021-05-20T10:40:45.000Z</time>
      </trkpt>
      <trkpt lat="47.26688" lon="-2.32231">
        <ele>13.39999961853</ele>
        <time>2021-05-20T10:40:48.000Z</time>
      </trkpt>
      <trkpt lat="47.2669" lon="-2.32217">
        <ele>13.39999961853</ele>
        <time>2021-05-20T10:40:50.000Z</time>
      </trkpt>
      <trkpt lat="47.26691" lon="-2.32209">
        <ele>13.39999961853</ele>
        <time>2021-05-20T10:40:51.000Z</time>
      </trkpt>
      <trkpt lat="47.26689" lon="-2.32187">
        <ele>13.39999961853</ele>
        <time>2021-05-20T10:40:54.000Z</time>
      </trkpt>
      <trkpt lat="47.26688" lon="-2.3218">
        <ele>13.39999961853</ele>
        <time>2021-05-20T10:40:55.000Z</time>
      </trkpt>
      <trkpt lat="47.26686" lon="-2.32173">
        <ele>13.800000190735</ele>
        <time>2021-05-20T10:40:56.000Z</time>
      </trkpt>
      <trkpt lat="47.26684" lon="-2.32167">
        <ele>14.60000038147</ele>
        <time>2021-05-20T10:40:57.000Z</time>
      </trkpt>
      <trkpt lat="47.26682" lon="-2.3216">
        <ele>15</ele>
        <time>2021-05-20T10:40:58.000Z</time>
      </trkpt>
      <trkpt lat="47.26681" lon="-2.32153">
        <ele>15.39999961853</ele>
        <time>2021-05-20T10:40:59.000Z</time>
      </trkpt>
      <trkpt lat="47.26679" lon="-2.32146">
        <ele>15.39999961853</ele>
        <time>2021-05-20T10:41:00.000Z</time>
      </trkpt>
      <trkpt lat="47.26667" lon="-2.32095">
        <ele>15.39999961853</ele>
        <time>2021-05-20T10:41:07.000Z</time>
      </trkpt>
      <trkpt lat="47.26661" lon="-2.32072">
        <ele>15.39999961853</ele>
        <time>2021-05-20T10:41:10.000Z</time>
      </trkpt>
      <trkpt lat="47.26656" lon="-2.3205">
        <ele>15.39999961853</ele>
        <time>2021-05-20T10:41:13.000Z</time>
      </trkpt>
      <trkpt lat="47.26647" lon="-2.32012">
        <ele>15.39999961853</ele>
        <time>2021-05-20T10:41:19.000Z</time>
      </trkpt>
      <trkpt lat="47.26642" lon="-2.32004">
        <ele>15.39999961853</ele>
        <time>2021-05-20T10:41:21.000Z</time>
      </trkpt>
      <trkpt lat="47.26639" lon="-2.32003">
        <ele>15.800000190735</ele>
        <time>2021-05-20T10:41:22.000Z</time>
      </trkpt>
      <trkpt lat="47.26635" lon="-2.32004">
        <ele>16.200000762939</ele>
        <time>2021-05-20T10:41:23.000Z</time>
      </trkpt>
      <trkpt lat="47.26632" lon="-2.32004">
        <ele>16.60000038147</ele>
        <time>2021-05-20T10:41:24.000Z</time>
      </trkpt>
      <trkpt lat="47.26629" lon="-2.32006">
        <ele>17</ele>
        <time>2021-05-20T10:41:25.000Z</time>
      </trkpt>
      <trkpt lat="47.26625" lon="-2.32009">
        <ele>17.39999961853</ele>
        <time>2021-05-20T10:41:26.000Z</time>
      </trkpt>
      <trkpt lat="47.26593" lon="-2.32022">
        <ele>17.39999961853</ele>
        <time>2021-05-20T10:41:33.000Z</time>
      </trkpt>
      <trkpt lat="47.26573" lon="-2.3203">
        <ele>17</ele>
        <time>2021-05-20T10:41:37.000Z</time>
      </trkpt>
      <trkpt lat="47.26568" lon="-2.32033">
        <ele>16.60000038147</ele>
        <time>2021-05-20T10:41:38.000Z</time>
      </trkpt>
      <trkpt lat="47.26563" lon="-2.32035">
        <ele>16.200000762939</ele>
        <time>2021-05-20T10:41:39.000Z</time>
      </trkpt>
      <trkpt lat="47.26557" lon="-2.32037">
        <ele>15.800000190735</ele>
        <time>2021-05-20T10:41:40.000Z</time>
      </trkpt>
      <trkpt lat="47.26552" lon="-2.32038">
        <ele>15.39999961853</ele>
        <time>2021-05-20T10:41:41.000Z</time>
      </trkpt>
      <trkpt lat="47.26544" lon="-2.32041">
        <ele>15.39999961853</ele>
        <time>2021-05-20T10:41:43.000Z</time>
      </trkpt>
      <trkpt lat="47.26542" lon="-2.3204">
        <ele>15.39999961853</ele>
        <time>2021-05-20T10:41:44.000Z</time>
      </trkpt>
      <trkpt lat="47.26541" lon="-2.32038">
        <ele>14.800000190735</ele>
        <time>2021-05-20T10:41:45.000Z</time>
      </trkpt>
      <trkpt lat="47.26539" lon="-2.32036">
        <ele>14.199999809265</ele>
        <time>2021-05-20T10:41:46.000Z</time>
      </trkpt>
      <trkpt lat="47.26539" lon="-2.32032">
        <ele>13</ele>
        <time>2021-05-20T10:41:47.000Z</time>
      </trkpt>
      <trkpt lat="47.26538" lon="-2.32028">
        <ele>12.60000038147</ele>
        <time>2021-05-20T10:41:48.000Z</time>
      </trkpt>
      <trkpt lat="47.26536" lon="-2.32021">
        <ele>12.60000038147</ele>
        <time>2021-05-20T10:41:50.000Z</time>
      </trkpt>
      <trkpt lat="47.26524" lon="-2.32005">
        <ele>12.60000038147</ele>
        <time>2021-05-20T10:41:55.000Z</time>
      </trkpt>
      <trkpt lat="47.26518" lon="-2.32003">
        <ele>12</ele>
        <time>2021-05-20T10:41:57.000Z</time>
      </trkpt>
      <trkpt lat="47.26515" lon="-2.32003">
        <ele>11.60000038147</ele>
        <time>2021-05-20T10:41:58.000Z</time>
      </trkpt>
      <trkpt lat="47.26512" lon="-2.32003">
        <ele>11.199999809265</ele>
        <time>2021-05-20T10:41:59.000Z</time>
      </trkpt>
      <trkpt lat="47.26508" lon="-2.32004">
        <ele>10.800000190735</ele>
        <time>2021-05-20T10:42:00.000Z</time>
      </trkpt>
      <trkpt lat="47.26504" lon="-2.32004">
        <ele>10.199999809265</ele>
        <time>2021-05-20T10:42:01.000Z</time>
      </trkpt>
      <trkpt lat="47.26499" lon="-2.32005">
        <ele>10.199999809265</ele>
        <time>2021-05-20T10:42:02.000Z</time>
      </trkpt>
      <trkpt lat="47.26495" lon="-2.32005">
        <ele>10.199999809265</ele>
        <time>2021-05-20T10:42:03.000Z</time>
      </trkpt>
      <trkpt lat="47.26473" lon="-2.32006">
        <ele>9.8000001907349</ele>
        <time>2021-05-20T10:42:07.000Z</time>
      </trkpt>
      <trkpt lat="47.26466" lon="-2.32006">
        <ele>9.3999996185303</ele>
        <time>2021-05-20T10:42:08.000Z</time>
      </trkpt>
      <trkpt lat="47.2646" lon="-2.32005">
        <ele>9</ele>
        <time>2021-05-20T10:42:09.000Z</time>
      </trkpt>
      <trkpt lat="47.26453" lon="-2.32003">
        <ele>8.6000003814697</ele>
        <time>2021-05-20T10:42:10.000Z</time>
      </trkpt>
      <trkpt lat="47.26447" lon="-2.32003">
        <ele>7.8000001907349</ele>
        <time>2021-05-20T10:42:11.000Z</time>
      </trkpt>
      <trkpt lat="47.26441" lon="-2.32003">
        <ele>7.4000000953674</ele>
        <time>2021-05-20T10:42:12.000Z</time>
      </trkpt>
      <trkpt lat="47.26434" lon="-2.32003">
        <ele>7</ele>
        <time>2021-05-20T10:42:13.000Z</time>
      </trkpt>
      <trkpt lat="47.26428" lon="-2.32002">
        <ele>6.5999999046326</ele>
        <time>2021-05-20T10:42:14.000Z</time>
      </trkpt>
      <trkpt lat="47.26421" lon="-2.32001">
        <ele>6.1999998092651</ele>
        <time>2021-05-20T10:42:15.000Z</time>
      </trkpt>
      <trkpt lat="47.26409" lon="-2.31998">
        <ele>5.8000001907349</ele>
        <time>2021-05-20T10:42:17.000Z</time>
      </trkpt>
      <trkpt lat="47.26403" lon="-2.31997">
        <ele>5.4000000953674</ele>
        <time>2021-05-20T10:42:18.000Z</time>
      </trkpt>
      <trkpt lat="47.26398" lon="-2.31996">
        <ele>4.8000001907349</ele>
        <time>2021-05-20T10:42:19.000Z</time>
      </trkpt>
      <trkpt lat="47.26393" lon="-2.31995">
        <ele>4.4000000953674</ele>
        <time>2021-05-20T10:42:20.000Z</time>
      </trkpt>
      <trkpt lat="47.26387" lon="-2.31995">
        <ele>3.7999999523163</ele>
        <time>2021-05-20T10:42:21.000Z</time>
      </trkpt>
      <trkpt lat="47.26382" lon="-2.31994">
        <ele>3.4000000953674</ele>
        <time>2021-05-20T10:42:22.000Z</time>
      </trkpt>
      <trkpt lat="47.26376" lon="-2.31992">
        <ele>2.7999999523163</ele>
        <time>2021-05-20T10:42:23.000Z</time>
      </trkpt>
      <trkpt lat="47.26371" lon="-2.3199">
        <ele>2.2000000476837</ele>
        <time>2021-05-20T10:42:24.000Z</time>
      </trkpt>
      <trkpt lat="47.26367" lon="-2.31985">
        <ele>1.6000000238419</ele>
        <time>2021-05-20T10:42:25.000Z</time>
      </trkpt>
      <trkpt lat="47.2636" lon="-2.31971">
        <ele>1.6000000238419</ele>
        <time>2021-05-20T10:42:27.000Z</time>
      </trkpt>
      <trkpt lat="47.26354" lon="-2.31956">
        <ele>1.2000000476837</ele>
        <time>2021-05-20T10:42:29.000Z</time>
      </trkpt>
      <trkpt lat="47.26351" lon="-2.31948">
        <ele>0.80000001192093</ele>
        <time>2021-05-20T10:42:30.000Z</time>
      </trkpt>
      <trkpt lat="47.26346" lon="-2.31944">
        <ele>0.40000000596046</ele>
        <time>2021-05-20T10:42:31.000Z</time>
      </trkpt>
      <trkpt lat="47.26342" lon="-2.31942">
        <ele>-0.20000000298023</ele>
        <time>2021-05-20T10:42:32.000Z</time>
      </trkpt>
      <trkpt lat="47.26337" lon="-2.31941">
        <ele>-0.60000002384186</ele>
        <time>2021-05-20T10:42:33.000Z</time>
      </trkpt>
      <trkpt lat="47.26333" lon="-2.3194">
        <ele>-0.60000002384186</ele>
        <time>2021-05-20T10:42:34.000Z</time>
      </trkpt>
      <trkpt lat="47.26329" lon="-2.3194">
        <ele>-0.60000002384186</ele>
        <time>2021-05-20T10:42:35.000Z</time>
      </trkpt>
      <trkpt lat="47.26316" lon="-2.31939">
        <ele>-0.60000002384186</ele>
        <time>2021-05-20T10:42:39.000Z</time>
      </trkpt>
      <trkpt lat="47.26313" lon="-2.31936">
        <ele>-0.60000002384186</ele>
        <time>2021-05-20T10:42:40.000Z</time>
      </trkpt>
      <trkpt lat="47.26307" lon="-2.31914">
        <ele>-0.60000002384186</ele>
        <time>2021-05-20T10:42:45.000Z</time>
      </trkpt>
      <trkpt lat="47.26304" lon="-2.31872">
        <ele>-0.60000002384186</ele>
        <time>2021-05-20T10:42:50.000Z</time>
      </trkpt>
      <trkpt lat="47.26303" lon="-2.31863">
        <ele>-0.60000002384186</ele>
        <time>2021-05-20T10:42:51.000Z</time>
      </trkpt>
      <trkpt lat="47.26303" lon="-2.31846">
        <ele>-0.60000002384186</ele>
        <time>2021-05-20T10:42:53.000Z</time>
      </trkpt>
      <trkpt lat="47.26304" lon="-2.3183">
        <ele>-0.60000002384186</ele>
        <time>2021-05-20T10:42:55.000Z</time>
      </trkpt>
      <trkpt lat="47.26305" lon="-2.31799">
        <ele>-1</ele>
        <time>2021-05-20T10:42:59.000Z</time>
      </trkpt>
      <trkpt lat="47.26304" lon="-2.31791">
        <ele>-1.3999999761581</ele>
        <time>2021-05-20T10:43:00.000Z</time>
      </trkpt>
      <trkpt lat="47.26304" lon="-2.31784">
        <ele>-2.2000000476837</ele>
        <time>2021-05-20T10:43:01.000Z</time>
      </trkpt>
      <trkpt lat="47.26303" lon="-2.31776">
        <ele>-2.5999999046326</ele>
        <time>2021-05-20T10:43:02.000Z</time>
      </trkpt>
      <trkpt lat="47.26301" lon="-2.31761">
        <ele>-2.5999999046326</ele>
        <time>2021-05-20T10:43:04.000Z</time>
      </trkpt>
      <trkpt lat="47.26298" lon="-2.31741">
        <ele>-2.5999999046326</ele>
        <time>2021-05-20T10:43:07.000Z</time>
      </trkpt>
      <trkpt lat="47.26305" lon="-2.31725">
        <ele>-2.5999999046326</ele>
        <time>2021-05-20T10:43:10.000Z</time>
      </trkpt>
      <trkpt lat="47.26314" lon="-2.31718">
        <ele>-2.5999999046326</ele>
        <time>2021-05-20T10:43:12.000Z</time>
      </trkpt>
      <trkpt lat="47.26323" lon="-2.31713">
        <ele>-2.5999999046326</ele>
        <time>2021-05-20T10:43:14.000Z</time>
      </trkpt>
      <trkpt lat="47.26344" lon="-2.31701">
        <ele>-2.5999999046326</ele>
        <time>2021-05-20T10:43:18.000Z</time>
      </trkpt>
      <trkpt lat="47.26348" lon="-2.31697">
        <ele>-2.5999999046326</ele>
        <time>2021-05-20T10:43:19.000Z</time>
      </trkpt>
      <trkpt lat="47.26353" lon="-2.31694">
        <ele>-2.2000000476837</ele>
        <time>2021-05-20T10:43:20.000Z</time>
      </trkpt>
      <trkpt lat="47.26358" lon="-2.31691">
        <ele>-1.7999999523163</ele>
        <time>2021-05-20T10:43:21.000Z</time>
      </trkpt>
      <trkpt lat="47.26363" lon="-2.31688">
        <ele>-1.2000000476837</ele>
        <time>2021-05-20T10:43:22.000Z</time>
      </trkpt>
      <trkpt lat="47.26368" lon="-2.31685">
        <ele>-0.80000001192093</ele>
        <time>2021-05-20T10:43:23.000Z</time>
      </trkpt>
      <trkpt lat="47.26373" lon="-2.31681">
        <ele>-0.40000000596046</ele>
        <time>2021-05-20T10:43:24.000Z</time>
      </trkpt>
      <trkpt lat="47.26382" lon="-2.31675">
        <ele>-0.40000000596046</ele>
        <time>2021-05-20T10:43:26.000Z</time>
      </trkpt>
      <trkpt lat="47.2639" lon="-2.31671">
        <ele>-0.40000000596046</ele>
        <time>2021-05-20T10:43:28.000Z</time>
      </trkpt>
      <trkpt lat="47.26403" lon="-2.31665">
        <ele>-0.40000000596046</ele>
        <time>2021-05-20T10:43:31.000Z</time>
      </trkpt>
      <trkpt lat="47.26406" lon="-2.31661">
        <ele>-0.40000000596046</ele>
        <time>2021-05-20T10:43:32.000Z</time>
      </trkpt>
      <trkpt lat="47.2641" lon="-2.31644">
        <ele>-0.40000000596046</ele>
        <time>2021-05-20T10:43:35.000Z</time>
      </trkpt>
      <trkpt lat="47.2641" lon="-2.31632">
        <ele>9.2</ele>
        <time>2021-05-20T10:43:37.000Z</time>
      </trkpt>
      <trkpt lat="47.2641" lon="-2.31627">
        <ele>0.40000000596046</ele>
        <time>2021-05-20T10:43:38.000Z</time>
      </trkpt>
      <trkpt lat="47.2641" lon="-2.31622">
        <ele>0.80000001192093</ele>
        <time>2021-05-20T10:43:39.000Z</time>
      </trkpt>
      <trkpt lat="47.2641" lon="-2.31616">
        <ele>1.2000000476837</ele>
        <time>2021-05-20T10:43:40.000Z</time>
      </trkpt>
      <trkpt lat="47.2641" lon="-2.31611">
        <ele>1.7999999523163</ele>
        <time>2021-05-20T10:43:41.000Z</time>
      </trkpt>
      <trkpt lat="47.26409" lon="-2.31566">
        <ele>1.7999999523163</ele>
        <time>2021-05-20T10:43:49.000Z</time>
      </trkpt>
      <trkpt lat="47.2641" lon="-2.31554">
        <ele>1.7999999523163</ele>
        <time>2021-05-20T10:43:52.000Z</time>
      </trkpt>
      <trkpt lat="47.26412" lon="-2.31554">
        <ele>1.7999999523163</ele>
        <time>2021-05-20T10:43:53.000Z</time>
      </trkpt>
      <trkpt lat="47.26416" lon="-2.31553">
        <ele>1.7999999523163</ele>
        <time>2021-05-20T10:43:57.000Z</time>
      </trkpt>
    </trkseg>
  </trk>
</gpx>